<?xml version="1.0" encoding="UTF-8" standalone="no" ?>
<gpx xmlns="http://www.topografix.com/GPX/1/1" xmlns:xsi="http://www.w3.org/2001/XMLSchema-instance" xsi:schemaLocation="http://www.topografix.com/GPX/1/1 http://www.topografix.com/GPX/1/1/gpx.xsd" version="1.1" creator="VisuGPX - https://www.visugpx.com">
  <metadata>
    <name>A-STP_02-Plouarzel-Ploemeur</name>
  </metadata>
  <trk>
    <name><![CDATA[A-STP_02-Plouarzel-Ploemeur]]></name>
    <trkseg>
      <trkpt lat="48.41491" lon="-4.79372">
        <ele>30.080223</ele>
        <time>2022-06-09T10:43:14.722Z</time>
      </trkpt>
      <trkpt lat="48.41498" lon="-4.79371">
        <ele>30.080223</ele>
        <time>2022-06-09T10:43:16.625Z</time>
      </trkpt>
      <trkpt lat="48.41543" lon="-4.7936">
        <ele>30.080223</ele>
        <time>2022-06-09T10:43:30.411Z</time>
      </trkpt>
      <trkpt lat="48.41566" lon="-4.79324">
        <ele>30.080223</ele>
        <time>2022-06-09T10:43:40.475Z</time>
      </trkpt>
      <trkpt lat="48.41596" lon="-4.79275">
        <ele>30.24374</ele>
        <time>2022-06-09T10:43:53.481Z</time>
      </trkpt>
      <trkpt lat="48.41707" lon="-4.79207">
        <ele>30.734163</ele>
        <time>2022-06-09T10:44:34.046Z</time>
      </trkpt>
      <trkpt lat="48.41723" lon="-4.79175">
        <ele>31.025803</ele>
        <time>2022-06-09T10:44:44.642Z</time>
      </trkpt>
      <trkpt lat="48.41736" lon="-4.79124">
        <ele>32.025093</ele>
        <time>2022-06-09T10:44:59.915Z</time>
      </trkpt>
      <trkpt lat="48.41739" lon="-4.79109">
        <ele>32.321745</ele>
        <time>2022-06-09T10:45:07.286Z</time>
      </trkpt>
      <trkpt lat="48.41739" lon="-4.79109">
        <ele>32.321745</ele>
        <time>2022-06-09T10:45:07.326Z</time>
      </trkpt>
      <trkpt lat="48.41735" lon="-4.79094">
        <ele>32.612175</ele>
        <time>2022-06-09T10:45:11.904Z</time>
      </trkpt>
      <trkpt lat="48.41734" lon="-4.79091">
        <ele>32.687884</ele>
        <time>2022-06-09T10:45:13.137Z</time>
      </trkpt>
      <trkpt lat="48.41705" lon="-4.78997">
        <ele>34.599253</ele>
        <time>2022-06-09T10:45:46.847Z</time>
      </trkpt>
      <trkpt lat="48.41719" lon="-4.78881">
        <ele>36.260054</ele>
        <time>2022-06-09T10:46:25.386Z</time>
      </trkpt>
      <trkpt lat="48.41728" lon="-4.7878">
        <ele>37.109897</ele>
        <time>2022-06-09T10:46:45.257Z</time>
      </trkpt>
      <trkpt lat="48.41754" lon="-4.78721">
        <ele>37.70282</ele>
        <time>2022-06-09T10:46:56.025Z</time>
      </trkpt>
      <trkpt lat="48.41754" lon="-4.78721">
        <ele>37.704488</ele>
        <time>2022-06-09T10:46:56.044Z</time>
      </trkpt>
      <trkpt lat="48.41766" lon="-4.78674">
        <ele>38.055217</ele>
        <time>2022-06-09T10:47:02.486Z</time>
      </trkpt>
      <trkpt lat="48.41839" lon="-4.78696">
        <ele>36.33024</ele>
        <time>2022-06-09T10:47:14.170Z</time>
      </trkpt>
      <trkpt lat="48.41849" lon="-4.786">
        <ele>34.845817</ele>
        <time>2022-06-09T10:47:23.430Z</time>
      </trkpt>
      <trkpt lat="48.41862" lon="-4.78565">
        <ele>34.222234</ele>
        <time>2022-06-09T10:47:27.290Z</time>
      </trkpt>
      <trkpt lat="48.41901" lon="-4.78559">
        <ele>33.377577</ele>
        <time>2022-06-09T10:47:32.948Z</time>
      </trkpt>
      <trkpt lat="48.41939" lon="-4.78534">
        <ele>32.527105</ele>
        <time>2022-06-09T10:47:38.896Z</time>
      </trkpt>
      <trkpt lat="48.41993" lon="-4.78503">
        <ele>31.327722</ele>
        <time>2022-06-09T10:47:47.482Z</time>
      </trkpt>
      <trkpt lat="48.42105" lon="-4.78438">
        <ele>31.67374</ele>
        <time>2022-06-09T10:48:09.121Z</time>
      </trkpt>
      <trkpt lat="48.4215" lon="-4.78414">
        <ele>32.762623</ele>
        <time>2022-06-09T10:48:23.807Z</time>
      </trkpt>
      <trkpt lat="48.42175" lon="-4.78392">
        <ele>33.42019</ele>
        <time>2022-06-09T10:48:34.965Z</time>
      </trkpt>
      <trkpt lat="48.42181" lon="-4.78388">
        <ele>33.577745</ele>
        <time>2022-06-09T10:48:38.079Z</time>
      </trkpt>
      <trkpt lat="48.42136" lon="-4.78256">
        <ele>37.710875</ele>
        <time>2022-06-09T10:49:36.989Z</time>
      </trkpt>
      <trkpt lat="48.4213" lon="-4.78178">
        <ele>40.381293</ele>
        <time>2022-06-09T10:50:09.538Z</time>
      </trkpt>
      <trkpt lat="48.42132" lon="-4.78114">
        <ele>42.521048</ele>
        <time>2022-06-09T10:50:33.285Z</time>
      </trkpt>
      <trkpt lat="48.42136" lon="-4.78022">
        <ele>44.01243</ele>
        <time>2022-06-09T10:51:03.862Z</time>
      </trkpt>
      <trkpt lat="48.42151" lon="-4.77926">
        <ele>44.934479</ele>
        <time>2022-06-09T10:51:29.402Z</time>
      </trkpt>
      <trkpt lat="48.422" lon="-4.77731">
        <ele>45.675796</ele>
        <time>2022-06-09T10:52:11.619Z</time>
      </trkpt>
      <trkpt lat="48.422" lon="-4.77709">
        <ele>45.625274</ele>
        <time>2022-06-09T10:52:15.784Z</time>
      </trkpt>
      <trkpt lat="48.42203" lon="-4.77612">
        <ele>45.394019</ele>
        <time>2022-06-09T10:52:27.276Z</time>
      </trkpt>
      <trkpt lat="48.42203" lon="-4.77423">
        <ele>45.25185</ele>
        <time>2022-06-09T10:52:51.667Z</time>
      </trkpt>
      <trkpt lat="48.42192" lon="-4.77197">
        <ele>45.299789</ele>
        <time>2022-06-09T10:53:20.304Z</time>
      </trkpt>
      <trkpt lat="48.42191" lon="-4.7718">
        <ele>45.312451</ele>
        <time>2022-06-09T10:53:22.257Z</time>
      </trkpt>
      <trkpt lat="48.42195" lon="-4.77132">
        <ele>45.347882</ele>
        <time>2022-06-09T10:53:28.198Z</time>
      </trkpt>
      <trkpt lat="48.42218" lon="-4.76964">
        <ele>46.036169</ele>
        <time>2022-06-09T10:53:52.846Z</time>
      </trkpt>
      <trkpt lat="48.42223" lon="-4.76894">
        <ele>46.724385</ele>
        <time>2022-06-09T10:54:04.609Z</time>
      </trkpt>
      <trkpt lat="48.42217" lon="-4.76703">
        <ele>48.495489</ele>
        <time>2022-06-09T10:54:42.607Z</time>
      </trkpt>
      <trkpt lat="48.42215" lon="-4.76599">
        <ele>49.285878</ele>
        <time>2022-06-09T10:55:01.938Z</time>
      </trkpt>
      <trkpt lat="48.42124" lon="-4.76662">
        <ele>49.523396</ele>
        <time>2022-06-09T10:55:24.091Z</time>
      </trkpt>
      <trkpt lat="48.42098" lon="-4.76667">
        <ele>48.832301</ele>
        <time>2022-06-09T10:55:28.722Z</time>
      </trkpt>
      <trkpt lat="48.42074" lon="-4.76645">
        <ele>48.063648</ele>
        <time>2022-06-09T10:55:33.423Z</time>
      </trkpt>
      <trkpt lat="48.42019" lon="-4.76568">
        <ele>46.066345</ele>
        <time>2022-06-09T10:55:44.439Z</time>
      </trkpt>
      <trkpt lat="48.41992" lon="-4.76545">
        <ele>45.223844</ele>
        <time>2022-06-09T10:55:48.841Z</time>
      </trkpt>
      <trkpt lat="48.41926" lon="-4.76511">
        <ele>43.0244</ele>
        <time>2022-06-09T10:55:58.949Z</time>
      </trkpt>
      <trkpt lat="48.4187" lon="-4.76487">
        <ele>41.213226</ele>
        <time>2022-06-09T10:56:07.382Z</time>
      </trkpt>
      <trkpt lat="48.41789" lon="-4.76251">
        <ele>41.364465</ele>
        <time>2022-06-09T10:56:43.093Z</time>
      </trkpt>
      <trkpt lat="48.41785" lon="-4.7624">
        <ele>41.464102</ele>
        <time>2022-06-09T10:56:46.732Z</time>
      </trkpt>
      <trkpt lat="48.41785" lon="-4.76239">
        <ele>41.482081</ele>
        <time>2022-06-09T10:56:47.386Z</time>
      </trkpt>
      <trkpt lat="48.41714" lon="-4.7601">
        <ele>46.811081</ele>
        <time>2022-06-09T10:57:58.444Z</time>
      </trkpt>
      <trkpt lat="48.41692" lon="-4.75924">
        <ele>49.010634</ele>
        <time>2022-06-09T10:58:20.621Z</time>
      </trkpt>
      <trkpt lat="48.41684" lon="-4.75833">
        <ele>50.087109</ele>
        <time>2022-06-09T10:58:39.203Z</time>
      </trkpt>
      <trkpt lat="48.41684" lon="-4.75833">
        <ele>50.089238</ele>
        <time>2022-06-09T10:58:39.339Z</time>
      </trkpt>
      <trkpt lat="48.41668" lon="-4.75762">
        <ele>50.967274</ele>
        <time>2022-06-09T10:58:51.946Z</time>
      </trkpt>
      <trkpt lat="48.41606" lon="-4.75318">
        <ele>56.366293</ele>
        <time>2022-06-09T11:00:13.998Z</time>
      </trkpt>
      <trkpt lat="48.41628" lon="-4.7492">
        <ele>65.12422</ele>
        <time>2022-06-09T11:01:56.936Z</time>
      </trkpt>
      <trkpt lat="48.41635" lon="-4.74886">
        <ele>65.98377</ele>
        <time>2022-06-09T11:02:06.497Z</time>
      </trkpt>
      <trkpt lat="48.41657" lon="-4.74765">
        <ele>67.663608</ele>
        <time>2022-06-09T11:02:35.766Z</time>
      </trkpt>
      <trkpt lat="48.41583" lon="-4.7476">
        <ele>68.939047</ele>
        <time>2022-06-09T11:02:57.915Z</time>
      </trkpt>
      <trkpt lat="48.41417" lon="-4.74663">
        <ele>68.797946</ele>
        <time>2022-06-09T11:03:29.917Z</time>
      </trkpt>
      <trkpt lat="48.41322" lon="-4.74659">
        <ele>69.080815</ele>
        <time>2022-06-09T11:03:49.043Z</time>
      </trkpt>
      <trkpt lat="48.41323" lon="-4.74511">
        <ele>69.903621</ele>
        <time>2022-06-09T11:04:14.256Z</time>
      </trkpt>
      <trkpt lat="48.41326" lon="-4.74308">
        <ele>71.484181</ele>
        <time>2022-06-09T11:05:10.457Z</time>
      </trkpt>
      <trkpt lat="48.41303" lon="-4.73944">
        <ele>72.269984</ele>
        <time>2022-06-09T11:06:30.686Z</time>
      </trkpt>
      <trkpt lat="48.41315" lon="-4.73726">
        <ele>69.64704</ele>
        <time>2022-06-09T11:07:10.791Z</time>
      </trkpt>
      <trkpt lat="48.41304" lon="-4.73602">
        <ele>68.12393</ele>
        <time>2022-06-09T11:07:32.442Z</time>
      </trkpt>
      <trkpt lat="48.41288" lon="-4.7352">
        <ele>67.114124</ele>
        <time>2022-06-09T11:07:47.715Z</time>
      </trkpt>
      <trkpt lat="48.41275" lon="-4.73464">
        <ele>66.422304</ele>
        <time>2022-06-09T11:07:58.546Z</time>
      </trkpt>
      <trkpt lat="48.41269" lon="-4.73455">
        <ele>66.270989</ele>
        <time>2022-06-09T11:08:00.794Z</time>
      </trkpt>
      <trkpt lat="48.41315" lon="-4.7343">
        <ele>65.958264</ele>
        <time>2022-06-09T11:08:16.064Z</time>
      </trkpt>
      <trkpt lat="48.4139" lon="-4.73425">
        <ele>67.465698</ele>
        <time>2022-06-09T11:08:43.835Z</time>
      </trkpt>
      <trkpt lat="48.41408" lon="-4.73419">
        <ele>67.83146</ele>
        <time>2022-06-09T11:08:51.529Z</time>
      </trkpt>
      <trkpt lat="48.4144" lon="-4.73384">
        <ele>68.627957</ele>
        <time>2022-06-09T11:09:09.844Z</time>
      </trkpt>
      <trkpt lat="48.41474" lon="-4.73335">
        <ele>69.884051</ele>
        <time>2022-06-09T11:09:35.200Z</time>
      </trkpt>
      <trkpt lat="48.41548" lon="-4.7328">
        <ele>73.267418</ele>
        <time>2022-06-09T11:10:22.222Z</time>
      </trkpt>
      <trkpt lat="48.41568" lon="-4.73234">
        <ele>74.731735</ele>
        <time>2022-06-09T11:10:40.508Z</time>
      </trkpt>
      <trkpt lat="48.41596" lon="-4.73203">
        <ele>76.155821</ele>
        <time>2022-06-09T11:10:53.490Z</time>
      </trkpt>
      <trkpt lat="48.41622" lon="-4.73147">
        <ele>77.357412</ele>
        <time>2022-06-09T11:11:09.661Z</time>
      </trkpt>
      <trkpt lat="48.41624" lon="-4.73102">
        <ele>78.010218</ele>
        <time>2022-06-09T11:11:20.093Z</time>
      </trkpt>
      <trkpt lat="48.41616" lon="-4.72995">
        <ele>79.575654</ele>
        <time>2022-06-09T11:11:41.859Z</time>
      </trkpt>
      <trkpt lat="48.41619" lon="-4.72917">
        <ele>80.649805</ele>
        <time>2022-06-09T11:11:54.693Z</time>
      </trkpt>
      <trkpt lat="48.41635" lon="-4.72626">
        <ele>83.498621</ele>
        <time>2022-06-09T11:13:09.968Z</time>
      </trkpt>
      <trkpt lat="48.41639" lon="-4.72599">
        <ele>83.837766</ele>
        <time>2022-06-09T11:13:18.039Z</time>
      </trkpt>
      <trkpt lat="48.41675" lon="-4.72478">
        <ele>85.462054</ele>
        <time>2022-06-09T11:13:53.680Z</time>
      </trkpt>
      <trkpt lat="48.41697" lon="-4.72363">
        <ele>86.908978</ele>
        <time>2022-06-09T11:14:27.922Z</time>
      </trkpt>
      <trkpt lat="48.41704" lon="-4.72313">
        <ele>87.495332</ele>
        <time>2022-06-09T11:14:41.333Z</time>
      </trkpt>
      <trkpt lat="48.41704" lon="-4.72272">
        <ele>87.975125</ele>
        <time>2022-06-09T11:14:52.351Z</time>
      </trkpt>
      <trkpt lat="48.41697" lon="-4.72231">
        <ele>88.464559</ele>
        <time>2022-06-09T11:15:03.796Z</time>
      </trkpt>
      <trkpt lat="48.41698" lon="-4.71959">
        <ele>91.466251</ele>
        <time>2022-06-09T11:16:15.192Z</time>
      </trkpt>
      <trkpt lat="48.41674" lon="-4.71788">
        <ele>93.312243</ele>
        <time>2022-06-09T11:17:01.740Z</time>
      </trkpt>
      <trkpt lat="48.41672" lon="-4.71748">
        <ele>93.73252</ele>
        <time>2022-06-09T11:17:12.719Z</time>
      </trkpt>
      <trkpt lat="48.41678" lon="-4.71601">
        <ele>95.256159</ele>
        <time>2022-06-09T11:17:51.982Z</time>
      </trkpt>
      <trkpt lat="48.41668" lon="-4.71475">
        <ele>95.538256</ele>
        <time>2022-06-09T11:18:21.739Z</time>
      </trkpt>
      <trkpt lat="48.41669" lon="-4.71444">
        <ele>95.59869</ele>
        <time>2022-06-09T11:18:28.497Z</time>
      </trkpt>
      <trkpt lat="48.41676" lon="-4.71432">
        <ele>95.628191</ele>
        <time>2022-06-09T11:18:31.664Z</time>
      </trkpt>
      <trkpt lat="48.41735" lon="-4.71436">
        <ele>95.801154</ele>
        <time>2022-06-09T11:18:43.247Z</time>
      </trkpt>
      <trkpt lat="48.41742" lon="-4.71437">
        <ele>95.821934</ele>
        <time>2022-06-09T11:18:44.432Z</time>
      </trkpt>
      <trkpt lat="48.41813" lon="-4.71315">
        <ele>96.183294</ele>
        <time>2022-06-09T11:19:04.534Z</time>
      </trkpt>
      <trkpt lat="48.41817" lon="-4.71229">
        <ele>96.374518</ele>
        <time>2022-06-09T11:19:18.938Z</time>
      </trkpt>
      <trkpt lat="48.41812" lon="-4.71158">
        <ele>97.819945</ele>
        <time>2022-06-09T11:19:32.636Z</time>
      </trkpt>
      <trkpt lat="48.41798" lon="-4.71103">
        <ele>99.607622</ele>
        <time>2022-06-09T11:19:48.612Z</time>
      </trkpt>
      <trkpt lat="48.41781" lon="-4.7108">
        <ele>100.62622</ele>
        <time>2022-06-09T11:19:58.725Z</time>
      </trkpt>
      <trkpt lat="48.41805" lon="-4.71047">
        <ele>102.0978</ele>
        <time>2022-06-09T11:20:13.764Z</time>
      </trkpt>
      <trkpt lat="48.41829" lon="-4.70999">
        <ele>103.894805</ele>
        <time>2022-06-09T11:20:33.519Z</time>
      </trkpt>
      <trkpt lat="48.4182" lon="-4.70919">
        <ele>107.22001</ele>
        <time>2022-06-09T11:21:08.866Z</time>
      </trkpt>
      <trkpt lat="48.41818" lon="-4.70831">
        <ele>111.2428</ele>
        <time>2022-06-09T11:21:48.207Z</time>
      </trkpt>
      <trkpt lat="48.41821" lon="-4.70781">
        <ele>113.506355</ele>
        <time>2022-06-09T11:22:11.305Z</time>
      </trkpt>
      <trkpt lat="48.41831" lon="-4.70735">
        <ele>115.71218</ele>
        <time>2022-06-09T11:22:34.608Z</time>
      </trkpt>
      <trkpt lat="48.41803" lon="-4.70502">
        <ele>124.317459</ele>
        <time>2022-06-09T11:24:08.041Z</time>
      </trkpt>
      <trkpt lat="48.41834" lon="-4.70454">
        <ele>126.565423</ele>
        <time>2022-06-09T11:24:31.396Z</time>
      </trkpt>
      <trkpt lat="48.41825" lon="-4.70412">
        <ele>127.468886</ele>
        <time>2022-06-09T11:24:46.750Z</time>
      </trkpt>
      <trkpt lat="48.41786" lon="-4.70304">
        <ele>129.930808</ele>
        <time>2022-06-09T11:25:25.266Z</time>
      </trkpt>
      <trkpt lat="48.41751" lon="-4.70153">
        <ele>132.567623</ele>
        <time>2022-06-09T11:26:10.698Z</time>
      </trkpt>
      <trkpt lat="48.41744" lon="-4.70119">
        <ele>132.963889</ele>
        <time>2022-06-09T11:26:20.334Z</time>
      </trkpt>
      <trkpt lat="48.41745" lon="-4.70096">
        <ele>133.226199</ele>
        <time>2022-06-09T11:26:26.941Z</time>
      </trkpt>
      <trkpt lat="48.41763" lon="-4.70009">
        <ele>134.237342</ele>
        <time>2022-06-09T11:26:51.067Z</time>
      </trkpt>
      <trkpt lat="48.41765" lon="-4.69976">
        <ele>134.605355</ele>
        <time>2022-06-09T11:26:59.405Z</time>
      </trkpt>
      <trkpt lat="48.41727" lon="-4.69854">
        <ele>135.167656</ele>
        <time>2022-06-09T11:27:30.732Z</time>
      </trkpt>
      <trkpt lat="48.41706" lon="-4.69765">
        <ele>135.4168</ele>
        <time>2022-06-09T11:27:51.242Z</time>
      </trkpt>
      <trkpt lat="48.41703" lon="-4.69721">
        <ele>135.531457</ele>
        <time>2022-06-09T11:28:00.599Z</time>
      </trkpt>
      <trkpt lat="48.41707" lon="-4.69612">
        <ele>135.342323</ele>
        <time>2022-06-09T11:28:23.881Z</time>
      </trkpt>
      <trkpt lat="48.41707" lon="-4.69576">
        <ele>135.238946</ele>
        <time>2022-06-09T11:28:28.706Z</time>
      </trkpt>
      <trkpt lat="48.41714" lon="-4.69565">
        <ele>135.195748</ele>
        <time>2022-06-09T11:28:31.915Z</time>
      </trkpt>
      <trkpt lat="48.41745" lon="-4.69396">
        <ele>134.333408</ele>
        <time>2022-06-09T11:29:06.391Z</time>
      </trkpt>
      <trkpt lat="48.41758" lon="-4.69385">
        <ele>134.073757</ele>
        <time>2022-06-09T11:29:10.593Z</time>
      </trkpt>
      <trkpt lat="48.4178" lon="-4.69378">
        <ele>133.696087</ele>
        <time>2022-06-09T11:29:16.737Z</time>
      </trkpt>
      <trkpt lat="48.41822" lon="-4.69382">
        <ele>132.970854</ele>
        <time>2022-06-09T11:29:28.398Z</time>
      </trkpt>
      <trkpt lat="48.41923" lon="-4.69408">
        <ele>131.1284</ele>
        <time>2022-06-09T11:29:56.345Z</time>
      </trkpt>
      <trkpt lat="48.4197" lon="-4.69453">
        <ele>130.034497</ele>
        <time>2022-06-09T11:30:11.138Z</time>
      </trkpt>
      <trkpt lat="48.42009" lon="-4.69457">
        <ele>129.253872</ele>
        <time>2022-06-09T11:30:21.916Z</time>
      </trkpt>
      <trkpt lat="48.42058" lon="-4.6944">
        <ele>128.269171</ele>
        <time>2022-06-09T11:30:35.870Z</time>
      </trkpt>
      <trkpt lat="48.42096" lon="-4.69445">
        <ele>127.876384</ele>
        <time>2022-06-09T11:30:46.912Z</time>
      </trkpt>
      <trkpt lat="48.42128" lon="-4.69184">
        <ele>126.734481</ele>
        <time>2022-06-09T11:31:19.237Z</time>
      </trkpt>
      <trkpt lat="48.4213" lon="-4.69119">
        <ele>126.925591</ele>
        <time>2022-06-09T11:31:28.046Z</time>
      </trkpt>
      <trkpt lat="48.42121" lon="-4.68897">
        <ele>128.156108</ele>
        <time>2022-06-09T11:32:05.128Z</time>
      </trkpt>
      <trkpt lat="48.42174" lon="-4.68578">
        <ele>132.569456</ele>
        <time>2022-06-09T11:33:38.156Z</time>
      </trkpt>
      <trkpt lat="48.42212" lon="-4.68421">
        <ele>135.030199</ele>
        <time>2022-06-09T11:34:27.206Z</time>
      </trkpt>
      <trkpt lat="48.42242" lon="-4.68318">
        <ele>136.136666</ele>
        <time>2022-06-09T11:34:58.159Z</time>
      </trkpt>
      <trkpt lat="48.42272" lon="-4.6815">
        <ele>137.588716</ele>
        <time>2022-06-09T11:35:40.821Z</time>
      </trkpt>
      <trkpt lat="48.4234" lon="-4.67835">
        <ele>137.570818</ele>
        <time>2022-06-09T11:36:50.898Z</time>
      </trkpt>
      <trkpt lat="48.4232" lon="-4.67854">
        <ele>137.444457</ele>
        <time>2022-06-09T11:36:58.194Z</time>
      </trkpt>
      <trkpt lat="48.42224" lon="-4.67899">
        <ele>136.79307</ele>
        <time>2022-06-09T11:37:28.607Z</time>
      </trkpt>
      <trkpt lat="48.42099" lon="-4.67934">
        <ele>132.845048</ele>
        <time>2022-06-09T11:38:02.563Z</time>
      </trkpt>
      <trkpt lat="48.42066" lon="-4.67942">
        <ele>131.840406</ele>
        <time>2022-06-09T11:38:07.327Z</time>
      </trkpt>
      <trkpt lat="48.42058" lon="-4.67931">
        <ele>131.494687</ele>
        <time>2022-06-09T11:38:08.963Z</time>
      </trkpt>
      <trkpt lat="48.41774" lon="-4.67921">
        <ele>113.402939</ele>
        <time>2022-06-09T11:38:47.473Z</time>
      </trkpt>
      <trkpt lat="48.41679" lon="-4.67911">
        <ele>106.897302</ele>
        <time>2022-06-09T11:39:00.175Z</time>
      </trkpt>
      <trkpt lat="48.41642" lon="-4.67875">
        <ele>104.128491</ele>
        <time>2022-06-09T11:39:06.065Z</time>
      </trkpt>
      <trkpt lat="48.41631" lon="-4.67927">
        <ele>101.838506</ele>
        <time>2022-06-09T11:39:10.668Z</time>
      </trkpt>
      <trkpt lat="48.4162" lon="-4.67959">
        <ele>100.331967</ele>
        <time>2022-06-09T11:39:13.802Z</time>
      </trkpt>
      <trkpt lat="48.41605" lon="-4.6798">
        <ele>99.037077</ele>
        <time>2022-06-09T11:39:16.441Z</time>
      </trkpt>
      <trkpt lat="48.41607" lon="-4.67998">
        <ele>98.279282</ele>
        <time>2022-06-09T11:39:18.084Z</time>
      </trkpt>
      <trkpt lat="48.41568" lon="-4.67998">
        <ele>95.830495</ele>
        <time>2022-06-09T11:39:23.650Z</time>
      </trkpt>
      <trkpt lat="48.41549" lon="-4.6799">
        <ele>94.694846</ele>
        <time>2022-06-09T11:39:26.333Z</time>
      </trkpt>
      <trkpt lat="48.41543" lon="-4.67988">
        <ele>94.313406</ele>
        <time>2022-06-09T11:39:27.307Z</time>
      </trkpt>
      <trkpt lat="48.4146" lon="-4.67944">
        <ele>89.035494</ele>
        <time>2022-06-09T11:39:39.658Z</time>
      </trkpt>
      <trkpt lat="48.4146" lon="-4.67944">
        <ele>89.035494</ele>
        <time>2022-06-09T11:39:39.673Z</time>
      </trkpt>
      <trkpt lat="48.4146" lon="-4.67944">
        <ele>89.035494</ele>
        <time>2022-06-09T11:39:39.835Z</time>
      </trkpt>
      <trkpt lat="48.41424" lon="-4.6788">
        <ele>85.685783</ele>
        <time>2022-06-09T11:39:47.223Z</time>
      </trkpt>
      <trkpt lat="48.41304" lon="-4.67668">
        <ele>72.777628</ele>
        <time>2022-06-09T11:40:11.691Z</time>
      </trkpt>
      <trkpt lat="48.41195" lon="-4.67519">
        <ele>69.773458</ele>
        <time>2022-06-09T11:40:34.690Z</time>
      </trkpt>
      <trkpt lat="48.40994" lon="-4.67326">
        <ele>78.009822</ele>
        <time>2022-06-09T11:42:13.401Z</time>
      </trkpt>
      <trkpt lat="48.40833" lon="-4.67196">
        <ele>87.974213</ele>
        <time>2022-06-09T11:43:45.918Z</time>
      </trkpt>
      <trkpt lat="48.40756" lon="-4.67135">
        <ele>92.057786</ele>
        <time>2022-06-09T11:44:26.850Z</time>
      </trkpt>
      <trkpt lat="48.40573" lon="-4.66986">
        <ele>98.33935</ele>
        <time>2022-06-09T11:45:39.293Z</time>
      </trkpt>
      <trkpt lat="48.40553" lon="-4.66983">
        <ele>98.797748</ele>
        <time>2022-06-09T11:45:43.773Z</time>
      </trkpt>
      <trkpt lat="48.405" lon="-4.66973">
        <ele>98.683256</ele>
        <time>2022-06-09T11:45:54.676Z</time>
      </trkpt>
      <trkpt lat="48.40471" lon="-4.66951">
        <ele>98.408223</ele>
        <time>2022-06-09T11:46:00.602Z</time>
      </trkpt>
      <trkpt lat="48.40286" lon="-4.66698">
        <ele>94.432044</ele>
        <time>2022-06-09T11:46:39.881Z</time>
      </trkpt>
      <trkpt lat="48.40222" lon="-4.66585">
        <ele>91.701963</ele>
        <time>2022-06-09T11:46:54.142Z</time>
      </trkpt>
      <trkpt lat="48.40165" lon="-4.66452">
        <ele>88.437009</ele>
        <time>2022-06-09T11:47:09.175Z</time>
      </trkpt>
      <trkpt lat="48.40155" lon="-4.66405">
        <ele>87.55472</ele>
        <time>2022-06-09T11:47:13.884Z</time>
      </trkpt>
      <trkpt lat="48.40161" lon="-4.66082">
        <ele>82.672593</ele>
        <time>2022-06-09T11:47:46.217Z</time>
      </trkpt>
      <trkpt lat="48.40168" lon="-4.65971">
        <ele>81.488843</ele>
        <time>2022-06-09T11:48:07.264Z</time>
      </trkpt>
      <trkpt lat="48.4019" lon="-4.65762">
        <ele>80.044974</ele>
        <time>2022-06-09T11:48:48.842Z</time>
      </trkpt>
      <trkpt lat="48.40211" lon="-4.65522">
        <ele>78.664182</ele>
        <time>2022-06-09T11:49:37.502Z</time>
      </trkpt>
      <trkpt lat="48.40239" lon="-4.65354">
        <ele>77.372217</ele>
        <time>2022-06-09T11:50:10.875Z</time>
      </trkpt>
      <trkpt lat="48.4027" lon="-4.65257">
        <ele>75.488518</ele>
        <time>2022-06-09T11:50:30.025Z</time>
      </trkpt>
      <trkpt lat="48.40275" lon="-4.65231">
        <ele>75.014796</ele>
        <time>2022-06-09T11:50:34.688Z</time>
      </trkpt>
      <trkpt lat="48.40285" lon="-4.65003">
        <ele>70.665248</ele>
        <time>2022-06-09T11:51:13.774Z</time>
      </trkpt>
      <trkpt lat="48.40313" lon="-4.64843">
        <ele>67.218417</ele>
        <time>2022-06-09T11:51:42.186Z</time>
      </trkpt>
      <trkpt lat="48.40345" lon="-4.64762">
        <ele>65.085068</ele>
        <time>2022-06-09T11:51:58.625Z</time>
      </trkpt>
      <trkpt lat="48.4038" lon="-4.64711">
        <ele>63.426528</ele>
        <time>2022-06-09T11:52:11.291Z</time>
      </trkpt>
      <trkpt lat="48.40428" lon="-4.6458">
        <ele>59.661215</ele>
        <time>2022-06-09T11:52:36.266Z</time>
      </trkpt>
      <trkpt lat="48.40442" lon="-4.64473">
        <ele>56.192303</ele>
        <time>2022-06-09T11:52:53.773Z</time>
      </trkpt>
      <trkpt lat="48.40442" lon="-4.64428">
        <ele>54.788924</ele>
        <time>2022-06-09T11:53:00.992Z</time>
      </trkpt>
      <trkpt lat="48.40431" lon="-4.64406">
        <ele>53.921154</ele>
        <time>2022-06-09T11:53:05.344Z</time>
      </trkpt>
      <trkpt lat="48.40449" lon="-4.64334">
        <ele>51.442426</ele>
        <time>2022-06-09T11:53:17.462Z</time>
      </trkpt>
      <trkpt lat="48.40457" lon="-4.64241">
        <ele>48.396938</ele>
        <time>2022-06-09T11:53:31.798Z</time>
      </trkpt>
      <trkpt lat="48.40458" lon="-4.64168">
        <ele>46.014825</ele>
        <time>2022-06-09T11:53:43.313Z</time>
      </trkpt>
      <trkpt lat="48.40469" lon="-4.6413">
        <ele>44.623256</ele>
        <time>2022-06-09T11:53:50.171Z</time>
      </trkpt>
      <trkpt lat="48.40511" lon="-4.64088">
        <ele>43.523149</ele>
        <time>2022-06-09T11:54:03.418Z</time>
      </trkpt>
      <trkpt lat="48.40584" lon="-4.64037">
        <ele>43.297183</ele>
        <time>2022-06-09T11:54:27.177Z</time>
      </trkpt>
      <trkpt lat="48.40624" lon="-4.64">
        <ele>43.16762</ele>
        <time>2022-06-09T11:54:45.954Z</time>
      </trkpt>
      <trkpt lat="48.40647" lon="-4.63968">
        <ele>43.23645</ele>
        <time>2022-06-09T11:54:56.499Z</time>
      </trkpt>
      <trkpt lat="48.40672" lon="-4.63921">
        <ele>43.906052</ele>
        <time>2022-06-09T11:55:09.361Z</time>
      </trkpt>
      <trkpt lat="48.40695" lon="-4.6386">
        <ele>44.681285</ele>
        <time>2022-06-09T11:55:23.925Z</time>
      </trkpt>
      <trkpt lat="48.40652" lon="-4.63831">
        <ele>45.471701</ele>
        <time>2022-06-09T11:55:36.950Z</time>
      </trkpt>
      <trkpt lat="48.40627" lon="-4.63806">
        <ele>45.983479</ele>
        <time>2022-06-09T11:55:44.748Z</time>
      </trkpt>
      <trkpt lat="48.40601" lon="-4.6377">
        <ele>46.361554</ele>
        <time>2022-06-09T11:55:52.690Z</time>
      </trkpt>
      <trkpt lat="48.40589" lon="-4.63753">
        <ele>46.506769</ele>
        <time>2022-06-09T11:55:56.156Z</time>
      </trkpt>
      <trkpt lat="48.4056" lon="-4.63698">
        <ele>46.928085</ele>
        <time>2022-06-09T11:56:05.574Z</time>
      </trkpt>
      <trkpt lat="48.40538" lon="-4.63642">
        <ele>47.317246</ele>
        <time>2022-06-09T11:56:15.203Z</time>
      </trkpt>
      <trkpt lat="48.40538" lon="-4.63642">
        <ele>47.317246</ele>
        <time>2022-06-09T11:56:15.268Z</time>
      </trkpt>
      <trkpt lat="48.40527" lon="-4.63585">
        <ele>47.672499</ele>
        <time>2022-06-09T11:56:25.767Z</time>
      </trkpt>
      <trkpt lat="48.40521" lon="-4.63539">
        <ele>48.671502</ele>
        <time>2022-06-09T11:56:35.533Z</time>
      </trkpt>
      <trkpt lat="48.4052" lon="-4.63471">
        <ele>50.451253</ele>
        <time>2022-06-09T11:56:52.295Z</time>
      </trkpt>
      <trkpt lat="48.40524" lon="-4.63414">
        <ele>51.956316</ele>
        <time>2022-06-09T11:57:08.163Z</time>
      </trkpt>
      <trkpt lat="48.40595" lon="-4.6293">
        <ele>66.813036</ele>
        <time>2022-06-09T11:59:38.843Z</time>
      </trkpt>
      <trkpt lat="48.40604" lon="-4.62867">
        <ele>68.390197</ele>
        <time>2022-06-09T11:59:55.387Z</time>
      </trkpt>
      <trkpt lat="48.40681" lon="-4.62416">
        <ele>75.139335</ele>
        <time>2022-06-09T12:01:28.304Z</time>
      </trkpt>
      <trkpt lat="48.407" lon="-4.62365">
        <ele>75.689977</ele>
        <time>2022-06-09T12:01:37.992Z</time>
      </trkpt>
      <trkpt lat="48.40715" lon="-4.62339">
        <ele>76.024036</ele>
        <time>2022-06-09T12:01:43.823Z</time>
      </trkpt>
      <trkpt lat="48.40766" lon="-4.62262">
        <ele>77.169018</ele>
        <time>2022-06-09T12:02:02.135Z</time>
      </trkpt>
      <trkpt lat="48.40784" lon="-4.62225">
        <ele>77.773725</ele>
        <time>2022-06-09T12:02:10.614Z</time>
      </trkpt>
      <trkpt lat="48.40797" lon="-4.62184">
        <ele>78.384018</ele>
        <time>2022-06-09T12:02:19.657Z</time>
      </trkpt>
      <trkpt lat="48.40804" lon="-4.62138">
        <ele>78.999188</ele>
        <time>2022-06-09T12:02:29.570Z</time>
      </trkpt>
      <trkpt lat="48.40788" lon="-4.62128">
        <ele>79.329031</ele>
        <time>2022-06-09T12:02:34.613Z</time>
      </trkpt>
      <trkpt lat="48.40832" lon="-4.62037">
        <ele>80.916328</ele>
        <time>2022-06-09T12:03:07.543Z</time>
      </trkpt>
      <trkpt lat="48.40858" lon="-4.61954">
        <ele>82.393831</ele>
        <time>2022-06-09T12:03:35.214Z</time>
      </trkpt>
      <trkpt lat="48.40946" lon="-4.61881">
        <ele>84.777028</ele>
        <time>2022-06-09T12:04:19.181Z</time>
      </trkpt>
      <trkpt lat="48.4114" lon="-4.61536">
        <ele>89.072648</ele>
        <time>2022-06-09T12:06:17.498Z</time>
      </trkpt>
      <trkpt lat="48.41153" lon="-4.6153">
        <ele>89.227447</ele>
        <time>2022-06-09T12:06:22.351Z</time>
      </trkpt>
      <trkpt lat="48.41158" lon="-4.61552">
        <ele>89.407234</ele>
        <time>2022-06-09T12:06:26.112Z</time>
      </trkpt>
      <trkpt lat="48.41167" lon="-4.61548">
        <ele>89.517156</ele>
        <time>2022-06-09T12:06:29.776Z</time>
      </trkpt>
      <trkpt lat="48.41191" lon="-4.61563">
        <ele>89.565625</ele>
        <time>2022-06-09T12:06:38.679Z</time>
      </trkpt>
      <trkpt lat="48.41313" lon="-4.61556">
        <ele>88.342832</ele>
        <time>2022-06-09T12:07:14.853Z</time>
      </trkpt>
      <trkpt lat="48.41331" lon="-4.6155">
        <ele>88.154638</ele>
        <time>2022-06-09T12:07:19.902Z</time>
      </trkpt>
      <trkpt lat="48.41454" lon="-4.61454">
        <ele>85.700135</ele>
        <time>2022-06-09T12:07:57.155Z</time>
      </trkpt>
      <trkpt lat="48.41519" lon="-4.61389">
        <ele>84.370482</ele>
        <time>2022-06-09T12:08:18.717Z</time>
      </trkpt>
      <trkpt lat="48.41548" lon="-4.6137">
        <ele>84.416037</ele>
        <time>2022-06-09T12:08:28.023Z</time>
      </trkpt>
      <trkpt lat="48.4168" lon="-4.61388">
        <ele>84.60917</ele>
        <time>2022-06-09T12:09:16.773Z</time>
      </trkpt>
      <trkpt lat="48.41701" lon="-4.61402">
        <ele>84.413971</ele>
        <time>2022-06-09T12:09:23.867Z</time>
      </trkpt>
      <trkpt lat="48.41712" lon="-4.6141">
        <ele>84.257805</ele>
        <time>2022-06-09T12:09:28.167Z</time>
      </trkpt>
      <trkpt lat="48.41753" lon="-4.61406">
        <ele>83.726358</ele>
        <time>2022-06-09T12:09:40.196Z</time>
      </trkpt>
      <trkpt lat="48.41815" lon="-4.61388">
        <ele>82.92552</ele>
        <time>2022-06-09T12:09:57.925Z</time>
      </trkpt>
      <trkpt lat="48.41831" lon="-4.61378">
        <ele>82.698973</ele>
        <time>2022-06-09T12:10:02.852Z</time>
      </trkpt>
      <trkpt lat="48.41884" lon="-4.61325">
        <ele>81.454143</ele>
        <time>2022-06-09T12:10:19.484Z</time>
      </trkpt>
      <trkpt lat="48.41827" lon="-4.61266">
        <ele>79.645641</ele>
        <time>2022-06-09T12:10:37.416Z</time>
      </trkpt>
      <trkpt lat="48.41754" lon="-4.61202">
        <ele>77.508404</ele>
        <time>2022-06-09T12:10:59.876Z</time>
      </trkpt>
      <trkpt lat="48.41549" lon="-4.61098">
        <ele>73.353759</ele>
        <time>2022-06-09T12:12:00.283Z</time>
      </trkpt>
      <trkpt lat="48.41589" lon="-4.60992">
        <ele>71.462909</ele>
        <time>2022-06-09T12:12:21.717Z</time>
      </trkpt>
      <trkpt lat="48.41607" lon="-4.6093">
        <ele>70.423047</ele>
        <time>2022-06-09T12:12:33.670Z</time>
      </trkpt>
      <trkpt lat="48.41613" lon="-4.60894">
        <ele>69.891508</ele>
        <time>2022-06-09T12:12:40.241Z</time>
      </trkpt>
      <trkpt lat="48.41617" lon="-4.60803">
        <ele>68.678621</ele>
        <time>2022-06-09T12:12:56.454Z</time>
      </trkpt>
      <trkpt lat="48.41623" lon="-4.6067">
        <ele>66.890214</ele>
        <time>2022-06-09T12:13:21.229Z</time>
      </trkpt>
      <trkpt lat="48.41623" lon="-4.60566">
        <ele>65.386808</ele>
        <time>2022-06-09T12:13:40.379Z</time>
      </trkpt>
      <trkpt lat="48.41629" lon="-4.60478">
        <ele>64.075189</ele>
        <time>2022-06-09T12:13:56.550Z</time>
      </trkpt>
      <trkpt lat="48.41632" lon="-4.6043">
        <ele>63.365624</ele>
        <time>2022-06-09T12:14:05.220Z</time>
      </trkpt>
      <trkpt lat="48.41627" lon="-4.60403">
        <ele>62.946244</ele>
        <time>2022-06-09T12:14:10.123Z</time>
      </trkpt>
      <trkpt lat="48.4164" lon="-4.60315">
        <ele>61.216714</ele>
        <time>2022-06-09T12:14:25.682Z</time>
      </trkpt>
      <trkpt lat="48.41568" lon="-4.60291">
        <ele>58.874229</ele>
        <time>2022-06-09T12:14:44.291Z</time>
      </trkpt>
      <trkpt lat="48.4156" lon="-4.60281">
        <ele>58.534958</ele>
        <time>2022-06-09T12:14:46.931Z</time>
      </trkpt>
      <trkpt lat="48.41569" lon="-4.60198">
        <ele>56.752515</ele>
        <time>2022-06-09T12:15:01.656Z</time>
      </trkpt>
      <trkpt lat="48.41587" lon="-4.60153">
        <ele>55.793638</ele>
        <time>2022-06-09T12:15:07.025Z</time>
      </trkpt>
      <trkpt lat="48.41613" lon="-4.60143">
        <ele>55.057502</ele>
        <time>2022-06-09T12:15:11.088Z</time>
      </trkpt>
      <trkpt lat="48.41644" lon="-4.60097">
        <ele>53.863107</ele>
        <time>2022-06-09T12:15:17.724Z</time>
      </trkpt>
      <trkpt lat="48.41673" lon="-4.60089">
        <ele>53.064474</ele>
        <time>2022-06-09T12:15:22.365Z</time>
      </trkpt>
      <trkpt lat="48.41696" lon="-4.60074">
        <ele>52.376426</ele>
        <time>2022-06-09T12:15:26.452Z</time>
      </trkpt>
      <trkpt lat="48.41718" lon="-4.60041">
        <ele>51.598124</ele>
        <time>2022-06-09T12:15:31.656Z</time>
      </trkpt>
      <trkpt lat="48.41718" lon="-4.60041">
        <ele>51.598124</ele>
        <time>2022-06-09T12:15:31.659Z</time>
      </trkpt>
      <trkpt lat="48.41796" lon="-4.60152">
        <ele>49.332579</ele>
        <time>2022-06-09T12:15:48.540Z</time>
      </trkpt>
      <trkpt lat="48.41849" lon="-4.60216">
        <ele>47.799611</ele>
        <time>2022-06-09T12:15:58.666Z</time>
      </trkpt>
      <trkpt lat="48.4186" lon="-4.60227">
        <ele>47.349175</ele>
        <time>2022-06-09T12:16:00.676Z</time>
      </trkpt>
      <trkpt lat="48.41899" lon="-4.60264">
        <ele>45.851902</ele>
        <time>2022-06-09T12:16:07.444Z</time>
      </trkpt>
      <trkpt lat="48.41901" lon="-4.6026">
        <ele>45.751953</ele>
        <time>2022-06-09T12:16:08.234Z</time>
      </trkpt>
      <trkpt lat="48.41911" lon="-4.60218">
        <ele>44.784232</ele>
        <time>2022-06-09T12:16:15.737Z</time>
      </trkpt>
      <trkpt lat="48.4191" lon="-4.60142">
        <ele>43.11502</ele>
        <time>2022-06-09T12:16:28.470Z</time>
      </trkpt>
      <trkpt lat="48.41921" lon="-4.60095">
        <ele>42.063052</ele>
        <time>2022-06-09T12:16:36.703Z</time>
      </trkpt>
      <trkpt lat="48.4193" lon="-4.60079">
        <ele>41.709051</ele>
        <time>2022-06-09T12:16:40.260Z</time>
      </trkpt>
      <trkpt lat="48.42012" lon="-4.60006">
        <ele>39.262954</ele>
        <time>2022-06-09T12:17:05.244Z</time>
      </trkpt>
      <trkpt lat="48.42014" lon="-4.60019">
        <ele>39.028867</ele>
        <time>2022-06-09T12:17:07.850Z</time>
      </trkpt>
      <trkpt lat="48.42008" lon="-4.60051">
        <ele>38.474057</ele>
        <time>2022-06-09T12:17:13.755Z</time>
      </trkpt>
      <trkpt lat="48.42013" lon="-4.601">
        <ele>37.628575</ele>
        <time>2022-06-09T12:17:22.996Z</time>
      </trkpt>
      <trkpt lat="48.42024" lon="-4.60137">
        <ele>37.431084</ele>
        <time>2022-06-09T12:17:30.635Z</time>
      </trkpt>
      <trkpt lat="48.4207" lon="-4.60212">
        <ele>37.07003</ele>
        <time>2022-06-09T12:17:50.964Z</time>
      </trkpt>
      <trkpt lat="48.42099" lon="-4.60244">
        <ele>36.875306</ele>
        <time>2022-06-09T12:18:02.585Z</time>
      </trkpt>
      <trkpt lat="48.42121" lon="-4.60259">
        <ele>36.749244</ele>
        <time>2022-06-09T12:18:10.233Z</time>
      </trkpt>
      <trkpt lat="48.42137" lon="-4.60261">
        <ele>36.664318</ele>
        <time>2022-06-09T12:18:15.230Z</time>
      </trkpt>
      <trkpt lat="48.42237" lon="-4.60237">
        <ele>36.649448</ele>
        <time>2022-06-09T12:18:47.508Z</time>
      </trkpt>
      <trkpt lat="48.42414" lon="-4.60299">
        <ele>36.722251</ele>
        <time>2022-06-09T12:19:46.183Z</time>
      </trkpt>
      <trkpt lat="48.42423" lon="-4.60302">
        <ele>36.72454</ele>
        <time>2022-06-09T12:19:49.103Z</time>
      </trkpt>
      <trkpt lat="48.42469" lon="-4.60325">
        <ele>36.736668</ele>
        <time>2022-06-09T12:20:04.541Z</time>
      </trkpt>
      <trkpt lat="48.42611" lon="-4.60365">
        <ele>36.86026</ele>
        <time>2022-06-09T12:20:49.899Z</time>
      </trkpt>
      <trkpt lat="48.42623" lon="-4.60363">
        <ele>36.87216</ele>
        <time>2022-06-09T12:20:53.523Z</time>
      </trkpt>
      <trkpt lat="48.42636" lon="-4.60346">
        <ele>36.890608</ele>
        <time>2022-06-09T12:20:59.304Z</time>
      </trkpt>
      <trkpt lat="48.42642" lon="-4.60324">
        <ele>36.906565</ele>
        <time>2022-06-09T12:21:04.277Z</time>
      </trkpt>
      <trkpt lat="48.42535" lon="-4.59764">
        <ele>40.52436</ele>
        <time>2022-06-09T12:23:25.651Z</time>
      </trkpt>
      <trkpt lat="48.42432" lon="-4.59462">
        <ele>44.434832</ele>
        <time>2022-06-09T12:24:58.454Z</time>
      </trkpt>
      <trkpt lat="48.42391" lon="-4.59323">
        <ele>46.201738</ele>
        <time>2022-06-09T12:25:39.246Z</time>
      </trkpt>
      <trkpt lat="48.42387" lon="-4.59308">
        <ele>46.384638</ele>
        <time>2022-06-09T12:25:43.514Z</time>
      </trkpt>
      <trkpt lat="48.42389" lon="-4.59291">
        <ele>46.580224</ele>
        <time>2022-06-09T12:25:47.929Z</time>
      </trkpt>
      <trkpt lat="48.4237" lon="-4.5918">
        <ele>47.568736</ele>
        <time>2022-06-09T12:26:17.956Z</time>
      </trkpt>
      <trkpt lat="48.42349" lon="-4.59025">
        <ele>48.905088</ele>
        <time>2022-06-09T12:26:57.358Z</time>
      </trkpt>
      <trkpt lat="48.4234" lon="-4.58969">
        <ele>49.172345</ele>
        <time>2022-06-09T12:27:11.097Z</time>
      </trkpt>
      <trkpt lat="48.42323" lon="-4.58918">
        <ele>49.413268</ele>
        <time>2022-06-09T12:27:24.415Z</time>
      </trkpt>
      <trkpt lat="48.42277" lon="-4.58816">
        <ele>49.933597</ele>
        <time>2022-06-09T12:27:52.279Z</time>
      </trkpt>
      <trkpt lat="48.42237" lon="-4.58686">
        <ele>50.84523</ele>
        <time>2022-06-09T12:28:25.263Z</time>
      </trkpt>
      <trkpt lat="48.42227" lon="-4.58597">
        <ele>51.490558</ele>
        <time>2022-06-09T12:28:47.173Z</time>
      </trkpt>
      <trkpt lat="48.4223" lon="-4.58538">
        <ele>51.910252</ele>
        <time>2022-06-09T12:29:02.401Z</time>
      </trkpt>
      <trkpt lat="48.42239" lon="-4.58474">
        <ele>52.773336</ele>
        <time>2022-06-09T12:29:20.729Z</time>
      </trkpt>
      <trkpt lat="48.42261" lon="-4.58388">
        <ele>54.173725</ele>
        <time>2022-06-09T12:29:47.795Z</time>
      </trkpt>
      <trkpt lat="48.42296" lon="-4.58312">
        <ele>55.581111</ele>
        <time>2022-06-09T12:30:14.652Z</time>
      </trkpt>
      <trkpt lat="48.42347" lon="-4.58204">
        <ele>57.842299</ele>
        <time>2022-06-09T12:30:53.216Z</time>
      </trkpt>
      <trkpt lat="48.42379" lon="-4.58083">
        <ele>60.174478</ele>
        <time>2022-06-09T12:31:32.473Z</time>
      </trkpt>
      <trkpt lat="48.42388" lon="-4.57995">
        <ele>62.034823</ele>
        <time>2022-06-09T12:31:59.738Z</time>
      </trkpt>
      <trkpt lat="48.42387" lon="-4.57821">
        <ele>66.254213</ele>
        <time>2022-06-09T12:32:57.609Z</time>
      </trkpt>
      <trkpt lat="48.42395" lon="-4.57659">
        <ele>70.534182</ele>
        <time>2022-06-09T12:33:42.492Z</time>
      </trkpt>
      <trkpt lat="48.4242" lon="-4.57483">
        <ele>75.381691</ele>
        <time>2022-06-09T12:34:31.290Z</time>
      </trkpt>
      <trkpt lat="48.42449" lon="-4.57305">
        <ele>79.717535</ele>
        <time>2022-06-09T12:35:19.135Z</time>
      </trkpt>
      <trkpt lat="48.42462" lon="-4.57259">
        <ele>80.878895</ele>
        <time>2022-06-09T12:35:30.679Z</time>
      </trkpt>
      <trkpt lat="48.42463" lon="-4.57239">
        <ele>81.349409</ele>
        <time>2022-06-09T12:35:35.138Z</time>
      </trkpt>
      <trkpt lat="48.42497" lon="-4.57141">
        <ele>82.866951</ele>
        <time>2022-06-09T12:35:58.740Z</time>
      </trkpt>
      <trkpt lat="48.42502" lon="-4.5713">
        <ele>83.055021</ele>
        <time>2022-06-09T12:36:01.586Z</time>
      </trkpt>
      <trkpt lat="48.42524" lon="-4.57085">
        <ele>83.811903</ele>
        <time>2022-06-09T12:36:12.566Z</time>
      </trkpt>
      <trkpt lat="48.42534" lon="-4.57053">
        <ele>84.282058</ele>
        <time>2022-06-09T12:36:18.810Z</time>
      </trkpt>
      <trkpt lat="48.42526" lon="-4.57046">
        <ele>84.477438</ele>
        <time>2022-06-09T12:36:21.354Z</time>
      </trkpt>
      <trkpt lat="48.42522" lon="-4.57026">
        <ele>84.761857</ele>
        <time>2022-06-09T12:36:24.606Z</time>
      </trkpt>
      <trkpt lat="48.4253" lon="-4.57011">
        <ele>85.023284</ele>
        <time>2022-06-09T12:36:27.649Z</time>
      </trkpt>
      <trkpt lat="48.42528" lon="-4.56998">
        <ele>85.110113</ele>
        <time>2022-06-09T12:36:29.943Z</time>
      </trkpt>
      <trkpt lat="48.42534" lon="-4.56995">
        <ele>85.152075</ele>
        <time>2022-06-09T12:36:31.603Z</time>
      </trkpt>
      <trkpt lat="48.42536" lon="-4.56953">
        <ele>85.351847</ele>
        <time>2022-06-09T12:36:38.042Z</time>
      </trkpt>
      <trkpt lat="48.42573" lon="-4.56926">
        <ele>85.646611</ele>
        <time>2022-06-09T12:36:47.280Z</time>
      </trkpt>
      <trkpt lat="48.42617" lon="-4.56881">
        <ele>86.022176</ele>
        <time>2022-06-09T12:36:59.686Z</time>
      </trkpt>
      <trkpt lat="48.42651" lon="-4.56823">
        <ele>86.342964</ele>
        <time>2022-06-09T12:37:11.090Z</time>
      </trkpt>
      <trkpt lat="48.42678" lon="-4.56759">
        <ele>86.384745</ele>
        <time>2022-06-09T12:37:20.849Z</time>
      </trkpt>
      <trkpt lat="48.42676" lon="-4.56742">
        <ele>86.393776</ele>
        <time>2022-06-09T12:37:22.862Z</time>
      </trkpt>
      <trkpt lat="48.42676" lon="-4.56742">
        <ele>86.393776</ele>
        <time>2022-06-09T12:37:22.889Z</time>
      </trkpt>
      <trkpt lat="48.42688" lon="-4.56738">
        <ele>86.403756</ele>
        <time>2022-06-09T12:37:25.110Z</time>
      </trkpt>
      <trkpt lat="48.42692" lon="-4.56729">
        <ele>86.409765</ele>
        <time>2022-06-09T12:37:26.531Z</time>
      </trkpt>
      <trkpt lat="48.427" lon="-4.56747">
        <ele>86.421329</ele>
        <time>2022-06-09T12:37:30.949Z</time>
      </trkpt>
      <trkpt lat="48.42807" lon="-4.56831">
        <ele>86.525965</ele>
        <time>2022-06-09T12:38:09.463Z</time>
      </trkpt>
      <trkpt lat="48.4281" lon="-4.56844">
        <ele>86.534578</ele>
        <time>2022-06-09T12:38:12.316Z</time>
      </trkpt>
      <trkpt lat="48.42831" lon="-4.5685">
        <ele>86.555219</ele>
        <time>2022-06-09T12:38:19.092Z</time>
      </trkpt>
      <trkpt lat="48.42842" lon="-4.56842">
        <ele>86.566156</ele>
        <time>2022-06-09T12:38:22.672Z</time>
      </trkpt>
      <trkpt lat="48.42892" lon="-4.56827">
        <ele>86.614584</ele>
        <time>2022-06-09T12:38:39.146Z</time>
      </trkpt>
      <trkpt lat="48.42907" lon="-4.56827">
        <ele>86.629066</ele>
        <time>2022-06-09T12:38:44.196Z</time>
      </trkpt>
      <trkpt lat="48.42924" lon="-4.56816">
        <ele>86.646893</ele>
        <time>2022-06-09T12:38:50.579Z</time>
      </trkpt>
      <trkpt lat="48.42946" lon="-4.56792">
        <ele>86.731553</ele>
        <time>2022-06-09T12:38:59.587Z</time>
      </trkpt>
      <trkpt lat="48.42978" lon="-4.56733">
        <ele>86.948483</ele>
        <time>2022-06-09T12:39:17.216Z</time>
      </trkpt>
      <trkpt lat="48.42997" lon="-4.5673">
        <ele>87.027844</ele>
        <time>2022-06-09T12:39:23.324Z</time>
      </trkpt>
      <trkpt lat="48.43028" lon="-4.56688">
        <ele>87.205933</ele>
        <time>2022-06-09T12:39:37.162Z</time>
      </trkpt>
      <trkpt lat="48.43027" lon="-4.56733">
        <ele>87.333381</ele>
        <time>2022-06-09T12:39:43.617Z</time>
      </trkpt>
      <trkpt lat="48.43034" lon="-4.56726">
        <ele>87.371533</ele>
        <time>2022-06-09T12:39:46.180Z</time>
      </trkpt>
      <trkpt lat="48.43051" lon="-4.56757">
        <ele>87.53616</ele>
        <time>2022-06-09T12:39:53.772Z</time>
      </trkpt>
      <trkpt lat="48.43046" lon="-4.56762">
        <ele>87.581291</ele>
        <time>2022-06-09T12:39:55.490Z</time>
      </trkpt>
      <trkpt lat="48.43051" lon="-4.56769">
        <ele>87.63238</ele>
        <time>2022-06-09T12:39:57.444Z</time>
      </trkpt>
      <trkpt lat="48.43106" lon="-4.56791">
        <ele>88.082003</ele>
        <time>2022-06-09T12:40:11.066Z</time>
      </trkpt>
      <trkpt lat="48.4312" lon="-4.56799">
        <ele>88.197291</ele>
        <time>2022-06-09T12:40:14.582Z</time>
      </trkpt>
      <trkpt lat="48.43161" lon="-4.56823">
        <ele>88.536941</ele>
        <time>2022-06-09T12:40:24.769Z</time>
      </trkpt>
      <trkpt lat="48.43168" lon="-4.56821">
        <ele>88.588826</ele>
        <time>2022-06-09T12:40:26.527Z</time>
      </trkpt>
      <trkpt lat="48.4317" lon="-4.56846">
        <ele>88.718474</ele>
        <time>2022-06-09T12:40:30.493Z</time>
      </trkpt>
      <trkpt lat="48.43242" lon="-4.5685">
        <ele>88.986031</ele>
        <time>2022-06-09T12:40:47.174Z</time>
      </trkpt>
      <trkpt lat="48.43297" lon="-4.56861">
        <ele>89.138243</ele>
        <time>2022-06-09T12:40:59.810Z</time>
      </trkpt>
      <trkpt lat="48.43318" lon="-4.56867">
        <ele>89.197928</ele>
        <time>2022-06-09T12:41:04.570Z</time>
      </trkpt>
      <trkpt lat="48.43318" lon="-4.56867">
        <ele>89.197928</ele>
        <time>2022-06-09T12:41:04.574Z</time>
      </trkpt>
      <trkpt lat="48.43328" lon="-4.56881">
        <ele>89.235209</ele>
        <time>2022-06-09T12:41:07.177Z</time>
      </trkpt>
      <trkpt lat="48.43341" lon="-4.56949">
        <ele>89.254836</ele>
        <time>2022-06-09T12:41:16.229Z</time>
      </trkpt>
      <trkpt lat="48.43358" lon="-4.56943">
        <ele>89.186575</ele>
        <time>2022-06-09T12:41:19.486Z</time>
      </trkpt>
      <trkpt lat="48.43378" lon="-4.56925">
        <ele>89.091768</ele>
        <time>2022-06-09T12:41:23.872Z</time>
      </trkpt>
      <trkpt lat="48.43384" lon="-4.56915">
        <ele>89.057323</ele>
        <time>2022-06-09T12:41:25.499Z</time>
      </trkpt>
      <trkpt lat="48.43392" lon="-4.56933">
        <ele>88.998238</ele>
        <time>2022-06-09T12:41:28.137Z</time>
      </trkpt>
      <trkpt lat="48.43431" lon="-4.57117">
        <ele>88.653055</ele>
        <time>2022-06-09T12:41:52.826Z</time>
      </trkpt>
      <trkpt lat="48.43451" lon="-4.57172">
        <ele>88.730241</ele>
        <time>2022-06-09T12:42:01.090Z</time>
      </trkpt>
      <trkpt lat="48.43463" lon="-4.57188">
        <ele>88.758884</ele>
        <time>2022-06-09T12:42:04.382Z</time>
      </trkpt>
      <trkpt lat="48.43532" lon="-4.57214">
        <ele>88.891349</ele>
        <time>2022-06-09T12:42:20.196Z</time>
      </trkpt>
      <trkpt lat="48.43536" lon="-4.57188">
        <ele>88.924477</ele>
        <time>2022-06-09T12:42:26.425Z</time>
      </trkpt>
      <trkpt lat="48.43537" lon="-4.57104">
        <ele>89.38896</ele>
        <time>2022-06-09T12:42:46.229Z</time>
      </trkpt>
      <trkpt lat="48.43507" lon="-4.5691">
        <ele>90.570855</ele>
        <time>2022-06-09T12:43:34.994Z</time>
      </trkpt>
      <trkpt lat="48.43507" lon="-4.56886">
        <ele>90.664555</ele>
        <time>2022-06-09T12:43:40.830Z</time>
      </trkpt>
      <trkpt lat="48.43509" lon="-4.56857">
        <ele>90.781023</ele>
        <time>2022-06-09T12:43:47.743Z</time>
      </trkpt>
      <trkpt lat="48.43526" lon="-4.56796">
        <ele>91.045092</ele>
        <time>2022-06-09T12:44:03.400Z</time>
      </trkpt>
      <trkpt lat="48.43574" lon="-4.56777">
        <ele>91.342529</ele>
        <time>2022-06-09T12:44:14.134Z</time>
      </trkpt>
      <trkpt lat="48.43556" lon="-4.56564">
        <ele>91.81403</ele>
        <time>2022-06-09T12:45:01.453Z</time>
      </trkpt>
      <trkpt lat="48.43557" lon="-4.56534">
        <ele>91.853998</ele>
        <time>2022-06-09T12:45:08.053Z</time>
      </trkpt>
      <trkpt lat="48.43544" lon="-4.56508">
        <ele>91.89561</ele>
        <time>2022-06-09T12:45:14.856Z</time>
      </trkpt>
      <trkpt lat="48.43548" lon="-4.56375">
        <ele>91.897808</ele>
        <time>2022-06-09T12:45:43.238Z</time>
      </trkpt>
      <trkpt lat="48.43556" lon="-4.56284">
        <ele>91.781649</ele>
        <time>2022-06-09T12:46:02.344Z</time>
      </trkpt>
      <trkpt lat="48.43554" lon="-4.5627">
        <ele>91.76364</ele>
        <time>2022-06-09T12:46:05.431Z</time>
      </trkpt>
      <trkpt lat="48.43533" lon="-4.56193">
        <ele>91.658401</ele>
        <time>2022-06-09T12:46:22.615Z</time>
      </trkpt>
      <trkpt lat="48.43538" lon="-4.56114">
        <ele>91.235213</ele>
        <time>2022-06-09T12:46:38.457Z</time>
      </trkpt>
      <trkpt lat="48.43545" lon="-4.56062">
        <ele>90.907139</ele>
        <time>2022-06-09T12:46:48.685Z</time>
      </trkpt>
      <trkpt lat="48.43549" lon="-4.56045">
        <ele>90.790416</ele>
        <time>2022-06-09T12:46:50.866Z</time>
      </trkpt>
      <trkpt lat="48.4355" lon="-4.56012">
        <ele>90.58687</ele>
        <time>2022-06-09T12:46:54.628Z</time>
      </trkpt>
      <trkpt lat="48.43549" lon="-4.55946">
        <ele>90.174799</ele>
        <time>2022-06-09T12:47:07.226Z</time>
      </trkpt>
      <trkpt lat="48.43563" lon="-4.5581">
        <ele>89.496282</ele>
        <time>2022-06-09T12:47:34.112Z</time>
      </trkpt>
      <trkpt lat="48.43541" lon="-4.55791">
        <ele>89.322204</ele>
        <time>2022-06-09T12:47:38.741Z</time>
      </trkpt>
      <trkpt lat="48.43627" lon="-4.55638">
        <ele>88.630346</ele>
        <time>2022-06-09T12:48:02.683Z</time>
      </trkpt>
      <trkpt lat="48.43682" lon="-4.55502">
        <ele>88.395802</ele>
        <time>2022-06-09T12:48:23.189Z</time>
      </trkpt>
      <trkpt lat="48.43722" lon="-4.55337">
        <ele>87.661893</ele>
        <time>2022-06-09T12:48:44.015Z</time>
      </trkpt>
      <trkpt lat="48.43763" lon="-4.55091">
        <ele>85.967527</ele>
        <time>2022-06-09T12:49:12.183Z</time>
      </trkpt>
      <trkpt lat="48.43776" lon="-4.54994">
        <ele>85.112058</ele>
        <time>2022-06-09T12:49:22.894Z</time>
      </trkpt>
      <trkpt lat="48.43777" lon="-4.54936">
        <ele>84.614186</ele>
        <time>2022-06-09T12:49:29.020Z</time>
      </trkpt>
      <trkpt lat="48.43755" lon="-4.54815">
        <ele>83.539258</ele>
        <time>2022-06-09T12:49:42.419Z</time>
      </trkpt>
      <trkpt lat="48.4373" lon="-4.54745">
        <ele>82.849854</ele>
        <time>2022-06-09T12:49:51.135Z</time>
      </trkpt>
      <trkpt lat="48.43714" lon="-4.54715">
        <ele>82.523963</ele>
        <time>2022-06-09T12:49:55.343Z</time>
      </trkpt>
      <trkpt lat="48.43605" lon="-4.54625">
        <ele>81.391682</ele>
        <time>2022-06-09T12:50:16.518Z</time>
      </trkpt>
      <trkpt lat="48.43525" lon="-4.54537">
        <ele>80.608748</ele>
        <time>2022-06-09T12:50:34.002Z</time>
      </trkpt>
      <trkpt lat="48.43453" lon="-4.54414">
        <ele>79.928574</ele>
        <time>2022-06-09T12:50:52.659Z</time>
      </trkpt>
      <trkpt lat="48.43423" lon="-4.54335">
        <ele>79.736845</ele>
        <time>2022-06-09T12:51:03.544Z</time>
      </trkpt>
      <trkpt lat="48.43391" lon="-4.54215">
        <ele>80.205438</ele>
        <time>2022-06-09T12:51:31.245Z</time>
      </trkpt>
      <trkpt lat="48.43372" lon="-4.54049">
        <ele>81.081351</ele>
        <time>2022-06-09T12:52:13.889Z</time>
      </trkpt>
      <trkpt lat="48.43374" lon="-4.53976">
        <ele>81.720147</ele>
        <time>2022-06-09T12:52:33.755Z</time>
      </trkpt>
      <trkpt lat="48.43393" lon="-4.53802">
        <ele>83.014801</ele>
        <time>2022-06-09T12:53:19.076Z</time>
      </trkpt>
      <trkpt lat="48.43449" lon="-4.53308">
        <ele>82.427114</ele>
        <time>2022-06-09T12:54:23.630Z</time>
      </trkpt>
      <trkpt lat="48.43455" lon="-4.53247">
        <ele>82.055604</ele>
        <time>2022-06-09T12:54:31.199Z</time>
      </trkpt>
      <trkpt lat="48.43455" lon="-4.53179">
        <ele>81.594879</ele>
        <time>2022-06-09T12:54:39.258Z</time>
      </trkpt>
      <trkpt lat="48.43443" lon="-4.53036">
        <ele>80.606807</ele>
        <time>2022-06-09T12:54:56.077Z</time>
      </trkpt>
      <trkpt lat="48.43449" lon="-4.52961">
        <ele>80.025058</ele>
        <time>2022-06-09T12:55:04.683Z</time>
      </trkpt>
      <trkpt lat="48.43483" lon="-4.52619">
        <ele>78.225211</ele>
        <time>2022-06-09T12:55:45.396Z</time>
      </trkpt>
      <trkpt lat="48.43488" lon="-4.5254">
        <ele>78.116292</ele>
        <time>2022-06-09T12:55:57.434Z</time>
      </trkpt>
      <trkpt lat="48.4348" lon="-4.5247">
        <ele>78.100648</ele>
        <time>2022-06-09T12:56:08.875Z</time>
      </trkpt>
      <trkpt lat="48.4347" lon="-4.52414">
        <ele>78.253589</ele>
        <time>2022-06-09T12:56:18.463Z</time>
      </trkpt>
      <trkpt lat="48.43456" lon="-4.52366">
        <ele>78.393428</ele>
        <time>2022-06-09T12:56:27.431Z</time>
      </trkpt>
      <trkpt lat="48.43429" lon="-4.52304">
        <ele>78.590192</ele>
        <time>2022-06-09T12:56:38.697Z</time>
      </trkpt>
      <trkpt lat="48.43347" lon="-4.52179">
        <ele>77.81269</ele>
        <time>2022-06-09T12:57:00.433Z</time>
      </trkpt>
      <trkpt lat="48.43304" lon="-4.5207">
        <ele>76.70728</ele>
        <time>2022-06-09T12:57:14.472Z</time>
      </trkpt>
      <trkpt lat="48.43268" lon="-4.51947">
        <ele>74.990086</ele>
        <time>2022-06-09T12:57:29.155Z</time>
      </trkpt>
      <trkpt lat="48.43264" lon="-4.51934">
        <ele>74.796006</ele>
        <time>2022-06-09T12:57:30.625Z</time>
      </trkpt>
      <trkpt lat="48.43244" lon="-4.51839">
        <ele>73.379993</ele>
        <time>2022-06-09T12:57:41.459Z</time>
      </trkpt>
      <trkpt lat="48.43218" lon="-4.51629">
        <ele>70.275941</ele>
        <time>2022-06-09T12:58:04.440Z</time>
      </trkpt>
      <trkpt lat="48.43218" lon="-4.51629">
        <ele>70.275941</ele>
        <time>2022-06-09T12:58:04.452Z</time>
      </trkpt>
      <trkpt lat="48.43245" lon="-4.51628">
        <ele>69.683323</ele>
        <time>2022-06-09T12:58:11.674Z</time>
      </trkpt>
      <trkpt lat="48.43255" lon="-4.51636">
        <ele>69.434732</ele>
        <time>2022-06-09T12:58:14.623Z</time>
      </trkpt>
      <trkpt lat="48.43257" lon="-4.51638">
        <ele>69.363246</ele>
        <time>2022-06-09T12:58:15.501Z</time>
      </trkpt>
      <trkpt lat="48.43269" lon="-4.51657">
        <ele>68.994058</ele>
        <time>2022-06-09T12:58:20.001Z</time>
      </trkpt>
      <trkpt lat="48.43278" lon="-4.51657">
        <ele>68.787642</ele>
        <time>2022-06-09T12:58:22.531Z</time>
      </trkpt>
      <trkpt lat="48.43327" lon="-4.51627">
        <ele>68.214939</ele>
        <time>2022-06-09T12:58:36.647Z</time>
      </trkpt>
      <trkpt lat="48.43331" lon="-4.51612">
        <ele>68.123216</ele>
        <time>2022-06-09T12:58:39.599Z</time>
      </trkpt>
      <trkpt lat="48.43386" lon="-4.51448">
        <ele>67.08965</ele>
        <time>2022-06-09T12:59:16.788Z</time>
      </trkpt>
      <trkpt lat="48.43409" lon="-4.51414">
        <ele>67.550407</ele>
        <time>2022-06-09T12:59:28.217Z</time>
      </trkpt>
      <trkpt lat="48.43419" lon="-4.5141">
        <ele>67.724422</ele>
        <time>2022-06-09T12:59:32.342Z</time>
      </trkpt>
      <trkpt lat="48.43473" lon="-4.51399">
        <ele>68.650971</ele>
        <time>2022-06-09T12:59:47.367Z</time>
      </trkpt>
      <trkpt lat="48.43485" lon="-4.51415">
        <ele>68.926776</ele>
        <time>2022-06-09T12:59:54.376Z</time>
      </trkpt>
      <trkpt lat="48.43571" lon="-4.51413">
        <ele>70.41675</ele>
        <time>2022-06-09T13:00:33.173Z</time>
      </trkpt>
      <trkpt lat="48.43613" lon="-4.51419">
        <ele>71.150862</ele>
        <time>2022-06-09T13:00:52.350Z</time>
      </trkpt>
      <trkpt lat="48.43759" lon="-4.51461">
        <ele>73.422345</ele>
        <time>2022-06-09T13:01:49.575Z</time>
      </trkpt>
      <trkpt lat="48.43794" lon="-4.51464">
        <ele>73.60854</ele>
        <time>2022-06-09T13:02:01.610Z</time>
      </trkpt>
      <trkpt lat="48.43827" lon="-4.51475">
        <ele>73.794961</ele>
        <time>2022-06-09T13:02:13.190Z</time>
      </trkpt>
      <trkpt lat="48.4388" lon="-4.51462">
        <ele>74.084649</ele>
        <time>2022-06-09T13:02:30.725Z</time>
      </trkpt>
      <trkpt lat="48.43967" lon="-4.51419">
        <ele>74.854843</ele>
        <time>2022-06-09T13:02:59.949Z</time>
      </trkpt>
      <trkpt lat="48.44043" lon="-4.5138">
        <ele>75.675693</ele>
        <time>2022-06-09T13:03:30.625Z</time>
      </trkpt>
      <trkpt lat="48.4414" lon="-4.51364">
        <ele>76.963515</ele>
        <time>2022-06-09T13:04:11.339Z</time>
      </trkpt>
      <trkpt lat="48.44186" lon="-4.51345">
        <ele>77.683177</ele>
        <time>2022-06-09T13:04:31.239Z</time>
      </trkpt>
      <trkpt lat="48.44183" lon="-4.51333">
        <ele>77.806093</ele>
        <time>2022-06-09T13:04:33.475Z</time>
      </trkpt>
      <trkpt lat="48.44204" lon="-4.5125">
        <ele>78.70764</ele>
        <time>2022-06-09T13:04:49.480Z</time>
      </trkpt>
      <trkpt lat="48.44234" lon="-4.51188">
        <ele>78.106181</ele>
        <time>2022-06-09T13:05:00.851Z</time>
      </trkpt>
      <trkpt lat="48.44261" lon="-4.51089">
        <ele>76.955557</ele>
        <time>2022-06-09T13:05:12.724Z</time>
      </trkpt>
      <trkpt lat="48.4404" lon="-4.51056">
        <ele>71.366107</ele>
        <time>2022-06-09T13:05:44.447Z</time>
      </trkpt>
      <trkpt lat="48.44045" lon="-4.50981">
        <ele>70.721694</ele>
        <time>2022-06-09T13:05:58.345Z</time>
      </trkpt>
      <trkpt lat="48.44077" lon="-4.50859">
        <ele>70.823302</ele>
        <time>2022-06-09T13:06:25.505Z</time>
      </trkpt>
      <trkpt lat="48.44108" lon="-4.50835">
        <ele>70.864332</ele>
        <time>2022-06-09T13:06:39.105Z</time>
      </trkpt>
      <trkpt lat="48.44164" lon="-4.50827">
        <ele>71.261577</ele>
        <time>2022-06-09T13:07:02.303Z</time>
      </trkpt>
      <trkpt lat="48.4417" lon="-4.5082">
        <ele>71.386252</ele>
        <time>2022-06-09T13:07:05.595Z</time>
      </trkpt>
      <trkpt lat="48.44177" lon="-4.508">
        <ele>71.602713</ele>
        <time>2022-06-09T13:07:12.580Z</time>
      </trkpt>
      <trkpt lat="48.44177" lon="-4.50785">
        <ele>71.757049</ele>
        <time>2022-06-09T13:07:16.058Z</time>
      </trkpt>
      <trkpt lat="48.44152" lon="-4.50747">
        <ele>72.29116</ele>
        <time>2022-06-09T13:07:30.350Z</time>
      </trkpt>
      <trkpt lat="48.44149" lon="-4.50728">
        <ele>72.489992</ele>
        <time>2022-06-09T13:07:35.214Z</time>
      </trkpt>
      <trkpt lat="48.44153" lon="-4.50712">
        <ele>72.656729</ele>
        <time>2022-06-09T13:07:40.534Z</time>
      </trkpt>
      <trkpt lat="48.44164" lon="-4.50657">
        <ele>73.225187</ele>
        <time>2022-06-09T13:07:54.862Z</time>
      </trkpt>
      <trkpt lat="48.44147" lon="-4.50642">
        <ele>73.514791</ele>
        <time>2022-06-09T13:07:58.757Z</time>
      </trkpt>
      <trkpt lat="48.4414" lon="-4.50621">
        <ele>73.630888</ele>
        <time>2022-06-09T13:08:03.749Z</time>
      </trkpt>
      <trkpt lat="48.44157" lon="-4.50526">
        <ele>73.83534</ele>
        <time>2022-06-09T13:08:18.731Z</time>
      </trkpt>
      <trkpt lat="48.4416" lon="-4.50425">
        <ele>74.044947</ele>
        <time>2022-06-09T13:08:32.227Z</time>
      </trkpt>
      <trkpt lat="48.44128" lon="-4.50261">
        <ele>74.584317</ele>
        <time>2022-06-09T13:08:54.944Z</time>
      </trkpt>
      <trkpt lat="48.44124" lon="-4.50228">
        <ele>74.707058</ele>
        <time>2022-06-09T13:08:59.833Z</time>
      </trkpt>
      <trkpt lat="48.44123" lon="-4.50186">
        <ele>74.8618</ele>
        <time>2022-06-09T13:09:06.694Z</time>
      </trkpt>
      <trkpt lat="48.44128" lon="-4.50162">
        <ele>74.954516</ele>
        <time>2022-06-09T13:09:11.067Z</time>
      </trkpt>
      <trkpt lat="48.44136" lon="-4.50148">
        <ele>75.020366</ele>
        <time>2022-06-09T13:09:14.048Z</time>
      </trkpt>
      <trkpt lat="48.44213" lon="-4.50091">
        <ele>76.26511</ele>
        <time>2022-06-09T13:09:37.470Z</time>
      </trkpt>
      <trkpt lat="48.44233" lon="-4.50153">
        <ele>77.104957</ele>
        <time>2022-06-09T13:09:51.329Z</time>
      </trkpt>
      <trkpt lat="48.44248" lon="-4.50159">
        <ele>77.379866</ele>
        <time>2022-06-09T13:09:55.894Z</time>
      </trkpt>
      <trkpt lat="48.44389" lon="-4.50156">
        <ele>80.182138</ele>
        <time>2022-06-09T13:10:39.650Z</time>
      </trkpt>
      <trkpt lat="48.44413" lon="-4.5014">
        <ele>80.729872</ele>
        <time>2022-06-09T13:10:47.614Z</time>
      </trkpt>
      <trkpt lat="48.44423" lon="-4.50143">
        <ele>80.925873</ele>
        <time>2022-06-09T13:10:50.516Z</time>
      </trkpt>
      <trkpt lat="48.44442" lon="-4.50104">
        <ele>81.602896</ele>
        <time>2022-06-09T13:11:00.457Z</time>
      </trkpt>
      <trkpt lat="48.4446" lon="-4.50102">
        <ele>81.989491</ele>
        <time>2022-06-09T13:11:06.320Z</time>
      </trkpt>
      <trkpt lat="48.44549" lon="-4.50131">
        <ele>83.75658</ele>
        <time>2022-06-09T13:11:33.993Z</time>
      </trkpt>
      <trkpt lat="48.44606" lon="-4.50155">
        <ele>84.901743</ele>
        <time>2022-06-09T13:11:52.168Z</time>
      </trkpt>
      <trkpt lat="48.4466" lon="-4.50191">
        <ele>85.86262</ele>
        <time>2022-06-09T13:12:09.048Z</time>
      </trkpt>
      <trkpt lat="48.4477" lon="-4.50189">
        <ele>86.993587</ele>
        <time>2022-06-09T13:12:37.397Z</time>
      </trkpt>
      <trkpt lat="48.44809" lon="-4.50198">
        <ele>87.390026</ele>
        <time>2022-06-09T13:12:46.140Z</time>
      </trkpt>
      <trkpt lat="48.44832" lon="-4.50229">
        <ele>87.653225</ele>
        <time>2022-06-09T13:12:53.005Z</time>
      </trkpt>
      <trkpt lat="48.44902" lon="-4.50358">
        <ele>88.464184</ele>
        <time>2022-06-09T13:13:18.426Z</time>
      </trkpt>
      <trkpt lat="48.45002" lon="-4.50382">
        <ele>89.529283</ele>
        <time>2022-06-09T13:13:56.083Z</time>
      </trkpt>
      <trkpt lat="48.45017" lon="-4.50345">
        <ele>89.928865</ele>
        <time>2022-06-09T13:14:07.621Z</time>
      </trkpt>
      <trkpt lat="48.45026" lon="-4.50252">
        <ele>90.778786</ele>
        <time>2022-06-09T13:14:32.267Z</time>
      </trkpt>
      <trkpt lat="48.45044" lon="-4.50196">
        <ele>91.344984</ele>
        <time>2022-06-09T13:14:48.833Z</time>
      </trkpt>
      <trkpt lat="48.45072" lon="-4.50073">
        <ele>92.326986</ele>
        <time>2022-06-09T13:15:21.175Z</time>
      </trkpt>
      <trkpt lat="48.45078" lon="-4.50064">
        <ele>92.428032</ele>
        <time>2022-06-09T13:15:24.493Z</time>
      </trkpt>
      <trkpt lat="48.45139" lon="-4.50036">
        <ele>93.166597</ele>
        <time>2022-06-09T13:15:48.089Z</time>
      </trkpt>
      <trkpt lat="48.45257" lon="-4.49927">
        <ele>94.545204</ele>
        <time>2022-06-09T13:16:38.433Z</time>
      </trkpt>
      <trkpt lat="48.45273" lon="-4.49921">
        <ele>94.70485</ele>
        <time>2022-06-09T13:16:44.386Z</time>
      </trkpt>
      <trkpt lat="48.45261" lon="-4.49817">
        <ele>95.384995</ele>
        <time>2022-06-09T13:17:10.156Z</time>
      </trkpt>
      <trkpt lat="48.45267" lon="-4.49776">
        <ele>95.655132</ele>
        <time>2022-06-09T13:17:20.485Z</time>
      </trkpt>
      <trkpt lat="48.45307" lon="-4.497">
        <ele>96.276141</ele>
        <time>2022-06-09T13:17:44.140Z</time>
      </trkpt>
      <trkpt lat="48.45319" lon="-4.49636">
        <ele>96.698221</ele>
        <time>2022-06-09T13:18:00.222Z</time>
      </trkpt>
      <trkpt lat="48.4533" lon="-4.49615">
        <ele>96.858639</ele>
        <time>2022-06-09T13:18:06.690Z</time>
      </trkpt>
      <trkpt lat="48.45397" lon="-4.49541">
        <ele>97.349285</ele>
        <time>2022-06-09T13:18:36.727Z</time>
      </trkpt>
      <trkpt lat="48.45414" lon="-4.4946">
        <ele>97.68318</ele>
        <time>2022-06-09T13:18:57.049Z</time>
      </trkpt>
      <trkpt lat="48.45419" lon="-4.49367">
        <ele>97.656129</ele>
        <time>2022-06-09T13:19:17.107Z</time>
      </trkpt>
      <trkpt lat="48.45396" lon="-4.4926">
        <ele>96.902155</ele>
        <time>2022-06-09T13:19:39.226Z</time>
      </trkpt>
      <trkpt lat="48.45395" lon="-4.49249">
        <ele>96.829584</ele>
        <time>2022-06-09T13:19:41.221Z</time>
      </trkpt>
      <trkpt lat="48.45361" lon="-4.49042">
        <ele>94.586322</ele>
        <time>2022-06-09T13:20:20.652Z</time>
      </trkpt>
      <trkpt lat="48.45345" lon="-4.48936">
        <ele>92.99772</ele>
        <time>2022-06-09T13:20:39.738Z</time>
      </trkpt>
      <trkpt lat="48.45329" lon="-4.48658">
        <ele>89.12345</ele>
        <time>2022-06-09T13:21:29.626Z</time>
      </trkpt>
      <trkpt lat="48.45311" lon="-4.48449">
        <ele>87.335569</ele>
        <time>2022-06-09T13:22:09.636Z</time>
      </trkpt>
      <trkpt lat="48.45366" lon="-4.48226">
        <ele>86.260034</ele>
        <time>2022-06-09T13:22:57.868Z</time>
      </trkpt>
      <trkpt lat="48.45419" lon="-4.48103">
        <ele>85.896422</ele>
        <time>2022-06-09T13:23:27.797Z</time>
      </trkpt>
      <trkpt lat="48.45466" lon="-4.48016">
        <ele>86.000996</ele>
        <time>2022-06-09T13:23:51.249Z</time>
      </trkpt>
      <trkpt lat="48.45495" lon="-4.47902">
        <ele>86.114691</ele>
        <time>2022-06-09T13:24:17.684Z</time>
      </trkpt>
      <trkpt lat="48.45501" lon="-4.47883">
        <ele>86.134429</ele>
        <time>2022-06-09T13:24:20.822Z</time>
      </trkpt>
      <trkpt lat="48.45509" lon="-4.47866">
        <ele>86.181266</ele>
        <time>2022-06-09T13:24:23.888Z</time>
      </trkpt>
      <trkpt lat="48.45556" lon="-4.47742">
        <ele>87.014962</ele>
        <time>2022-06-09T13:24:47.045Z</time>
      </trkpt>
      <trkpt lat="48.45603" lon="-4.47556">
        <ele>88.184754</ele>
        <time>2022-06-09T13:25:21.222Z</time>
      </trkpt>
      <trkpt lat="48.45604" lon="-4.47524">
        <ele>88.370525</ele>
        <time>2022-06-09T13:25:26.729Z</time>
      </trkpt>
      <trkpt lat="48.4562" lon="-4.47521">
        <ele>88.516446</ele>
        <time>2022-06-09T13:25:30.474Z</time>
      </trkpt>
      <trkpt lat="48.45619" lon="-4.47504">
        <ele>88.615939</ele>
        <time>2022-06-09T13:25:33.366Z</time>
      </trkpt>
      <trkpt lat="48.45605" lon="-4.47454">
        <ele>88.94188</ele>
        <time>2022-06-09T13:25:42.016Z</time>
      </trkpt>
      <trkpt lat="48.45602" lon="-4.47433">
        <ele>89.066562</ele>
        <time>2022-06-09T13:25:45.223Z</time>
      </trkpt>
      <trkpt lat="48.45606" lon="-4.47423">
        <ele>89.137784</ele>
        <time>2022-06-09T13:25:47.823Z</time>
      </trkpt>
      <trkpt lat="48.4559" lon="-4.47392">
        <ele>89.354224</ele>
        <time>2022-06-09T13:25:57.083Z</time>
      </trkpt>
      <trkpt lat="48.45586" lon="-4.47378">
        <ele>89.40329</ele>
        <time>2022-06-09T13:25:59.142Z</time>
      </trkpt>
      <trkpt lat="48.45555" lon="-4.47222">
        <ele>89.921779</ele>
        <time>2022-06-09T13:26:23.294Z</time>
      </trkpt>
      <trkpt lat="48.45562" lon="-4.47215">
        <ele>89.964318</ele>
        <time>2022-06-09T13:26:25.329Z</time>
      </trkpt>
      <trkpt lat="48.45606" lon="-4.47029">
        <ele>90.064726</ele>
        <time>2022-06-09T13:26:51.157Z</time>
      </trkpt>
      <trkpt lat="48.45626" lon="-4.46932">
        <ele>89.950372</ele>
        <time>2022-06-09T13:27:03.502Z</time>
      </trkpt>
      <trkpt lat="48.4563" lon="-4.46908">
        <ele>89.922413</ele>
        <time>2022-06-09T13:27:06.403Z</time>
      </trkpt>
      <trkpt lat="48.45651" lon="-4.46799">
        <ele>89.623</ele>
        <time>2022-06-09T13:27:19.702Z</time>
      </trkpt>
      <trkpt lat="48.45662" lon="-4.46762">
        <ele>89.50117</ele>
        <time>2022-06-09T13:27:24.363Z</time>
      </trkpt>
      <trkpt lat="48.45667" lon="-4.46743">
        <ele>89.439504</ele>
        <time>2022-06-09T13:27:26.748Z</time>
      </trkpt>
      <trkpt lat="48.45676" lon="-4.46718">
        <ele>89.353139</ele>
        <time>2022-06-09T13:27:30.156Z</time>
      </trkpt>
      <trkpt lat="48.45698" lon="-4.46659">
        <ele>89.146025</ele>
        <time>2022-06-09T13:27:38.486Z</time>
      </trkpt>
      <trkpt lat="48.45709" lon="-4.46632">
        <ele>89.053857</ele>
        <time>2022-06-09T13:27:42.259Z</time>
      </trkpt>
      <trkpt lat="48.4572" lon="-4.46544">
        <ele>88.78607</ele>
        <time>2022-06-09T13:27:53.335Z</time>
      </trkpt>
      <trkpt lat="48.45724" lon="-4.4648">
        <ele>88.595097</ele>
        <time>2022-06-09T13:28:01.145Z</time>
      </trkpt>
      <trkpt lat="48.45724" lon="-4.46443">
        <ele>88.483723</ele>
        <time>2022-06-09T13:28:05.580Z</time>
      </trkpt>
      <trkpt lat="48.4571" lon="-4.46299">
        <ele>87.794171</ele>
        <time>2022-06-09T13:28:22.045Z</time>
      </trkpt>
      <trkpt lat="48.45708" lon="-4.46242">
        <ele>87.419295</ele>
        <time>2022-06-09T13:28:28.481Z</time>
      </trkpt>
      <trkpt lat="48.4571" lon="-4.4618">
        <ele>87.018025</ele>
        <time>2022-06-09T13:28:35.293Z</time>
      </trkpt>
      <trkpt lat="48.45706" lon="-4.46133">
        <ele>86.704065</ele>
        <time>2022-06-09T13:28:40.650Z</time>
      </trkpt>
      <trkpt lat="48.45705" lon="-4.46124">
        <ele>86.645861</ele>
        <time>2022-06-09T13:28:41.644Z</time>
      </trkpt>
      <trkpt lat="48.45697" lon="-4.4606">
        <ele>86.203925</ele>
        <time>2022-06-09T13:28:48.957Z</time>
      </trkpt>
      <trkpt lat="48.45711" lon="-4.46049">
        <ele>86.038888</ele>
        <time>2022-06-09T13:28:51.634Z</time>
      </trkpt>
      <trkpt lat="48.45752" lon="-4.46012">
        <ele>85.529237</ele>
        <time>2022-06-09T13:28:59.834Z</time>
      </trkpt>
      <trkpt lat="48.45766" lon="-4.46">
        <ele>85.362818</ele>
        <time>2022-06-09T13:29:02.527Z</time>
      </trkpt>
      <trkpt lat="48.45824" lon="-4.45937">
        <ele>84.61153</ele>
        <time>2022-06-09T13:29:14.514Z</time>
      </trkpt>
      <trkpt lat="48.46055" lon="-4.45572">
        <ele>80.121034</ele>
        <time>2022-06-09T13:30:08.506Z</time>
      </trkpt>
      <trkpt lat="48.46073" lon="-4.45543">
        <ele>79.823078</ele>
        <time>2022-06-09T13:30:13.144Z</time>
      </trkpt>
      <trkpt lat="48.4614" lon="-4.45438">
        <ele>80.128365</ele>
        <time>2022-06-09T13:30:31.793Z</time>
      </trkpt>
      <trkpt lat="48.46228" lon="-4.45298">
        <ele>80.935342</ele>
        <time>2022-06-09T13:31:02.607Z</time>
      </trkpt>
      <trkpt lat="48.46283" lon="-4.45211">
        <ele>81.882588</ele>
        <time>2022-06-09T13:31:22.550Z</time>
      </trkpt>
      <trkpt lat="48.46381" lon="-4.45055">
        <ele>83.942704</ele>
        <time>2022-06-09T13:31:59.640Z</time>
      </trkpt>
      <trkpt lat="48.46393" lon="-4.44992">
        <ele>84.640912</ele>
        <time>2022-06-09T13:32:12.115Z</time>
      </trkpt>
      <trkpt lat="48.46385" lon="-4.4497">
        <ele>84.908091</ele>
        <time>2022-06-09T13:32:16.537Z</time>
      </trkpt>
      <trkpt lat="48.46372" lon="-4.44952">
        <ele>85.19153</ele>
        <time>2022-06-09T13:32:22.032Z</time>
      </trkpt>
      <trkpt lat="48.46373" lon="-4.44925">
        <ele>85.472936</ele>
        <time>2022-06-09T13:32:26.703Z</time>
      </trkpt>
      <trkpt lat="48.46381" lon="-4.44912">
        <ele>85.625403</ele>
        <time>2022-06-09T13:32:30.324Z</time>
      </trkpt>
      <trkpt lat="48.46395" lon="-4.44907">
        <ele>85.827367</ele>
        <time>2022-06-09T13:32:34.281Z</time>
      </trkpt>
      <trkpt lat="48.46405" lon="-4.44913">
        <ele>85.979647</ele>
        <time>2022-06-09T13:32:36.911Z</time>
      </trkpt>
      <trkpt lat="48.46413" lon="-4.44926">
        <ele>86.132084</ele>
        <time>2022-06-09T13:32:40.430Z</time>
      </trkpt>
      <trkpt lat="48.46436" lon="-4.44939">
        <ele>86.477415</ele>
        <time>2022-06-09T13:32:46.628Z</time>
      </trkpt>
      <trkpt lat="48.46461" lon="-4.44937">
        <ele>86.820356</ele>
        <time>2022-06-09T13:32:53.387Z</time>
      </trkpt>
      <trkpt lat="48.46572" lon="-4.4484">
        <ele>88.107164</ele>
        <time>2022-06-09T13:33:24.921Z</time>
      </trkpt>
      <trkpt lat="48.46571" lon="-4.44794">
        <ele>88.228085</ele>
        <time>2022-06-09T13:33:30.956Z</time>
      </trkpt>
      <trkpt lat="48.46582" lon="-4.44731">
        <ele>88.402904</ele>
        <time>2022-06-09T13:33:39.461Z</time>
      </trkpt>
      <trkpt lat="48.46576" lon="-4.44673">
        <ele>88.561302</ele>
        <time>2022-06-09T13:33:47.111Z</time>
      </trkpt>
      <trkpt lat="48.46555" lon="-4.44566">
        <ele>88.925946</ele>
        <time>2022-06-09T13:34:01.920Z</time>
      </trkpt>
      <trkpt lat="48.4654" lon="-4.44505">
        <ele>89.150965</ele>
        <time>2022-06-09T13:34:11.415Z</time>
      </trkpt>
      <trkpt lat="48.4652" lon="-4.44457">
        <ele>89.350555</ele>
        <time>2022-06-09T13:34:19.991Z</time>
      </trkpt>
      <trkpt lat="48.46431" lon="-4.4416">
        <ele>91.05713</ele>
        <time>2022-06-09T13:35:10.385Z</time>
      </trkpt>
      <trkpt lat="48.46399" lon="-4.44073">
        <ele>91.642313</ele>
        <time>2022-06-09T13:35:26.528Z</time>
      </trkpt>
      <trkpt lat="48.46389" lon="-4.43985">
        <ele>92.17491</ele>
        <time>2022-06-09T13:35:40.733Z</time>
      </trkpt>
      <trkpt lat="48.46378" lon="-4.43858">
        <ele>92.861339</ele>
        <time>2022-06-09T13:36:00.067Z</time>
      </trkpt>
      <trkpt lat="48.46384" lon="-4.43819">
        <ele>93.019218</ele>
        <time>2022-06-09T13:36:06.056Z</time>
      </trkpt>
      <trkpt lat="48.46395" lon="-4.43794">
        <ele>93.137225</ele>
        <time>2022-06-09T13:36:10.699Z</time>
      </trkpt>
      <trkpt lat="48.46442" lon="-4.43761">
        <ele>93.444254</ele>
        <time>2022-06-09T13:36:22.018Z</time>
      </trkpt>
      <trkpt lat="48.46472" lon="-4.43758">
        <ele>93.623078</ele>
        <time>2022-06-09T13:36:28.502Z</time>
      </trkpt>
      <trkpt lat="48.46495" lon="-4.43769">
        <ele>93.765235</ele>
        <time>2022-06-09T13:36:33.597Z</time>
      </trkpt>
      <trkpt lat="48.46516" lon="-4.43796">
        <ele>93.889598</ele>
        <time>2022-06-09T13:36:39.506Z</time>
      </trkpt>
      <trkpt lat="48.46559" lon="-4.43829">
        <ele>94.094385</ele>
        <time>2022-06-09T13:36:49.936Z</time>
      </trkpt>
      <trkpt lat="48.46581" lon="-4.43835">
        <ele>94.187976</ele>
        <time>2022-06-09T13:36:54.875Z</time>
      </trkpt>
      <trkpt lat="48.46626" lon="-4.43825">
        <ele>94.379011</ele>
        <time>2022-06-09T13:37:05.019Z</time>
      </trkpt>
      <trkpt lat="48.46647" lon="-4.4379">
        <ele>94.513405</ele>
        <time>2022-06-09T13:37:12.278Z</time>
      </trkpt>
      <trkpt lat="48.46689" lon="-4.43578">
        <ele>93.643243</ele>
        <time>2022-06-09T13:37:38.862Z</time>
      </trkpt>
      <trkpt lat="48.46689" lon="-4.43578">
        <ele>93.641056</ele>
        <time>2022-06-09T13:37:38.916Z</time>
      </trkpt>
      <trkpt lat="48.46696" lon="-4.43561">
        <ele>93.552225</ele>
        <time>2022-06-09T13:37:41.052Z</time>
      </trkpt>
      <trkpt lat="48.46702" lon="-4.43558">
        <ele>93.511987</ele>
        <time>2022-06-09T13:37:42.027Z</time>
      </trkpt>
      <trkpt lat="48.46759" lon="-4.43342">
        <ele>91.27753</ele>
        <time>2022-06-09T13:38:06.179Z</time>
      </trkpt>
      <trkpt lat="48.46709" lon="-4.4333">
        <ele>90.527576</ele>
        <time>2022-06-09T13:38:20.266Z</time>
      </trkpt>
      <trkpt lat="48.46632" lon="-4.43299">
        <ele>90.740113</ele>
        <time>2022-06-09T13:38:44.480Z</time>
      </trkpt>
      <trkpt lat="48.46088" lon="-4.43026">
        <ele>91.879393</ele>
        <time>2022-06-09T13:41:59.888Z</time>
      </trkpt>
      <trkpt lat="48.4612" lon="-4.42921">
        <ele>91.685542</ele>
        <time>2022-06-09T13:42:13.048Z</time>
      </trkpt>
      <trkpt lat="48.46139" lon="-4.42815">
        <ele>90.816026</ele>
        <time>2022-06-09T13:42:25.059Z</time>
      </trkpt>
      <trkpt lat="48.46147" lon="-4.42637">
        <ele>89.570325</ele>
        <time>2022-06-09T13:42:44.431Z</time>
      </trkpt>
      <trkpt lat="48.46144" lon="-4.42576">
        <ele>89.358626</ele>
        <time>2022-06-09T13:42:51.327Z</time>
      </trkpt>
      <trkpt lat="48.46143" lon="-4.42544">
        <ele>89.246165</ele>
        <time>2022-06-09T13:42:54.991Z</time>
      </trkpt>
      <trkpt lat="48.4616" lon="-4.42455">
        <ele>88.92266</ele>
        <time>2022-06-09T13:43:06.146Z</time>
      </trkpt>
      <trkpt lat="48.46165" lon="-4.42445">
        <ele>88.875855</ele>
        <time>2022-06-09T13:43:07.807Z</time>
      </trkpt>
      <trkpt lat="48.462" lon="-4.42427">
        <ele>88.829074</ele>
        <time>2022-06-09T13:43:15.106Z</time>
      </trkpt>
      <trkpt lat="48.46213" lon="-4.42407">
        <ele>88.944957</ele>
        <time>2022-06-09T13:43:19.198Z</time>
      </trkpt>
      <trkpt lat="48.46216" lon="-4.42391">
        <ele>89.015257</ele>
        <time>2022-06-09T13:43:21.782Z</time>
      </trkpt>
      <trkpt lat="48.46215" lon="-4.42374">
        <ele>89.08714</ele>
        <time>2022-06-09T13:43:24.466Z</time>
      </trkpt>
      <trkpt lat="48.46136" lon="-4.42144">
        <ele>89.870284</ele>
        <time>2022-06-09T13:44:04.071Z</time>
      </trkpt>
      <trkpt lat="48.46147" lon="-4.42137">
        <ele>89.869164</ele>
        <time>2022-06-09T13:44:06.243Z</time>
      </trkpt>
      <trkpt lat="48.46258" lon="-4.41982">
        <ele>89.744798</ele>
        <time>2022-06-09T13:44:33.958Z</time>
      </trkpt>
      <trkpt lat="48.46358" lon="-4.41889">
        <ele>89.285116</ele>
        <time>2022-06-09T13:44:54.512Z</time>
      </trkpt>
      <trkpt lat="48.46387" lon="-4.41849">
        <ele>89.180284</ele>
        <time>2022-06-09T13:45:02.160Z</time>
      </trkpt>
      <trkpt lat="48.46363" lon="-4.41818">
        <ele>89.365081</ele>
        <time>2022-06-09T13:45:09.008Z</time>
      </trkpt>
      <trkpt lat="48.46353" lon="-4.41775">
        <ele>89.544846</ele>
        <time>2022-06-09T13:45:15.895Z</time>
      </trkpt>
      <trkpt lat="48.46369" lon="-4.41589">
        <ele>90.326991</ele>
        <time>2022-06-09T13:45:45.590Z</time>
      </trkpt>
      <trkpt lat="48.46365" lon="-4.41546">
        <ele>90.633168</ele>
        <time>2022-06-09T13:45:53.294Z</time>
      </trkpt>
      <trkpt lat="48.4635" lon="-4.41479">
        <ele>91.124995</ele>
        <time>2022-06-09T13:46:05.435Z</time>
      </trkpt>
      <trkpt lat="48.46277" lon="-4.41162">
        <ele>93.287783</ele>
        <time>2022-06-09T13:47:02.299Z</time>
      </trkpt>
      <trkpt lat="48.46255" lon="-4.41082">
        <ele>93.745779</ele>
        <time>2022-06-09T13:47:16.120Z</time>
      </trkpt>
      <trkpt lat="48.46204" lon="-4.4098">
        <ele>93.745542</ele>
        <time>2022-06-09T13:47:34.072Z</time>
      </trkpt>
      <trkpt lat="48.4617" lon="-4.40944">
        <ele>93.745428</ele>
        <time>2022-06-09T13:47:42.036Z</time>
      </trkpt>
      <trkpt lat="48.46144" lon="-4.4094">
        <ele>93.745355</ele>
        <time>2022-06-09T13:47:47.121Z</time>
      </trkpt>
      <trkpt lat="48.46095" lon="-4.40928">
        <ele>93.60561</ele>
        <time>2022-06-09T13:47:56.058Z</time>
      </trkpt>
      <trkpt lat="48.46106" lon="-4.40849">
        <ele>93.35251</ele>
        <time>2022-06-09T13:48:06.193Z</time>
      </trkpt>
      <trkpt lat="48.46106" lon="-4.40817">
        <ele>93.25323</ele>
        <time>2022-06-09T13:48:10.161Z</time>
      </trkpt>
      <trkpt lat="48.46088" lon="-4.40678">
        <ele>92.827427</ele>
        <time>2022-06-09T13:48:28.078Z</time>
      </trkpt>
      <trkpt lat="48.46086" lon="-4.4047">
        <ele>92.297187</ele>
        <time>2022-06-09T13:48:54.841Z</time>
      </trkpt>
      <trkpt lat="48.46047" lon="-4.40218">
        <ele>91.370394</ele>
        <time>2022-06-09T13:49:26.895Z</time>
      </trkpt>
      <trkpt lat="48.46016" lon="-4.40039">
        <ele>91.042655</ele>
        <time>2022-06-09T13:49:50.301Z</time>
      </trkpt>
      <trkpt lat="48.46015" lon="-4.39982">
        <ele>90.980138</ele>
        <time>2022-06-09T13:49:57.825Z</time>
      </trkpt>
      <trkpt lat="48.46018" lon="-4.39947">
        <ele>90.940666</ele>
        <time>2022-06-09T13:50:02.616Z</time>
      </trkpt>
      <trkpt lat="48.4604" lon="-4.39819">
        <ele>91.20664</ele>
        <time>2022-06-09T13:50:21.342Z</time>
      </trkpt>
      <trkpt lat="48.46055" lon="-4.39702">
        <ele>91.615257</ele>
        <time>2022-06-09T13:50:39.398Z</time>
      </trkpt>
      <trkpt lat="48.46039" lon="-4.39561">
        <ele>92.429497</ele>
        <time>2022-06-09T13:51:02.815Z</time>
      </trkpt>
      <trkpt lat="48.45998" lon="-4.39045">
        <ele>96.219891</ele>
        <time>2022-06-09T13:52:33.806Z</time>
      </trkpt>
      <trkpt lat="48.46108" lon="-4.3849">
        <ele>97.812754</ele>
        <time>2022-06-09T13:53:59.712Z</time>
      </trkpt>
      <trkpt lat="48.46138" lon="-4.38325">
        <ele>97.650693</ele>
        <time>2022-06-09T13:54:21.418Z</time>
      </trkpt>
      <trkpt lat="48.46164" lon="-4.38079">
        <ele>97.057691</ele>
        <time>2022-06-09T13:54:52.344Z</time>
      </trkpt>
      <trkpt lat="48.46171" lon="-4.38015">
        <ele>97.259532</ele>
        <time>2022-06-09T13:55:01.251Z</time>
      </trkpt>
      <trkpt lat="48.46216" lon="-4.37586">
        <ele>100.82699</ele>
        <time>2022-06-09T13:56:19.171Z</time>
      </trkpt>
      <trkpt lat="48.46188" lon="-4.37394">
        <ele>102.457097</ele>
        <time>2022-06-09T13:56:56.636Z</time>
      </trkpt>
      <trkpt lat="48.46211" lon="-4.37299">
        <ele>103.22136</ele>
        <time>2022-06-09T13:57:13.641Z</time>
      </trkpt>
      <trkpt lat="48.46198" lon="-4.36991">
        <ele>103.906986</ele>
        <time>2022-06-09T13:57:56.510Z</time>
      </trkpt>
      <trkpt lat="48.46225" lon="-4.36749">
        <ele>104.392323</ele>
        <time>2022-06-09T13:58:30.496Z</time>
      </trkpt>
      <trkpt lat="48.46241" lon="-4.36585">
        <ele>105.215405</ele>
        <time>2022-06-09T13:58:57.363Z</time>
      </trkpt>
      <trkpt lat="48.46246" lon="-4.36432">
        <ele>106.024311</ele>
        <time>2022-06-09T13:59:23.080Z</time>
      </trkpt>
      <trkpt lat="48.46255" lon="-4.36391">
        <ele>106.119531</ele>
        <time>2022-06-09T13:59:30.223Z</time>
      </trkpt>
      <trkpt lat="48.46266" lon="-4.36366">
        <ele>106.184576</ele>
        <time>2022-06-09T13:59:35.052Z</time>
      </trkpt>
      <trkpt lat="48.46282" lon="-4.36344">
        <ele>106.257153</ele>
        <time>2022-06-09T13:59:40.329Z</time>
      </trkpt>
      <trkpt lat="48.46346" lon="-4.36279">
        <ele>106.513951</ele>
        <time>2022-06-09T13:59:56.995Z</time>
      </trkpt>
      <trkpt lat="48.46392" lon="-4.36205">
        <ele>105.964914</ele>
        <time>2022-06-09T14:00:09.476Z</time>
      </trkpt>
      <trkpt lat="48.4643" lon="-4.36064">
        <ele>104.56442</ele>
        <time>2022-06-09T14:00:26.252Z</time>
      </trkpt>
      <trkpt lat="48.46452" lon="-4.35894">
        <ele>103.297908</ele>
        <time>2022-06-09T14:00:45.749Z</time>
      </trkpt>
      <trkpt lat="48.46475" lon="-4.35867">
        <ele>103.005253</ele>
        <time>2022-06-09T14:00:50.969Z</time>
      </trkpt>
      <trkpt lat="48.46468" lon="-4.35839">
        <ele>102.808338</ele>
        <time>2022-06-09T14:00:54.449Z</time>
      </trkpt>
      <trkpt lat="48.46511" lon="-4.3578">
        <ele>102.347961</ele>
        <time>2022-06-09T14:01:05.014Z</time>
      </trkpt>
      <trkpt lat="48.46529" lon="-4.35737">
        <ele>102.467617</ele>
        <time>2022-06-09T14:01:11.832Z</time>
      </trkpt>
      <trkpt lat="48.46542" lon="-4.3564">
        <ele>102.702634</ele>
        <time>2022-06-09T14:01:27.242Z</time>
      </trkpt>
      <trkpt lat="48.46571" lon="-4.3553">
        <ele>102.932685</ele>
        <time>2022-06-09T14:01:43.998Z</time>
      </trkpt>
      <trkpt lat="48.46607" lon="-4.35456">
        <ele>102.665528</ele>
        <time>2022-06-09T14:01:55.470Z</time>
      </trkpt>
      <trkpt lat="48.46632" lon="-4.35366">
        <ele>102.380148</ele>
        <time>2022-06-09T14:02:07.069Z</time>
      </trkpt>
      <trkpt lat="48.46641" lon="-4.35256">
        <ele>101.885526</ele>
        <time>2022-06-09T14:02:19.453Z</time>
      </trkpt>
      <trkpt lat="48.46654" lon="-4.35235">
        <ele>101.675003</ele>
        <time>2022-06-09T14:02:22.533Z</time>
      </trkpt>
      <trkpt lat="48.46717" lon="-4.35196">
        <ele>100.904506</ele>
        <time>2022-06-09T14:02:33.902Z</time>
      </trkpt>
      <trkpt lat="48.4673" lon="-4.35183">
        <ele>100.737961</ele>
        <time>2022-06-09T14:02:36.320Z</time>
      </trkpt>
      <trkpt lat="48.46753" lon="-4.35149">
        <ele>100.371496</ele>
        <time>2022-06-09T14:02:41.699Z</time>
      </trkpt>
      <trkpt lat="48.46762" lon="-4.35125">
        <ele>100.167523</ele>
        <time>2022-06-09T14:02:44.756Z</time>
      </trkpt>
      <trkpt lat="48.468" lon="-4.34929">
        <ele>99.592866</ele>
        <time>2022-06-09T14:03:07.909Z</time>
      </trkpt>
      <trkpt lat="48.46878" lon="-4.34804">
        <ele>100.160538</ele>
        <time>2022-06-09T14:03:34.582Z</time>
      </trkpt>
      <trkpt lat="48.46907" lon="-4.34763">
        <ele>100.599465</ele>
        <time>2022-06-09T14:03:45.136Z</time>
      </trkpt>
      <trkpt lat="48.46915" lon="-4.34737">
        <ele>100.810762</ele>
        <time>2022-06-09T14:03:50.236Z</time>
      </trkpt>
      <trkpt lat="48.46914" lon="-4.34713">
        <ele>100.989877</ele>
        <time>2022-06-09T14:03:54.356Z</time>
      </trkpt>
      <trkpt lat="48.46897" lon="-4.34636">
        <ele>101.402176</ele>
        <time>2022-06-09T14:04:08.371Z</time>
      </trkpt>
      <trkpt lat="48.4689" lon="-4.34556">
        <ele>101.418071</ele>
        <time>2022-06-09T14:04:21.602Z</time>
      </trkpt>
      <trkpt lat="48.46893" lon="-4.34509">
        <ele>101.427519</ele>
        <time>2022-06-09T14:04:28.702Z</time>
      </trkpt>
      <trkpt lat="48.46902" lon="-4.34317">
        <ele>100.321818</ele>
        <time>2022-06-09T14:04:49.796Z</time>
      </trkpt>
      <trkpt lat="48.46902" lon="-4.34288">
        <ele>99.8985</ele>
        <time>2022-06-09T14:04:52.574Z</time>
      </trkpt>
      <trkpt lat="48.46918" lon="-4.34284">
        <ele>99.541247</ele>
        <time>2022-06-09T14:04:56.770Z</time>
      </trkpt>
      <trkpt lat="48.47001" lon="-4.34302">
        <ele>97.619856</ele>
        <time>2022-06-09T14:05:18.871Z</time>
      </trkpt>
      <trkpt lat="48.47037" lon="-4.34279">
        <ele>96.874984</ele>
        <time>2022-06-09T14:05:29.099Z</time>
      </trkpt>
      <trkpt lat="48.47137" lon="-4.34252">
        <ele>95.060886</ele>
        <time>2022-06-09T14:05:56.876Z</time>
      </trkpt>
      <trkpt lat="48.47132" lon="-4.34242">
        <ele>94.906277</ele>
        <time>2022-06-09T14:05:59.391Z</time>
      </trkpt>
      <trkpt lat="48.47116" lon="-4.34187">
        <ele>94.201729</ele>
        <time>2022-06-09T14:06:11.178Z</time>
      </trkpt>
      <trkpt lat="48.47186" lon="-4.34164">
        <ele>93.835304</ele>
        <time>2022-06-09T14:06:33.255Z</time>
      </trkpt>
      <trkpt lat="48.47219" lon="-4.34147">
        <ele>93.670929</ele>
        <time>2022-06-09T14:06:44.131Z</time>
      </trkpt>
      <trkpt lat="48.47239" lon="-4.34133">
        <ele>93.56758</ele>
        <time>2022-06-09T14:06:51.038Z</time>
      </trkpt>
      <trkpt lat="48.47267" lon="-4.34132">
        <ele>93.436709</ele>
        <time>2022-06-09T14:06:59.595Z</time>
      </trkpt>
      <trkpt lat="48.47285" lon="-4.34139">
        <ele>93.3456</ele>
        <time>2022-06-09T14:07:05.483Z</time>
      </trkpt>
      <trkpt lat="48.47319" lon="-4.34128">
        <ele>93.010215</ele>
        <time>2022-06-09T14:07:15.604Z</time>
      </trkpt>
      <trkpt lat="48.47325" lon="-4.34126">
        <ele>92.947063</ele>
        <time>2022-06-09T14:07:17.356Z</time>
      </trkpt>
      <trkpt lat="48.47336" lon="-4.34097">
        <ele>92.702248</ele>
        <time>2022-06-09T14:07:23.820Z</time>
      </trkpt>
      <trkpt lat="48.47343" lon="-4.34089">
        <ele>92.604432</ele>
        <time>2022-06-09T14:07:26.413Z</time>
      </trkpt>
      <trkpt lat="48.47377" lon="-4.34072">
        <ele>92.219314</ele>
        <time>2022-06-09T14:07:36.498Z</time>
      </trkpt>
      <trkpt lat="48.47408" lon="-4.34045">
        <ele>91.826003</ele>
        <time>2022-06-09T14:07:46.578Z</time>
      </trkpt>
      <trkpt lat="48.47407" lon="-4.34027">
        <ele>91.688968</ele>
        <time>2022-06-09T14:07:50.205Z</time>
      </trkpt>
      <trkpt lat="48.47426" lon="-4.34006">
        <ele>91.443223</ele>
        <time>2022-06-09T14:07:56.560Z</time>
      </trkpt>
      <trkpt lat="48.47477" lon="-4.33978">
        <ele>91.557602</ele>
        <time>2022-06-09T14:08:12.848Z</time>
      </trkpt>
      <trkpt lat="48.47541" lon="-4.33966">
        <ele>91.851806</ele>
        <time>2022-06-09T14:08:34.998Z</time>
      </trkpt>
      <trkpt lat="48.47521" lon="-4.33946">
        <ele>91.963718</ele>
        <time>2022-06-09T14:08:44.322Z</time>
      </trkpt>
      <trkpt lat="48.47506" lon="-4.33923">
        <ele>92.058057</ele>
        <time>2022-06-09T14:08:52.630Z</time>
      </trkpt>
      <trkpt lat="48.47498" lon="-4.33882">
        <ele>92.217744</ele>
        <time>2022-06-09T14:09:03.906Z</time>
      </trkpt>
      <trkpt lat="48.4746" lon="-4.33786">
        <ele>92.956759</ele>
        <time>2022-06-09T14:09:34.145Z</time>
      </trkpt>
      <trkpt lat="48.47441" lon="-4.33717">
        <ele>93.448848</ele>
        <time>2022-06-09T14:09:52.641Z</time>
      </trkpt>
      <trkpt lat="48.4741" lon="-4.33677">
        <ele>93.853259</ele>
        <time>2022-06-09T14:10:06.268Z</time>
      </trkpt>
      <trkpt lat="48.47406" lon="-4.33654">
        <ele>93.882511</ele>
        <time>2022-06-09T14:10:11.267Z</time>
      </trkpt>
      <trkpt lat="48.47403" lon="-4.33643">
        <ele>93.788409</ele>
        <time>2022-06-09T14:10:12.849Z</time>
      </trkpt>
      <trkpt lat="48.47446" lon="-4.33619">
        <ele>93.259042</ele>
        <time>2022-06-09T14:10:20.571Z</time>
      </trkpt>
      <trkpt lat="48.47471" lon="-4.33598">
        <ele>92.9284</ele>
        <time>2022-06-09T14:10:25.128Z</time>
      </trkpt>
      <trkpt lat="48.47469" lon="-4.3359">
        <ele>92.864335</ele>
        <time>2022-06-09T14:10:25.992Z</time>
      </trkpt>
      <trkpt lat="48.47476" lon="-4.33579">
        <ele>92.743915</ele>
        <time>2022-06-09T14:10:27.609Z</time>
      </trkpt>
      <trkpt lat="48.47461" lon="-4.33415">
        <ele>91.891518</ele>
        <time>2022-06-09T14:10:44.869Z</time>
      </trkpt>
      <trkpt lat="48.47441" lon="-4.33241">
        <ele>92.012558</ele>
        <time>2022-06-09T14:11:08.837Z</time>
      </trkpt>
      <trkpt lat="48.47428" lon="-4.33126">
        <ele>93.260968</ele>
        <time>2022-06-09T14:11:29.766Z</time>
      </trkpt>
      <trkpt lat="48.47404" lon="-4.33031">
        <ele>94.963157</ele>
        <time>2022-06-09T14:11:51.733Z</time>
      </trkpt>
      <trkpt lat="48.47384" lon="-4.32974">
        <ele>96.062021</ele>
        <time>2022-06-09T14:12:07.636Z</time>
      </trkpt>
      <trkpt lat="48.47336" lon="-4.32838">
        <ele>99.11779</ele>
        <time>2022-06-09T14:12:44.200Z</time>
      </trkpt>
      <trkpt lat="48.47315" lon="-4.32754">
        <ele>100.954001</ele>
        <time>2022-06-09T14:13:05.050Z</time>
      </trkpt>
      <trkpt lat="48.47293" lon="-4.32662">
        <ele>102.565696</ele>
        <time>2022-06-09T14:13:26.529Z</time>
      </trkpt>
      <trkpt lat="48.47286" lon="-4.32649">
        <ele>102.734216</ele>
        <time>2022-06-09T14:13:29.906Z</time>
      </trkpt>
      <trkpt lat="48.47268" lon="-4.32632">
        <ele>103.05506</ele>
        <time>2022-06-09T14:13:35.954Z</time>
      </trkpt>
      <trkpt lat="48.47225" lon="-4.32591">
        <ele>103.818594</ele>
        <time>2022-06-09T14:13:49.341Z</time>
      </trkpt>
      <trkpt lat="48.47191" lon="-4.32561">
        <ele>104.420303</ele>
        <time>2022-06-09T14:13:58.731Z</time>
      </trkpt>
      <trkpt lat="48.47164" lon="-4.32528">
        <ele>104.919637</ele>
        <time>2022-06-09T14:14:06.611Z</time>
      </trkpt>
      <trkpt lat="48.47157" lon="-4.32509">
        <ele>104.933967</ele>
        <time>2022-06-09T14:14:09.741Z</time>
      </trkpt>
      <trkpt lat="48.47158" lon="-4.32475">
        <ele>104.956504</ele>
        <time>2022-06-09T14:14:14.691Z</time>
      </trkpt>
      <trkpt lat="48.47178" lon="-4.32424">
        <ele>104.994775</ele>
        <time>2022-06-09T14:14:22.431Z</time>
      </trkpt>
      <trkpt lat="48.47191" lon="-4.3238">
        <ele>105.02697</ele>
        <time>2022-06-09T14:14:28.536Z</time>
      </trkpt>
      <trkpt lat="48.47195" lon="-4.32348">
        <ele>105.048328</ele>
        <time>2022-06-09T14:14:32.510Z</time>
      </trkpt>
      <trkpt lat="48.47155" lon="-4.32298">
        <ele>105.075216</ele>
        <time>2022-06-09T14:14:42.252Z</time>
      </trkpt>
      <trkpt lat="48.47146" lon="-4.32298">
        <ele>105.032998</ele>
        <time>2022-06-09T14:14:43.873Z</time>
      </trkpt>
      <trkpt lat="48.47142" lon="-4.32291">
        <ele>105.000343</ele>
        <time>2022-06-09T14:14:45.123Z</time>
      </trkpt>
      <trkpt lat="48.47142" lon="-4.32278">
        <ele>104.960297</ele>
        <time>2022-06-09T14:14:46.636Z</time>
      </trkpt>
      <trkpt lat="48.47041" lon="-4.32186">
        <ele>104.380986</ele>
        <time>2022-06-09T14:15:08.027Z</time>
      </trkpt>
      <trkpt lat="48.46983" lon="-4.32116">
        <ele>103.738331</ele>
        <time>2022-06-09T14:15:20.632Z</time>
      </trkpt>
      <trkpt lat="48.46942" lon="-4.32054">
        <ele>103.0395</ele>
        <time>2022-06-09T14:15:30.210Z</time>
      </trkpt>
      <trkpt lat="48.46905" lon="-4.31979">
        <ele>102.294532</ele>
        <time>2022-06-09T14:15:40.386Z</time>
      </trkpt>
      <trkpt lat="48.46861" lon="-4.31918">
        <ele>101.611485</ele>
        <time>2022-06-09T14:15:50.107Z</time>
      </trkpt>
      <trkpt lat="48.46851" lon="-4.31925">
        <ele>101.491246</ele>
        <time>2022-06-09T14:15:51.924Z</time>
      </trkpt>
      <trkpt lat="48.46844" lon="-4.31915">
        <ele>101.38015</ele>
        <time>2022-06-09T14:15:53.510Z</time>
      </trkpt>
      <trkpt lat="48.46847" lon="-4.31901">
        <ele>101.2753</ele>
        <time>2022-06-09T14:15:55.050Z</time>
      </trkpt>
      <trkpt lat="48.46798" lon="-4.31843">
        <ele>100.581459</ele>
        <time>2022-06-09T14:16:05.327Z</time>
      </trkpt>
      <trkpt lat="48.46754" lon="-4.31747">
        <ele>99.946579</ele>
        <time>2022-06-09T14:16:18.557Z</time>
      </trkpt>
      <trkpt lat="48.46671" lon="-4.3162">
        <ele>99.555388</ele>
        <time>2022-06-09T14:16:40.467Z</time>
      </trkpt>
      <trkpt lat="48.46671" lon="-4.31619">
        <ele>99.55484</ele>
        <time>2022-06-09T14:16:40.559Z</time>
      </trkpt>
      <trkpt lat="48.4661" lon="-4.31507">
        <ele>99.361827</ele>
        <time>2022-06-09T14:16:58.892Z</time>
      </trkpt>
      <trkpt lat="48.46592" lon="-4.3148">
        <ele>99.326619</ele>
        <time>2022-06-09T14:17:03.765Z</time>
      </trkpt>
      <trkpt lat="48.4655" lon="-4.31437">
        <ele>99.257206</ele>
        <time>2022-06-09T14:17:13.282Z</time>
      </trkpt>
      <trkpt lat="48.46515" lon="-4.31392">
        <ele>99.133287</ele>
        <time>2022-06-09T14:17:21.838Z</time>
      </trkpt>
      <trkpt lat="48.4649" lon="-4.31343">
        <ele>98.69039</ele>
        <time>2022-06-09T14:17:29.368Z</time>
      </trkpt>
      <trkpt lat="48.46407" lon="-4.31139">
        <ele>96.932484</ele>
        <time>2022-06-09T14:17:55.266Z</time>
      </trkpt>
      <trkpt lat="48.4634" lon="-4.31008">
        <ele>95.548035</ele>
        <time>2022-06-09T14:18:13.065Z</time>
      </trkpt>
      <trkpt lat="48.46332" lon="-4.31037">
        <ele>95.280633</ele>
        <time>2022-06-09T14:18:16.790Z</time>
      </trkpt>
      <trkpt lat="48.46326" lon="-4.31104">
        <ele>94.949966</ele>
        <time>2022-06-09T14:18:24.601Z</time>
      </trkpt>
      <trkpt lat="48.46313" lon="-4.31129">
        <ele>94.905946</ele>
        <time>2022-06-09T14:18:28.624Z</time>
      </trkpt>
      <trkpt lat="48.46251" lon="-4.31167">
        <ele>94.768406</ele>
        <time>2022-06-09T14:18:41.763Z</time>
      </trkpt>
      <trkpt lat="48.46217" lon="-4.31179">
        <ele>94.697393</ele>
        <time>2022-06-09T14:18:49.691Z</time>
      </trkpt>
      <trkpt lat="48.46195" lon="-4.31176">
        <ele>94.653211</ele>
        <time>2022-06-09T14:18:54.494Z</time>
      </trkpt>
      <trkpt lat="48.46153" lon="-4.31133">
        <ele>94.808129</ele>
        <time>2022-06-09T14:19:05.849Z</time>
      </trkpt>
      <trkpt lat="48.46146" lon="-4.31128">
        <ele>94.841932</ele>
        <time>2022-06-09T14:19:07.489Z</time>
      </trkpt>
      <trkpt lat="48.46123" lon="-4.31131">
        <ele>94.947202</ele>
        <time>2022-06-09T14:19:12.250Z</time>
      </trkpt>
      <trkpt lat="48.46106" lon="-4.31125">
        <ele>95.029595</ele>
        <time>2022-06-09T14:19:16.178Z</time>
      </trkpt>
      <trkpt lat="48.45926" lon="-4.31169">
        <ele>96.034436</ele>
        <time>2022-06-09T14:19:58.276Z</time>
      </trkpt>
      <trkpt lat="48.45841" lon="-4.31192">
        <ele>96.588371</ele>
        <time>2022-06-09T14:20:19.426Z</time>
      </trkpt>
      <trkpt lat="48.45752" lon="-4.31205">
        <ele>96.152421</ele>
        <time>2022-06-09T14:20:39.067Z</time>
      </trkpt>
      <trkpt lat="48.45694" lon="-4.31199">
        <ele>95.832357</ele>
        <time>2022-06-09T14:20:49.689Z</time>
      </trkpt>
      <trkpt lat="48.45634" lon="-4.3116">
        <ele>94.760329</ele>
        <time>2022-06-09T14:21:00.565Z</time>
      </trkpt>
      <trkpt lat="48.4545" lon="-4.30945">
        <ele>88.08499</ele>
        <time>2022-06-09T14:21:35.874Z</time>
      </trkpt>
      <trkpt lat="48.4541" lon="-4.30905">
        <ele>86.826991</ele>
        <time>2022-06-09T14:21:43.642Z</time>
      </trkpt>
      <trkpt lat="48.45378" lon="-4.30894">
        <ele>85.944276</ele>
        <time>2022-06-09T14:21:49.130Z</time>
      </trkpt>
      <trkpt lat="48.45366" lon="-4.30905">
        <ele>85.582475</ele>
        <time>2022-06-09T14:21:51.555Z</time>
      </trkpt>
      <trkpt lat="48.45354" lon="-4.30876">
        <ele>84.98278</ele>
        <time>2022-06-09T14:21:56.404Z</time>
      </trkpt>
      <trkpt lat="48.45318" lon="-4.30856">
        <ele>84.003358</ele>
        <time>2022-06-09T14:22:06.949Z</time>
      </trkpt>
      <trkpt lat="48.4528" lon="-4.30817">
        <ele>82.808742</ele>
        <time>2022-06-09T14:22:19.683Z</time>
      </trkpt>
      <trkpt lat="48.45203" lon="-4.3077">
        <ele>80.57051</ele>
        <time>2022-06-09T14:22:41.018Z</time>
      </trkpt>
      <trkpt lat="48.45163" lon="-4.30697">
        <ele>78.05616</ele>
        <time>2022-06-09T14:22:56.556Z</time>
      </trkpt>
      <trkpt lat="48.4509" lon="-4.30658">
        <ele>74.960914</ele>
        <time>2022-06-09T14:23:15.679Z</time>
      </trkpt>
      <trkpt lat="48.4506" lon="-4.3062">
        <ele>73.385702</ele>
        <time>2022-06-09T14:23:25.589Z</time>
      </trkpt>
      <trkpt lat="48.45016" lon="-4.30588">
        <ele>71.424041</ele>
        <time>2022-06-09T14:23:37.808Z</time>
      </trkpt>
      <trkpt lat="48.45" lon="-4.30567">
        <ele>70.58128</ele>
        <time>2022-06-09T14:23:43.090Z</time>
      </trkpt>
      <trkpt lat="48.44992" lon="-4.30538">
        <ele>69.746607</ele>
        <time>2022-06-09T14:23:48.269Z</time>
      </trkpt>
      <trkpt lat="48.45017" lon="-4.30471">
        <ele>67.698358</ele>
        <time>2022-06-09T14:24:01.126Z</time>
      </trkpt>
      <trkpt lat="48.44951" lon="-4.30419">
        <ele>64.316795</ele>
        <time>2022-06-09T14:24:19.494Z</time>
      </trkpt>
      <trkpt lat="48.44875" lon="-4.30352">
        <ele>59.929649</ele>
        <time>2022-06-09T14:24:40.578Z</time>
      </trkpt>
      <trkpt lat="48.44875" lon="-4.30352">
        <ele>59.929649</ele>
        <time>2022-06-09T14:24:40.605Z</time>
      </trkpt>
      <trkpt lat="48.44837" lon="-4.30309">
        <ele>57.54354</ele>
        <time>2022-06-09T14:24:52.032Z</time>
      </trkpt>
      <trkpt lat="48.44764" lon="-4.30217">
        <ele>53.759396</ele>
        <time>2022-06-09T14:25:14.674Z</time>
      </trkpt>
      <trkpt lat="48.44764" lon="-4.30217">
        <ele>53.759396</ele>
        <time>2022-06-09T14:25:14.681Z</time>
      </trkpt>
      <trkpt lat="48.44768" lon="-4.30198">
        <ele>53.230238</ele>
        <time>2022-06-09T14:25:17.844Z</time>
      </trkpt>
      <trkpt lat="48.44778" lon="-4.30197">
        <ele>52.835876</ele>
        <time>2022-06-09T14:25:20.253Z</time>
      </trkpt>
      <trkpt lat="48.44813" lon="-4.3023">
        <ele>51.215074</ele>
        <time>2022-06-09T14:25:30.485Z</time>
      </trkpt>
      <trkpt lat="48.44881" lon="-4.30209">
        <ele>52.026028</ele>
        <time>2022-06-09T14:25:51.982Z</time>
      </trkpt>
      <trkpt lat="48.44902" lon="-4.30197">
        <ele>52.83843</ele>
        <time>2022-06-09T14:26:02.443Z</time>
      </trkpt>
      <trkpt lat="48.44906" lon="-4.30188">
        <ele>53.084782</ele>
        <time>2022-06-09T14:26:05.975Z</time>
      </trkpt>
      <trkpt lat="48.44907" lon="-4.30176">
        <ele>53.368122</ele>
        <time>2022-06-09T14:26:10.039Z</time>
      </trkpt>
      <trkpt lat="48.44906" lon="-4.30158">
        <ele>53.792156</ele>
        <time>2022-06-09T14:26:17.010Z</time>
      </trkpt>
      <trkpt lat="48.44881" lon="-4.30107">
        <ele>55.299276</ele>
        <time>2022-06-09T14:26:41.188Z</time>
      </trkpt>
      <trkpt lat="48.4488" lon="-4.30054">
        <ele>56.545426</ele>
        <time>2022-06-09T14:27:04.159Z</time>
      </trkpt>
      <trkpt lat="48.44884" lon="-4.30042">
        <ele>57.005274</ele>
        <time>2022-06-09T14:27:10.146Z</time>
      </trkpt>
      <trkpt lat="48.44885" lon="-4.30037">
        <ele>57.315071</ele>
        <time>2022-06-09T14:27:12.797Z</time>
      </trkpt>
      <trkpt lat="48.44888" lon="-4.30032">
        <ele>57.653523</ele>
        <time>2022-06-09T14:27:15.641Z</time>
      </trkpt>
      <trkpt lat="48.44889" lon="-4.30027">
        <ele>57.920737</ele>
        <time>2022-06-09T14:27:18.164Z</time>
      </trkpt>
      <trkpt lat="48.44966" lon="-4.29909">
        <ele>66.756871</ele>
        <time>2022-06-09T14:28:40.351Z</time>
      </trkpt>
      <trkpt lat="48.45005" lon="-4.29812">
        <ele>72.7461</ele>
        <time>2022-06-09T14:29:34.221Z</time>
      </trkpt>
      <trkpt lat="48.45025" lon="-4.298">
        <ele>74.424633</ele>
        <time>2022-06-09T14:29:48.801Z</time>
      </trkpt>
      <trkpt lat="48.4507" lon="-4.29804">
        <ele>77.985546</ele>
        <time>2022-06-09T14:30:20.536Z</time>
      </trkpt>
      <trkpt lat="48.45082" lon="-4.29798">
        <ele>79.002238</ele>
        <time>2022-06-09T14:30:30.970Z</time>
      </trkpt>
      <trkpt lat="48.45098" lon="-4.29779">
        <ele>80.553781</ele>
        <time>2022-06-09T14:30:43.714Z</time>
      </trkpt>
      <trkpt lat="48.45129" lon="-4.29708">
        <ele>84.963543</ele>
        <time>2022-06-09T14:31:25.386Z</time>
      </trkpt>
      <trkpt lat="48.45163" lon="-4.29627">
        <ele>88.553255</ele>
        <time>2022-06-09T14:32:10.019Z</time>
      </trkpt>
      <trkpt lat="48.45183" lon="-4.29541">
        <ele>91.872274</ele>
        <time>2022-06-09T14:32:40.142Z</time>
      </trkpt>
      <trkpt lat="48.45192" lon="-4.29508">
        <ele>93.196211</ele>
        <time>2022-06-09T14:32:50.688Z</time>
      </trkpt>
      <trkpt lat="48.45214" lon="-4.29485">
        <ele>94.66448</ele>
        <time>2022-06-09T14:33:01.580Z</time>
      </trkpt>
      <trkpt lat="48.45387" lon="-4.29453">
        <ele>96.567083</ele>
        <time>2022-06-09T14:33:43.205Z</time>
      </trkpt>
      <trkpt lat="48.45549" lon="-4.29335">
        <ele>95.519563</ele>
        <time>2022-06-09T14:34:15.733Z</time>
      </trkpt>
      <trkpt lat="48.45724" lon="-4.29254">
        <ele>95.062021</ele>
        <time>2022-06-09T14:34:50.451Z</time>
      </trkpt>
      <trkpt lat="48.4581" lon="-4.29192">
        <ele>96.000618</ele>
        <time>2022-06-09T14:35:15.696Z</time>
      </trkpt>
      <trkpt lat="48.4574" lon="-4.29097">
        <ele>97.080337</ele>
        <time>2022-06-09T14:35:41.140Z</time>
      </trkpt>
      <trkpt lat="48.45702" lon="-4.29009">
        <ele>96.838927</ele>
        <time>2022-06-09T14:35:56.936Z</time>
      </trkpt>
      <trkpt lat="48.45701" lon="-4.29008">
        <ele>96.83513</ele>
        <time>2022-06-09T14:35:57.119Z</time>
      </trkpt>
      <trkpt lat="48.45692" lon="-4.29005">
        <ele>96.795635</ele>
        <time>2022-06-09T14:36:00.160Z</time>
      </trkpt>
      <trkpt lat="48.45685" lon="-4.28993">
        <ele>96.754429</ele>
        <time>2022-06-09T14:36:03.390Z</time>
      </trkpt>
      <trkpt lat="48.45592" lon="-4.2881">
        <ele>95.650445</ele>
        <time>2022-06-09T14:36:46.775Z</time>
      </trkpt>
      <trkpt lat="48.45537" lon="-4.28694">
        <ele>94.526536</ele>
        <time>2022-06-09T14:37:13.390Z</time>
      </trkpt>
      <trkpt lat="48.45492" lon="-4.2858">
        <ele>94.254838</ele>
        <time>2022-06-09T14:37:41.170Z</time>
      </trkpt>
      <trkpt lat="48.45475" lon="-4.28558">
        <ele>94.259374</ele>
        <time>2022-06-09T14:37:48.040Z</time>
      </trkpt>
      <trkpt lat="48.45478" lon="-4.28545">
        <ele>94.261242</ele>
        <time>2022-06-09T14:37:51.559Z</time>
      </trkpt>
      <trkpt lat="48.45467" lon="-4.28532">
        <ele>94.264197</ele>
        <time>2022-06-09T14:37:54.301Z</time>
      </trkpt>
      <trkpt lat="48.45463" lon="-4.28527">
        <ele>94.265223</ele>
        <time>2022-06-09T14:37:55.230Z</time>
      </trkpt>
      <trkpt lat="48.45358" lon="-4.28369">
        <ele>93.840681</ele>
        <time>2022-06-09T14:38:25.830Z</time>
      </trkpt>
      <trkpt lat="48.45358" lon="-4.28369">
        <ele>93.840046</ele>
        <time>2022-06-09T14:38:25.853Z</time>
      </trkpt>
      <trkpt lat="48.45332" lon="-4.28342">
        <ele>93.671235</ele>
        <time>2022-06-09T14:38:31.477Z</time>
      </trkpt>
      <trkpt lat="48.45275" lon="-4.28302">
        <ele>93.343454</ele>
        <time>2022-06-09T14:38:41.826Z</time>
      </trkpt>
      <trkpt lat="48.45257" lon="-4.28293">
        <ele>92.890789</ele>
        <time>2022-06-09T14:38:44.927Z</time>
      </trkpt>
      <trkpt lat="48.45166" lon="-4.28248">
        <ele>90.332037</ele>
        <time>2022-06-09T14:38:59.326Z</time>
      </trkpt>
      <trkpt lat="48.45141" lon="-4.28227">
        <ele>89.566799</ele>
        <time>2022-06-09T14:39:03.451Z</time>
      </trkpt>
      <trkpt lat="48.45128" lon="-4.28215">
        <ele>89.157237</ele>
        <time>2022-06-09T14:39:05.648Z</time>
      </trkpt>
      <trkpt lat="48.45086" lon="-4.28175">
        <ele>87.262981</ele>
        <time>2022-06-09T14:39:12.583Z</time>
      </trkpt>
      <trkpt lat="48.45083" lon="-4.28173">
        <ele>87.119332</ele>
        <time>2022-06-09T14:39:12.978Z</time>
      </trkpt>
      <trkpt lat="48.45079" lon="-4.28169">
        <ele>86.846434</ele>
        <time>2022-06-09T14:39:13.760Z</time>
      </trkpt>
      <trkpt lat="48.45018" lon="-4.2811">
        <ele>83.350779</ele>
        <time>2022-06-09T14:39:23.399Z</time>
      </trkpt>
      <trkpt lat="48.45012" lon="-4.28101">
        <ele>82.929375</ele>
        <time>2022-06-09T14:39:24.553Z</time>
      </trkpt>
      <trkpt lat="48.44982" lon="-4.2807">
        <ele>81.144582</ele>
        <time>2022-06-09T14:39:29.356Z</time>
      </trkpt>
      <trkpt lat="48.4495" lon="-4.28028">
        <ele>78.962342</ele>
        <time>2022-06-09T14:39:34.860Z</time>
      </trkpt>
      <trkpt lat="48.44912" lon="-4.27981">
        <ele>76.115018</ele>
        <time>2022-06-09T14:39:41.270Z</time>
      </trkpt>
      <trkpt lat="48.44863" lon="-4.27927">
        <ele>72.591233</ele>
        <time>2022-06-09T14:39:49.111Z</time>
      </trkpt>
      <trkpt lat="48.44864" lon="-4.27889">
        <ele>71.142154</ele>
        <time>2022-06-09T14:39:52.352Z</time>
      </trkpt>
      <trkpt lat="48.44859" lon="-4.27887">
        <ele>70.812075</ele>
        <time>2022-06-09T14:39:53.363Z</time>
      </trkpt>
      <trkpt lat="48.4489" lon="-4.27694">
        <ele>64.383076</ele>
        <time>2022-06-09T14:40:17.598Z</time>
      </trkpt>
      <trkpt lat="48.44904" lon="-4.27609">
        <ele>61.673717</ele>
        <time>2022-06-09T14:40:28.996Z</time>
      </trkpt>
      <trkpt lat="48.44929" lon="-4.27439">
        <ele>55.258738</ele>
        <time>2022-06-09T14:40:50.859Z</time>
      </trkpt>
      <trkpt lat="48.44937" lon="-4.27339">
        <ele>51.471637</ele>
        <time>2022-06-09T14:41:02.534Z</time>
      </trkpt>
      <trkpt lat="48.44933" lon="-4.27321">
        <ele>50.737343</ele>
        <time>2022-06-09T14:41:04.833Z</time>
      </trkpt>
      <trkpt lat="48.44934" lon="-4.27308">
        <ele>49.900787</ele>
        <time>2022-06-09T14:41:06.202Z</time>
      </trkpt>
      <trkpt lat="48.44942" lon="-4.27298">
        <ele>48.900451</ele>
        <time>2022-06-09T14:41:07.917Z</time>
      </trkpt>
      <trkpt lat="48.44958" lon="-4.27154">
        <ele>39.392397</ele>
        <time>2022-06-09T14:41:23.765Z</time>
      </trkpt>
      <trkpt lat="48.44953" lon="-4.2713">
        <ele>37.770656</ele>
        <time>2022-06-09T14:41:26.409Z</time>
      </trkpt>
      <trkpt lat="48.4496" lon="-4.2711">
        <ele>36.236142</ele>
        <time>2022-06-09T14:41:28.944Z</time>
      </trkpt>
      <trkpt lat="48.44979" lon="-4.2692">
        <ele>26.157772</ele>
        <time>2022-06-09T14:41:50.054Z</time>
      </trkpt>
      <trkpt lat="48.44987" lon="-4.26838">
        <ele>22.195761</ele>
        <time>2022-06-09T14:41:59.984Z</time>
      </trkpt>
      <trkpt lat="48.44996" lon="-4.26736">
        <ele>19.467495</ele>
        <time>2022-06-09T14:42:13.222Z</time>
      </trkpt>
      <trkpt lat="48.45002" lon="-4.26732">
        <ele>19.382845</ele>
        <time>2022-06-09T14:42:14.101Z</time>
      </trkpt>
      <trkpt lat="48.45003" lon="-4.26725">
        <ele>19.307677</ele>
        <time>2022-06-09T14:42:14.873Z</time>
      </trkpt>
      <trkpt lat="48.45006" lon="-4.26713">
        <ele>19.178785</ele>
        <time>2022-06-09T14:42:16.184Z</time>
      </trkpt>
      <trkpt lat="48.45037" lon="-4.26657">
        <ele>18.47656</ele>
        <time>2022-06-09T14:42:24.081Z</time>
      </trkpt>
      <trkpt lat="48.45069" lon="-4.26596">
        <ele>17.721775</ele>
        <time>2022-06-09T14:42:33.749Z</time>
      </trkpt>
      <trkpt lat="48.45079" lon="-4.26578">
        <ele>17.495123</ele>
        <time>2022-06-09T14:42:36.964Z</time>
      </trkpt>
      <trkpt lat="48.45082" lon="-4.26573">
        <ele>17.431555</ele>
        <time>2022-06-09T14:42:37.917Z</time>
      </trkpt>
      <trkpt lat="48.45094" lon="-4.26549">
        <ele>17.496996</ele>
        <time>2022-06-09T14:42:42.429Z</time>
      </trkpt>
      <trkpt lat="48.45107" lon="-4.26507">
        <ele>17.677003</ele>
        <time>2022-06-09T14:42:49.519Z</time>
      </trkpt>
      <trkpt lat="48.45165" lon="-4.26364">
        <ele>18.338199</ele>
        <time>2022-06-09T14:43:15.270Z</time>
      </trkpt>
      <trkpt lat="48.45308" lon="-4.26009">
        <ele>20.63138</ele>
        <time>2022-06-09T14:44:24.417Z</time>
      </trkpt>
      <trkpt lat="48.45314" lon="-4.26002">
        <ele>20.678888</ele>
        <time>2022-06-09T14:44:26.279Z</time>
      </trkpt>
      <trkpt lat="48.45315" lon="-4.26001">
        <ele>20.685431</ele>
        <time>2022-06-09T14:44:26.514Z</time>
      </trkpt>
      <trkpt lat="48.45332" lon="-4.25982">
        <ele>20.820006</ele>
        <time>2022-06-09T14:44:31.448Z</time>
      </trkpt>
      <trkpt lat="48.45351" lon="-4.25985">
        <ele>20.939566</ele>
        <time>2022-06-09T14:44:35.812Z</time>
      </trkpt>
      <trkpt lat="48.45355" lon="-4.25988">
        <ele>20.963566</ele>
        <time>2022-06-09T14:44:36.681Z</time>
      </trkpt>
      <trkpt lat="48.45356" lon="-4.25989">
        <ele>20.974017</ele>
        <time>2022-06-09T14:44:37.051Z</time>
      </trkpt>
      <trkpt lat="48.45365" lon="-4.25989">
        <ele>21.032564</ele>
        <time>2022-06-09T14:44:39.033Z</time>
      </trkpt>
      <trkpt lat="48.45368" lon="-4.25988">
        <ele>21.051293</ele>
        <time>2022-06-09T14:44:39.672Z</time>
      </trkpt>
      <trkpt lat="48.45376" lon="-4.2598">
        <ele>21.111988</ele>
        <time>2022-06-09T14:44:41.708Z</time>
      </trkpt>
      <trkpt lat="48.45377" lon="-4.25978">
        <ele>21.124203</ele>
        <time>2022-06-09T14:44:42.103Z</time>
      </trkpt>
      <trkpt lat="48.45383" lon="-4.25955">
        <ele>21.224465</ele>
        <time>2022-06-09T14:44:45.309Z</time>
      </trkpt>
      <trkpt lat="48.45385" lon="-4.25947">
        <ele>21.261622</ele>
        <time>2022-06-09T14:44:46.472Z</time>
      </trkpt>
      <trkpt lat="48.45387" lon="-4.2594">
        <ele>21.274697</ele>
        <time>2022-06-09T14:44:47.399Z</time>
      </trkpt>
      <trkpt lat="48.45395" lon="-4.25918">
        <ele>21.150025</ele>
        <time>2022-06-09T14:44:50.523Z</time>
      </trkpt>
      <trkpt lat="48.45417" lon="-4.25842">
        <ele>20.735032</ele>
        <time>2022-06-09T14:45:00.531Z</time>
      </trkpt>
      <trkpt lat="48.45417" lon="-4.2581">
        <ele>20.574687</ele>
        <time>2022-06-09T14:45:04.383Z</time>
      </trkpt>
      <trkpt lat="48.45414" lon="-4.258">
        <ele>20.521993</ele>
        <time>2022-06-09T14:45:05.627Z</time>
      </trkpt>
      <trkpt lat="48.45406" lon="-4.25789">
        <ele>20.433856</ele>
        <time>2022-06-09T14:45:07.709Z</time>
      </trkpt>
      <trkpt lat="48.45399" lon="-4.25785">
        <ele>20.381166</ele>
        <time>2022-06-09T14:45:08.909Z</time>
      </trkpt>
      <trkpt lat="48.45392" lon="-4.25785">
        <ele>20.32389</ele>
        <time>2022-06-09T14:45:10.215Z</time>
      </trkpt>
      <trkpt lat="48.45383" lon="-4.25782">
        <ele>20.256559</ele>
        <time>2022-06-09T14:45:11.729Z</time>
      </trkpt>
      <trkpt lat="48.45369" lon="-4.25773">
        <ele>20.144771</ele>
        <time>2022-06-09T14:45:14.241Z</time>
      </trkpt>
      <trkpt lat="48.45337" lon="-4.25743">
        <ele>19.679868</ele>
        <time>2022-06-09T14:45:20.178Z</time>
      </trkpt>
      <trkpt lat="48.45326" lon="-4.25725">
        <ele>19.213936</ele>
        <time>2022-06-09T14:45:22.747Z</time>
      </trkpt>
      <trkpt lat="48.45321" lon="-4.25703">
        <ele>18.79328</ele>
        <time>2022-06-09T14:45:25.006Z</time>
      </trkpt>
      <trkpt lat="48.45332" lon="-4.25657">
        <ele>17.88257</ele>
        <time>2022-06-09T14:45:29.822Z</time>
      </trkpt>
      <trkpt lat="48.45334" lon="-4.25649">
        <ele>17.732493</ele>
        <time>2022-06-09T14:45:30.615Z</time>
      </trkpt>
      <trkpt lat="48.45327" lon="-4.25644">
        <ele>17.519764</ele>
        <time>2022-06-09T14:45:31.716Z</time>
      </trkpt>
      <trkpt lat="48.45325" lon="-4.25642">
        <ele>17.432512</ele>
        <time>2022-06-09T14:45:32.156Z</time>
      </trkpt>
      <trkpt lat="48.45327" lon="-4.25634">
        <ele>17.261847</ele>
        <time>2022-06-09T14:45:33.046Z</time>
      </trkpt>
      <trkpt lat="48.45307" lon="-4.25618">
        <ele>16.612861</ele>
        <time>2022-06-09T14:45:36.402Z</time>
      </trkpt>
      <trkpt lat="48.45281" lon="-4.256">
        <ele>15.809145</ele>
        <time>2022-06-09T14:45:40.505Z</time>
      </trkpt>
      <trkpt lat="48.45238" lon="-4.25569">
        <ele>14.474908</ele>
        <time>2022-06-09T14:45:47.230Z</time>
      </trkpt>
      <trkpt lat="48.45205" lon="-4.25547">
        <ele>13.427265</ele>
        <time>2022-06-09T14:45:52.422Z</time>
      </trkpt>
      <trkpt lat="48.45183" lon="-4.25531">
        <ele>12.730251</ele>
        <time>2022-06-09T14:45:55.881Z</time>
      </trkpt>
      <trkpt lat="48.45146" lon="-4.25504">
        <ele>11.560739</ele>
        <time>2022-06-09T14:46:01.778Z</time>
      </trkpt>
      <trkpt lat="48.45135" lon="-4.25497">
        <ele>11.227345</ele>
        <time>2022-06-09T14:46:03.500Z</time>
      </trkpt>
      <trkpt lat="48.45104" lon="-4.25476">
        <ele>10.228359</ele>
        <time>2022-06-09T14:46:08.789Z</time>
      </trkpt>
      <trkpt lat="48.45091" lon="-4.25388">
        <ele>9.024458</ele>
        <time>2022-06-09T14:46:18.060Z</time>
      </trkpt>
      <trkpt lat="48.45085" lon="-4.25374">
        <ele>8.839241</ele>
        <time>2022-06-09T14:46:19.778Z</time>
      </trkpt>
      <trkpt lat="48.4506" lon="-4.25348">
        <ele>8.333014</ele>
        <time>2022-06-09T14:46:24.658Z</time>
      </trkpt>
      <trkpt lat="48.45053" lon="-4.25341">
        <ele>8.194084</ele>
        <time>2022-06-09T14:46:25.970Z</time>
      </trkpt>
      <trkpt lat="48.45038" lon="-4.25326">
        <ele>7.886183</ele>
        <time>2022-06-09T14:46:28.935Z</time>
      </trkpt>
      <trkpt lat="48.45018" lon="-4.25307">
        <ele>7.490911</ele>
        <time>2022-06-09T14:46:32.700Z</time>
      </trkpt>
      <trkpt lat="48.44985" lon="-4.25274">
        <ele>6.838972</ele>
        <time>2022-06-09T14:46:39.000Z</time>
      </trkpt>
      <trkpt lat="48.44949" lon="-4.25252">
        <ele>6.520844</ele>
        <time>2022-06-09T14:46:45.370Z</time>
      </trkpt>
      <trkpt lat="48.44948" lon="-4.25256">
        <ele>6.501473</ele>
        <time>2022-06-09T14:46:45.909Z</time>
      </trkpt>
      <trkpt lat="48.44938" lon="-4.25259">
        <ele>6.436462</ele>
        <time>2022-06-09T14:46:47.567Z</time>
      </trkpt>
      <trkpt lat="48.44933" lon="-4.25242">
        <ele>6.355168</ele>
        <time>2022-06-09T14:46:49.603Z</time>
      </trkpt>
      <trkpt lat="48.44945" lon="-4.25235">
        <ele>6.273441</ele>
        <time>2022-06-09T14:46:51.672Z</time>
      </trkpt>
      <trkpt lat="48.44946" lon="-4.25226">
        <ele>6.234267</ele>
        <time>2022-06-09T14:46:52.742Z</time>
      </trkpt>
      <trkpt lat="48.44949" lon="-4.25215">
        <ele>6.183465</ele>
        <time>2022-06-09T14:46:53.995Z</time>
      </trkpt>
      <trkpt lat="48.44967" lon="-4.25142">
        <ele>5.838193</ele>
        <time>2022-06-09T14:47:03.009Z</time>
      </trkpt>
      <trkpt lat="48.44988" lon="-4.25075">
        <ele>5.617511</ele>
        <time>2022-06-09T14:47:12.636Z</time>
      </trkpt>
      <trkpt lat="48.44993" lon="-4.25061">
        <ele>5.767293</ele>
        <time>2022-06-09T14:47:14.778Z</time>
      </trkpt>
      <trkpt lat="48.44998" lon="-4.25047">
        <ele>5.922257</ele>
        <time>2022-06-09T14:47:17.077Z</time>
      </trkpt>
      <trkpt lat="48.45006" lon="-4.25022">
        <ele>6.190999</ele>
        <time>2022-06-09T14:47:21.219Z</time>
      </trkpt>
      <trkpt lat="48.45028" lon="-4.24958">
        <ele>6.888728</ele>
        <time>2022-06-09T14:47:33.480Z</time>
      </trkpt>
      <trkpt lat="48.45033" lon="-4.24948">
        <ele>7.00324</ele>
        <time>2022-06-09T14:47:35.517Z</time>
      </trkpt>
      <trkpt lat="48.4503" lon="-4.24944">
        <ele>7.060294</ele>
        <time>2022-06-09T14:47:36.929Z</time>
      </trkpt>
      <trkpt lat="48.44992" lon="-4.24896">
        <ele>7.780016</ele>
        <time>2022-06-09T14:47:52.326Z</time>
      </trkpt>
      <trkpt lat="48.44988" lon="-4.24893">
        <ele>7.848792</ele>
        <time>2022-06-09T14:47:53.832Z</time>
      </trkpt>
      <trkpt lat="48.44986" lon="-4.24888">
        <ele>7.907365</ele>
        <time>2022-06-09T14:47:55.096Z</time>
      </trkpt>
      <trkpt lat="48.45007" lon="-4.24837">
        <ele>8.911987</ele>
        <time>2022-06-09T14:48:07.199Z</time>
      </trkpt>
      <trkpt lat="48.45004" lon="-4.24835">
        <ele>9.01913</ele>
        <time>2022-06-09T14:48:08.261Z</time>
      </trkpt>
      <trkpt lat="48.44998" lon="-4.2483">
        <ele>9.236305</ele>
        <time>2022-06-09T14:48:10.479Z</time>
      </trkpt>
      <trkpt lat="48.4497" lon="-4.24808">
        <ele>10.298913</ele>
        <time>2022-06-09T14:48:21.025Z</time>
      </trkpt>
      <trkpt lat="48.44979" lon="-4.24778">
        <ele>11.025786</ele>
        <time>2022-06-09T14:48:28.555Z</time>
      </trkpt>
      <trkpt lat="48.44983" lon="-4.24767">
        <ele>11.311487</ele>
        <time>2022-06-09T14:48:31.575Z</time>
      </trkpt>
      <trkpt lat="48.4501" lon="-4.24708">
        <ele>12.911641</ele>
        <time>2022-06-09T14:48:49.500Z</time>
      </trkpt>
      <trkpt lat="48.4501" lon="-4.24708">
        <ele>12.91837</ele>
        <time>2022-06-09T14:48:49.590Z</time>
      </trkpt>
      <trkpt lat="48.45005" lon="-4.24676">
        <ele>13.656509</ele>
        <time>2022-06-09T14:48:57.789Z</time>
      </trkpt>
      <trkpt lat="48.44994" lon="-4.24648">
        <ele>14.499718</ele>
        <time>2022-06-09T14:49:06.754Z</time>
      </trkpt>
      <trkpt lat="48.44973" lon="-4.24607">
        <ele>16.479508</ele>
        <time>2022-06-09T14:49:20.914Z</time>
      </trkpt>
      <trkpt lat="48.44923" lon="-4.24504">
        <ele>21.374365</ele>
        <time>2022-06-09T14:49:59.070Z</time>
      </trkpt>
      <trkpt lat="48.44915" lon="-4.24488">
        <ele>22.152216</ele>
        <time>2022-06-09T14:50:06.410Z</time>
      </trkpt>
      <trkpt lat="48.44914" lon="-4.24486">
        <ele>22.264627</ele>
        <time>2022-06-09T14:50:07.460Z</time>
      </trkpt>
      <trkpt lat="48.44895" lon="-4.24449">
        <ele>24.033796</ele>
        <time>2022-06-09T14:50:24.305Z</time>
      </trkpt>
      <trkpt lat="48.44893" lon="-4.24446">
        <ele>24.207535</ele>
        <time>2022-06-09T14:50:26.104Z</time>
      </trkpt>
      <trkpt lat="48.44886" lon="-4.24432">
        <ele>25.019734</ele>
        <time>2022-06-09T14:50:32.609Z</time>
      </trkpt>
      <trkpt lat="48.4487" lon="-4.24387">
        <ele>28.367459</ele>
        <time>2022-06-09T14:50:53.097Z</time>
      </trkpt>
      <trkpt lat="48.44864" lon="-4.24359">
        <ele>30.339852</ele>
        <time>2022-06-09T14:51:05.856Z</time>
      </trkpt>
      <trkpt lat="48.44862" lon="-4.24314">
        <ele>33.326457</ele>
        <time>2022-06-09T14:51:27.134Z</time>
      </trkpt>
      <trkpt lat="48.44859" lon="-4.24292">
        <ele>34.812237</ele>
        <time>2022-06-09T14:51:38.098Z</time>
      </trkpt>
      <trkpt lat="48.44847" lon="-4.24266">
        <ele>36.871965</ele>
        <time>2022-06-09T14:51:53.232Z</time>
      </trkpt>
      <trkpt lat="48.44826" lon="-4.24242">
        <ele>39.512563</ele>
        <time>2022-06-09T14:52:12.203Z</time>
      </trkpt>
      <trkpt lat="48.44812" lon="-4.24215">
        <ele>41.723839</ele>
        <time>2022-06-09T14:52:29.798Z</time>
      </trkpt>
      <trkpt lat="48.44801" lon="-4.24174">
        <ele>45.049855</ele>
        <time>2022-06-09T14:52:52.611Z</time>
      </trkpt>
      <trkpt lat="48.44799" lon="-4.24144">
        <ele>47.376533</ele>
        <time>2022-06-09T14:53:07.122Z</time>
      </trkpt>
      <trkpt lat="48.44789" lon="-4.2413">
        <ele>48.943983</ele>
        <time>2022-06-09T14:53:18.676Z</time>
      </trkpt>
      <trkpt lat="48.44785" lon="-4.24114">
        <ele>50.315569</ele>
        <time>2022-06-09T14:53:27.545Z</time>
      </trkpt>
      <trkpt lat="48.44765" lon="-4.23973">
        <ele>61.457033</ele>
        <time>2022-06-09T14:54:42.595Z</time>
      </trkpt>
      <trkpt lat="48.44765" lon="-4.23967">
        <ele>61.92748</ele>
        <time>2022-06-09T14:54:45.828Z</time>
      </trkpt>
      <trkpt lat="48.44761" lon="-4.23938">
        <ele>64.289418</ele>
        <time>2022-06-09T14:54:59.797Z</time>
      </trkpt>
      <trkpt lat="48.44749" lon="-4.23851">
        <ele>71.597661</ele>
        <time>2022-06-09T14:55:47.681Z</time>
      </trkpt>
      <trkpt lat="48.44743" lon="-4.23833">
        <ele>73.182332</ele>
        <time>2022-06-09T14:55:57.245Z</time>
      </trkpt>
      <trkpt lat="48.44731" lon="-4.23818">
        <ele>75.15361</ele>
        <time>2022-06-09T14:56:11.081Z</time>
      </trkpt>
      <trkpt lat="48.44568" lon="-4.23745">
        <ele>95.519696</ele>
        <time>2022-06-09T14:58:52.460Z</time>
      </trkpt>
      <trkpt lat="48.44505" lon="-4.23673">
        <ele>104.793105</ele>
        <time>2022-06-09T15:00:03.192Z</time>
      </trkpt>
      <trkpt lat="48.44438" lon="-4.23617">
        <ele>111.73307</ele>
        <time>2022-06-09T15:01:04.315Z</time>
      </trkpt>
      <trkpt lat="48.444" lon="-4.23575">
        <ele>115.622006</ele>
        <time>2022-06-09T15:01:39.011Z</time>
      </trkpt>
      <trkpt lat="48.44397" lon="-4.23507">
        <ele>119.377645</ele>
        <time>2022-06-09T15:02:05.824Z</time>
      </trkpt>
      <trkpt lat="48.44399" lon="-4.23298">
        <ele>127.419612</ele>
        <time>2022-06-09T15:03:31.250Z</time>
      </trkpt>
      <trkpt lat="48.44396" lon="-4.23151">
        <ele>131.66451</ele>
        <time>2022-06-09T15:04:20.034Z</time>
      </trkpt>
      <trkpt lat="48.4439" lon="-4.23134">
        <ele>131.97321</ele>
        <time>2022-06-09T15:04:24.773Z</time>
      </trkpt>
      <trkpt lat="48.44385" lon="-4.23114">
        <ele>132.344187</ele>
        <time>2022-06-09T15:04:29.794Z</time>
      </trkpt>
      <trkpt lat="48.44376" lon="-4.23089">
        <ele>132.803864</ele>
        <time>2022-06-09T15:04:36.202Z</time>
      </trkpt>
      <trkpt lat="48.44371" lon="-4.23061">
        <ele>133.284668</ele>
        <time>2022-06-09T15:04:42.215Z</time>
      </trkpt>
      <trkpt lat="48.44343" lon="-4.22958">
        <ele>135.141178</ele>
        <time>2022-06-09T15:05:04.655Z</time>
      </trkpt>
      <trkpt lat="48.44317" lon="-4.22884">
        <ele>135.552092</ele>
        <time>2022-06-09T15:05:20.439Z</time>
      </trkpt>
      <trkpt lat="48.44312" lon="-4.2287">
        <ele>135.571542</ele>
        <time>2022-06-09T15:05:23.108Z</time>
      </trkpt>
      <trkpt lat="48.44268" lon="-4.22761">
        <ele>135.726945</ele>
        <time>2022-06-09T15:05:39.735Z</time>
      </trkpt>
      <trkpt lat="48.44261" lon="-4.22742">
        <ele>135.753059</ele>
        <time>2022-06-09T15:05:42.238Z</time>
      </trkpt>
      <trkpt lat="48.44242" lon="-4.22695">
        <ele>135.617505</ele>
        <time>2022-06-09T15:05:48.343Z</time>
      </trkpt>
      <trkpt lat="48.44195" lon="-4.22579">
        <ele>133.761163</ele>
        <time>2022-06-09T15:06:02.386Z</time>
      </trkpt>
      <trkpt lat="48.44142" lon="-4.22447">
        <ele>131.55402</ele>
        <time>2022-06-09T15:06:17.613Z</time>
      </trkpt>
      <trkpt lat="48.44121" lon="-4.2237">
        <ele>130.140014</ele>
        <time>2022-06-09T15:06:25.710Z</time>
      </trkpt>
      <trkpt lat="48.44115" lon="-4.22343">
        <ele>129.674001</ele>
        <time>2022-06-09T15:06:28.388Z</time>
      </trkpt>
      <trkpt lat="48.44071" lon="-4.22146">
        <ele>126.474291</ele>
        <time>2022-06-09T15:06:49.367Z</time>
      </trkpt>
      <trkpt lat="48.4405" lon="-4.22062">
        <ele>125.30827</ele>
        <time>2022-06-09T15:06:58.868Z</time>
      </trkpt>
      <trkpt lat="48.44006" lon="-4.21934">
        <ele>123.275369</ele>
        <time>2022-06-09T15:07:13.797Z</time>
      </trkpt>
      <trkpt lat="48.43949" lon="-4.21843">
        <ele>121.197214</ele>
        <time>2022-06-09T15:07:26.365Z</time>
      </trkpt>
      <trkpt lat="48.43936" lon="-4.21821">
        <ele>120.702461</ele>
        <time>2022-06-09T15:07:29.200Z</time>
      </trkpt>
      <trkpt lat="48.43916" lon="-4.21766">
        <ele>119.675162</ele>
        <time>2022-06-09T15:07:35.185Z</time>
      </trkpt>
      <trkpt lat="48.43859" lon="-4.21565">
        <ele>115.477156</ele>
        <time>2022-06-09T15:07:56.412Z</time>
      </trkpt>
      <trkpt lat="48.43862" lon="-4.21494">
        <ele>114.114914</ele>
        <time>2022-06-09T15:08:03.432Z</time>
      </trkpt>
      <trkpt lat="48.43886" lon="-4.21344">
        <ele>111.174334</ele>
        <time>2022-06-09T15:08:18.270Z</time>
      </trkpt>
      <trkpt lat="48.43886" lon="-4.2133">
        <ele>110.901728</ele>
        <time>2022-06-09T15:08:19.654Z</time>
      </trkpt>
      <trkpt lat="48.43873" lon="-4.21238">
        <ele>109.112337</ele>
        <time>2022-06-09T15:08:28.638Z</time>
      </trkpt>
      <trkpt lat="48.43832" lon="-4.21075">
        <ele>108.517362</ele>
        <time>2022-06-09T15:08:46.721Z</time>
      </trkpt>
      <trkpt lat="48.43697" lon="-4.20694">
        <ele>113.226362</ele>
        <time>2022-06-09T15:10:13.163Z</time>
      </trkpt>
      <trkpt lat="48.43677" lon="-4.20632">
        <ele>114.398654</ele>
        <time>2022-06-09T15:10:29.369Z</time>
      </trkpt>
      <trkpt lat="48.43669" lon="-4.20592">
        <ele>115.10613</ele>
        <time>2022-06-09T15:10:38.545Z</time>
      </trkpt>
      <trkpt lat="48.4366" lon="-4.20407">
        <ele>117.727649</ele>
        <time>2022-06-09T15:11:16.881Z</time>
      </trkpt>
      <trkpt lat="48.43657" lon="-4.20381">
        <ele>118.021032</ele>
        <time>2022-06-09T15:11:20.772Z</time>
      </trkpt>
      <trkpt lat="48.43626" lon="-4.2037">
        <ele>118.548931</ele>
        <time>2022-06-09T15:11:28.258Z</time>
      </trkpt>
      <trkpt lat="48.43617" lon="-4.2037">
        <ele>118.699348</ele>
        <time>2022-06-09T15:11:30.469Z</time>
      </trkpt>
      <trkpt lat="48.43598" lon="-4.2036">
        <ele>119.036964</ele>
        <time>2022-06-09T15:11:35.506Z</time>
      </trkpt>
      <trkpt lat="48.43588" lon="-4.20347">
        <ele>119.250012</ele>
        <time>2022-06-09T15:11:38.794Z</time>
      </trkpt>
      <trkpt lat="48.43548" lon="-4.20232">
        <ele>122.279906</ele>
        <time>2022-06-09T15:12:04.222Z</time>
      </trkpt>
      <trkpt lat="48.43541" lon="-4.20218">
        <ele>122.795206</ele>
        <time>2022-06-09T15:12:08.375Z</time>
      </trkpt>
      <trkpt lat="48.43516" lon="-4.2018">
        <ele>124.385514</ele>
        <time>2022-06-09T15:12:21.894Z</time>
      </trkpt>
      <trkpt lat="48.43477" lon="-4.20137">
        <ele>126.508949</ele>
        <time>2022-06-09T15:12:43.295Z</time>
      </trkpt>
      <trkpt lat="48.43398" lon="-4.20019">
        <ele>135.077016</ele>
        <time>2022-06-09T15:13:54.510Z</time>
      </trkpt>
      <trkpt lat="48.43364" lon="-4.19944">
        <ele>140.350933</ele>
        <time>2022-06-09T15:14:35.713Z</time>
      </trkpt>
      <trkpt lat="48.43333" lon="-4.19866">
        <ele>145.057759</ele>
        <time>2022-06-09T15:15:15.292Z</time>
      </trkpt>
      <trkpt lat="48.433" lon="-4.19805">
        <ele>148.401786</ele>
        <time>2022-06-09T15:15:46.112Z</time>
      </trkpt>
      <trkpt lat="48.43183" lon="-4.19652">
        <ele>156.24283</ele>
        <time>2022-06-09T15:16:55.545Z</time>
      </trkpt>
      <trkpt lat="48.4312" lon="-4.19582">
        <ele>158.218699</ele>
        <time>2022-06-09T15:17:19.641Z</time>
      </trkpt>
      <trkpt lat="48.42976" lon="-4.19427">
        <ele>160.211585</ele>
        <time>2022-06-09T15:17:59.604Z</time>
      </trkpt>
      <trkpt lat="48.4289" lon="-4.19295">
        <ele>160.452978</ele>
        <time>2022-06-09T15:18:24.640Z</time>
      </trkpt>
      <trkpt lat="48.42878" lon="-4.1928">
        <ele>160.439971</ele>
        <time>2022-06-09T15:18:28.001Z</time>
      </trkpt>
      <trkpt lat="48.42734" lon="-4.19137">
        <ele>158.795026</ele>
        <time>2022-06-09T15:18:59.098Z</time>
      </trkpt>
      <trkpt lat="48.42709" lon="-4.19103">
        <ele>158.138436</ele>
        <time>2022-06-09T15:19:04.105Z</time>
      </trkpt>
      <trkpt lat="48.42683" lon="-4.19052">
        <ele>157.296609</ele>
        <time>2022-06-09T15:19:10.278Z</time>
      </trkpt>
      <trkpt lat="48.42575" lon="-4.18807">
        <ele>150.231601</ele>
        <time>2022-06-09T15:19:37.189Z</time>
      </trkpt>
      <trkpt lat="48.425" lon="-4.18703">
        <ele>147.800536</ele>
        <time>2022-06-09T15:19:52.120Z</time>
      </trkpt>
      <trkpt lat="48.42448" lon="-4.18643">
        <ele>146.326256</ele>
        <time>2022-06-09T15:20:02.702Z</time>
      </trkpt>
      <trkpt lat="48.42274" lon="-4.18518">
        <ele>144.356724</ele>
        <time>2022-06-09T15:20:35.924Z</time>
      </trkpt>
      <trkpt lat="48.42264" lon="-4.18509">
        <ele>144.266345</ele>
        <time>2022-06-09T15:20:37.730Z</time>
      </trkpt>
      <trkpt lat="48.42185" lon="-4.1844">
        <ele>143.594145</ele>
        <time>2022-06-09T15:20:53.397Z</time>
      </trkpt>
      <trkpt lat="48.41962" lon="-4.18244">
        <ele>142.802998</ele>
        <time>2022-06-09T15:21:39.465Z</time>
      </trkpt>
      <trkpt lat="48.41922" lon="-4.18195">
        <ele>143.737001</ele>
        <time>2022-06-09T15:21:55.027Z</time>
      </trkpt>
      <trkpt lat="48.41815" lon="-4.18018">
        <ele>146.558508</ele>
        <time>2022-06-09T15:22:47.995Z</time>
      </trkpt>
      <trkpt lat="48.41674" lon="-4.17863">
        <ele>145.545207</ele>
        <time>2022-06-09T15:23:18.586Z</time>
      </trkpt>
      <trkpt lat="48.41497" lon="-4.17735">
        <ele>138.607985</ele>
        <time>2022-06-09T15:23:45.398Z</time>
      </trkpt>
      <trkpt lat="48.41322" lon="-4.17559">
        <ele>130.450533</ele>
        <time>2022-06-09T15:24:15.854Z</time>
      </trkpt>
      <trkpt lat="48.41271" lon="-4.17508">
        <ele>127.405687</ele>
        <time>2022-06-09T15:24:23.989Z</time>
      </trkpt>
      <trkpt lat="48.41194" lon="-4.1743">
        <ele>122.010094</ele>
        <time>2022-06-09T15:24:35.779Z</time>
      </trkpt>
      <trkpt lat="48.41153" lon="-4.1738">
        <ele>118.331506</ele>
        <time>2022-06-09T15:24:42.355Z</time>
      </trkpt>
      <trkpt lat="48.41134" lon="-4.17349">
        <ele>116.40177</ele>
        <time>2022-06-09T15:24:45.825Z</time>
      </trkpt>
      <trkpt lat="48.40938" lon="-4.17034">
        <ele>97.020858</ele>
        <time>2022-06-09T15:25:22.280Z</time>
      </trkpt>
      <trkpt lat="48.40902" lon="-4.16987">
        <ele>93.756825</ele>
        <time>2022-06-09T15:25:28.314Z</time>
      </trkpt>
      <trkpt lat="48.40882" lon="-4.16968">
        <ele>92.140211</ele>
        <time>2022-06-09T15:25:31.303Z</time>
      </trkpt>
      <trkpt lat="48.40709" lon="-4.16794">
        <ele>79.113079</ele>
        <time>2022-06-09T15:25:57.909Z</time>
      </trkpt>
      <trkpt lat="48.40671" lon="-4.16766">
        <ele>76.672609</ele>
        <time>2022-06-09T15:26:03.588Z</time>
      </trkpt>
      <trkpt lat="48.40661" lon="-4.16761">
        <ele>76.155741</ele>
        <time>2022-06-09T15:26:05.053Z</time>
      </trkpt>
      <trkpt lat="48.40623" lon="-4.16745">
        <ele>74.301268</ele>
        <time>2022-06-09T15:26:10.286Z</time>
      </trkpt>
      <trkpt lat="48.4056" lon="-4.16717">
        <ele>71.110883</ele>
        <time>2022-06-09T15:26:19.364Z</time>
      </trkpt>
      <trkpt lat="48.40423" lon="-4.16658">
        <ele>63.779992</ele>
        <time>2022-06-09T15:26:38.231Z</time>
      </trkpt>
      <trkpt lat="48.40362" lon="-4.16624">
        <ele>60.325569</ele>
        <time>2022-06-09T15:26:46.644Z</time>
      </trkpt>
      <trkpt lat="48.40218" lon="-4.16475">
        <ele>51.696887</ele>
        <time>2022-06-09T15:27:09.866Z</time>
      </trkpt>
      <trkpt lat="48.40184" lon="-4.16417">
        <ele>49.663534</ele>
        <time>2022-06-09T15:27:16.983Z</time>
      </trkpt>
      <trkpt lat="48.40144" lon="-4.16319">
        <ele>47.859426</ele>
        <time>2022-06-09T15:27:28.017Z</time>
      </trkpt>
      <trkpt lat="48.40133" lon="-4.16296">
        <ele>47.418731</ele>
        <time>2022-06-09T15:27:30.845Z</time>
      </trkpt>
      <trkpt lat="48.4008" lon="-4.16161">
        <ele>45.979245</ele>
        <time>2022-06-09T15:27:48.575Z</time>
      </trkpt>
      <trkpt lat="48.40061" lon="-4.16074">
        <ele>46.202044</ele>
        <time>2022-06-09T15:28:01.402Z</time>
      </trkpt>
      <trkpt lat="48.40058" lon="-4.16045">
        <ele>46.270872</ele>
        <time>2022-06-09T15:28:05.929Z</time>
      </trkpt>
      <trkpt lat="48.40056" lon="-4.16028">
        <ele>46.313268</ele>
        <time>2022-06-09T15:28:08.649Z</time>
      </trkpt>
      <trkpt lat="48.40047" lon="-4.15898">
        <ele>47.3137</ele>
        <time>2022-06-09T15:28:31.624Z</time>
      </trkpt>
      <trkpt lat="48.4004" lon="-4.15808">
        <ele>48.667422</ele>
        <time>2022-06-09T15:28:48.815Z</time>
      </trkpt>
      <trkpt lat="48.40042" lon="-4.15713">
        <ele>50.090692</ele>
        <time>2022-06-09T15:29:07.818Z</time>
      </trkpt>
      <trkpt lat="48.40087" lon="-4.15525">
        <ele>57.944709</ele>
        <time>2022-06-09T15:30:08.089Z</time>
      </trkpt>
      <trkpt lat="48.40091" lon="-4.15453">
        <ele>61.113032</ele>
        <time>2022-06-09T15:30:38.562Z</time>
      </trkpt>
      <trkpt lat="48.40135" lon="-4.15206">
        <ele>78.052834</ele>
        <time>2022-06-09T15:32:43.673Z</time>
      </trkpt>
      <trkpt lat="48.40179" lon="-4.15083">
        <ele>86.066747</ele>
        <time>2022-06-09T15:33:51.634Z</time>
      </trkpt>
      <trkpt lat="48.40219" lon="-4.1494">
        <ele>94.127559</ele>
        <time>2022-06-09T15:34:48.321Z</time>
      </trkpt>
      <trkpt lat="48.4025" lon="-4.14855">
        <ele>96.557378</ele>
        <time>2022-06-09T15:35:15.699Z</time>
      </trkpt>
      <trkpt lat="48.4031" lon="-4.14731">
        <ele>99.337106</ele>
        <time>2022-06-09T15:35:46.943Z</time>
      </trkpt>
      <trkpt lat="48.40342" lon="-4.14647">
        <ele>100.335421</ele>
        <time>2022-06-09T15:36:02.294Z</time>
      </trkpt>
      <trkpt lat="48.40394" lon="-4.14481">
        <ele>101.130785</ele>
        <time>2022-06-09T15:36:29.873Z</time>
      </trkpt>
      <trkpt lat="48.40408" lon="-4.14441">
        <ele>101.315177</ele>
        <time>2022-06-09T15:36:36.580Z</time>
      </trkpt>
      <trkpt lat="48.40452" lon="-4.14355">
        <ele>101.714521</ele>
        <time>2022-06-09T15:36:53.908Z</time>
      </trkpt>
      <trkpt lat="48.40471" lon="-4.14306">
        <ele>101.918962</ele>
        <time>2022-06-09T15:37:02.424Z</time>
      </trkpt>
      <trkpt lat="48.40508" lon="-4.14207">
        <ele>102.239726</ele>
        <time>2022-06-09T15:37:19.034Z</time>
      </trkpt>
      <trkpt lat="48.40508" lon="-4.14207">
        <ele>102.239726</ele>
        <time>2022-06-09T15:37:19.162Z</time>
      </trkpt>
      <trkpt lat="48.40584" lon="-4.14038">
        <ele>102.115104</ele>
        <time>2022-06-09T15:37:48.173Z</time>
      </trkpt>
      <trkpt lat="48.40642" lon="-4.13908">
        <ele>100.201211</ele>
        <time>2022-06-09T15:38:06.130Z</time>
      </trkpt>
      <trkpt lat="48.40755" lon="-4.13674">
        <ele>94.243206</ele>
        <time>2022-06-09T15:38:35.088Z</time>
      </trkpt>
      <trkpt lat="48.40769" lon="-4.13623">
        <ele>92.855521</ele>
        <time>2022-06-09T15:38:40.449Z</time>
      </trkpt>
      <trkpt lat="48.40822" lon="-4.13367">
        <ele>86.406814</ele>
        <time>2022-06-09T15:39:06.738Z</time>
      </trkpt>
      <trkpt lat="48.40871" lon="-4.13029">
        <ele>79.530548</ele>
        <time>2022-06-09T15:39:42.332Z</time>
      </trkpt>
      <trkpt lat="48.40888" lon="-4.12923">
        <ele>78.715633</ele>
        <time>2022-06-09T15:39:54.305Z</time>
      </trkpt>
      <trkpt lat="48.4089" lon="-4.12888">
        <ele>78.514153</ele>
        <time>2022-06-09T15:39:58.200Z</time>
      </trkpt>
      <trkpt lat="48.40854" lon="-4.12642">
        <ele>79.287184</ele>
        <time>2022-06-09T15:40:34.564Z</time>
      </trkpt>
      <trkpt lat="48.4085" lon="-4.12441">
        <ele>82.770934</ele>
        <time>2022-06-09T15:41:23.451Z</time>
      </trkpt>
      <trkpt lat="48.40858" lon="-4.1228">
        <ele>87.455812</ele>
        <time>2022-06-09T15:42:11.269Z</time>
      </trkpt>
      <trkpt lat="48.40856" lon="-4.12189">
        <ele>89.989579</ele>
        <time>2022-06-09T15:42:36.884Z</time>
      </trkpt>
      <trkpt lat="48.40856" lon="-4.12112">
        <ele>91.861483</ele>
        <time>2022-06-09T15:42:57.802Z</time>
      </trkpt>
      <trkpt lat="48.40931" lon="-4.11519">
        <ele>105.072486</ele>
        <time>2022-06-09T15:45:29.334Z</time>
      </trkpt>
      <trkpt lat="48.40943" lon="-4.11179">
        <ele>107.394922</ele>
        <time>2022-06-09T15:46:20.335Z</time>
      </trkpt>
      <trkpt lat="48.40942" lon="-4.111">
        <ele>107.522057</ele>
        <time>2022-06-09T15:46:37.383Z</time>
      </trkpt>
      <trkpt lat="48.40937" lon="-4.11084">
        <ele>107.528488</ele>
        <time>2022-06-09T15:46:41.224Z</time>
      </trkpt>
      <trkpt lat="48.40852" lon="-4.10964">
        <ele>107.592056</ele>
        <time>2022-06-09T15:47:19.123Z</time>
      </trkpt>
      <trkpt lat="48.40804" lon="-4.10918">
        <ele>107.282261</ele>
        <time>2022-06-09T15:47:36.889Z</time>
      </trkpt>
      <trkpt lat="48.40788" lon="-4.10895">
        <ele>107.056188</ele>
        <time>2022-06-09T15:47:43.513Z</time>
      </trkpt>
      <trkpt lat="48.40753" lon="-4.10685">
        <ele>105.630397</ele>
        <time>2022-06-09T15:48:24.510Z</time>
      </trkpt>
      <trkpt lat="48.40732" lon="-4.10644">
        <ele>105.367839</ele>
        <time>2022-06-09T15:48:34.055Z</time>
      </trkpt>
      <trkpt lat="48.40711" lon="-4.10449">
        <ele>104.40752</ele>
        <time>2022-06-09T15:49:13.358Z</time>
      </trkpt>
      <trkpt lat="48.40653" lon="-4.10348">
        <ele>105.169839</ele>
        <time>2022-06-09T15:49:44.056Z</time>
      </trkpt>
      <trkpt lat="48.40593" lon="-4.10258">
        <ele>105.898133</ele>
        <time>2022-06-09T15:50:16.711Z</time>
      </trkpt>
      <trkpt lat="48.40584" lon="-4.10236">
        <ele>106.241338</ele>
        <time>2022-06-09T15:50:23.588Z</time>
      </trkpt>
      <trkpt lat="48.40528" lon="-4.10026">
        <ele>109.699258</ele>
        <time>2022-06-09T15:51:27.845Z</time>
      </trkpt>
      <trkpt lat="48.40535" lon="-4.10028">
        <ele>109.870035</ele>
        <time>2022-06-09T15:51:32.560Z</time>
      </trkpt>
      <trkpt lat="48.40634" lon="-4.09974">
        <ele>112.830516</ele>
        <time>2022-06-09T15:52:22.026Z</time>
      </trkpt>
      <trkpt lat="48.40637" lon="-4.09906">
        <ele>114.115985</ele>
        <time>2022-06-09T15:52:43.935Z</time>
      </trkpt>
      <trkpt lat="48.40648" lon="-4.09798">
        <ele>115.522219</ele>
        <time>2022-06-09T15:53:14.762Z</time>
      </trkpt>
      <trkpt lat="48.40664" lon="-4.09723">
        <ele>116.029673</ele>
        <time>2022-06-09T15:53:36.659Z</time>
      </trkpt>
      <trkpt lat="48.40663" lon="-4.09691">
        <ele>116.229205</ele>
        <time>2022-06-09T15:53:42.058Z</time>
      </trkpt>
      <trkpt lat="48.40693" lon="-4.09533">
        <ele>116.100791</ele>
        <time>2022-06-09T15:54:03.128Z</time>
      </trkpt>
      <trkpt lat="48.40698" lon="-4.09463">
        <ele>115.071623</ele>
        <time>2022-06-09T15:54:10.925Z</time>
      </trkpt>
      <trkpt lat="48.40694" lon="-4.09361">
        <ele>113.57708</ele>
        <time>2022-06-09T15:54:21.648Z</time>
      </trkpt>
      <trkpt lat="48.40705" lon="-4.09307">
        <ele>112.411577</ele>
        <time>2022-06-09T15:54:27.335Z</time>
      </trkpt>
      <trkpt lat="48.40726" lon="-4.09237">
        <ele>109.513193</ele>
        <time>2022-06-09T15:54:34.629Z</time>
      </trkpt>
      <trkpt lat="48.4073" lon="-4.09186">
        <ele>107.553306</ele>
        <time>2022-06-09T15:54:39.356Z</time>
      </trkpt>
      <trkpt lat="48.40734" lon="-4.09086">
        <ele>103.739808</ele>
        <time>2022-06-09T15:54:48.256Z</time>
      </trkpt>
      <trkpt lat="48.40747" lon="-4.08986">
        <ele>100.607877</ele>
        <time>2022-06-09T15:54:57.462Z</time>
      </trkpt>
      <trkpt lat="48.40757" lon="-4.08907">
        <ele>98.364172</ele>
        <time>2022-06-09T15:55:04.937Z</time>
      </trkpt>
      <trkpt lat="48.40725" lon="-4.08902">
        <ele>97.011537</ele>
        <time>2022-06-09T15:55:13.010Z</time>
      </trkpt>
      <trkpt lat="48.40651" lon="-4.08887">
        <ele>95.495975</ele>
        <time>2022-06-09T15:55:33.574Z</time>
      </trkpt>
      <trkpt lat="48.40555" lon="-4.08881">
        <ele>96.824016</ele>
        <time>2022-06-09T15:56:15.801Z</time>
      </trkpt>
      <trkpt lat="48.40494" lon="-4.08857">
        <ele>97.616452</ele>
        <time>2022-06-09T15:56:44.909Z</time>
      </trkpt>
      <trkpt lat="48.40396" lon="-4.08727">
        <ele>98.380284</ele>
        <time>2022-06-09T15:57:34.527Z</time>
      </trkpt>
      <trkpt lat="48.40401" lon="-4.08669">
        <ele>98.607021</ele>
        <time>2022-06-09T15:57:45.727Z</time>
      </trkpt>
      <trkpt lat="48.40394" lon="-4.0864">
        <ele>98.158014</ele>
        <time>2022-06-09T15:57:51.214Z</time>
      </trkpt>
      <trkpt lat="48.40344" lon="-4.08522">
        <ele>95.89328</ele>
        <time>2022-06-09T15:58:14.653Z</time>
      </trkpt>
      <trkpt lat="48.40366" lon="-4.08389">
        <ele>94.844371</ele>
        <time>2022-06-09T15:58:39.692Z</time>
      </trkpt>
      <trkpt lat="48.40386" lon="-4.08377">
        <ele>95.389649</ele>
        <time>2022-06-09T15:58:46.313Z</time>
      </trkpt>
      <trkpt lat="48.40395" lon="-4.08372">
        <ele>95.63538</ele>
        <time>2022-06-09T15:58:50.068Z</time>
      </trkpt>
      <trkpt lat="48.40418" lon="-4.08364">
        <ele>96.248833</ele>
        <time>2022-06-09T15:58:59.404Z</time>
      </trkpt>
      <trkpt lat="48.40442" lon="-4.08243">
        <ele>98.384053</ele>
        <time>2022-06-09T15:59:32.337Z</time>
      </trkpt>
      <trkpt lat="48.40455" lon="-4.08199">
        <ele>99.568089</ele>
        <time>2022-06-09T15:59:48.690Z</time>
      </trkpt>
      <trkpt lat="48.40462" lon="-4.08178">
        <ele>100.336039</ele>
        <time>2022-06-09T15:59:57.508Z</time>
      </trkpt>
      <trkpt lat="48.40478" lon="-4.0813">
        <ele>102.172435</ele>
        <time>2022-06-09T16:00:17.774Z</time>
      </trkpt>
      <trkpt lat="48.40485" lon="-4.0811">
        <ele>102.918062</ele>
        <time>2022-06-09T16:00:25.461Z</time>
      </trkpt>
      <trkpt lat="48.40487" lon="-4.081">
        <ele>103.276989</ele>
        <time>2022-06-09T16:00:29.084Z</time>
      </trkpt>
      <trkpt lat="48.40536" lon="-4.0799">
        <ele>107.719495</ele>
        <time>2022-06-09T16:01:06.360Z</time>
      </trkpt>
      <trkpt lat="48.40557" lon="-4.07993">
        <ele>107.853255</ele>
        <time>2022-06-09T16:01:13.021Z</time>
      </trkpt>
      <trkpt lat="48.40558" lon="-4.07983">
        <ele>107.811722</ele>
        <time>2022-06-09T16:01:14.785Z</time>
      </trkpt>
      <trkpt lat="48.40559" lon="-4.07972">
        <ele>107.768155</ele>
        <time>2022-06-09T16:01:16.534Z</time>
      </trkpt>
      <trkpt lat="48.40559" lon="-4.07969">
        <ele>107.753316</ele>
        <time>2022-06-09T16:01:17.084Z</time>
      </trkpt>
      <trkpt lat="48.40561" lon="-4.07946">
        <ele>107.659304</ele>
        <time>2022-06-09T16:01:20.351Z</time>
      </trkpt>
      <trkpt lat="48.40562" lon="-4.0794">
        <ele>107.635455</ele>
        <time>2022-06-09T16:01:21.166Z</time>
      </trkpt>
      <trkpt lat="48.40562" lon="-4.07935">
        <ele>107.614451</ele>
        <time>2022-06-09T16:01:21.797Z</time>
      </trkpt>
      <trkpt lat="48.40563" lon="-4.07925">
        <ele>107.572686</ele>
        <time>2022-06-09T16:01:23.017Z</time>
      </trkpt>
      <trkpt lat="48.40565" lon="-4.07906">
        <ele>107.493786</ele>
        <time>2022-06-09T16:01:25.195Z</time>
      </trkpt>
      <trkpt lat="48.40564" lon="-4.07901">
        <ele>107.471283</ele>
        <time>2022-06-09T16:01:25.789Z</time>
      </trkpt>
      <trkpt lat="48.40565" lon="-4.07896">
        <ele>107.453233</ele>
        <time>2022-06-09T16:01:26.282Z</time>
      </trkpt>
      <trkpt lat="48.40567" lon="-4.07888">
        <ele>107.416163</ele>
        <time>2022-06-09T16:01:27.284Z</time>
      </trkpt>
      <trkpt lat="48.40571" lon="-4.07857">
        <ele>107.287163</ele>
        <time>2022-06-09T16:01:30.641Z</time>
      </trkpt>
      <trkpt lat="48.40572" lon="-4.07843">
        <ele>107.231485</ele>
        <time>2022-06-09T16:01:32.026Z</time>
      </trkpt>
      <trkpt lat="48.40574" lon="-4.07804">
        <ele>107.070707</ele>
        <time>2022-06-09T16:01:35.994Z</time>
      </trkpt>
      <trkpt lat="48.4057" lon="-4.0777">
        <ele>106.928391</ele>
        <time>2022-06-09T16:01:39.401Z</time>
      </trkpt>
      <trkpt lat="48.40574" lon="-4.07742">
        <ele>106.720594</ele>
        <time>2022-06-09T16:01:42.185Z</time>
      </trkpt>
      <trkpt lat="48.40582" lon="-4.07693">
        <ele>106.00053</ele>
        <time>2022-06-09T16:01:46.997Z</time>
      </trkpt>
      <trkpt lat="48.40586" lon="-4.07653">
        <ele>105.40353</ele>
        <time>2022-06-09T16:01:50.984Z</time>
      </trkpt>
      <trkpt lat="48.40583" lon="-4.07616">
        <ele>104.873681</ele>
        <time>2022-06-09T16:01:54.574Z</time>
      </trkpt>
      <trkpt lat="48.40579" lon="-4.07569">
        <ele>104.18239</ele>
        <time>2022-06-09T16:01:59.363Z</time>
      </trkpt>
      <trkpt lat="48.4056" lon="-4.07447">
        <ele>102.86102</ele>
        <time>2022-06-09T16:02:12.940Z</time>
      </trkpt>
      <trkpt lat="48.40542" lon="-4.07387">
        <ele>102.744891</ele>
        <time>2022-06-09T16:02:21.373Z</time>
      </trkpt>
      <trkpt lat="48.40519" lon="-4.07336">
        <ele>102.638859</ele>
        <time>2022-06-09T16:02:29.458Z</time>
      </trkpt>
      <trkpt lat="48.40512" lon="-4.0732">
        <ele>102.604063</ele>
        <time>2022-06-09T16:02:32.077Z</time>
      </trkpt>
      <trkpt lat="48.40465" lon="-4.07215">
        <ele>102.261723</ele>
        <time>2022-06-09T16:02:48.734Z</time>
      </trkpt>
      <trkpt lat="48.40362" lon="-4.06983">
        <ele>101.004147</ele>
        <time>2022-06-09T16:03:20.260Z</time>
      </trkpt>
      <trkpt lat="48.4035" lon="-4.06982">
        <ele>100.943017</ele>
        <time>2022-06-09T16:03:22.121Z</time>
      </trkpt>
      <trkpt lat="48.40339" lon="-4.07004">
        <ele>100.845866</ele>
        <time>2022-06-09T16:03:25.227Z</time>
      </trkpt>
      <trkpt lat="48.40242" lon="-4.0689">
        <ele>100.2588</ele>
        <time>2022-06-09T16:03:48.702Z</time>
      </trkpt>
      <trkpt lat="48.40147" lon="-4.06797">
        <ele>100.956919</ele>
        <time>2022-06-09T16:04:15.067Z</time>
      </trkpt>
      <trkpt lat="48.40127" lon="-4.06779">
        <ele>101.10068</ele>
        <time>2022-06-09T16:04:20.891Z</time>
      </trkpt>
      <trkpt lat="48.40017" lon="-4.06679">
        <ele>102.591955</ele>
        <time>2022-06-09T16:04:53.850Z</time>
      </trkpt>
      <trkpt lat="48.39949" lon="-4.06607">
        <ele>103.73165</ele>
        <time>2022-06-09T16:05:16.100Z</time>
      </trkpt>
      <trkpt lat="48.3979" lon="-4.06396">
        <ele>109.591804</ele>
        <time>2022-06-09T16:06:26.658Z</time>
      </trkpt>
      <trkpt lat="48.3973" lon="-4.0628">
        <ele>113.731885</ele>
        <time>2022-06-09T16:07:07.337Z</time>
      </trkpt>
      <trkpt lat="48.39713" lon="-4.0625">
        <ele>114.841032</ele>
        <time>2022-06-09T16:07:19.506Z</time>
      </trkpt>
      <trkpt lat="48.39644" lon="-4.06132">
        <ele>119.505548</ele>
        <time>2022-06-09T16:08:07.896Z</time>
      </trkpt>
      <trkpt lat="48.39604" lon="-4.06066">
        <ele>122.235</ele>
        <time>2022-06-09T16:08:33.883Z</time>
      </trkpt>
      <trkpt lat="48.3956" lon="-4.05993">
        <ele>124.876335</ele>
        <time>2022-06-09T16:08:59.329Z</time>
      </trkpt>
      <trkpt lat="48.39512" lon="-4.05834">
        <ele>128.085944</ele>
        <time>2022-06-09T16:09:40.076Z</time>
      </trkpt>
      <trkpt lat="48.39487" lon="-4.05736">
        <ele>129.598673</ele>
        <time>2022-06-09T16:10:00.133Z</time>
      </trkpt>
      <trkpt lat="48.39479" lon="-4.05684">
        <ele>129.996384</ele>
        <time>2022-06-09T16:10:09.611Z</time>
      </trkpt>
      <trkpt lat="48.3952" lon="-4.05164">
        <ele>133.470466</ele>
        <time>2022-06-09T16:11:34.864Z</time>
      </trkpt>
      <trkpt lat="48.3952" lon="-4.05164">
        <ele>133.470466</ele>
        <time>2022-06-09T16:11:34.961Z</time>
      </trkpt>
      <trkpt lat="48.39499" lon="-4.05142">
        <ele>133.752583</ele>
        <time>2022-06-09T16:11:42.130Z</time>
      </trkpt>
      <trkpt lat="48.39441" lon="-4.0512">
        <ele>134.405626</ele>
        <time>2022-06-09T16:11:58.726Z</time>
      </trkpt>
      <trkpt lat="48.39439" lon="-4.0512">
        <ele>134.431011</ele>
        <time>2022-06-09T16:11:59.578Z</time>
      </trkpt>
      <trkpt lat="48.39352" lon="-4.05099">
        <ele>134.376983</ele>
        <time>2022-06-09T16:12:31.650Z</time>
      </trkpt>
      <trkpt lat="48.39227" lon="-4.05045">
        <ele>132.831326</ele>
        <time>2022-06-09T16:13:07.540Z</time>
      </trkpt>
      <trkpt lat="48.39193" lon="-4.05009">
        <ele>131.713046</ele>
        <time>2022-06-09T16:13:18.544Z</time>
      </trkpt>
      <trkpt lat="48.39188" lon="-4.05001">
        <ele>131.490869</ele>
        <time>2022-06-09T16:13:20.331Z</time>
      </trkpt>
      <trkpt lat="48.39183" lon="-4.04975">
        <ele>130.976289</ele>
        <time>2022-06-09T16:13:25.223Z</time>
      </trkpt>
      <trkpt lat="48.39184" lon="-4.04893">
        <ele>129.368496</ele>
        <time>2022-06-09T16:13:39.418Z</time>
      </trkpt>
      <trkpt lat="48.39193" lon="-4.04801">
        <ele>127.571499</ele>
        <time>2022-06-09T16:13:55.260Z</time>
      </trkpt>
      <trkpt lat="48.39189" lon="-4.04749">
        <ele>126.57923</ele>
        <time>2022-06-09T16:14:04.182Z</time>
      </trkpt>
      <trkpt lat="48.39198" lon="-4.04656">
        <ele>124.81852</ele>
        <time>2022-06-09T16:14:20.544Z</time>
      </trkpt>
      <trkpt lat="48.39225" lon="-4.04518">
        <ele>122.411697</ele>
        <time>2022-06-09T16:14:45.620Z</time>
      </trkpt>
      <trkpt lat="48.39223" lon="-4.04477">
        <ele>122.36816</ele>
        <time>2022-06-09T16:14:53.051Z</time>
      </trkpt>
      <trkpt lat="48.39213" lon="-4.04453">
        <ele>122.337671</ele>
        <time>2022-06-09T16:14:58.495Z</time>
      </trkpt>
      <trkpt lat="48.39182" lon="-4.04415">
        <ele>122.273349</ele>
        <time>2022-06-09T16:15:10.631Z</time>
      </trkpt>
      <trkpt lat="48.39149" lon="-4.04387">
        <ele>122.212235</ele>
        <time>2022-06-09T16:15:23.813Z</time>
      </trkpt>
      <trkpt lat="48.39113" lon="-4.04327">
        <ele>122.371393</ele>
        <time>2022-06-09T16:15:45.700Z</time>
      </trkpt>
      <trkpt lat="48.39123" lon="-4.04292">
        <ele>123.022102</ele>
        <time>2022-06-09T16:15:56.635Z</time>
      </trkpt>
      <trkpt lat="48.39131" lon="-4.04188">
        <ele>124.856985</ele>
        <time>2022-06-09T16:16:28.616Z</time>
      </trkpt>
      <trkpt lat="48.39127" lon="-4.04145">
        <ele>125.61184</ele>
        <time>2022-06-09T16:16:42.658Z</time>
      </trkpt>
      <trkpt lat="48.39099" lon="-4.04066">
        <ele>126.96401</ele>
        <time>2022-06-09T16:17:11.361Z</time>
      </trkpt>
      <trkpt lat="48.39095" lon="-4.04043">
        <ele>127.119762</ele>
        <time>2022-06-09T16:17:17.342Z</time>
      </trkpt>
      <trkpt lat="48.39101" lon="-4.04021">
        <ele>127.269136</ele>
        <time>2022-06-09T16:17:24.028Z</time>
      </trkpt>
      <trkpt lat="48.39115" lon="-4.04002">
        <ele>127.452467</ele>
        <time>2022-06-09T16:17:30.822Z</time>
      </trkpt>
      <trkpt lat="48.39143" lon="-4.03997">
        <ele>127.714466</ele>
        <time>2022-06-09T16:17:40.829Z</time>
      </trkpt>
      <trkpt lat="48.3917" lon="-4.03979">
        <ele>127.996326</ele>
        <time>2022-06-09T16:17:51.826Z</time>
      </trkpt>
      <trkpt lat="48.39175" lon="-4.03912">
        <ele>128.426382</ele>
        <time>2022-06-09T16:18:05.794Z</time>
      </trkpt>
      <trkpt lat="48.39208" lon="-4.03899">
        <ele>128.520554</ele>
        <time>2022-06-09T16:18:16.266Z</time>
      </trkpt>
      <trkpt lat="48.39247" lon="-4.03859">
        <ele>128.378615</ele>
        <time>2022-06-09T16:18:30.320Z</time>
      </trkpt>
      <trkpt lat="48.39266" lon="-4.03799">
        <ele>128.243204</ele>
        <time>2022-06-09T16:18:43.283Z</time>
      </trkpt>
      <trkpt lat="48.3927" lon="-4.03737">
        <ele>128.118243</ele>
        <time>2022-06-09T16:18:56.165Z</time>
      </trkpt>
      <trkpt lat="48.39268" lon="-4.03695">
        <ele>128.033668</ele>
        <time>2022-06-09T16:19:05.253Z</time>
      </trkpt>
      <trkpt lat="48.3925" lon="-4.0362">
        <ele>129.552009</ele>
        <time>2022-06-09T16:19:24.121Z</time>
      </trkpt>
      <trkpt lat="48.39249" lon="-4.036">
        <ele>129.947074</ele>
        <time>2022-06-09T16:19:29.630Z</time>
      </trkpt>
      <trkpt lat="48.39252" lon="-4.03591">
        <ele>130.145055</ele>
        <time>2022-06-09T16:19:33.117Z</time>
      </trkpt>
      <trkpt lat="48.39261" lon="-4.03571">
        <ele>130.606923</ele>
        <time>2022-06-09T16:19:40.837Z</time>
      </trkpt>
      <trkpt lat="48.3926" lon="-4.03551">
        <ele>130.980226</ele>
        <time>2022-06-09T16:19:47.085Z</time>
      </trkpt>
      <trkpt lat="48.39242" lon="-4.03513">
        <ele>131.902894</ele>
        <time>2022-06-09T16:20:04.014Z</time>
      </trkpt>
      <trkpt lat="48.39242" lon="-4.03499">
        <ele>132.171351</ele>
        <time>2022-06-09T16:20:09.214Z</time>
      </trkpt>
      <trkpt lat="48.3923" lon="-4.03474">
        <ele>132.750651</ele>
        <time>2022-06-09T16:20:20.134Z</time>
      </trkpt>
      <trkpt lat="48.39227" lon="-4.03448">
        <ele>133.257931</ele>
        <time>2022-06-09T16:20:29.838Z</time>
      </trkpt>
      <trkpt lat="48.39234" lon="-4.0343">
        <ele>133.838269</ele>
        <time>2022-06-09T16:20:37.371Z</time>
      </trkpt>
      <trkpt lat="48.39259" lon="-4.03418">
        <ele>134.949818</ele>
        <time>2022-06-09T16:20:53.020Z</time>
      </trkpt>
      <trkpt lat="48.39294" lon="-4.03408">
        <ele>136.424475</ele>
        <time>2022-06-09T16:21:12.065Z</time>
      </trkpt>
      <trkpt lat="48.39369" lon="-4.03367">
        <ele>139.71532</ele>
        <time>2022-06-09T16:21:52.862Z</time>
      </trkpt>
      <trkpt lat="48.39405" lon="-4.03372">
        <ele>141.046048</ele>
        <time>2022-06-09T16:22:11.942Z</time>
      </trkpt>
      <trkpt lat="48.39497" lon="-4.03356">
        <ele>143.713643</ele>
        <time>2022-06-09T16:22:54.212Z</time>
      </trkpt>
      <trkpt lat="48.39517" lon="-4.03338">
        <ele>144.384924</ele>
        <time>2022-06-09T16:23:05.268Z</time>
      </trkpt>
      <trkpt lat="48.39531" lon="-4.03313">
        <ele>145.012304</ele>
        <time>2022-06-09T16:23:14.701Z</time>
      </trkpt>
      <trkpt lat="48.39543" lon="-4.03277">
        <ele>145.79333</ele>
        <time>2022-06-09T16:23:26.384Z</time>
      </trkpt>
      <trkpt lat="48.39548" lon="-4.03243">
        <ele>146.073966</ele>
        <time>2022-06-09T16:23:36.780Z</time>
      </trkpt>
      <trkpt lat="48.39538" lon="-4.03177">
        <ele>146.493877</ele>
        <time>2022-06-09T16:23:49.619Z</time>
      </trkpt>
      <trkpt lat="48.3953" lon="-4.03114">
        <ele>146.891023</ele>
        <time>2022-06-09T16:24:01.351Z</time>
      </trkpt>
      <trkpt lat="48.39512" lon="-4.03068">
        <ele>147.221359</ele>
        <time>2022-06-09T16:24:08.955Z</time>
      </trkpt>
      <trkpt lat="48.39491" lon="-4.03051">
        <ele>147.442404</ele>
        <time>2022-06-09T16:24:14.091Z</time>
      </trkpt>
      <trkpt lat="48.39392" lon="-4.03018">
        <ele>145.332236</ele>
        <time>2022-06-09T16:24:29.675Z</time>
      </trkpt>
      <trkpt lat="48.39388" lon="-4.02998">
        <ele>144.976789</ele>
        <time>2022-06-09T16:24:31.560Z</time>
      </trkpt>
      <trkpt lat="48.3939" lon="-4.02893">
        <ele>143.198579</ele>
        <time>2022-06-09T16:24:41.482Z</time>
      </trkpt>
      <trkpt lat="48.39407" lon="-4.02734">
        <ele>140.925355</ele>
        <time>2022-06-09T16:24:57.432Z</time>
      </trkpt>
      <trkpt lat="48.39405" lon="-4.02632">
        <ele>139.494109</ele>
        <time>2022-06-09T16:25:08.420Z</time>
      </trkpt>
      <trkpt lat="48.39404" lon="-4.02609">
        <ele>139.200243</ele>
        <time>2022-06-09T16:25:11.109Z</time>
      </trkpt>
      <trkpt lat="48.39387" lon="-4.02596">
        <ele>138.967157</ele>
        <time>2022-06-09T16:25:16.276Z</time>
      </trkpt>
      <trkpt lat="48.39365" lon="-4.0259">
        <ele>138.687339</ele>
        <time>2022-06-09T16:25:23.041Z</time>
      </trkpt>
      <trkpt lat="48.39314" lon="-4.02595">
        <ele>138.050006</ele>
        <time>2022-06-09T16:25:38.111Z</time>
      </trkpt>
      <trkpt lat="48.3925" lon="-4.02574">
        <ele>137.236943</ele>
        <time>2022-06-09T16:25:56.828Z</time>
      </trkpt>
      <trkpt lat="48.39212" lon="-4.02559">
        <ele>136.886519</ele>
        <time>2022-06-09T16:26:07.788Z</time>
      </trkpt>
      <trkpt lat="48.39149" lon="-4.02548">
        <ele>136.518076</ele>
        <time>2022-06-09T16:26:25.844Z</time>
      </trkpt>
      <trkpt lat="48.39114" lon="-4.02515">
        <ele>136.278298</ele>
        <time>2022-06-09T16:26:38.221Z</time>
      </trkpt>
      <trkpt lat="48.39104" lon="-4.02512">
        <ele>136.221501</ele>
        <time>2022-06-09T16:26:41.343Z</time>
      </trkpt>
      <trkpt lat="48.39099" lon="-4.025">
        <ele>136.166842</ele>
        <time>2022-06-09T16:26:44.374Z</time>
      </trkpt>
      <trkpt lat="48.39077" lon="-4.02462">
        <ele>135.974546</ele>
        <time>2022-06-09T16:26:55.328Z</time>
      </trkpt>
      <trkpt lat="48.39066" lon="-4.02451">
        <ele>136.332243</ele>
        <time>2022-06-09T16:26:59.728Z</time>
      </trkpt>
      <trkpt lat="48.39058" lon="-4.02397">
        <ele>137.553387</ele>
        <time>2022-06-09T16:27:09.868Z</time>
      </trkpt>
      <trkpt lat="48.39058" lon="-4.02243">
        <ele>140.997285</ele>
        <time>2022-06-09T16:27:49.069Z</time>
      </trkpt>
      <trkpt lat="48.39124" lon="-4.01968">
        <ele>150.545126</ele>
        <time>2022-06-09T16:29:21.760Z</time>
      </trkpt>
      <trkpt lat="48.3913" lon="-4.0189">
        <ele>152.918652</ele>
        <time>2022-06-09T16:29:40.859Z</time>
      </trkpt>
      <trkpt lat="48.39124" lon="-4.01874">
        <ele>153.441057</ele>
        <time>2022-06-09T16:29:44.800Z</time>
      </trkpt>
      <trkpt lat="48.39123" lon="-4.01879">
        <ele>153.591822</ele>
        <time>2022-06-09T16:29:45.902Z</time>
      </trkpt>
      <trkpt lat="48.39123" lon="-4.01879">
        <ele>153.591822</ele>
        <time>2022-06-09T16:29:45.907Z</time>
      </trkpt>
      <trkpt lat="48.39106" lon="-4.01916">
        <ele>154.865364</ele>
        <time>2022-06-09T16:29:56.616Z</time>
      </trkpt>
      <trkpt lat="48.39032" lon="-4.01931">
        <ele>158.089397</ele>
        <time>2022-06-09T16:30:25.103Z</time>
      </trkpt>
      <trkpt lat="48.38994" lon="-4.0194">
        <ele>160.23299</ele>
        <time>2022-06-09T16:30:43.800Z</time>
      </trkpt>
      <trkpt lat="48.38884" lon="-4.01962">
        <ele>168.385238</ele>
        <time>2022-06-09T16:31:47.826Z</time>
      </trkpt>
      <trkpt lat="48.38868" lon="-4.0196">
        <ele>169.560548</ele>
        <time>2022-06-09T16:31:58.430Z</time>
      </trkpt>
      <trkpt lat="48.38842" lon="-4.01946">
        <ele>171.591122</ele>
        <time>2022-06-09T16:32:16.172Z</time>
      </trkpt>
      <trkpt lat="48.38817" lon="-4.01905">
        <ele>173.674803</ele>
        <time>2022-06-09T16:32:39.983Z</time>
      </trkpt>
      <trkpt lat="48.38817" lon="-4.01905">
        <ele>173.683105</ele>
        <time>2022-06-09T16:32:40.231Z</time>
      </trkpt>
      <trkpt lat="48.38811" lon="-4.01872">
        <ele>174.831314</ele>
        <time>2022-06-09T16:32:53.079Z</time>
      </trkpt>
      <trkpt lat="48.388" lon="-4.01691">
        <ele>180.858602</ele>
        <time>2022-06-09T16:33:44.909Z</time>
      </trkpt>
      <trkpt lat="48.38768" lon="-4.01242">
        <ele>180.923811</ele>
        <time>2022-06-09T16:34:46.921Z</time>
      </trkpt>
      <trkpt lat="48.38766" lon="-4.01229">
        <ele>180.818973</ele>
        <time>2022-06-09T16:34:48.683Z</time>
      </trkpt>
      <trkpt lat="48.38764" lon="-4.0122">
        <ele>180.73417</ele>
        <time>2022-06-09T16:34:50.120Z</time>
      </trkpt>
      <trkpt lat="48.38761" lon="-4.0121">
        <ele>180.64702</ele>
        <time>2022-06-09T16:34:51.614Z</time>
      </trkpt>
      <trkpt lat="48.38757" lon="-4.01201">
        <ele>180.563687</ele>
        <time>2022-06-09T16:34:52.726Z</time>
      </trkpt>
      <trkpt lat="48.38664" lon="-4.01014">
        <ele>176.275708</ele>
        <time>2022-06-09T16:35:15.699Z</time>
      </trkpt>
      <trkpt lat="48.38619" lon="-4.00953">
        <ele>174.26469</ele>
        <time>2022-06-09T16:35:25.009Z</time>
      </trkpt>
      <trkpt lat="48.38609" lon="-4.00947">
        <ele>174.129322</ele>
        <time>2022-06-09T16:35:26.870Z</time>
      </trkpt>
      <trkpt lat="48.38581" lon="-4.00928">
        <ele>174.0531</ele>
        <time>2022-06-09T16:35:32.037Z</time>
      </trkpt>
      <trkpt lat="48.38435" lon="-4.00883">
        <ele>173.759246</ele>
        <time>2022-06-09T16:36:04.760Z</time>
      </trkpt>
      <trkpt lat="48.38413" lon="-4.00889">
        <ele>173.921989</ele>
        <time>2022-06-09T16:36:10.952Z</time>
      </trkpt>
      <trkpt lat="48.38254" lon="-4.0098">
        <ele>174.954162</ele>
        <time>2022-06-09T16:36:52.958Z</time>
      </trkpt>
      <trkpt lat="48.3813" lon="-4.00985">
        <ele>174.325337</ele>
        <time>2022-06-09T16:37:16.653Z</time>
      </trkpt>
      <trkpt lat="48.38108" lon="-4.00979">
        <ele>174.214426</ele>
        <time>2022-06-09T16:37:20.454Z</time>
      </trkpt>
      <trkpt lat="48.38087" lon="-4.0096">
        <ele>173.882189</ele>
        <time>2022-06-09T16:37:24.642Z</time>
      </trkpt>
      <trkpt lat="48.38147" lon="-4.0089">
        <ele>171.991</ele>
        <time>2022-06-09T16:37:36.168Z</time>
      </trkpt>
      <trkpt lat="48.38177" lon="-4.00847">
        <ele>170.961461</ele>
        <time>2022-06-09T16:37:42.264Z</time>
      </trkpt>
      <trkpt lat="48.38241" lon="-4.00727">
        <ele>168.410376</ele>
        <time>2022-06-09T16:37:56.919Z</time>
      </trkpt>
      <trkpt lat="48.38281" lon="-4.00617">
        <ele>166.299603</ele>
        <time>2022-06-09T16:38:09.178Z</time>
      </trkpt>
      <trkpt lat="48.38306" lon="-4.00505">
        <ele>164.928358</ele>
        <time>2022-06-09T16:38:21.605Z</time>
      </trkpt>
      <trkpt lat="48.38358" lon="-4.00236">
        <ele>164.17255</ele>
        <time>2022-06-09T16:38:56.024Z</time>
      </trkpt>
      <trkpt lat="48.38376" lon="-4.00164">
        <ele>164.353305</ele>
        <time>2022-06-09T16:39:05.964Z</time>
      </trkpt>
      <trkpt lat="48.38408" lon="-4.0009">
        <ele>164.563635</ele>
        <time>2022-06-09T16:39:18.353Z</time>
      </trkpt>
      <trkpt lat="48.38459" lon="-4.00019">
        <ele>166.021761</ele>
        <time>2022-06-09T16:39:35.041Z</time>
      </trkpt>
      <trkpt lat="48.3847" lon="-4.00007">
        <ele>166.513236</ele>
        <time>2022-06-09T16:39:38.902Z</time>
      </trkpt>
      <trkpt lat="48.3848" lon="-3.99995">
        <ele>166.961612</ele>
        <time>2022-06-09T16:39:42.702Z</time>
      </trkpt>
      <trkpt lat="48.38545" lon="-3.99956">
        <ele>169.505544</ele>
        <time>2022-06-09T16:40:07.920Z</time>
      </trkpt>
      <trkpt lat="48.38657" lon="-3.99913">
        <ele>176.975809</ele>
        <time>2022-06-09T16:41:10.210Z</time>
      </trkpt>
      <trkpt lat="48.3868" lon="-3.99905">
        <ele>178.987195</ele>
        <time>2022-06-09T16:41:25.775Z</time>
      </trkpt>
      <trkpt lat="48.38773" lon="-3.99869">
        <ele>186.953719</ele>
        <time>2022-06-09T16:42:31.017Z</time>
      </trkpt>
      <trkpt lat="48.38827" lon="-3.99837">
        <ele>191.114536</ele>
        <time>2022-06-09T16:43:08.713Z</time>
      </trkpt>
      <trkpt lat="48.38906" lon="-3.99764">
        <ele>197.82981</ele>
        <time>2022-06-09T16:43:59.562Z</time>
      </trkpt>
      <trkpt lat="48.38918" lon="-3.9975">
        <ele>198.940914</ele>
        <time>2022-06-09T16:44:06.631Z</time>
      </trkpt>
      <trkpt lat="48.39031" lon="-3.99622">
        <ele>201.106541</ele>
        <time>2022-06-09T16:44:49.043Z</time>
      </trkpt>
      <trkpt lat="48.39161" lon="-3.99427">
        <ele>196.912254</ele>
        <time>2022-06-09T16:45:16.331Z</time>
      </trkpt>
      <trkpt lat="48.3918" lon="-3.99409">
        <ele>196.175353</ele>
        <time>2022-06-09T16:45:19.135Z</time>
      </trkpt>
      <trkpt lat="48.39222" lon="-3.99383">
        <ele>194.098404</ele>
        <time>2022-06-09T16:45:25.015Z</time>
      </trkpt>
      <trkpt lat="48.39222" lon="-3.99383">
        <ele>194.098404</ele>
        <time>2022-06-09T16:45:25.025Z</time>
      </trkpt>
      <trkpt lat="48.39265" lon="-3.99369">
        <ele>191.799947</ele>
        <time>2022-06-09T16:45:30.769Z</time>
      </trkpt>
      <trkpt lat="48.39295" lon="-3.99366">
        <ele>190.224239</ele>
        <time>2022-06-09T16:45:34.577Z</time>
      </trkpt>
      <trkpt lat="48.39311" lon="-3.99367">
        <ele>189.404746</ele>
        <time>2022-06-09T16:45:36.670Z</time>
      </trkpt>
      <trkpt lat="48.39462" lon="-3.99432">
        <ele>185.412251</ele>
        <time>2022-06-09T16:45:58.724Z</time>
      </trkpt>
      <trkpt lat="48.39468" lon="-3.99432">
        <ele>185.359843</ele>
        <time>2022-06-09T16:46:00.068Z</time>
      </trkpt>
      <trkpt lat="48.39501" lon="-3.9941">
        <ele>185.058567</ele>
        <time>2022-06-09T16:46:09.957Z</time>
      </trkpt>
      <trkpt lat="48.39524" lon="-3.99365">
        <ele>184.742468</ele>
        <time>2022-06-09T16:46:22.110Z</time>
      </trkpt>
      <trkpt lat="48.39533" lon="-3.99334">
        <ele>185.257372</ele>
        <time>2022-06-09T16:46:30.458Z</time>
      </trkpt>
      <trkpt lat="48.39467" lon="-3.99329">
        <ele>187.274654</ele>
        <time>2022-06-09T16:46:55.334Z</time>
      </trkpt>
      <trkpt lat="48.39419" lon="-3.99313">
        <ele>188.793742</ele>
        <time>2022-06-09T16:47:13.579Z</time>
      </trkpt>
      <trkpt lat="48.39403" lon="-3.99302">
        <ele>189.333166</ele>
        <time>2022-06-09T16:47:19.843Z</time>
      </trkpt>
      <trkpt lat="48.39393" lon="-3.9928">
        <ele>189.86082</ele>
        <time>2022-06-09T16:47:24.898Z</time>
      </trkpt>
      <trkpt lat="48.3938" lon="-3.99207">
        <ele>191.414058</ele>
        <time>2022-06-09T16:47:41.692Z</time>
      </trkpt>
      <trkpt lat="48.39369" lon="-3.99195">
        <ele>191.846592</ele>
        <time>2022-06-09T16:47:45.831Z</time>
      </trkpt>
      <trkpt lat="48.39344" lon="-3.99192">
        <ele>192.616226</ele>
        <time>2022-06-09T16:47:55.496Z</time>
      </trkpt>
      <trkpt lat="48.39333" lon="-3.99206">
        <ele>193.048024</ele>
        <time>2022-06-09T16:48:00.521Z</time>
      </trkpt>
      <trkpt lat="48.39306" lon="-3.99215">
        <ele>193.889096</ele>
        <time>2022-06-09T16:48:13.300Z</time>
      </trkpt>
      <trkpt lat="48.39275" lon="-3.99206">
        <ele>194.875291</ele>
        <time>2022-06-09T16:48:29.177Z</time>
      </trkpt>
      <trkpt lat="48.39264" lon="-3.99195">
        <ele>195.270838</ele>
        <time>2022-06-09T16:48:34.602Z</time>
      </trkpt>
      <trkpt lat="48.39244" lon="-3.9917">
        <ele>196.289246</ele>
        <time>2022-06-09T16:48:49.626Z</time>
      </trkpt>
      <trkpt lat="48.39203" lon="-3.99177">
        <ele>198.33133</ele>
        <time>2022-06-09T16:49:11.764Z</time>
      </trkpt>
      <trkpt lat="48.39169" lon="-3.992">
        <ele>200.157126</ele>
        <time>2022-06-09T16:49:33.119Z</time>
      </trkpt>
      <trkpt lat="48.39146" lon="-3.99203">
        <ele>201.314044</ele>
        <time>2022-06-09T16:49:47.569Z</time>
      </trkpt>
      <trkpt lat="48.39136" lon="-3.99194">
        <ele>201.905218</ele>
        <time>2022-06-09T16:49:54.792Z</time>
      </trkpt>
      <trkpt lat="48.39114" lon="-3.99109">
        <ele>204.89843</ele>
        <time>2022-06-09T16:50:29.820Z</time>
      </trkpt>
      <trkpt lat="48.39079" lon="-3.99004">
        <ele>209.006485</ele>
        <time>2022-06-09T16:51:12.925Z</time>
      </trkpt>
      <trkpt lat="48.39072" lon="-3.98953">
        <ele>210.785415</ele>
        <time>2022-06-09T16:51:31.394Z</time>
      </trkpt>
      <trkpt lat="48.39014" lon="-3.98833">
        <ele>216.403204</ele>
        <time>2022-06-09T16:52:32.651Z</time>
      </trkpt>
      <trkpt lat="48.38967" lon="-3.98775">
        <ele>220.349076</ele>
        <time>2022-06-09T16:53:11.466Z</time>
      </trkpt>
      <trkpt lat="48.38955" lon="-3.98755">
        <ele>221.529786</ele>
        <time>2022-06-09T16:53:23.949Z</time>
      </trkpt>
      <trkpt lat="48.38917" lon="-3.98693">
        <ele>225.107231</ele>
        <time>2022-06-09T16:54:00.671Z</time>
      </trkpt>
      <trkpt lat="48.38881" lon="-3.98583">
        <ele>229.309901</ele>
        <time>2022-06-09T16:54:53.097Z</time>
      </trkpt>
      <trkpt lat="48.38865" lon="-3.98521">
        <ele>231.498835</ele>
        <time>2022-06-09T16:55:16.607Z</time>
      </trkpt>
      <trkpt lat="48.38864" lon="-3.98514">
        <ele>231.766399</ele>
        <time>2022-06-09T16:55:19.191Z</time>
      </trkpt>
      <trkpt lat="48.3886" lon="-3.98489">
        <ele>232.61796</ele>
        <time>2022-06-09T16:55:27.792Z</time>
      </trkpt>
      <trkpt lat="48.3886" lon="-3.9848">
        <ele>232.909414</ele>
        <time>2022-06-09T16:55:29.927Z</time>
      </trkpt>
      <trkpt lat="48.3887" lon="-3.98454">
        <ele>233.911691</ele>
        <time>2022-06-09T16:55:37.277Z</time>
      </trkpt>
      <trkpt lat="48.38892" lon="-3.98362">
        <ele>237.025206</ele>
        <time>2022-06-09T16:56:02.259Z</time>
      </trkpt>
      <trkpt lat="48.38821" lon="-3.98336">
        <ele>240.521739</ele>
        <time>2022-06-09T16:56:40.705Z</time>
      </trkpt>
      <trkpt lat="48.38794" lon="-3.98305">
        <ele>242.133922</ele>
        <time>2022-06-09T16:56:59.788Z</time>
      </trkpt>
      <trkpt lat="48.38618" lon="-3.98171">
        <ele>256.691678</ele>
        <time>2022-06-09T16:59:18.869Z</time>
      </trkpt>
      <trkpt lat="48.38568" lon="-3.98134">
        <ele>261.334119</ele>
        <time>2022-06-09T17:00:02.256Z</time>
      </trkpt>
      <trkpt lat="48.3853" lon="-3.98075">
        <ele>265.888496</ele>
        <time>2022-06-09T17:00:41.982Z</time>
      </trkpt>
      <trkpt lat="48.38494" lon="-3.98047">
        <ele>269.304083</ele>
        <time>2022-06-09T17:01:11.287Z</time>
      </trkpt>
      <trkpt lat="48.38471" lon="-3.98013">
        <ele>271.999201</ele>
        <time>2022-06-09T17:01:35.763Z</time>
      </trkpt>
      <trkpt lat="48.38449" lon="-3.97976">
        <ele>274.683352</ele>
        <time>2022-06-09T17:02:00.480Z</time>
      </trkpt>
      <trkpt lat="48.38409" lon="-3.97847">
        <ele>282.41339</ele>
        <time>2022-06-09T17:03:07.265Z</time>
      </trkpt>
      <trkpt lat="48.38401" lon="-3.97835">
        <ele>283.298976</ele>
        <time>2022-06-09T17:03:16.767Z</time>
      </trkpt>
      <trkpt lat="48.38407" lon="-3.97833">
        <ele>283.742688</ele>
        <time>2022-06-09T17:03:20.241Z</time>
      </trkpt>
      <trkpt lat="48.38425" lon="-3.97781">
        <ele>286.902952</ele>
        <time>2022-06-09T17:03:48.406Z</time>
      </trkpt>
      <trkpt lat="48.38477" lon="-3.977">
        <ele>292.240238</ele>
        <time>2022-06-09T17:04:42.905Z</time>
      </trkpt>
      <trkpt lat="48.38509" lon="-3.97587">
        <ele>298.02561</ele>
        <time>2022-06-09T17:05:37.970Z</time>
      </trkpt>
      <trkpt lat="48.38526" lon="-3.97549">
        <ele>299.917593</ele>
        <time>2022-06-09T17:05:54.877Z</time>
      </trkpt>
      <trkpt lat="48.3855" lon="-3.97436">
        <ele>303.383697</ele>
        <time>2022-06-09T17:06:37.446Z</time>
      </trkpt>
      <trkpt lat="48.38562" lon="-3.97406">
        <ele>304.389624</ele>
        <time>2022-06-09T17:06:49.292Z</time>
      </trkpt>
      <trkpt lat="48.3856" lon="-3.97337">
        <ele>306.412952</ele>
        <time>2022-06-09T17:07:13.053Z</time>
      </trkpt>
      <trkpt lat="48.38534" lon="-3.97249">
        <ele>308.844342</ele>
        <time>2022-06-09T17:07:45.308Z</time>
      </trkpt>
      <trkpt lat="48.38535" lon="-3.97137">
        <ele>311.428141</ele>
        <time>2022-06-09T17:08:22.634Z</time>
      </trkpt>
      <trkpt lat="48.3855" lon="-3.97035">
        <ele>313.717168</ele>
        <time>2022-06-09T17:08:56.215Z</time>
      </trkpt>
      <trkpt lat="48.3854" lon="-3.96944">
        <ele>314.663072</ele>
        <time>2022-06-09T17:09:23.283Z</time>
      </trkpt>
      <trkpt lat="48.38541" lon="-3.96931">
        <ele>314.80538</ele>
        <time>2022-06-09T17:09:27.070Z</time>
      </trkpt>
      <trkpt lat="48.38561" lon="-3.96901">
        <ele>315.238759</ele>
        <time>2022-06-09T17:09:37.681Z</time>
      </trkpt>
      <trkpt lat="48.38589" lon="-3.9682">
        <ele>316.180752</ele>
        <time>2022-06-09T17:09:59.207Z</time>
      </trkpt>
      <trkpt lat="48.38592" lon="-3.96771">
        <ele>316.452473</ele>
        <time>2022-06-09T17:10:10.256Z</time>
      </trkpt>
      <trkpt lat="48.38579" lon="-3.96732">
        <ele>316.502887</ele>
        <time>2022-06-09T17:10:19.568Z</time>
      </trkpt>
      <trkpt lat="48.38547" lon="-3.96688">
        <ele>316.580738</ele>
        <time>2022-06-09T17:10:33.579Z</time>
      </trkpt>
      <trkpt lat="48.38537" lon="-3.96647">
        <ele>316.630792</ele>
        <time>2022-06-09T17:10:42.485Z</time>
      </trkpt>
      <trkpt lat="48.38535" lon="-3.96616">
        <ele>316.667856</ele>
        <time>2022-06-09T17:10:49.075Z</time>
      </trkpt>
      <trkpt lat="48.38525" lon="-3.96577">
        <ele>316.717014</ele>
        <time>2022-06-09T17:10:58.040Z</time>
      </trkpt>
      <trkpt lat="48.38527" lon="-3.9656">
        <ele>316.736761</ele>
        <time>2022-06-09T17:11:01.703Z</time>
      </trkpt>
      <trkpt lat="48.38542" lon="-3.96504">
        <ele>317.186345</ele>
        <time>2022-06-09T17:11:15.684Z</time>
      </trkpt>
      <trkpt lat="48.38568" lon="-3.96453">
        <ele>317.668754</ele>
        <time>2022-06-09T17:11:31.558Z</time>
      </trkpt>
      <trkpt lat="48.38581" lon="-3.9641">
        <ele>318.030956</ele>
        <time>2022-06-09T17:11:44.140Z</time>
      </trkpt>
      <trkpt lat="48.38649" lon="-3.96248">
        <ele>319.465954</ele>
        <time>2022-06-09T17:12:34.041Z</time>
      </trkpt>
      <trkpt lat="48.38662" lon="-3.96232">
        <ele>319.660435</ele>
        <time>2022-06-09T17:12:40.763Z</time>
      </trkpt>
      <trkpt lat="48.3869" lon="-3.96222">
        <ele>319.977871</ele>
        <time>2022-06-09T17:12:51.482Z</time>
      </trkpt>
      <trkpt lat="48.38704" lon="-3.96188">
        <ele>320.280386</ele>
        <time>2022-06-09T17:13:01.360Z</time>
      </trkpt>
      <trkpt lat="48.38746" lon="-3.96126">
        <ele>320.828993</ele>
        <time>2022-06-09T17:13:22.046Z</time>
      </trkpt>
      <trkpt lat="48.38752" lon="-3.96106">
        <ele>320.85529</ele>
        <time>2022-06-09T17:13:26.768Z</time>
      </trkpt>
      <trkpt lat="48.38752" lon="-3.96069">
        <ele>320.899571</ele>
        <time>2022-06-09T17:13:35.016Z</time>
      </trkpt>
      <trkpt lat="48.38764" lon="-3.9602">
        <ele>320.963435</ele>
        <time>2022-06-09T17:13:46.304Z</time>
      </trkpt>
      <trkpt lat="48.38756" lon="-3.95989">
        <ele>321.003351</ele>
        <time>2022-06-09T17:13:53.263Z</time>
      </trkpt>
      <trkpt lat="48.38758" lon="-3.95974">
        <ele>321.021386</ele>
        <time>2022-06-09T17:13:56.366Z</time>
      </trkpt>
      <trkpt lat="48.3878" lon="-3.95909">
        <ele>321.109997</ele>
        <time>2022-06-09T17:14:11.676Z</time>
      </trkpt>
      <trkpt lat="48.38784" lon="-3.95895">
        <ele>321.128462</ele>
        <time>2022-06-09T17:14:14.950Z</time>
      </trkpt>
      <trkpt lat="48.38799" lon="-3.95846">
        <ele>321.286896</ele>
        <time>2022-06-09T17:14:26.470Z</time>
      </trkpt>
      <trkpt lat="48.38818" lon="-3.95813">
        <ele>321.422194</ele>
        <time>2022-06-09T17:14:35.805Z</time>
      </trkpt>
      <trkpt lat="48.38832" lon="-3.95752">
        <ele>321.625326</ele>
        <time>2022-06-09T17:14:50.715Z</time>
      </trkpt>
      <trkpt lat="48.38871" lon="-3.95646">
        <ele>322.016469</ele>
        <time>2022-06-09T17:15:19.635Z</time>
      </trkpt>
      <trkpt lat="48.38888" lon="-3.9561">
        <ele>322.259849</ele>
        <time>2022-06-09T17:15:29.478Z</time>
      </trkpt>
      <trkpt lat="48.38951" lon="-3.95541">
        <ele>322.894146</ele>
        <time>2022-06-09T17:15:56.928Z</time>
      </trkpt>
      <trkpt lat="48.3896" lon="-3.95505">
        <ele>323.104585</ele>
        <time>2022-06-09T17:16:06.035Z</time>
      </trkpt>
      <trkpt lat="48.38958" lon="-3.9549">
        <ele>323.186384</ele>
        <time>2022-06-09T17:16:10.055Z</time>
      </trkpt>
      <trkpt lat="48.38954" lon="-3.95475">
        <ele>323.270388</ele>
        <time>2022-06-09T17:16:13.669Z</time>
      </trkpt>
      <trkpt lat="48.38927" lon="-3.95429">
        <ele>323.618315</ele>
        <time>2022-06-09T17:16:29.147Z</time>
      </trkpt>
      <trkpt lat="48.38924" lon="-3.95397">
        <ele>323.807675</ele>
        <time>2022-06-09T17:16:37.567Z</time>
      </trkpt>
      <trkpt lat="48.38945" lon="-3.95345">
        <ele>324.159789</ele>
        <time>2022-06-09T17:16:52.433Z</time>
      </trkpt>
      <trkpt lat="48.39016" lon="-3.95121">
        <ele>324.53201</ele>
        <time>2022-06-09T17:17:50.342Z</time>
      </trkpt>
      <trkpt lat="48.39016" lon="-3.95099">
        <ele>324.414548</ele>
        <time>2022-06-09T17:17:54.920Z</time>
      </trkpt>
      <trkpt lat="48.39008" lon="-3.95063">
        <ele>324.217803</ele>
        <time>2022-06-09T17:18:02.293Z</time>
      </trkpt>
      <trkpt lat="48.39026" lon="-3.9492">
        <ele>323.158802</ele>
        <time>2022-06-09T17:18:28.912Z</time>
      </trkpt>
      <trkpt lat="48.39043" lon="-3.94872">
        <ele>322.391117</ele>
        <time>2022-06-09T17:18:38.378Z</time>
      </trkpt>
      <trkpt lat="48.39054" lon="-3.94819">
        <ele>321.608285</ele>
        <time>2022-06-09T17:18:48.128Z</time>
      </trkpt>
      <trkpt lat="48.39088" lon="-3.94735">
        <ele>320.208524</ele>
        <time>2022-06-09T17:19:06.013Z</time>
      </trkpt>
      <trkpt lat="48.39149" lon="-3.94616">
        <ele>318.922602</ele>
        <time>2022-06-09T17:19:34.126Z</time>
      </trkpt>
      <trkpt lat="48.3916" lon="-3.94604">
        <ele>318.76979</ele>
        <time>2022-06-09T17:19:38.131Z</time>
      </trkpt>
      <trkpt lat="48.39187" lon="-3.9459">
        <ele>318.46299</ele>
        <time>2022-06-09T17:19:46.517Z</time>
      </trkpt>
      <trkpt lat="48.39197" lon="-3.94522">
        <ele>317.961767</ele>
        <time>2022-06-09T17:20:00.360Z</time>
      </trkpt>
      <trkpt lat="48.39209" lon="-3.94504">
        <ele>317.798738</ele>
        <time>2022-06-09T17:20:05.732Z</time>
      </trkpt>
      <trkpt lat="48.39188" lon="-3.94442">
        <ele>317.494833</ele>
        <time>2022-06-09T17:20:13.953Z</time>
      </trkpt>
      <trkpt lat="48.39166" lon="-3.94226">
        <ele>316.395501</ele>
        <time>2022-06-09T17:20:39.366Z</time>
      </trkpt>
      <trkpt lat="48.39166" lon="-3.94225">
        <ele>316.393541</ele>
        <time>2022-06-09T17:20:39.437Z</time>
      </trkpt>
      <trkpt lat="48.39152" lon="-3.94179">
        <ele>315.902055</ele>
        <time>2022-06-09T17:20:45.137Z</time>
      </trkpt>
      <trkpt lat="48.38862" lon="-3.93769">
        <ele>308.57954</ele>
        <time>2022-06-09T17:21:47.804Z</time>
      </trkpt>
      <trkpt lat="48.38862" lon="-3.93769">
        <ele>308.57954</ele>
        <time>2022-06-09T17:21:47.898Z</time>
      </trkpt>
      <trkpt lat="48.38862" lon="-3.93769">
        <ele>308.57954</ele>
        <time>2022-06-09T17:21:49.023Z</time>
      </trkpt>
      <trkpt lat="48.38375" lon="-3.94297">
        <ele>294.487014</ele>
        <time>2022-06-09T17:23:18.141Z</time>
      </trkpt>
      <trkpt lat="48.38341" lon="-3.94326">
        <ele>294.048427</ele>
        <time>2022-06-09T17:23:25.708Z</time>
      </trkpt>
      <trkpt lat="48.38318" lon="-3.9434">
        <ele>294.490717</ele>
        <time>2022-06-09T17:23:30.844Z</time>
      </trkpt>
      <trkpt lat="48.38317" lon="-3.94366">
        <ele>294.803725</ele>
        <time>2022-06-09T17:23:37.467Z</time>
      </trkpt>
      <trkpt lat="48.38311" lon="-3.94411">
        <ele>295.351643</ele>
        <time>2022-06-09T17:23:49.315Z</time>
      </trkpt>
      <trkpt lat="48.38309" lon="-3.94414">
        <ele>295.393744</ele>
        <time>2022-06-09T17:23:50.290Z</time>
      </trkpt>
      <trkpt lat="48.38267" lon="-3.94447">
        <ele>296.246566</ele>
        <time>2022-06-09T17:24:10.661Z</time>
      </trkpt>
      <trkpt lat="48.38214" lon="-3.94519">
        <ele>298.329668</ele>
        <time>2022-06-09T17:24:45.995Z</time>
      </trkpt>
      <trkpt lat="48.38182" lon="-3.94548">
        <ele>300.28279</ele>
        <time>2022-06-09T17:25:05.830Z</time>
      </trkpt>
      <trkpt lat="48.38162" lon="-3.94595">
        <ele>302.202349</ele>
        <time>2022-06-09T17:25:26.168Z</time>
      </trkpt>
      <trkpt lat="48.38124" lon="-3.9465">
        <ele>304.964482</ele>
        <time>2022-06-09T17:25:58.000Z</time>
      </trkpt>
      <trkpt lat="48.38099" lon="-3.94665">
        <ele>306.363836</ele>
        <time>2022-06-09T17:26:15.497Z</time>
      </trkpt>
      <trkpt lat="48.38034" lon="-3.94733">
        <ele>312.841209</ele>
        <time>2022-06-09T17:27:12.793Z</time>
      </trkpt>
      <trkpt lat="48.37922" lon="-3.94916">
        <ele>326.507956</ele>
        <time>2022-06-09T17:29:18.030Z</time>
      </trkpt>
      <trkpt lat="48.3789" lon="-3.94937">
        <ele>329.44674</ele>
        <time>2022-06-09T17:29:44.033Z</time>
      </trkpt>
      <trkpt lat="48.37855" lon="-3.9497">
        <ele>332.887522</ele>
        <time>2022-06-09T17:30:14.409Z</time>
      </trkpt>
      <trkpt lat="48.37825" lon="-3.94984">
        <ele>335.46138</ele>
        <time>2022-06-09T17:30:37.018Z</time>
      </trkpt>
      <trkpt lat="48.378" lon="-3.95015">
        <ele>337.994323</ele>
        <time>2022-06-09T17:30:59.649Z</time>
      </trkpt>
      <trkpt lat="48.37757" lon="-3.95051">
        <ele>341.709246</ele>
        <time>2022-06-09T17:31:32.793Z</time>
      </trkpt>
      <trkpt lat="48.37707" lon="-3.95111">
        <ele>346.49998</ele>
        <time>2022-06-09T17:32:16.734Z</time>
      </trkpt>
      <trkpt lat="48.37672" lon="-3.95104">
        <ele>349.155814</ele>
        <time>2022-06-09T17:32:41.987Z</time>
      </trkpt>
      <trkpt lat="48.37621" lon="-3.95106">
        <ele>352.723689</ele>
        <time>2022-06-09T17:33:17.695Z</time>
      </trkpt>
      <trkpt lat="48.37572" lon="-3.95132">
        <ele>356.321013</ele>
        <time>2022-06-09T17:33:52.886Z</time>
      </trkpt>
      <trkpt lat="48.37556" lon="-3.95146">
        <ele>357.561245</ele>
        <time>2022-06-09T17:34:04.322Z</time>
      </trkpt>
      <trkpt lat="48.37534" lon="-3.95182">
        <ele>359.850094</ele>
        <time>2022-06-09T17:34:25.507Z</time>
      </trkpt>
      <trkpt lat="48.37486" lon="-3.9521">
        <ele>363.058267</ele>
        <time>2022-06-09T17:34:58.654Z</time>
      </trkpt>
      <trkpt lat="48.3734" lon="-3.9526">
        <ele>370.604626</ele>
        <time>2022-06-09T17:36:26.239Z</time>
      </trkpt>
      <trkpt lat="48.37294" lon="-3.95296">
        <ele>371.362415</ele>
        <time>2022-06-09T17:36:49.357Z</time>
      </trkpt>
      <trkpt lat="48.37249" lon="-3.95332">
        <ele>371.487493</ele>
        <time>2022-06-09T17:37:08.617Z</time>
      </trkpt>
      <trkpt lat="48.37245" lon="-3.95338">
        <ele>371.503093</ele>
        <time>2022-06-09T17:37:10.280Z</time>
      </trkpt>
      <trkpt lat="48.37212" lon="-3.95346">
        <ele>371.584126</ele>
        <time>2022-06-09T17:37:20.490Z</time>
      </trkpt>
      <trkpt lat="48.37153" lon="-3.95372">
        <ele>371.373588</ele>
        <time>2022-06-09T17:37:37.252Z</time>
      </trkpt>
      <trkpt lat="48.37079" lon="-3.9543">
        <ele>368.715938</ele>
        <time>2022-06-09T17:37:58.512Z</time>
      </trkpt>
      <trkpt lat="48.37061" lon="-3.95433">
        <ele>368.148359</ele>
        <time>2022-06-09T17:38:02.955Z</time>
      </trkpt>
      <trkpt lat="48.36872" lon="-3.95537">
        <ele>361.542715</ele>
        <time>2022-06-09T17:38:54.793Z</time>
      </trkpt>
      <trkpt lat="48.3683" lon="-3.95545">
        <ele>360.150295</ele>
        <time>2022-06-09T17:39:05.835Z</time>
      </trkpt>
      <trkpt lat="48.36785" lon="-3.95542">
        <ele>357.758581</ele>
        <time>2022-06-09T17:39:17.195Z</time>
      </trkpt>
      <trkpt lat="48.36707" lon="-3.95557">
        <ele>353.37764</ele>
        <time>2022-06-09T17:39:35.789Z</time>
      </trkpt>
      <trkpt lat="48.36678" lon="-3.9557">
        <ele>351.691775</ele>
        <time>2022-06-09T17:39:43.011Z</time>
      </trkpt>
      <trkpt lat="48.36626" lon="-3.95572">
        <ele>348.371136</ele>
        <time>2022-06-09T17:39:54.578Z</time>
      </trkpt>
      <trkpt lat="48.36601" lon="-3.95575">
        <ele>346.390398</ele>
        <time>2022-06-09T17:40:00.117Z</time>
      </trkpt>
      <trkpt lat="48.36581" lon="-3.95587">
        <ele>344.745331</ele>
        <time>2022-06-09T17:40:05.081Z</time>
      </trkpt>
      <trkpt lat="48.36552" lon="-3.95589">
        <ele>342.467875</ele>
        <time>2022-06-09T17:40:11.583Z</time>
      </trkpt>
      <trkpt lat="48.36539" lon="-3.95605">
        <ele>341.201702</ele>
        <time>2022-06-09T17:40:15.081Z</time>
      </trkpt>
      <trkpt lat="48.36516" lon="-3.9562">
        <ele>339.267256</ele>
        <time>2022-06-09T17:40:20.901Z</time>
      </trkpt>
      <trkpt lat="48.36507" lon="-3.9562">
        <ele>338.547202</ele>
        <time>2022-06-09T17:40:22.806Z</time>
      </trkpt>
      <trkpt lat="48.36495" lon="-3.95683">
        <ele>335.386608</ele>
        <time>2022-06-09T17:40:32.760Z</time>
      </trkpt>
      <trkpt lat="48.3648" lon="-3.95721">
        <ele>333.673993</ele>
        <time>2022-06-09T17:40:39.567Z</time>
      </trkpt>
      <trkpt lat="48.36442" lon="-3.95751">
        <ele>331.129293</ele>
        <time>2022-06-09T17:40:49.650Z</time>
      </trkpt>
      <trkpt lat="48.36427" lon="-3.95768">
        <ele>330.048164</ele>
        <time>2022-06-09T17:40:54.125Z</time>
      </trkpt>
      <trkpt lat="48.36414" lon="-3.95795">
        <ele>328.722175</ele>
        <time>2022-06-09T17:40:59.213Z</time>
      </trkpt>
      <trkpt lat="48.36349" lon="-3.95885">
        <ele>324.150232</ele>
        <time>2022-06-09T17:41:20.740Z</time>
      </trkpt>
      <trkpt lat="48.36268" lon="-3.95952">
        <ele>320.293079</ele>
        <time>2022-06-09T17:41:43.418Z</time>
      </trkpt>
      <trkpt lat="48.36159" lon="-3.96018">
        <ele>315.82046</ele>
        <time>2022-06-09T17:42:13.556Z</time>
      </trkpt>
      <trkpt lat="48.36131" lon="-3.96046">
        <ele>314.634259</ele>
        <time>2022-06-09T17:42:22.110Z</time>
      </trkpt>
      <trkpt lat="48.36086" lon="-3.96071">
        <ele>312.942264</ele>
        <time>2022-06-09T17:42:34.463Z</time>
      </trkpt>
      <trkpt lat="48.36001" lon="-3.96088">
        <ele>309.733755</ele>
        <time>2022-06-09T17:42:56.088Z</time>
      </trkpt>
      <trkpt lat="48.36001" lon="-3.96088">
        <ele>309.733755</ele>
        <time>2022-06-09T17:42:56.118Z</time>
      </trkpt>
      <trkpt lat="48.35945" lon="-3.96107">
        <ele>307.498378</ele>
        <time>2022-06-09T17:43:10.582Z</time>
      </trkpt>
      <trkpt lat="48.35832" lon="-3.96089">
        <ele>303.72392</ele>
        <time>2022-06-09T17:43:38.757Z</time>
      </trkpt>
      <trkpt lat="48.35684" lon="-3.96101">
        <ele>300.626113</ele>
        <time>2022-06-09T17:44:19.056Z</time>
      </trkpt>
      <trkpt lat="48.35679" lon="-3.96091">
        <ele>300.770866</ele>
        <time>2022-06-09T17:44:21.763Z</time>
      </trkpt>
      <trkpt lat="48.35663" lon="-3.96113">
        <ele>301.157838</ele>
        <time>2022-06-09T17:44:26.355Z</time>
      </trkpt>
      <trkpt lat="48.35655" lon="-3.96138">
        <ele>301.477602</ele>
        <time>2022-06-09T17:44:30.922Z</time>
      </trkpt>
      <trkpt lat="48.35642" lon="-3.96124">
        <ele>301.760309</ele>
        <time>2022-06-09T17:44:37.026Z</time>
      </trkpt>
      <trkpt lat="48.35614" lon="-3.96077">
        <ele>302.499011</ele>
        <time>2022-06-09T17:44:54.635Z</time>
      </trkpt>
      <trkpt lat="48.35532" lon="-3.95976">
        <ele>305.823823</ele>
        <time>2022-06-09T17:45:48.836Z</time>
      </trkpt>
      <trkpt lat="48.35465" lon="-3.95859">
        <ele>310.988789</ele>
        <time>2022-06-09T17:46:50.622Z</time>
      </trkpt>
      <trkpt lat="48.35415" lon="-3.95658">
        <ele>317.267942</ele>
        <time>2022-06-09T17:48:13.399Z</time>
      </trkpt>
      <trkpt lat="48.35391" lon="-3.95604">
        <ele>319.081265</ele>
        <time>2022-06-09T17:48:35.208Z</time>
      </trkpt>
      <trkpt lat="48.35366" lon="-3.95512">
        <ele>319.876112</ele>
        <time>2022-06-09T17:49:02.303Z</time>
      </trkpt>
      <trkpt lat="48.35353" lon="-3.95489">
        <ele>319.685219</ele>
        <time>2022-06-09T17:49:09.290Z</time>
      </trkpt>
      <trkpt lat="48.35337" lon="-3.95484">
        <ele>319.527439</ele>
        <time>2022-06-09T17:49:14.292Z</time>
      </trkpt>
      <trkpt lat="48.35275" lon="-3.95455">
        <ele>318.896387</ele>
        <time>2022-06-09T17:49:32.588Z</time>
      </trkpt>
      <trkpt lat="48.35203" lon="-3.95438">
        <ele>317.010695</ele>
        <time>2022-06-09T17:49:50.931Z</time>
      </trkpt>
      <trkpt lat="48.35015" lon="-3.95309">
        <ele>308.004195</ele>
        <time>2022-06-09T17:50:40.588Z</time>
      </trkpt>
      <trkpt lat="48.34948" lon="-3.95219">
        <ele>304.652667</ele>
        <time>2022-06-09T17:51:03.462Z</time>
      </trkpt>
      <trkpt lat="48.34793" lon="-3.95036">
        <ele>299.267402</ele>
        <time>2022-06-09T17:51:56.663Z</time>
      </trkpt>
      <trkpt lat="48.3464" lon="-3.94794">
        <ele>293.01519</ele>
        <time>2022-06-09T17:52:53.878Z</time>
      </trkpt>
      <trkpt lat="48.34582" lon="-3.94694">
        <ele>291.614289</ele>
        <time>2022-06-09T17:53:18.457Z</time>
      </trkpt>
      <trkpt lat="48.34571" lon="-3.94664">
        <ele>291.255559</ele>
        <time>2022-06-09T17:53:25.046Z</time>
      </trkpt>
      <trkpt lat="48.3455" lon="-3.94637">
        <ele>290.810836</ele>
        <time>2022-06-09T17:53:33.472Z</time>
      </trkpt>
      <trkpt lat="48.345" lon="-3.94552">
        <ele>290.587221</ele>
        <time>2022-06-09T17:53:57.127Z</time>
      </trkpt>
      <trkpt lat="48.34431" lon="-3.94493">
        <ele>290.558454</ele>
        <time>2022-06-09T17:54:22.595Z</time>
      </trkpt>
      <trkpt lat="48.34316" lon="-3.94334">
        <ele>290.884158</ele>
        <time>2022-06-09T17:55:14.243Z</time>
      </trkpt>
      <trkpt lat="48.34245" lon="-3.94277">
        <ele>291.001511</ele>
        <time>2022-06-09T17:55:41.211Z</time>
      </trkpt>
      <trkpt lat="48.34253" lon="-3.94271">
        <ele>290.973776</ele>
        <time>2022-06-09T17:55:44.586Z</time>
      </trkpt>
      <trkpt lat="48.34287" lon="-3.94175">
        <ele>290.745602</ele>
        <time>2022-06-09T17:56:07.223Z</time>
      </trkpt>
      <trkpt lat="48.34308" lon="-3.94097">
        <ele>290.569021</ele>
        <time>2022-06-09T17:56:24.043Z</time>
      </trkpt>
      <trkpt lat="48.3432" lon="-3.94037">
        <ele>290.240411</ele>
        <time>2022-06-09T17:56:36.403Z</time>
      </trkpt>
      <trkpt lat="48.34332" lon="-3.93938">
        <ele>289.274096</ele>
        <time>2022-06-09T17:56:55.636Z</time>
      </trkpt>
      <trkpt lat="48.34349" lon="-3.93865">
        <ele>288.542976</ele>
        <time>2022-06-09T17:57:09.889Z</time>
      </trkpt>
      <trkpt lat="48.34375" lon="-3.93673">
        <ele>286.334792</ele>
        <time>2022-06-09T17:57:46.169Z</time>
      </trkpt>
      <trkpt lat="48.34375" lon="-3.93664">
        <ele>286.223036</ele>
        <time>2022-06-09T17:57:47.837Z</time>
      </trkpt>
      <trkpt lat="48.34377" lon="-3.93658">
        <ele>286.146035</ele>
        <time>2022-06-09T17:57:49.000Z</time>
      </trkpt>
      <trkpt lat="48.34382" lon="-3.93641">
        <ele>285.923889</ele>
        <time>2022-06-09T17:57:52.406Z</time>
      </trkpt>
      <trkpt lat="48.34458" lon="-3.93455">
        <ele>282.811142</ele>
        <time>2022-06-09T17:58:32.397Z</time>
      </trkpt>
      <trkpt lat="48.34477" lon="-3.93382">
        <ele>281.536383</ele>
        <time>2022-06-09T17:58:46.308Z</time>
      </trkpt>
      <trkpt lat="48.34482" lon="-3.93324">
        <ele>280.593717</ele>
        <time>2022-06-09T17:58:56.363Z</time>
      </trkpt>
      <trkpt lat="48.34495" lon="-3.93052">
        <ele>275.691805</ele>
        <time>2022-06-09T17:59:43.519Z</time>
      </trkpt>
      <trkpt lat="48.3451" lon="-3.9292">
        <ele>274.993088</ele>
        <time>2022-06-09T18:00:08.750Z</time>
      </trkpt>
      <trkpt lat="48.3451" lon="-3.9292">
        <ele>274.992492</ele>
        <time>2022-06-09T18:00:08.772Z</time>
      </trkpt>
      <trkpt lat="48.34499" lon="-3.92838">
        <ele>274.743017</ele>
        <time>2022-06-09T18:00:26.497Z</time>
      </trkpt>
      <trkpt lat="48.34482" lon="-3.92761">
        <ele>274.584714</ele>
        <time>2022-06-09T18:00:46.368Z</time>
      </trkpt>
      <trkpt lat="48.3447" lon="-3.92714">
        <ele>274.906745</ele>
        <time>2022-06-09T18:00:59.147Z</time>
      </trkpt>
      <trkpt lat="48.34452" lon="-3.92671">
        <ele>275.237236</ele>
        <time>2022-06-09T18:01:12.493Z</time>
      </trkpt>
      <trkpt lat="48.34523" lon="-3.92662">
        <ele>275.93255</ele>
        <time>2022-06-09T18:01:40.728Z</time>
      </trkpt>
      <trkpt lat="48.34629" lon="-3.92663">
        <ele>274.798824</ele>
        <time>2022-06-09T18:02:13.665Z</time>
      </trkpt>
      <trkpt lat="48.34643" lon="-3.92655">
        <ele>274.481487</ele>
        <time>2022-06-09T18:02:17.968Z</time>
      </trkpt>
      <trkpt lat="48.34852" lon="-3.92547">
        <ele>268.919338</ele>
        <time>2022-06-09T18:03:13.340Z</time>
      </trkpt>
      <trkpt lat="48.34866" lon="-3.92526">
        <ele>268.345116</ele>
        <time>2022-06-09T18:03:18.555Z</time>
      </trkpt>
      <trkpt lat="48.3471" lon="-3.91826">
        <ele>268.35904</ele>
        <time>2022-06-09T18:05:58.416Z</time>
      </trkpt>
      <trkpt lat="48.34658" lon="-3.9156">
        <ele>269.491186</ele>
        <time>2022-06-09T18:07:09.744Z</time>
      </trkpt>
      <trkpt lat="48.34645" lon="-3.91426">
        <ele>269.724363</ele>
        <time>2022-06-09T18:07:37.539Z</time>
      </trkpt>
      <trkpt lat="48.34645" lon="-3.91426">
        <ele>269.723384</ele>
        <time>2022-06-09T18:07:37.575Z</time>
      </trkpt>
      <trkpt lat="48.3463" lon="-3.91329">
        <ele>268.748377</ele>
        <time>2022-06-09T18:07:56.490Z</time>
      </trkpt>
      <trkpt lat="48.34344" lon="-3.89861">
        <ele>254.231073</ele>
        <time>2022-06-09T18:12:43.603Z</time>
      </trkpt>
      <trkpt lat="48.34334" lon="-3.89823">
        <ele>254.212361</ele>
        <time>2022-06-09T18:12:52.844Z</time>
      </trkpt>
      <trkpt lat="48.34326" lon="-3.89813">
        <ele>254.205352</ele>
        <time>2022-06-09T18:12:56.302Z</time>
      </trkpt>
      <trkpt lat="48.34245" lon="-3.8981">
        <ele>254.149885</ele>
        <time>2022-06-09T18:13:24.194Z</time>
      </trkpt>
      <trkpt lat="48.34233" lon="-3.89803">
        <ele>254.140787</ele>
        <time>2022-06-09T18:13:28.674Z</time>
      </trkpt>
      <trkpt lat="48.34071" lon="-3.898">
        <ele>253.383717</ele>
        <time>2022-06-09T18:14:18.275Z</time>
      </trkpt>
      <trkpt lat="48.34047" lon="-3.898">
        <ele>253.248732</ele>
        <time>2022-06-09T18:14:25.112Z</time>
      </trkpt>
      <trkpt lat="48.34038" lon="-3.89788">
        <ele>253.180307</ele>
        <time>2022-06-09T18:14:28.567Z</time>
      </trkpt>
      <trkpt lat="48.34036" lon="-3.8977">
        <ele>253.110274</ele>
        <time>2022-06-09T18:14:32.169Z</time>
      </trkpt>
      <trkpt lat="48.3399" lon="-3.89633">
        <ele>252.629229</ele>
        <time>2022-06-09T18:15:02.056Z</time>
      </trkpt>
      <trkpt lat="48.33978" lon="-3.89585">
        <ele>252.469525</ele>
        <time>2022-06-09T18:15:12.439Z</time>
      </trkpt>
      <trkpt lat="48.33956" lon="-3.89534">
        <ele>252.279704</ele>
        <time>2022-06-09T18:15:26.001Z</time>
      </trkpt>
      <trkpt lat="48.33938" lon="-3.89478">
        <ele>252.613837</ele>
        <time>2022-06-09T18:15:40.251Z</time>
      </trkpt>
      <trkpt lat="48.33858" lon="-3.89311">
        <ele>254.020855</ele>
        <time>2022-06-09T18:16:30.567Z</time>
      </trkpt>
      <trkpt lat="48.33802" lon="-3.89135">
        <ele>256.902636</ele>
        <time>2022-06-09T18:17:26.319Z</time>
      </trkpt>
      <trkpt lat="48.33788" lon="-3.89052">
        <ele>258.20272</ele>
        <time>2022-06-09T18:17:52.101Z</time>
      </trkpt>
      <trkpt lat="48.33756" lon="-3.88929">
        <ele>260.249994</ele>
        <time>2022-06-09T18:18:32.273Z</time>
      </trkpt>
      <trkpt lat="48.33696" lon="-3.88758">
        <ele>262.648445</ele>
        <time>2022-06-09T18:19:26.415Z</time>
      </trkpt>
      <trkpt lat="48.33656" lon="-3.88672">
        <ele>263.073865</ele>
        <time>2022-06-09T18:19:50.664Z</time>
      </trkpt>
      <trkpt lat="48.33586" lon="-3.88493">
        <ele>263.381384</ele>
        <time>2022-06-09T18:20:33.692Z</time>
      </trkpt>
      <trkpt lat="48.33517" lon="-3.88281">
        <ele>263.321227</ele>
        <time>2022-06-09T18:21:22.223Z</time>
      </trkpt>
      <trkpt lat="48.33363" lon="-3.87771">
        <ele>266.6195</ele>
        <time>2022-06-09T18:23:36.072Z</time>
      </trkpt>
      <trkpt lat="48.33322" lon="-3.87537">
        <ele>270.033937</ele>
        <time>2022-06-09T18:24:45.687Z</time>
      </trkpt>
      <trkpt lat="48.33288" lon="-3.87432">
        <ele>272.38784</ele>
        <time>2022-06-09T18:25:23.121Z</time>
      </trkpt>
      <trkpt lat="48.33273" lon="-3.87356">
        <ele>273.980799</ele>
        <time>2022-06-09T18:25:48.293Z</time>
      </trkpt>
      <trkpt lat="48.33276" lon="-3.87333">
        <ele>274.444467</ele>
        <time>2022-06-09T18:25:55.546Z</time>
      </trkpt>
      <trkpt lat="48.3327" lon="-3.87271">
        <ele>275.605469</ele>
        <time>2022-06-09T18:26:15.348Z</time>
      </trkpt>
      <trkpt lat="48.33161" lon="-3.86899">
        <ele>281.628227</ele>
        <time>2022-06-09T18:28:17.443Z</time>
      </trkpt>
      <trkpt lat="48.33152" lon="-3.8687">
        <ele>281.968529</ele>
        <time>2022-06-09T18:28:24.437Z</time>
      </trkpt>
      <trkpt lat="48.33145" lon="-3.8686">
        <ele>282.135032</ele>
        <time>2022-06-09T18:28:27.758Z</time>
      </trkpt>
      <trkpt lat="48.33086" lon="-3.86687">
        <ele>279.923123</ele>
        <time>2022-06-09T18:29:03.794Z</time>
      </trkpt>
      <trkpt lat="48.33017" lon="-3.86438">
        <ele>274.191762</ele>
        <time>2022-06-09T18:29:49.364Z</time>
      </trkpt>
      <trkpt lat="48.32972" lon="-3.86331">
        <ele>271.019165</ele>
        <time>2022-06-09T18:30:10.241Z</time>
      </trkpt>
      <trkpt lat="48.3291" lon="-3.86085">
        <ele>264.741867</ele>
        <time>2022-06-09T18:30:54.138Z</time>
      </trkpt>
      <trkpt lat="48.32884" lon="-3.86014">
        <ele>263.729076</ele>
        <time>2022-06-09T18:31:08.421Z</time>
      </trkpt>
      <trkpt lat="48.32834" lon="-3.85842">
        <ele>261.529985</ele>
        <time>2022-06-09T18:31:44.308Z</time>
      </trkpt>
      <trkpt lat="48.32801" lon="-3.85661">
        <ele>261.007773</ele>
        <time>2022-06-09T18:32:22.367Z</time>
      </trkpt>
      <trkpt lat="48.32776" lon="-3.85555">
        <ele>261.05382</ele>
        <time>2022-06-09T18:32:46.118Z</time>
      </trkpt>
      <trkpt lat="48.32772" lon="-3.85504">
        <ele>261.322168</ele>
        <time>2022-06-09T18:32:58.015Z</time>
      </trkpt>
      <trkpt lat="48.32729" lon="-3.85418">
        <ele>261.888224</ele>
        <time>2022-06-09T18:33:25.158Z</time>
      </trkpt>
      <trkpt lat="48.32727" lon="-3.85408">
        <ele>261.940074</ele>
        <time>2022-06-09T18:33:28.002Z</time>
      </trkpt>
      <trkpt lat="48.32675" lon="-3.85424">
        <ele>262.268639</ele>
        <time>2022-06-09T18:33:47.533Z</time>
      </trkpt>
      <trkpt lat="48.32665" lon="-3.85302">
        <ele>262.446335</ele>
        <time>2022-06-09T18:34:15.924Z</time>
      </trkpt>
      <trkpt lat="48.32665" lon="-3.85266">
        <ele>262.49806</ele>
        <time>2022-06-09T18:34:23.481Z</time>
      </trkpt>
      <trkpt lat="48.32671" lon="-3.85243">
        <ele>262.532699</ele>
        <time>2022-06-09T18:34:29.357Z</time>
      </trkpt>
      <trkpt lat="48.32682" lon="-3.8523">
        <ele>262.563352</ele>
        <time>2022-06-09T18:34:33.356Z</time>
      </trkpt>
      <trkpt lat="48.32706" lon="-3.85124">
        <ele>262.051548</ele>
        <time>2022-06-09T18:34:55.780Z</time>
      </trkpt>
      <trkpt lat="48.32731" lon="-3.85096">
        <ele>261.673234</ele>
        <time>2022-06-09T18:35:04.608Z</time>
      </trkpt>
      <trkpt lat="48.32777" lon="-3.85003">
        <ele>260.73021</ele>
        <time>2022-06-09T18:35:26.027Z</time>
      </trkpt>
      <trkpt lat="48.3277" lon="-3.84957">
        <ele>260.377623</ele>
        <time>2022-06-09T18:35:35.143Z</time>
      </trkpt>
      <trkpt lat="48.32845" lon="-3.8491">
        <ele>259.762032</ele>
        <time>2022-06-09T18:35:59.116Z</time>
      </trkpt>
      <trkpt lat="48.32853" lon="-3.84897">
        <ele>259.673728</ele>
        <time>2022-06-09T18:36:02.557Z</time>
      </trkpt>
      <trkpt lat="48.32843" lon="-3.84847">
        <ele>259.410511</ele>
        <time>2022-06-09T18:36:12.977Z</time>
      </trkpt>
      <trkpt lat="48.32915" lon="-3.84738">
        <ele>259.59588</ele>
        <time>2022-06-09T18:36:44.538Z</time>
      </trkpt>
      <trkpt lat="48.3295" lon="-3.84674">
        <ele>260.117207</ele>
        <time>2022-06-09T18:37:04.085Z</time>
      </trkpt>
      <trkpt lat="48.33013" lon="-3.8451">
        <ele>262.410048</ele>
        <time>2022-06-09T18:37:57.632Z</time>
      </trkpt>
      <trkpt lat="48.33029" lon="-3.84453">
        <ele>263.59491</ele>
        <time>2022-06-09T18:38:16.893Z</time>
      </trkpt>
      <trkpt lat="48.32981" lon="-3.84441">
        <ele>264.992856</ele>
        <time>2022-06-09T18:38:40.414Z</time>
      </trkpt>
      <trkpt lat="48.32955" lon="-3.84426">
        <ele>265.784673</ele>
        <time>2022-06-09T18:38:53.472Z</time>
      </trkpt>
      <trkpt lat="48.32869" lon="-3.84303">
        <ele>269.168818</ele>
        <time>2022-06-09T18:39:52.552Z</time>
      </trkpt>
      <trkpt lat="48.32836" lon="-3.84276">
        <ele>270.225317</ele>
        <time>2022-06-09T18:40:08.412Z</time>
      </trkpt>
      <trkpt lat="48.32809" lon="-3.84265">
        <ele>271.043642</ele>
        <time>2022-06-09T18:40:20.616Z</time>
      </trkpt>
      <trkpt lat="48.32677" lon="-3.84293">
        <ele>271.605116</ele>
        <time>2022-06-09T18:41:08.579Z</time>
      </trkpt>
      <trkpt lat="48.32688" lon="-3.84224">
        <ele>271.792907</ele>
        <time>2022-06-09T18:41:16.817Z</time>
      </trkpt>
      <trkpt lat="48.3269" lon="-3.84191">
        <ele>271.449567</ele>
        <time>2022-06-09T18:41:20.275Z</time>
      </trkpt>
      <trkpt lat="48.32691" lon="-3.84147">
        <ele>270.984156</ele>
        <time>2022-06-09T18:41:24.745Z</time>
      </trkpt>
      <trkpt lat="48.32681" lon="-3.84034">
        <ele>269.79123</ele>
        <time>2022-06-09T18:41:36.324Z</time>
      </trkpt>
      <trkpt lat="48.32661" lon="-3.83951">
        <ele>268.924649</ele>
        <time>2022-06-09T18:41:45.815Z</time>
      </trkpt>
      <trkpt lat="48.32651" lon="-3.83926">
        <ele>268.812031</ele>
        <time>2022-06-09T18:41:49.170Z</time>
      </trkpt>
      <trkpt lat="48.32604" lon="-3.83806">
        <ele>268.281958</ele>
        <time>2022-06-09T18:42:06.152Z</time>
      </trkpt>
      <trkpt lat="48.32569" lon="-3.83673">
        <ele>266.724772</ele>
        <time>2022-06-09T18:42:24.133Z</time>
      </trkpt>
      <trkpt lat="48.32557" lon="-3.83564">
        <ele>264.08789</ele>
        <time>2022-06-09T18:42:35.147Z</time>
      </trkpt>
      <trkpt lat="48.32574" lon="-3.83441">
        <ele>260.587506</ele>
        <time>2022-06-09T18:42:45.961Z</time>
      </trkpt>
      <trkpt lat="48.32576" lon="-3.83421">
        <ele>259.431173</ele>
        <time>2022-06-09T18:42:47.652Z</time>
      </trkpt>
      <trkpt lat="48.32467" lon="-3.8324">
        <ele>245.795949</ele>
        <time>2022-06-09T18:43:23.028Z</time>
      </trkpt>
      <trkpt lat="48.32379" lon="-3.83124">
        <ele>235.040258</ele>
        <time>2022-06-09T18:43:48.784Z</time>
      </trkpt>
      <trkpt lat="48.32264" lon="-3.8297">
        <ele>219.985688</ele>
        <time>2022-06-09T18:44:22.025Z</time>
      </trkpt>
      <trkpt lat="48.32138" lon="-3.82804">
        <ele>203.293263</ele>
        <time>2022-06-09T18:44:57.616Z</time>
      </trkpt>
      <trkpt lat="48.32051" lon="-3.82736">
        <ele>193.768872</ele>
        <time>2022-06-09T18:45:18.753Z</time>
      </trkpt>
      <trkpt lat="48.31923" lon="-3.82666">
        <ele>183.57928</ele>
        <time>2022-06-09T18:45:49.335Z</time>
      </trkpt>
      <trkpt lat="48.31885" lon="-3.82657">
        <ele>180.668306</ele>
        <time>2022-06-09T18:45:58.179Z</time>
      </trkpt>
      <trkpt lat="48.31861" lon="-3.82657">
        <ele>179.736979</ele>
        <time>2022-06-09T18:46:03.758Z</time>
      </trkpt>
      <trkpt lat="48.31825" lon="-3.82686">
        <ele>178.280994</ele>
        <time>2022-06-09T18:46:13.520Z</time>
      </trkpt>
      <trkpt lat="48.318" lon="-3.82642">
        <ele>176.90586</ele>
        <time>2022-06-09T18:46:18.955Z</time>
      </trkpt>
      <trkpt lat="48.31726" lon="-3.8258">
        <ele>174.066331</ele>
        <time>2022-06-09T18:46:32.368Z</time>
      </trkpt>
      <trkpt lat="48.31677" lon="-3.8253">
        <ele>173.380003</ele>
        <time>2022-06-09T18:46:42.996Z</time>
      </trkpt>
      <trkpt lat="48.31642" lon="-3.82475">
        <ele>172.799454</ele>
        <time>2022-06-09T18:46:52.121Z</time>
      </trkpt>
      <trkpt lat="48.31592" lon="-3.82377">
        <ele>171.328473</ele>
        <time>2022-06-09T18:47:05.530Z</time>
      </trkpt>
      <trkpt lat="48.31592" lon="-3.82377">
        <ele>171.325841</ele>
        <time>2022-06-09T18:47:05.543Z</time>
      </trkpt>
      <trkpt lat="48.31592" lon="-3.82377">
        <ele>171.32321</ele>
        <time>2022-06-09T18:47:05.693Z</time>
      </trkpt>
      <trkpt lat="48.31537" lon="-3.82347">
        <ele>169.034176</ele>
        <time>2022-06-09T18:47:14.451Z</time>
      </trkpt>
      <trkpt lat="48.31434" lon="-3.82297">
        <ele>164.690356</ele>
        <time>2022-06-09T18:47:30.039Z</time>
      </trkpt>
      <trkpt lat="48.31433" lon="-3.82297">
        <ele>164.667954</ele>
        <time>2022-06-09T18:47:30.099Z</time>
      </trkpt>
      <trkpt lat="48.31327" lon="-3.82265">
        <ele>159.870516</ele>
        <time>2022-06-09T18:47:45.299Z</time>
      </trkpt>
      <trkpt lat="48.31276" lon="-3.82255">
        <ele>157.584684</ele>
        <time>2022-06-09T18:47:52.995Z</time>
      </trkpt>
      <trkpt lat="48.31217" lon="-3.82243">
        <ele>156.465272</ele>
        <time>2022-06-09T18:48:02.370Z</time>
      </trkpt>
      <trkpt lat="48.31078" lon="-3.82177">
        <ele>155.279248</ele>
        <time>2022-06-09T18:48:46.119Z</time>
      </trkpt>
      <trkpt lat="48.31051" lon="-3.82176">
        <ele>155.986173</ele>
        <time>2022-06-09T18:48:56.860Z</time>
      </trkpt>
      <trkpt lat="48.30978" lon="-3.82184">
        <ele>157.853112</ele>
        <time>2022-06-09T18:49:18.635Z</time>
      </trkpt>
      <trkpt lat="48.30916" lon="-3.82178">
        <ele>159.42571</ele>
        <time>2022-06-09T18:49:43.078Z</time>
      </trkpt>
      <trkpt lat="48.30869" lon="-3.82163">
        <ele>161.809058</ele>
        <time>2022-06-09T18:50:04.804Z</time>
      </trkpt>
      <trkpt lat="48.30843" lon="-3.82127">
        <ele>163.708094</ele>
        <time>2022-06-09T18:50:25.834Z</time>
      </trkpt>
      <trkpt lat="48.30759" lon="-3.81971">
        <ele>170.731119</ele>
        <time>2022-06-09T18:51:45.691Z</time>
      </trkpt>
      <trkpt lat="48.30733" lon="-3.81938">
        <ele>172.497497</ele>
        <time>2022-06-09T18:52:06.509Z</time>
      </trkpt>
      <trkpt lat="48.3044" lon="-3.81774">
        <ele>187.500726</ele>
        <time>2022-06-09T18:54:59.774Z</time>
      </trkpt>
      <trkpt lat="48.30393" lon="-3.81715">
        <ele>189.725114</ele>
        <time>2022-06-09T18:55:33.751Z</time>
      </trkpt>
      <trkpt lat="48.3032" lon="-3.81651">
        <ele>192.800559</ele>
        <time>2022-06-09T18:56:14.743Z</time>
      </trkpt>
      <trkpt lat="48.30271" lon="-3.81702">
        <ele>193.101146</ele>
        <time>2022-06-09T18:56:39.418Z</time>
      </trkpt>
      <trkpt lat="48.3026" lon="-3.817">
        <ele>193.021452</ele>
        <time>2022-06-09T18:56:43.515Z</time>
      </trkpt>
      <trkpt lat="48.30173" lon="-3.81591">
        <ele>192.226972</ele>
        <time>2022-06-09T18:57:16.641Z</time>
      </trkpt>
      <trkpt lat="48.30209" lon="-3.81517">
        <ele>188.872984</ele>
        <time>2022-06-09T18:57:24.739Z</time>
      </trkpt>
      <trkpt lat="48.30082" lon="-3.8137">
        <ele>177.87774</ele>
        <time>2022-06-09T18:57:45.904Z</time>
      </trkpt>
      <trkpt lat="48.30016" lon="-3.81266">
        <ele>171.004977</ele>
        <time>2022-06-09T18:57:58.354Z</time>
      </trkpt>
      <trkpt lat="48.29951" lon="-3.81189">
        <ele>166.009798</ele>
        <time>2022-06-09T18:58:09.932Z</time>
      </trkpt>
      <trkpt lat="48.299" lon="-3.81164">
        <ele>163.99625</ele>
        <time>2022-06-09T18:58:17.883Z</time>
      </trkpt>
      <trkpt lat="48.29843" lon="-3.81055">
        <ele>160.518294</ele>
        <time>2022-06-09T18:58:32.103Z</time>
      </trkpt>
      <trkpt lat="48.29773" lon="-3.80965">
        <ele>157.17961</ele>
        <time>2022-06-09T18:58:46.268Z</time>
      </trkpt>
      <trkpt lat="48.29715" lon="-3.80889">
        <ele>154.421358</ele>
        <time>2022-06-09T18:58:57.530Z</time>
      </trkpt>
      <trkpt lat="48.29703" lon="-3.80874">
        <ele>153.854212</ele>
        <time>2022-06-09T18:58:59.839Z</time>
      </trkpt>
      <trkpt lat="48.29648" lon="-3.80868">
        <ele>151.812802</ele>
        <time>2022-06-09T18:59:07.985Z</time>
      </trkpt>
      <trkpt lat="48.29614" lon="-3.80858">
        <ele>150.54989</ele>
        <time>2022-06-09T18:59:13.006Z</time>
      </trkpt>
      <trkpt lat="48.29444" lon="-3.80751">
        <ele>144.951709</ele>
        <time>2022-06-09T18:59:41.079Z</time>
      </trkpt>
      <trkpt lat="48.29259" lon="-3.80682">
        <ele>141.998586</ele>
        <time>2022-06-09T19:00:14.000Z</time>
      </trkpt>
      <trkpt lat="48.29175" lon="-3.80669">
        <ele>141.427964</ele>
        <time>2022-06-09T19:00:30.472Z</time>
      </trkpt>
      <trkpt lat="48.29155" lon="-3.80669">
        <ele>141.593033</ele>
        <time>2022-06-09T19:00:34.684Z</time>
      </trkpt>
      <trkpt lat="48.2905" lon="-3.80703">
        <ele>142.513459</ele>
        <time>2022-06-09T19:01:00.603Z</time>
      </trkpt>
      <trkpt lat="48.28907" lon="-3.80717">
        <ele>145.124753</ele>
        <time>2022-06-09T19:01:41.710Z</time>
      </trkpt>
      <trkpt lat="48.28826" lon="-3.80721">
        <ele>146.955422</ele>
        <time>2022-06-09T19:02:09.380Z</time>
      </trkpt>
      <trkpt lat="48.28802" lon="-3.80725">
        <ele>147.929463</ele>
        <time>2022-06-09T19:02:18.453Z</time>
      </trkpt>
      <trkpt lat="48.28723" lon="-3.80718">
        <ele>151.142765</ele>
        <time>2022-06-09T19:02:50.228Z</time>
      </trkpt>
      <trkpt lat="48.28621" lon="-3.80699">
        <ele>155.252206</ele>
        <time>2022-06-09T19:03:34.799Z</time>
      </trkpt>
      <trkpt lat="48.28553" lon="-3.80689">
        <ele>157.91231</ele>
        <time>2022-06-09T19:04:03.147Z</time>
      </trkpt>
      <trkpt lat="48.2848" lon="-3.80698">
        <ele>160.778268</ele>
        <time>2022-06-09T19:04:31.410Z</time>
      </trkpt>
      <trkpt lat="48.2848" lon="-3.80698">
        <ele>160.786082</ele>
        <time>2022-06-09T19:04:31.736Z</time>
      </trkpt>
      <trkpt lat="48.28373" lon="-3.80676">
        <ele>163.368998</ele>
        <time>2022-06-09T19:05:06.394Z</time>
      </trkpt>
      <trkpt lat="48.28366" lon="-3.80681">
        <ele>163.526978</ele>
        <time>2022-06-09T19:05:08.296Z</time>
      </trkpt>
      <trkpt lat="48.28366" lon="-3.80681">
        <ele>163.526978</ele>
        <time>2022-06-09T19:05:08.315Z</time>
      </trkpt>
      <trkpt lat="48.28366" lon="-3.80681">
        <ele>163.526978</ele>
        <time>2022-06-09T19:05:08.544Z</time>
      </trkpt>
      <trkpt lat="48.28332" lon="-3.80649">
        <ele>164.40886</ele>
        <time>2022-06-09T19:05:20.164Z</time>
      </trkpt>
      <trkpt lat="48.28269" lon="-3.80609">
        <ele>165.727006</ele>
        <time>2022-06-09T19:05:38.029Z</time>
      </trkpt>
      <trkpt lat="48.28224" lon="-3.80594">
        <ele>166.490231</ele>
        <time>2022-06-09T19:05:50.421Z</time>
      </trkpt>
      <trkpt lat="48.28091" lon="-3.80581">
        <ele>168.56187</ele>
        <time>2022-06-09T19:06:27.951Z</time>
      </trkpt>
      <trkpt lat="48.27928" lon="-3.80507">
        <ele>170.332572</ele>
        <time>2022-06-09T19:07:10.876Z</time>
      </trkpt>
      <trkpt lat="48.27862" lon="-3.80481">
        <ele>170.133587</ele>
        <time>2022-06-09T19:07:23.783Z</time>
      </trkpt>
      <trkpt lat="48.27843" lon="-3.80479">
        <ele>170.076324</ele>
        <time>2022-06-09T19:07:27.218Z</time>
      </trkpt>
      <trkpt lat="48.27836" lon="-3.80479">
        <ele>170.056215</ele>
        <time>2022-06-09T19:07:28.426Z</time>
      </trkpt>
      <trkpt lat="48.27642" lon="-3.80347">
        <ele>168.653067</ele>
        <time>2022-06-09T19:08:06.065Z</time>
      </trkpt>
      <trkpt lat="48.27467" lon="-3.80144">
        <ele>168.769259</ele>
        <time>2022-06-09T19:08:53.489Z</time>
      </trkpt>
      <trkpt lat="48.2739" lon="-3.80041">
        <ele>169.071542</ele>
        <time>2022-06-09T19:09:17.167Z</time>
      </trkpt>
      <trkpt lat="48.27368" lon="-3.80001">
        <ele>169.172471</ele>
        <time>2022-06-09T19:09:24.704Z</time>
      </trkpt>
      <trkpt lat="48.27325" lon="-3.79902">
        <ele>168.767823</ele>
        <time>2022-06-09T19:09:40.143Z</time>
      </trkpt>
      <trkpt lat="48.27293" lon="-3.79855">
        <ele>168.292049</ele>
        <time>2022-06-09T19:09:48.161Z</time>
      </trkpt>
      <trkpt lat="48.27262" lon="-3.79792">
        <ele>167.746328</ele>
        <time>2022-06-09T19:09:56.931Z</time>
      </trkpt>
      <trkpt lat="48.27207" lon="-3.7969">
        <ele>166.617097</ele>
        <time>2022-06-09T19:10:11.758Z</time>
      </trkpt>
      <trkpt lat="48.27199" lon="-3.7966">
        <ele>166.312212</ele>
        <time>2022-06-09T19:10:15.264Z</time>
      </trkpt>
      <trkpt lat="48.27155" lon="-3.79586">
        <ele>165.358444</ele>
        <time>2022-06-09T19:10:26.331Z</time>
      </trkpt>
      <trkpt lat="48.2708" lon="-3.79475">
        <ele>164.809387</ele>
        <time>2022-06-09T19:10:45.726Z</time>
      </trkpt>
      <trkpt lat="48.27041" lon="-3.79408">
        <ele>164.850266</ele>
        <time>2022-06-09T19:10:58.564Z</time>
      </trkpt>
      <trkpt lat="48.27047" lon="-3.79356">
        <ele>164.874872</ele>
        <time>2022-06-09T19:11:06.923Z</time>
      </trkpt>
      <trkpt lat="48.27066" lon="-3.78923">
        <ele>166.923315</ele>
        <time>2022-06-09T19:12:54.457Z</time>
      </trkpt>
      <trkpt lat="48.27091" lon="-3.78586">
        <ele>165.222654</ele>
        <time>2022-06-09T19:14:01.486Z</time>
      </trkpt>
      <trkpt lat="48.27088" lon="-3.78234">
        <ele>159.557201</ele>
        <time>2022-06-09T19:15:03.479Z</time>
      </trkpt>
      <trkpt lat="48.2708" lon="-3.78046">
        <ele>155.018829</ele>
        <time>2022-06-09T19:15:35.572Z</time>
      </trkpt>
      <trkpt lat="48.27032" lon="-3.7808">
        <ele>153.067684</ele>
        <time>2022-06-09T19:15:42.843Z</time>
      </trkpt>
      <trkpt lat="48.27033" lon="-3.78028">
        <ele>151.573433</ele>
        <time>2022-06-09T19:15:47.885Z</time>
      </trkpt>
      <trkpt lat="48.27034" lon="-3.78021">
        <ele>151.368607</ele>
        <time>2022-06-09T19:15:48.502Z</time>
      </trkpt>
      <trkpt lat="48.2705" lon="-3.77971">
        <ele>149.774048</ele>
        <time>2022-06-09T19:15:53.821Z</time>
      </trkpt>
      <trkpt lat="48.27056" lon="-3.77904">
        <ele>147.824745</ele>
        <time>2022-06-09T19:16:00.305Z</time>
      </trkpt>
      <trkpt lat="48.27016" lon="-3.77629">
        <ele>141.04</ele>
        <time>2022-06-09T19:16:47.071Z</time>
      </trkpt>
      <trkpt lat="48.26995" lon="-3.77592">
        <ele>139.937872</ele>
        <time>2022-06-09T19:16:55.832Z</time>
      </trkpt>
      <trkpt lat="48.26923" lon="-3.77493">
        <ele>139.587424</ele>
        <time>2022-06-09T19:17:24.127Z</time>
      </trkpt>
      <trkpt lat="48.26855" lon="-3.77424">
        <ele>139.63808</ele>
        <time>2022-06-09T19:17:53.979Z</time>
      </trkpt>
      <trkpt lat="48.26868" lon="-3.77318">
        <ele>142.396438</ele>
        <time>2022-06-09T19:18:25.128Z</time>
      </trkpt>
      <trkpt lat="48.2687" lon="-3.77164">
        <ele>147.18116</ele>
        <time>2022-06-09T19:19:29.064Z</time>
      </trkpt>
      <trkpt lat="48.2688" lon="-3.76947">
        <ele>154.106379</ele>
        <time>2022-06-09T19:20:57.866Z</time>
      </trkpt>
      <trkpt lat="48.26914" lon="-3.76703">
        <ele>158.529093</ele>
        <time>2022-06-09T19:22:10.256Z</time>
      </trkpt>
      <trkpt lat="48.26914" lon="-3.76703">
        <ele>158.529093</ele>
        <time>2022-06-09T19:22:10.293Z</time>
      </trkpt>
      <trkpt lat="48.26898" lon="-3.76707">
        <ele>158.791638</ele>
        <time>2022-06-09T19:22:15.454Z</time>
      </trkpt>
      <trkpt lat="48.26625" lon="-3.76682">
        <ele>161.062454</ele>
        <time>2022-06-09T19:23:51.275Z</time>
      </trkpt>
      <trkpt lat="48.26495" lon="-3.76633">
        <ele>161.745761</ele>
        <time>2022-06-09T19:24:40.850Z</time>
      </trkpt>
      <trkpt lat="48.2637" lon="-3.7657">
        <ele>157.893709</ele>
        <time>2022-06-09T19:25:16.852Z</time>
      </trkpt>
      <trkpt lat="48.26175" lon="-3.76483">
        <ele>147.329686</ele>
        <time>2022-06-09T19:25:43.027Z</time>
      </trkpt>
      <trkpt lat="48.26058" lon="-3.76422">
        <ele>141.059331</ele>
        <time>2022-06-09T19:25:59.332Z</time>
      </trkpt>
      <trkpt lat="48.25948" lon="-3.76332">
        <ele>135.763959</ele>
        <time>2022-06-09T19:26:16.585Z</time>
      </trkpt>
      <trkpt lat="48.25895" lon="-3.76271">
        <ele>133.711432</ele>
        <time>2022-06-09T19:26:26.103Z</time>
      </trkpt>
      <trkpt lat="48.2587" lon="-3.76254">
        <ele>132.870253</ele>
        <time>2022-06-09T19:26:30.107Z</time>
      </trkpt>
      <trkpt lat="48.25859" lon="-3.76248">
        <ele>132.526435</ele>
        <time>2022-06-09T19:26:31.855Z</time>
      </trkpt>
      <trkpt lat="48.25831" lon="-3.76233">
        <ele>131.602128</ele>
        <time>2022-06-09T19:26:36.512Z</time>
      </trkpt>
      <trkpt lat="48.25791" lon="-3.76206">
        <ele>131.147641</ele>
        <time>2022-06-09T19:26:43.732Z</time>
      </trkpt>
      <trkpt lat="48.25676" lon="-3.76073">
        <ele>129.872254</ele>
        <time>2022-06-09T19:27:09.433Z</time>
      </trkpt>
      <trkpt lat="48.25605" lon="-3.76026">
        <ele>129.308331</ele>
        <time>2022-06-09T19:27:23.104Z</time>
      </trkpt>
      <trkpt lat="48.25613" lon="-3.75993">
        <ele>129.139267</ele>
        <time>2022-06-09T19:27:29.982Z</time>
      </trkpt>
      <trkpt lat="48.25645" lon="-3.75916">
        <ele>128.700967</ele>
        <time>2022-06-09T19:27:48.155Z</time>
      </trkpt>
      <trkpt lat="48.25647" lon="-3.75903">
        <ele>128.634386</ele>
        <time>2022-06-09T19:27:50.759Z</time>
      </trkpt>
      <trkpt lat="48.25647" lon="-3.75668">
        <ele>127.047062</ele>
        <time>2022-06-09T19:28:36.538Z</time>
      </trkpt>
      <trkpt lat="48.25642" lon="-3.75646">
        <ele>126.889024</ele>
        <time>2022-06-09T19:28:41.095Z</time>
      </trkpt>
      <trkpt lat="48.25618" lon="-3.75606">
        <ele>126.418535</ele>
        <time>2022-06-09T19:28:51.237Z</time>
      </trkpt>
      <trkpt lat="48.25627" lon="-3.75571">
        <ele>126.055451</ele>
        <time>2022-06-09T19:28:55.149Z</time>
      </trkpt>
      <trkpt lat="48.25627" lon="-3.75548">
        <ele>125.825618</ele>
        <time>2022-06-09T19:28:57.700Z</time>
      </trkpt>
      <trkpt lat="48.25623" lon="-3.75518">
        <ele>125.525027</ele>
        <time>2022-06-09T19:29:00.898Z</time>
      </trkpt>
      <trkpt lat="48.25597" lon="-3.75453">
        <ele>124.77927</ele>
        <time>2022-06-09T19:29:08.939Z</time>
      </trkpt>
      <trkpt lat="48.2559" lon="-3.75417">
        <ele>124.405248</ele>
        <time>2022-06-09T19:29:12.894Z</time>
      </trkpt>
      <trkpt lat="48.2557" lon="-3.75388">
        <ele>124.042532</ele>
        <time>2022-06-09T19:29:17.278Z</time>
      </trkpt>
      <trkpt lat="48.25567" lon="-3.75175">
        <ele>122.840439</ele>
        <time>2022-06-09T19:29:58.866Z</time>
      </trkpt>
      <trkpt lat="48.25587" lon="-3.75098">
        <ele>122.508655</ele>
        <time>2022-06-09T19:30:16.589Z</time>
      </trkpt>
      <trkpt lat="48.25599" lon="-3.75071">
        <ele>122.444844</ele>
        <time>2022-06-09T19:30:23.413Z</time>
      </trkpt>
      <trkpt lat="48.25618" lon="-3.74962">
        <ele>122.219744</ele>
        <time>2022-06-09T19:30:46.720Z</time>
      </trkpt>
      <trkpt lat="48.25621" lon="-3.74875">
        <ele>122.04575</ele>
        <time>2022-06-09T19:31:04.454Z</time>
      </trkpt>
      <trkpt lat="48.25634" lon="-3.74845">
        <ele>122.009955</ele>
        <time>2022-06-09T19:31:08.533Z</time>
      </trkpt>
      <trkpt lat="48.25634" lon="-3.74805">
        <ele>121.970093</ele>
        <time>2022-06-09T19:31:13.155Z</time>
      </trkpt>
      <trkpt lat="48.25625" lon="-3.74707">
        <ele>121.871318</ele>
        <time>2022-06-09T19:31:25.290Z</time>
      </trkpt>
      <trkpt lat="48.25665" lon="-3.74576">
        <ele>122.131774</ele>
        <time>2022-06-09T19:31:44.678Z</time>
      </trkpt>
      <trkpt lat="48.25671" lon="-3.74539">
        <ele>122.409733</ele>
        <time>2022-06-09T19:31:51.259Z</time>
      </trkpt>
      <trkpt lat="48.2568" lon="-3.74408">
        <ele>123.386847</ele>
        <time>2022-06-09T19:32:15.778Z</time>
      </trkpt>
      <trkpt lat="48.25675" lon="-3.74341">
        <ele>123.707037</ele>
        <time>2022-06-09T19:32:27.004Z</time>
      </trkpt>
      <trkpt lat="48.2565" lon="-3.74277">
        <ele>123.375813</ele>
        <time>2022-06-09T19:32:36.631Z</time>
      </trkpt>
      <trkpt lat="48.256" lon="-3.74217">
        <ele>122.945597</ele>
        <time>2022-06-09T19:32:47.631Z</time>
      </trkpt>
      <trkpt lat="48.25597" lon="-3.74207">
        <ele>122.899355</ele>
        <time>2022-06-09T19:32:48.706Z</time>
      </trkpt>
      <trkpt lat="48.25536" lon="-3.74179">
        <ele>122.481515</ele>
        <time>2022-06-09T19:33:06.546Z</time>
      </trkpt>
      <trkpt lat="48.25455" lon="-3.74105">
        <ele>121.934152</ele>
        <time>2022-06-09T19:33:32.781Z</time>
      </trkpt>
      <trkpt lat="48.25433" lon="-3.74091">
        <ele>121.793113</ele>
        <time>2022-06-09T19:33:40.219Z</time>
      </trkpt>
      <trkpt lat="48.25381" lon="-3.74005">
        <ele>122.387814</ele>
        <time>2022-06-09T19:34:10.096Z</time>
      </trkpt>
      <trkpt lat="48.25365" lon="-3.73998">
        <ele>122.872806</ele>
        <time>2022-06-09T19:34:17.527Z</time>
      </trkpt>
      <trkpt lat="48.25345" lon="-3.73976">
        <ele>123.57186</ele>
        <time>2022-06-09T19:34:29.815Z</time>
      </trkpt>
      <trkpt lat="48.25299" lon="-3.73954">
        <ele>124.936733</ele>
        <time>2022-06-09T19:34:53.042Z</time>
      </trkpt>
      <trkpt lat="48.25235" lon="-3.73886">
        <ele>126.956305</ele>
        <time>2022-06-09T19:35:32.641Z</time>
      </trkpt>
      <trkpt lat="48.252" lon="-3.73894">
        <ele>127.568449</ele>
        <time>2022-06-09T19:35:44.507Z</time>
      </trkpt>
      <trkpt lat="48.25146" lon="-3.73905">
        <ele>128.531936</ele>
        <time>2022-06-09T19:36:06.978Z</time>
      </trkpt>
      <trkpt lat="48.25096" lon="-3.73942">
        <ele>129.525389</ele>
        <time>2022-06-09T19:36:27.750Z</time>
      </trkpt>
      <trkpt lat="48.25007" lon="-3.73896">
        <ele>129.436481</ele>
        <time>2022-06-09T19:36:56.692Z</time>
      </trkpt>
      <trkpt lat="48.24866" lon="-3.73859">
        <ele>128.558844</ele>
        <time>2022-06-09T19:37:39.533Z</time>
      </trkpt>
      <trkpt lat="48.24734" lon="-3.73847">
        <ele>127.253072</ele>
        <time>2022-06-09T19:38:18.172Z</time>
      </trkpt>
      <trkpt lat="48.24597" lon="-3.73766">
        <ele>125.384774</ele>
        <time>2022-06-09T19:38:59.353Z</time>
      </trkpt>
      <trkpt lat="48.24508" lon="-3.73752">
        <ele>125.392034</ele>
        <time>2022-06-09T19:39:25.898Z</time>
      </trkpt>
      <trkpt lat="48.2442" lon="-3.73759">
        <ele>126.255917</ele>
        <time>2022-06-09T19:39:58.769Z</time>
      </trkpt>
      <trkpt lat="48.24284" lon="-3.73763">
        <ele>129.382519</ele>
        <time>2022-06-09T19:41:02.436Z</time>
      </trkpt>
      <trkpt lat="48.24236" lon="-3.73746">
        <ele>130.824432</ele>
        <time>2022-06-09T19:41:27.382Z</time>
      </trkpt>
      <trkpt lat="48.24161" lon="-3.73749">
        <ele>132.088639</ele>
        <time>2022-06-09T19:41:59.978Z</time>
      </trkpt>
      <trkpt lat="48.24095" lon="-3.73737">
        <ele>132.535709</ele>
        <time>2022-06-09T19:42:23.979Z</time>
      </trkpt>
      <trkpt lat="48.24013" lon="-3.7369">
        <ele>132.921845</ele>
        <time>2022-06-09T19:42:50.542Z</time>
      </trkpt>
      <trkpt lat="48.23912" lon="-3.73671">
        <ele>132.192321</ele>
        <time>2022-06-09T19:43:19.761Z</time>
      </trkpt>
      <trkpt lat="48.23858" lon="-3.73568">
        <ele>131.837149</ele>
        <time>2022-06-09T19:43:46.851Z</time>
      </trkpt>
      <trkpt lat="48.23836" lon="-3.73558">
        <ele>131.939912</ele>
        <time>2022-06-09T19:43:54.293Z</time>
      </trkpt>
      <trkpt lat="48.23817" lon="-3.73559">
        <ele>132.022356</ele>
        <time>2022-06-09T19:44:00.853Z</time>
      </trkpt>
      <trkpt lat="48.2376" lon="-3.73567">
        <ele>132.276181</ele>
        <time>2022-06-09T19:44:20.777Z</time>
      </trkpt>
      <trkpt lat="48.23755" lon="-3.73572">
        <ele>132.3061</ele>
        <time>2022-06-09T19:44:23.252Z</time>
      </trkpt>
      <trkpt lat="48.2375" lon="-3.73583">
        <ele>132.344113</ele>
        <time>2022-06-09T19:44:26.392Z</time>
      </trkpt>
      <trkpt lat="48.2374" lon="-3.73688">
        <ele>132.678751</ele>
        <time>2022-06-09T19:44:51.550Z</time>
      </trkpt>
      <trkpt lat="48.2373" lon="-3.73751">
        <ele>132.904609</ele>
        <time>2022-06-09T19:45:00.607Z</time>
      </trkpt>
      <trkpt lat="48.23698" lon="-3.73858">
        <ele>133.308407</ele>
        <time>2022-06-09T19:45:17.423Z</time>
      </trkpt>
      <trkpt lat="48.23604" lon="-3.73842">
        <ele>133.612201</ele>
        <time>2022-06-09T19:45:37.894Z</time>
      </trkpt>
      <trkpt lat="48.23577" lon="-3.73834">
        <ele>133.673423</ele>
        <time>2022-06-09T19:45:43.916Z</time>
      </trkpt>
      <trkpt lat="48.23473" lon="-3.73775">
        <ele>133.68619</ele>
        <time>2022-06-09T19:46:05.694Z</time>
      </trkpt>
      <trkpt lat="48.23393" lon="-3.73756">
        <ele>133.012152</ele>
        <time>2022-06-09T19:46:19.220Z</time>
      </trkpt>
      <trkpt lat="48.23393" lon="-3.73756">
        <ele>133.011149</ele>
        <time>2022-06-09T19:46:19.233Z</time>
      </trkpt>
      <trkpt lat="48.23325" lon="-3.73721">
        <ele>132.413157</ele>
        <time>2022-06-09T19:46:31.239Z</time>
      </trkpt>
      <trkpt lat="48.233" lon="-3.7372">
        <ele>132.27419</ele>
        <time>2022-06-09T19:46:35.359Z</time>
      </trkpt>
      <trkpt lat="48.23336" lon="-3.73477">
        <ele>131.432197</ele>
        <time>2022-06-09T19:47:05.544Z</time>
      </trkpt>
      <trkpt lat="48.23338" lon="-3.73383">
        <ele>130.75328</ele>
        <time>2022-06-09T19:47:17.906Z</time>
      </trkpt>
      <trkpt lat="48.23339" lon="-3.73008">
        <ele>125.916477</ele>
        <time>2022-06-09T19:47:57.339Z</time>
      </trkpt>
      <trkpt lat="48.23316" lon="-3.73002">
        <ele>125.321004</ele>
        <time>2022-06-09T19:48:00.465Z</time>
      </trkpt>
      <trkpt lat="48.23118" lon="-3.7295">
        <ele>115.87562</ele>
        <time>2022-06-09T19:48:27.112Z</time>
      </trkpt>
      <trkpt lat="48.23099" lon="-3.72945">
        <ele>115.28294</ele>
        <time>2022-06-09T19:48:29.693Z</time>
      </trkpt>
      <trkpt lat="48.23053" lon="-3.72932">
        <ele>113.79246</ele>
        <time>2022-06-09T19:48:36.295Z</time>
      </trkpt>
      <trkpt lat="48.22974" lon="-3.72919">
        <ele>111.263525</ele>
        <time>2022-06-09T19:48:48.145Z</time>
      </trkpt>
      <trkpt lat="48.22952" lon="-3.72915">
        <ele>110.561822</ele>
        <time>2022-06-09T19:48:51.585Z</time>
      </trkpt>
      <trkpt lat="48.22874" lon="-3.72899">
        <ele>108.915671</ele>
        <time>2022-06-09T19:49:03.559Z</time>
      </trkpt>
      <trkpt lat="48.22834" lon="-3.72887">
        <ele>108.103337</ele>
        <time>2022-06-09T19:49:09.710Z</time>
      </trkpt>
      <trkpt lat="48.22795" lon="-3.72883">
        <ele>107.323376</ele>
        <time>2022-06-09T19:49:15.826Z</time>
      </trkpt>
      <trkpt lat="48.22793" lon="-3.72883">
        <ele>107.277602</ele>
        <time>2022-06-09T19:49:16.174Z</time>
      </trkpt>
      <trkpt lat="48.22749" lon="-3.72883">
        <ele>106.699825</ele>
        <time>2022-06-09T19:49:23.086Z</time>
      </trkpt>
      <trkpt lat="48.22749" lon="-3.72883">
        <ele>106.699371</ele>
        <time>2022-06-09T19:49:23.150Z</time>
      </trkpt>
      <trkpt lat="48.22736" lon="-3.72888">
        <ele>106.683934</ele>
        <time>2022-06-09T19:49:25.601Z</time>
      </trkpt>
      <trkpt lat="48.22713" lon="-3.72908">
        <ele>106.655135</ele>
        <time>2022-06-09T19:49:29.800Z</time>
      </trkpt>
      <trkpt lat="48.22675" lon="-3.72901">
        <ele>106.612301</ele>
        <time>2022-06-09T19:49:36.911Z</time>
      </trkpt>
      <trkpt lat="48.22667" lon="-3.72897">
        <ele>106.602569</ele>
        <time>2022-06-09T19:49:38.949Z</time>
      </trkpt>
      <trkpt lat="48.2263" lon="-3.72799">
        <ele>106.518248</ele>
        <time>2022-06-09T19:49:55.529Z</time>
      </trkpt>
      <trkpt lat="48.22607" lon="-3.72729">
        <ele>106.93682</ele>
        <time>2022-06-09T19:50:09.387Z</time>
      </trkpt>
      <trkpt lat="48.22574" lon="-3.72509">
        <ele>107.788517</ele>
        <time>2022-06-09T19:50:44.680Z</time>
      </trkpt>
      <trkpt lat="48.22555" lon="-3.72426">
        <ele>107.074496</ele>
        <time>2022-06-09T19:50:55.089Z</time>
      </trkpt>
      <trkpt lat="48.22522" lon="-3.7237">
        <ele>106.465234</ele>
        <time>2022-06-09T19:51:03.150Z</time>
      </trkpt>
      <trkpt lat="48.2244" lon="-3.72301">
        <ele>103.934089</ele>
        <time>2022-06-09T19:51:17.995Z</time>
      </trkpt>
      <trkpt lat="48.22402" lon="-3.72277">
        <ele>102.10905</ele>
        <time>2022-06-09T19:51:23.968Z</time>
      </trkpt>
      <trkpt lat="48.22334" lon="-3.72227">
        <ele>98.721944</ele>
        <time>2022-06-09T19:51:34.641Z</time>
      </trkpt>
      <trkpt lat="48.22294" lon="-3.72175">
        <ele>96.340944</ele>
        <time>2022-06-09T19:51:41.942Z</time>
      </trkpt>
      <trkpt lat="48.22224" lon="-3.72048">
        <ele>91.373508</ele>
        <time>2022-06-09T19:51:57.463Z</time>
      </trkpt>
      <trkpt lat="48.22113" lon="-3.71839">
        <ele>87.051642</ele>
        <time>2022-06-09T19:52:26.376Z</time>
      </trkpt>
      <trkpt lat="48.2206" lon="-3.71742">
        <ele>85.805232</ele>
        <time>2022-06-09T19:52:42.641Z</time>
      </trkpt>
      <trkpt lat="48.2199" lon="-3.71604">
        <ele>84.4577</ele>
        <time>2022-06-09T19:53:03.885Z</time>
      </trkpt>
      <trkpt lat="48.2189" lon="-3.71327">
        <ele>77.202627</ele>
        <time>2022-06-09T19:53:35.584Z</time>
      </trkpt>
      <trkpt lat="48.21877" lon="-3.71198">
        <ele>72.135597</ele>
        <time>2022-06-09T19:53:47.399Z</time>
      </trkpt>
      <trkpt lat="48.21874" lon="-3.71104">
        <ele>68.490956</ele>
        <time>2022-06-09T19:53:55.989Z</time>
      </trkpt>
      <trkpt lat="48.21874" lon="-3.71104">
        <ele>68.490956</ele>
        <time>2022-06-09T19:53:56.001Z</time>
      </trkpt>
      <trkpt lat="48.21853" lon="-3.71087">
        <ele>67.180599</ele>
        <time>2022-06-09T19:53:59.311Z</time>
      </trkpt>
      <trkpt lat="48.21827" lon="-3.71076">
        <ele>66.168666</ele>
        <time>2022-06-09T19:54:03.008Z</time>
      </trkpt>
      <trkpt lat="48.21827" lon="-3.71062">
        <ele>65.800481</ele>
        <time>2022-06-09T19:54:04.380Z</time>
      </trkpt>
      <trkpt lat="48.21871" lon="-3.7099">
        <ele>63.332067</ele>
        <time>2022-06-09T19:54:13.800Z</time>
      </trkpt>
      <trkpt lat="48.21871" lon="-3.7099">
        <ele>63.324092</ele>
        <time>2022-06-09T19:54:13.832Z</time>
      </trkpt>
      <trkpt lat="48.21907" lon="-3.70905">
        <ele>60.789878</ele>
        <time>2022-06-09T19:54:24.512Z</time>
      </trkpt>
      <trkpt lat="48.21917" lon="-3.70882">
        <ele>60.468069</ele>
        <time>2022-06-09T19:54:27.677Z</time>
      </trkpt>
      <trkpt lat="48.21924" lon="-3.70836">
        <ele>60.338373</ele>
        <time>2022-06-09T19:54:33.510Z</time>
      </trkpt>
      <trkpt lat="48.2193" lon="-3.70821">
        <ele>60.289754</ele>
        <time>2022-06-09T19:54:35.717Z</time>
      </trkpt>
      <trkpt lat="48.21953" lon="-3.70755">
        <ele>60.087492</ele>
        <time>2022-06-09T19:54:45.065Z</time>
      </trkpt>
      <trkpt lat="48.21951" lon="-3.70676">
        <ele>59.873663</ele>
        <time>2022-06-09T19:54:56.116Z</time>
      </trkpt>
      <trkpt lat="48.2196" lon="-3.70666">
        <ele>59.828274</ele>
        <time>2022-06-09T19:54:58.630Z</time>
      </trkpt>
      <trkpt lat="48.21942" lon="-3.70613">
        <ele>59.99166</ele>
        <time>2022-06-09T19:55:07.575Z</time>
      </trkpt>
      <trkpt lat="48.2192" lon="-3.70566">
        <ele>60.289289</ele>
        <time>2022-06-09T19:55:16.033Z</time>
      </trkpt>
      <trkpt lat="48.21942" lon="-3.7053">
        <ele>60.54669</ele>
        <time>2022-06-09T19:55:23.366Z</time>
      </trkpt>
      <trkpt lat="48.21958" lon="-3.70491">
        <ele>60.785995</ele>
        <time>2022-06-09T19:55:30.658Z</time>
      </trkpt>
      <trkpt lat="48.21854" lon="-3.70407">
        <ele>63.251121</ele>
        <time>2022-06-09T19:56:14.696Z</time>
      </trkpt>
      <trkpt lat="48.21842" lon="-3.70403">
        <ele>63.649404</ele>
        <time>2022-06-09T19:56:20.542Z</time>
      </trkpt>
      <trkpt lat="48.21796" lon="-3.70421">
        <ele>65.083964</ele>
        <time>2022-06-09T19:56:43.027Z</time>
      </trkpt>
      <trkpt lat="48.21836" lon="-3.70417">
        <ele>66.300741</ele>
        <time>2022-06-09T19:57:06.342Z</time>
      </trkpt>
      <trkpt lat="48.21838" lon="-3.70407">
        <ele>66.521989</ele>
        <time>2022-06-09T19:57:10.656Z</time>
      </trkpt>
      <trkpt lat="48.21853" lon="-3.70339">
        <ele>68.507253</ele>
        <time>2022-06-09T19:57:39.149Z</time>
      </trkpt>
      <trkpt lat="48.21871" lon="-3.70265">
        <ele>70.767518</ele>
        <time>2022-06-09T19:58:01.995Z</time>
      </trkpt>
      <trkpt lat="48.21844" lon="-3.70255">
        <ele>71.961267</ele>
        <time>2022-06-09T19:58:13.614Z</time>
      </trkpt>
      <trkpt lat="48.21817" lon="-3.7026">
        <ele>73.158649</ele>
        <time>2022-06-09T19:58:23.762Z</time>
      </trkpt>
      <trkpt lat="48.21756" lon="-3.70316">
        <ele>75.33901</ele>
        <time>2022-06-09T19:58:49.152Z</time>
      </trkpt>
      <trkpt lat="48.21704" lon="-3.70379">
        <ele>76.760553</ele>
        <time>2022-06-09T19:59:05.836Z</time>
      </trkpt>
      <trkpt lat="48.21696" lon="-3.70385">
        <ele>76.935433</ele>
        <time>2022-06-09T19:59:07.353Z</time>
      </trkpt>
      <trkpt lat="48.21663" lon="-3.70386">
        <ele>77.623671</ele>
        <time>2022-06-09T19:59:15.767Z</time>
      </trkpt>
      <trkpt lat="48.21653" lon="-3.7038">
        <ele>77.862747</ele>
        <time>2022-06-09T19:59:18.788Z</time>
      </trkpt>
      <trkpt lat="48.21644" lon="-3.70361">
        <ele>78.18577</ele>
        <time>2022-06-09T19:59:23.931Z</time>
      </trkpt>
      <trkpt lat="48.21638" lon="-3.70268">
        <ele>81.453613</ele>
        <time>2022-06-09T19:59:48.086Z</time>
      </trkpt>
      <trkpt lat="48.21609" lon="-3.70111">
        <ele>87.355111</ele>
        <time>2022-06-09T20:00:44.563Z</time>
      </trkpt>
      <trkpt lat="48.21592" lon="-3.69999">
        <ele>92.25214</ele>
        <time>2022-06-09T20:01:29.753Z</time>
      </trkpt>
      <trkpt lat="48.21585" lon="-3.69972">
        <ele>93.552344</ele>
        <time>2022-06-09T20:01:41.372Z</time>
      </trkpt>
      <trkpt lat="48.21517" lon="-3.69912">
        <ele>98.735806</ele>
        <time>2022-06-09T20:02:22.111Z</time>
      </trkpt>
      <trkpt lat="48.21474" lon="-3.69862">
        <ele>101.172971</ele>
        <time>2022-06-09T20:02:47.142Z</time>
      </trkpt>
      <trkpt lat="48.21525" lon="-3.6979">
        <ele>103.536713</ele>
        <time>2022-06-09T20:03:14.287Z</time>
      </trkpt>
      <trkpt lat="48.21525" lon="-3.6979">
        <ele>103.540769</ele>
        <time>2022-06-09T20:03:14.409Z</time>
      </trkpt>
      <trkpt lat="48.21623" lon="-3.69626">
        <ele>106.774115</ele>
        <time>2022-06-09T20:03:57.223Z</time>
      </trkpt>
      <trkpt lat="48.21796" lon="-3.69249">
        <ele>108.735227</ele>
        <time>2022-06-09T20:05:05.198Z</time>
      </trkpt>
      <trkpt lat="48.21795" lon="-3.69233">
        <ele>108.810578</ele>
        <time>2022-06-09T20:05:07.995Z</time>
      </trkpt>
      <trkpt lat="48.21785" lon="-3.69217">
        <ele>108.906038</ele>
        <time>2022-06-09T20:05:10.856Z</time>
      </trkpt>
      <trkpt lat="48.21722" lon="-3.69146">
        <ele>109.442297</ele>
        <time>2022-06-09T20:05:28.165Z</time>
      </trkpt>
      <trkpt lat="48.2171" lon="-3.69115">
        <ele>109.601713</ele>
        <time>2022-06-09T20:05:33.875Z</time>
      </trkpt>
      <trkpt lat="48.21704" lon="-3.69052">
        <ele>110.03015</ele>
        <time>2022-06-09T20:05:45.225Z</time>
      </trkpt>
      <trkpt lat="48.21689" lon="-3.69013">
        <ele>110.739699</ele>
        <time>2022-06-09T20:05:53.936Z</time>
      </trkpt>
      <trkpt lat="48.21669" lon="-3.68994">
        <ele>111.301585</ele>
        <time>2022-06-09T20:06:01.150Z</time>
      </trkpt>
      <trkpt lat="48.216" lon="-3.68962">
        <ele>113.000475</ele>
        <time>2022-06-09T20:06:25.145Z</time>
      </trkpt>
      <trkpt lat="48.21568" lon="-3.68967">
        <ele>113.745542</ele>
        <time>2022-06-09T20:06:40.075Z</time>
      </trkpt>
      <trkpt lat="48.21466" lon="-3.68934">
        <ele>116.185315</ele>
        <time>2022-06-09T20:07:29.688Z</time>
      </trkpt>
      <trkpt lat="48.21269" lon="-3.68927">
        <ele>119.353459</ele>
        <time>2022-06-09T20:08:47.322Z</time>
      </trkpt>
      <trkpt lat="48.21203" lon="-3.68907">
        <ele>120.040203</ele>
        <time>2022-06-09T20:09:10.387Z</time>
      </trkpt>
      <trkpt lat="48.21021" lon="-3.68859">
        <ele>119.954221</ele>
        <time>2022-06-09T20:10:08.645Z</time>
      </trkpt>
      <trkpt lat="48.20965" lon="-3.68845">
        <ele>119.120127</ele>
        <time>2022-06-09T20:10:19.258Z</time>
      </trkpt>
      <trkpt lat="48.20947" lon="-3.68867">
        <ele>118.776005</ele>
        <time>2022-06-09T20:10:23.606Z</time>
      </trkpt>
      <trkpt lat="48.2091" lon="-3.6893">
        <ele>117.954526</ele>
        <time>2022-06-09T20:10:33.063Z</time>
      </trkpt>
      <trkpt lat="48.2091" lon="-3.6893">
        <ele>117.952079</ele>
        <time>2022-06-09T20:10:33.117Z</time>
      </trkpt>
      <trkpt lat="48.20865" lon="-3.68951">
        <ele>117.152961</ele>
        <time>2022-06-09T20:10:40.580Z</time>
      </trkpt>
      <trkpt lat="48.20864" lon="-3.68923">
        <ele>116.317208</ele>
        <time>2022-06-09T20:10:43.393Z</time>
      </trkpt>
      <trkpt lat="48.20849" lon="-3.68901">
        <ele>115.377608</ele>
        <time>2022-06-09T20:10:46.631Z</time>
      </trkpt>
      <trkpt lat="48.20801" lon="-3.68873">
        <ele>113.082998</ele>
        <time>2022-06-09T20:10:54.122Z</time>
      </trkpt>
      <trkpt lat="48.20688" lon="-3.68827">
        <ele>107.639557</ele>
        <time>2022-06-09T20:11:10.537Z</time>
      </trkpt>
      <trkpt lat="48.20596" lon="-3.68785">
        <ele>102.792463</ele>
        <time>2022-06-09T20:11:23.855Z</time>
      </trkpt>
      <trkpt lat="48.20445" lon="-3.68698">
        <ele>97.72457</ele>
        <time>2022-06-09T20:11:48.043Z</time>
      </trkpt>
      <trkpt lat="48.20422" lon="-3.68683">
        <ele>97.148671</ele>
        <time>2022-06-09T20:11:52.539Z</time>
      </trkpt>
      <trkpt lat="48.20382" lon="-3.68635">
        <ele>96.273016</ele>
        <time>2022-06-09T20:12:02.727Z</time>
      </trkpt>
      <trkpt lat="48.20338" lon="-3.6854">
        <ele>97.688027</ele>
        <time>2022-06-09T20:12:23.325Z</time>
      </trkpt>
      <trkpt lat="48.20283" lon="-3.68482">
        <ele>98.917301</ele>
        <time>2022-06-09T20:12:45.536Z</time>
      </trkpt>
      <trkpt lat="48.20261" lon="-3.68444">
        <ele>99.56424</ele>
        <time>2022-06-09T20:12:57.021Z</time>
      </trkpt>
      <trkpt lat="48.20216" lon="-3.68315">
        <ele>101.869425</ele>
        <time>2022-06-09T20:13:32.313Z</time>
      </trkpt>
      <trkpt lat="48.20168" lon="-3.68207">
        <ele>103.728754</ele>
        <time>2022-06-09T20:13:57.556Z</time>
      </trkpt>
      <trkpt lat="48.20156" lon="-3.68147">
        <ele>103.718949</ele>
        <time>2022-06-09T20:14:06.675Z</time>
      </trkpt>
      <trkpt lat="48.20149" lon="-3.68113">
        <ele>103.713392</ele>
        <time>2022-06-09T20:14:11.478Z</time>
      </trkpt>
      <trkpt lat="48.20087" lon="-3.68114">
        <ele>103.69896</ele>
        <time>2022-06-09T20:14:30.479Z</time>
      </trkpt>
      <trkpt lat="48.20048" lon="-3.68088">
        <ele>103.689051</ele>
        <time>2022-06-09T20:14:43.351Z</time>
      </trkpt>
      <trkpt lat="48.20014" lon="-3.67997">
        <ele>104.095328</ele>
        <time>2022-06-09T20:15:03.609Z</time>
      </trkpt>
      <trkpt lat="48.19989" lon="-3.67901">
        <ele>104.51135</ele>
        <time>2022-06-09T20:15:27.097Z</time>
      </trkpt>
      <trkpt lat="48.19963" lon="-3.67776">
        <ele>106.197385</ele>
        <time>2022-06-09T20:16:06.423Z</time>
      </trkpt>
      <trkpt lat="48.19947" lon="-3.67663">
        <ele>108.709066</ele>
        <time>2022-06-09T20:16:44.911Z</time>
      </trkpt>
      <trkpt lat="48.1995" lon="-3.67568">
        <ele>110.639287</ele>
        <time>2022-06-09T20:17:18.715Z</time>
      </trkpt>
      <trkpt lat="48.19966" lon="-3.6748">
        <ele>111.153213</ele>
        <time>2022-06-09T20:17:44.087Z</time>
      </trkpt>
      <trkpt lat="48.19985" lon="-3.67409">
        <ele>111.587285</ele>
        <time>2022-06-09T20:18:02.354Z</time>
      </trkpt>
      <trkpt lat="48.19964" lon="-3.6739">
        <ele>111.796521</ele>
        <time>2022-06-09T20:18:07.210Z</time>
      </trkpt>
      <trkpt lat="48.19949" lon="-3.67403">
        <ele>111.943109</ele>
        <time>2022-06-09T20:18:11.945Z</time>
      </trkpt>
      <trkpt lat="48.1992" lon="-3.67454">
        <ele>111.978123</ele>
        <time>2022-06-09T20:18:24.709Z</time>
      </trkpt>
      <trkpt lat="48.19888" lon="-3.67477">
        <ele>111.761842</ele>
        <time>2022-06-09T20:18:34.899Z</time>
      </trkpt>
      <trkpt lat="48.19783" lon="-3.67483">
        <ele>111.133022</ele>
        <time>2022-06-09T20:19:05.109Z</time>
      </trkpt>
      <trkpt lat="48.19742" lon="-3.67476">
        <ele>111.895597</ele>
        <time>2022-06-09T20:19:21.593Z</time>
      </trkpt>
      <trkpt lat="48.19603" lon="-3.6742">
        <ele>116.633758</ele>
        <time>2022-06-09T20:20:35.176Z</time>
      </trkpt>
      <trkpt lat="48.1958" lon="-3.67397">
        <ele>117.511291</ele>
        <time>2022-06-09T20:20:50.982Z</time>
      </trkpt>
      <trkpt lat="48.19548" lon="-3.67325">
        <ele>119.32311</ele>
        <time>2022-06-09T20:21:22.408Z</time>
      </trkpt>
      <trkpt lat="48.19501" lon="-3.67266">
        <ele>121.25304</ele>
        <time>2022-06-09T20:21:51.224Z</time>
      </trkpt>
      <trkpt lat="48.19438" lon="-3.67227">
        <ele>122.898237</ele>
        <time>2022-06-09T20:22:17.144Z</time>
      </trkpt>
      <trkpt lat="48.19392" lon="-3.67184">
        <ele>123.536913</ele>
        <time>2022-06-09T20:22:36.223Z</time>
      </trkpt>
      <trkpt lat="48.19299" lon="-3.67145">
        <ele>124.678288</ele>
        <time>2022-06-09T20:23:10.959Z</time>
      </trkpt>
      <trkpt lat="48.19119" lon="-3.6718">
        <ele>128.78756</ele>
        <time>2022-06-09T20:24:30.913Z</time>
      </trkpt>
      <trkpt lat="48.19075" lon="-3.67178">
        <ele>129.095093</ele>
        <time>2022-06-09T20:24:51.690Z</time>
      </trkpt>
      <trkpt lat="48.19031" lon="-3.67158">
        <ele>129.364086</ele>
        <time>2022-06-09T20:25:10.388Z</time>
      </trkpt>
      <trkpt lat="48.19054" lon="-3.6706">
        <ele>129.778623</ele>
        <time>2022-06-09T20:25:24.104Z</time>
      </trkpt>
      <trkpt lat="48.19063" lon="-3.67007">
        <ele>129.567968</ele>
        <time>2022-06-09T20:25:30.031Z</time>
      </trkpt>
      <trkpt lat="48.19069" lon="-3.66914">
        <ele>127.898804</ele>
        <time>2022-06-09T20:25:39.571Z</time>
      </trkpt>
      <trkpt lat="48.19067" lon="-3.66772">
        <ele>125.362159</ele>
        <time>2022-06-09T20:25:53.612Z</time>
      </trkpt>
      <trkpt lat="48.19067" lon="-3.66628">
        <ele>126.26051</ele>
        <time>2022-06-09T20:26:12.847Z</time>
      </trkpt>
      <trkpt lat="48.19073" lon="-3.66548">
        <ele>126.991062</ele>
        <time>2022-06-09T20:26:29.423Z</time>
      </trkpt>
      <trkpt lat="48.19064" lon="-3.6652">
        <ele>127.26887</ele>
        <time>2022-06-09T20:26:38.493Z</time>
      </trkpt>
      <trkpt lat="48.19064" lon="-3.66436">
        <ele>129.278223</ele>
        <time>2022-06-09T20:27:01.893Z</time>
      </trkpt>
      <trkpt lat="48.19058" lon="-3.66395">
        <ele>130.576352</ele>
        <time>2022-06-09T20:27:14.853Z</time>
      </trkpt>
      <trkpt lat="48.19022" lon="-3.6633">
        <ele>133.209259</ele>
        <time>2022-06-09T20:27:42.238Z</time>
      </trkpt>
      <trkpt lat="48.1897" lon="-3.66256">
        <ele>136.45313</ele>
        <time>2022-06-09T20:28:11.985Z</time>
      </trkpt>
      <trkpt lat="48.18943" lon="-3.66201">
        <ele>138.020078</ele>
        <time>2022-06-09T20:28:30.471Z</time>
      </trkpt>
      <trkpt lat="48.18899" lon="-3.66061">
        <ele>141.588209</ele>
        <time>2022-06-09T20:29:08.393Z</time>
      </trkpt>
      <trkpt lat="48.18888" lon="-3.66028">
        <ele>142.370789</ele>
        <time>2022-06-09T20:29:16.853Z</time>
      </trkpt>
      <trkpt lat="48.18871" lon="-3.65998">
        <ele>142.979427</ele>
        <time>2022-06-09T20:29:25.303Z</time>
      </trkpt>
      <trkpt lat="48.18832" lon="-3.65952">
        <ele>144.131039</ele>
        <time>2022-06-09T20:29:40.469Z</time>
      </trkpt>
      <trkpt lat="48.18795" lon="-3.65924">
        <ele>145.108202</ele>
        <time>2022-06-09T20:29:53.557Z</time>
      </trkpt>
      <trkpt lat="48.18681" lon="-3.65859">
        <ele>148.015293</ele>
        <time>2022-06-09T20:30:31.697Z</time>
      </trkpt>
      <trkpt lat="48.18681" lon="-3.65859">
        <ele>148.025639</ele>
        <time>2022-06-09T20:30:32.304Z</time>
      </trkpt>
      <trkpt lat="48.18606" lon="-3.658">
        <ele>150.096533</ele>
        <time>2022-06-09T20:30:59.110Z</time>
      </trkpt>
      <trkpt lat="48.18575" lon="-3.65771">
        <ele>151.012868</ele>
        <time>2022-06-09T20:31:11.328Z</time>
      </trkpt>
      <trkpt lat="48.18571" lon="-3.65767">
        <ele>151.138206</ele>
        <time>2022-06-09T20:31:12.802Z</time>
      </trkpt>
      <trkpt lat="48.18585" lon="-3.65684">
        <ele>152.731126</ele>
        <time>2022-06-09T20:31:32.089Z</time>
      </trkpt>
      <trkpt lat="48.18594" lon="-3.65601">
        <ele>154.291152</ele>
        <time>2022-06-09T20:31:51.114Z</time>
      </trkpt>
      <trkpt lat="48.18592" lon="-3.65582">
        <ele>154.652038</ele>
        <time>2022-06-09T20:31:55.215Z</time>
      </trkpt>
      <trkpt lat="48.18584" lon="-3.6556">
        <ele>155.099894</ele>
        <time>2022-06-09T20:32:01.172Z</time>
      </trkpt>
      <trkpt lat="48.18571" lon="-3.65544">
        <ele>155.569076</ele>
        <time>2022-06-09T20:32:06.433Z</time>
      </trkpt>
      <trkpt lat="48.18403" lon="-3.65384">
        <ele>162.082131</ele>
        <time>2022-06-09T20:33:19.802Z</time>
      </trkpt>
      <trkpt lat="48.18412" lon="-3.65292">
        <ele>164.478674</ele>
        <time>2022-06-09T20:33:43.285Z</time>
      </trkpt>
      <trkpt lat="48.18411" lon="-3.65265">
        <ele>165.167804</ele>
        <time>2022-06-09T20:33:50.319Z</time>
      </trkpt>
      <trkpt lat="48.18341" lon="-3.65126">
        <ele>169.67236</ele>
        <time>2022-06-09T20:34:37.912Z</time>
      </trkpt>
      <trkpt lat="48.18302" lon="-3.65062">
        <ele>172.035139</ele>
        <time>2022-06-09T20:35:02.277Z</time>
      </trkpt>
      <trkpt lat="48.18281" lon="-3.64987">
        <ele>174.247755</ele>
        <time>2022-06-09T20:35:24.565Z</time>
      </trkpt>
      <trkpt lat="48.18281" lon="-3.64987">
        <ele>174.261964</ele>
        <time>2022-06-09T20:35:25.076Z</time>
      </trkpt>
      <trkpt lat="48.18251" lon="-3.64908">
        <ele>176.251409</ele>
        <time>2022-06-09T20:35:48.743Z</time>
      </trkpt>
      <trkpt lat="48.1821" lon="-3.64856">
        <ele>177.086616</ele>
        <time>2022-06-09T20:36:05.599Z</time>
      </trkpt>
      <trkpt lat="48.18206" lon="-3.64844">
        <ele>177.230097</ele>
        <time>2022-06-09T20:36:09.148Z</time>
      </trkpt>
      <trkpt lat="48.18256" lon="-3.6462">
        <ele>178.562481</ele>
        <time>2022-06-09T20:36:43.483Z</time>
      </trkpt>
      <trkpt lat="48.1827" lon="-3.64581">
        <ele>178.453987</ele>
        <time>2022-06-09T20:36:48.675Z</time>
      </trkpt>
      <trkpt lat="48.18301" lon="-3.6452">
        <ele>178.265413</ele>
        <time>2022-06-09T20:36:57.980Z</time>
      </trkpt>
      <trkpt lat="48.18325" lon="-3.64482">
        <ele>178.137677</ele>
        <time>2022-06-09T20:37:04.540Z</time>
      </trkpt>
      <trkpt lat="48.18364" lon="-3.64454">
        <ele>178.256791</ele>
        <time>2022-06-09T20:37:13.163Z</time>
      </trkpt>
      <trkpt lat="48.18379" lon="-3.64434">
        <ele>178.328291</ele>
        <time>2022-06-09T20:37:17.069Z</time>
      </trkpt>
      <trkpt lat="48.18458" lon="-3.64268">
        <ele>179.141801</ele>
        <time>2022-06-09T20:37:48.330Z</time>
      </trkpt>
      <trkpt lat="48.18471" lon="-3.64248">
        <ele>179.620872</ele>
        <time>2022-06-09T20:37:53.262Z</time>
      </trkpt>
      <trkpt lat="48.18523" lon="-3.6419">
        <ele>181.281606</ele>
        <time>2022-06-09T20:38:12.984Z</time>
      </trkpt>
      <trkpt lat="48.18587" lon="-3.64131">
        <ele>183.207884</ele>
        <time>2022-06-09T20:38:39.963Z</time>
      </trkpt>
      <trkpt lat="48.18471" lon="-3.6394">
        <ele>191.908097</ele>
        <time>2022-06-09T20:39:59.010Z</time>
      </trkpt>
      <trkpt lat="48.18435" lon="-3.63911">
        <ele>194.144241</ele>
        <time>2022-06-09T20:40:18.607Z</time>
      </trkpt>
      <trkpt lat="48.18387" lon="-3.63823">
        <ele>198.388443</ele>
        <time>2022-06-09T20:40:54.088Z</time>
      </trkpt>
      <trkpt lat="48.18342" lon="-3.63781">
        <ele>201.401166</ele>
        <time>2022-06-09T20:41:18.423Z</time>
      </trkpt>
      <trkpt lat="48.1832" lon="-3.63777">
        <ele>202.640787</ele>
        <time>2022-06-09T20:41:27.812Z</time>
      </trkpt>
      <trkpt lat="48.18263" lon="-3.63788">
        <ele>207.188783</ele>
        <time>2022-06-09T20:41:58.507Z</time>
      </trkpt>
      <trkpt lat="48.18165" lon="-3.63789">
        <ele>215.053809</ele>
        <time>2022-06-09T20:42:58.803Z</time>
      </trkpt>
      <trkpt lat="48.18165" lon="-3.63789">
        <ele>215.069877</ele>
        <time>2022-06-09T20:42:59.447Z</time>
      </trkpt>
      <trkpt lat="48.18091" lon="-3.63755">
        <ele>222.239907</ele>
        <time>2022-06-09T20:43:49.494Z</time>
      </trkpt>
      <trkpt lat="48.18078" lon="-3.63744">
        <ele>223.695229</ele>
        <time>2022-06-09T20:43:58.392Z</time>
      </trkpt>
      <trkpt lat="48.18065" lon="-3.6374">
        <ele>225.016881</ele>
        <time>2022-06-09T20:44:07.498Z</time>
      </trkpt>
      <trkpt lat="48.18002" lon="-3.63747">
        <ele>231.388264</ele>
        <time>2022-06-09T20:44:55.494Z</time>
      </trkpt>
      <trkpt lat="48.17778" lon="-3.63795">
        <ele>253.260084</ele>
        <time>2022-06-09T20:47:28.342Z</time>
      </trkpt>
      <trkpt lat="48.17685" lon="-3.63903">
        <ele>263.269008</ele>
        <time>2022-06-09T20:48:44.252Z</time>
      </trkpt>
      <trkpt lat="48.17618" lon="-3.63945">
        <ele>269.040934</ele>
        <time>2022-06-09T20:49:23.668Z</time>
      </trkpt>
      <trkpt lat="48.17597" lon="-3.63945">
        <ele>270.46964</ele>
        <time>2022-06-09T20:49:35.057Z</time>
      </trkpt>
      <trkpt lat="48.1757" lon="-3.63932">
        <ele>272.340659</ele>
        <time>2022-06-09T20:49:49.924Z</time>
      </trkpt>
      <trkpt lat="48.17527" lon="-3.63891">
        <ele>275.788252</ele>
        <time>2022-06-09T20:50:17.657Z</time>
      </trkpt>
      <trkpt lat="48.1751" lon="-3.63859">
        <ele>277.616314</ele>
        <time>2022-06-09T20:50:31.629Z</time>
      </trkpt>
      <trkpt lat="48.17349" lon="-3.63536">
        <ele>293.260886</ele>
        <time>2022-06-09T20:52:44.473Z</time>
      </trkpt>
      <trkpt lat="48.17304" lon="-3.63475">
        <ele>296.026336</ele>
        <time>2022-06-09T20:53:09.852Z</time>
      </trkpt>
      <trkpt lat="48.17265" lon="-3.63436">
        <ele>298.194424</ele>
        <time>2022-06-09T20:53:28.163Z</time>
      </trkpt>
      <trkpt lat="48.17247" lon="-3.63402">
        <ele>299.17803</ele>
        <time>2022-06-09T20:53:37.707Z</time>
      </trkpt>
      <trkpt lat="48.17212" lon="-3.63292">
        <ele>300.545916</ele>
        <time>2022-06-09T20:54:02.361Z</time>
      </trkpt>
      <trkpt lat="48.17189" lon="-3.63176">
        <ele>301.897793</ele>
        <time>2022-06-09T20:54:22.081Z</time>
      </trkpt>
      <trkpt lat="48.17149" lon="-3.63098">
        <ele>301.582744</ele>
        <time>2022-06-09T20:54:34.596Z</time>
      </trkpt>
      <trkpt lat="48.17112" lon="-3.63128">
        <ele>301.297453</ele>
        <time>2022-06-09T20:54:42.544Z</time>
      </trkpt>
      <trkpt lat="48.17059" lon="-3.63164">
        <ele>300.90291</ele>
        <time>2022-06-09T20:54:52.582Z</time>
      </trkpt>
      <trkpt lat="48.16952" lon="-3.63221">
        <ele>298.177228</ele>
        <time>2022-06-09T20:55:11.559Z</time>
      </trkpt>
      <trkpt lat="48.16944" lon="-3.63206">
        <ele>297.815021</ele>
        <time>2022-06-09T20:55:14.928Z</time>
      </trkpt>
      <trkpt lat="48.16938" lon="-3.6316">
        <ele>296.969459</ele>
        <time>2022-06-09T20:55:23.014Z</time>
      </trkpt>
      <trkpt lat="48.16949" lon="-3.63065">
        <ele>294.523564</ele>
        <time>2022-06-09T20:55:39.044Z</time>
      </trkpt>
      <trkpt lat="48.16946" lon="-3.63043">
        <ele>293.700206</ele>
        <time>2022-06-09T20:55:42.436Z</time>
      </trkpt>
      <trkpt lat="48.16928" lon="-3.63031">
        <ele>292.583597</ele>
        <time>2022-06-09T20:55:47.244Z</time>
      </trkpt>
      <trkpt lat="48.16906" lon="-3.63026">
        <ele>291.293339</ele>
        <time>2022-06-09T20:55:52.585Z</time>
      </trkpt>
      <trkpt lat="48.16836" lon="-3.63035">
        <ele>287.312492</ele>
        <time>2022-06-09T20:56:09.109Z</time>
      </trkpt>
      <trkpt lat="48.16818" lon="-3.63028">
        <ele>286.251912</ele>
        <time>2022-06-09T20:56:13.407Z</time>
      </trkpt>
      <trkpt lat="48.16641" lon="-3.6295">
        <ele>271.908458</ele>
        <time>2022-06-09T20:56:54.453Z</time>
      </trkpt>
      <trkpt lat="48.16613" lon="-3.62944">
        <ele>268.90678</ele>
        <time>2022-06-09T20:57:00.800Z</time>
      </trkpt>
      <trkpt lat="48.16568" lon="-3.62951">
        <ele>263.911854</ele>
        <time>2022-06-09T20:57:10.437Z</time>
      </trkpt>
      <trkpt lat="48.16528" lon="-3.62942">
        <ele>259.284663</ele>
        <time>2022-06-09T20:57:19.192Z</time>
      </trkpt>
      <trkpt lat="48.16495" lon="-3.62921">
        <ele>255.368096</ele>
        <time>2022-06-09T20:57:26.494Z</time>
      </trkpt>
      <trkpt lat="48.16347" lon="-3.62639">
        <ele>222.766964</ele>
        <time>2022-06-09T20:58:15.287Z</time>
      </trkpt>
      <trkpt lat="48.16334" lon="-3.62589">
        <ele>218.071925</ele>
        <time>2022-06-09T20:58:22.610Z</time>
      </trkpt>
      <trkpt lat="48.16279" lon="-3.62563">
        <ele>210.489007</ele>
        <time>2022-06-09T20:58:34.512Z</time>
      </trkpt>
      <trkpt lat="48.16259" lon="-3.62546">
        <ele>207.538095</ele>
        <time>2022-06-09T20:58:39.224Z</time>
      </trkpt>
      <trkpt lat="48.16243" lon="-3.62525">
        <ele>204.769292</ele>
        <time>2022-06-09T20:58:43.730Z</time>
      </trkpt>
      <trkpt lat="48.16233" lon="-3.62492">
        <ele>201.724274</ele>
        <time>2022-06-09T20:58:48.846Z</time>
      </trkpt>
      <trkpt lat="48.16186" lon="-3.62465">
        <ele>196.850689</ele>
        <time>2022-06-09T20:58:55.202Z</time>
      </trkpt>
      <trkpt lat="48.1618" lon="-3.62451">
        <ele>195.801269</ele>
        <time>2022-06-09T20:58:56.553Z</time>
      </trkpt>
      <trkpt lat="48.16184" lon="-3.6236">
        <ele>189.901033</ele>
        <time>2022-06-09T20:59:04.338Z</time>
      </trkpt>
      <trkpt lat="48.16119" lon="-3.62394">
        <ele>184.185051</ele>
        <time>2022-06-09T20:59:12.669Z</time>
      </trkpt>
      <trkpt lat="48.16017" lon="-3.62398">
        <ele>180.37641</ele>
        <time>2022-06-09T20:59:26.281Z</time>
      </trkpt>
      <trkpt lat="48.15995" lon="-3.624">
        <ele>179.554377</ele>
        <time>2022-06-09T20:59:29.771Z</time>
      </trkpt>
      <trkpt lat="48.15981" lon="-3.62321">
        <ele>178.228579</ele>
        <time>2022-06-09T20:59:41.948Z</time>
      </trkpt>
      <trkpt lat="48.15963" lon="-3.62265">
        <ele>178.789464</ele>
        <time>2022-06-09T20:59:54.957Z</time>
      </trkpt>
      <trkpt lat="48.15955" lon="-3.6223">
        <ele>179.124234</ele>
        <time>2022-06-09T21:00:03.113Z</time>
      </trkpt>
      <trkpt lat="48.15955" lon="-3.62206">
        <ele>179.333833</ele>
        <time>2022-06-09T21:00:08.358Z</time>
      </trkpt>
      <trkpt lat="48.1589" lon="-3.62218">
        <ele>180.22251</ele>
        <time>2022-06-09T21:00:36.038Z</time>
      </trkpt>
      <trkpt lat="48.15862" lon="-3.62239">
        <ele>180.051395</ele>
        <time>2022-06-09T21:00:46.724Z</time>
      </trkpt>
      <trkpt lat="48.15839" lon="-3.62259">
        <ele>179.257333</ele>
        <time>2022-06-09T21:00:54.586Z</time>
      </trkpt>
      <trkpt lat="48.15805" lon="-3.62276">
        <ele>178.19407</ele>
        <time>2022-06-09T21:01:04.265Z</time>
      </trkpt>
      <trkpt lat="48.15702" lon="-3.62259">
        <ele>175.116885</ele>
        <time>2022-06-09T21:01:29.480Z</time>
      </trkpt>
      <trkpt lat="48.15625" lon="-3.62178">
        <ele>170.517098</ele>
        <time>2022-06-09T21:01:51.901Z</time>
      </trkpt>
      <trkpt lat="48.15477" lon="-3.62119">
        <ele>163.462294</ele>
        <time>2022-06-09T21:02:29.322Z</time>
      </trkpt>
      <trkpt lat="48.15391" lon="-3.62071">
        <ele>159.500471</ele>
        <time>2022-06-09T21:02:52.092Z</time>
      </trkpt>
      <trkpt lat="48.15284" lon="-3.61985">
        <ele>155.423032</ele>
        <time>2022-06-09T21:03:22.746Z</time>
      </trkpt>
      <trkpt lat="48.15263" lon="-3.61961">
        <ele>154.60618</ele>
        <time>2022-06-09T21:03:29.437Z</time>
      </trkpt>
      <trkpt lat="48.15223" lon="-3.61939">
        <ele>153.252763</ele>
        <time>2022-06-09T21:03:40.836Z</time>
      </trkpt>
      <trkpt lat="48.152" lon="-3.61912">
        <ele>152.82323</ele>
        <time>2022-06-09T21:03:48.969Z</time>
      </trkpt>
      <trkpt lat="48.15174" lon="-3.61865">
        <ele>152.641384</ele>
        <time>2022-06-09T21:04:00.253Z</time>
      </trkpt>
      <trkpt lat="48.1511" lon="-3.6177">
        <ele>152.22596</ele>
        <time>2022-06-09T21:04:28.820Z</time>
      </trkpt>
      <trkpt lat="48.15041" lon="-3.61768">
        <ele>152.626344</ele>
        <time>2022-06-09T21:04:54.215Z</time>
      </trkpt>
      <trkpt lat="48.15007" lon="-3.61719">
        <ele>153.278739</ele>
        <time>2022-06-09T21:05:13.148Z</time>
      </trkpt>
      <trkpt lat="48.14976" lon="-3.61711">
        <ele>153.723934</ele>
        <time>2022-06-09T21:05:26.466Z</time>
      </trkpt>
      <trkpt lat="48.14943" lon="-3.61712">
        <ele>154.180438</ele>
        <time>2022-06-09T21:05:39.895Z</time>
      </trkpt>
      <trkpt lat="48.14908" lon="-3.6168">
        <ele>154.482205</ele>
        <time>2022-06-09T21:05:55.742Z</time>
      </trkpt>
      <trkpt lat="48.14871" lon="-3.61627">
        <ele>153.906284</ele>
        <time>2022-06-09T21:06:13.335Z</time>
      </trkpt>
      <trkpt lat="48.14853" lon="-3.61612">
        <ele>153.678256</ele>
        <time>2022-06-09T21:06:19.714Z</time>
      </trkpt>
      <trkpt lat="48.14689" lon="-3.61567">
        <ele>149.487383</ele>
        <time>2022-06-09T21:07:03.707Z</time>
      </trkpt>
      <trkpt lat="48.14615" lon="-3.61554">
        <ele>146.129565</ele>
        <time>2022-06-09T21:07:21.307Z</time>
      </trkpt>
      <trkpt lat="48.14596" lon="-3.61534">
        <ele>145.057295</ele>
        <time>2022-06-09T21:07:26.937Z</time>
      </trkpt>
      <trkpt lat="48.14579" lon="-3.61521">
        <ele>144.186718</ele>
        <time>2022-06-09T21:07:29.497Z</time>
      </trkpt>
      <trkpt lat="48.14526" lon="-3.61499">
        <ele>141.516618</ele>
        <time>2022-06-09T21:07:37.117Z</time>
      </trkpt>
      <trkpt lat="48.14467" lon="-3.61758">
        <ele>133.702575</ele>
        <time>2022-06-09T21:08:03.531Z</time>
      </trkpt>
      <trkpt lat="48.14448" lon="-3.61733">
        <ele>132.912369</ele>
        <time>2022-06-09T21:08:07.294Z</time>
      </trkpt>
      <trkpt lat="48.14436" lon="-3.61718">
        <ele>132.419644</ele>
        <time>2022-06-09T21:08:09.794Z</time>
      </trkpt>
      <trkpt lat="48.14391" lon="-3.61668">
        <ele>130.681051</ele>
        <time>2022-06-09T21:08:18.255Z</time>
      </trkpt>
      <trkpt lat="48.14378" lon="-3.61657">
        <ele>130.208249</ele>
        <time>2022-06-09T21:08:20.572Z</time>
      </trkpt>
      <trkpt lat="48.1437" lon="-3.61651">
        <ele>130.019853</ele>
        <time>2022-06-09T21:08:21.938Z</time>
      </trkpt>
      <trkpt lat="48.14367" lon="-3.61648">
        <ele>129.97173</ele>
        <time>2022-06-09T21:08:22.505Z</time>
      </trkpt>
      <trkpt lat="48.14302" lon="-3.61599">
        <ele>129.025922</ele>
        <time>2022-06-09T21:08:33.900Z</time>
      </trkpt>
      <trkpt lat="48.1429" lon="-3.61589">
        <ele>128.843131</ele>
        <time>2022-06-09T21:08:36.185Z</time>
      </trkpt>
      <trkpt lat="48.14174" lon="-3.61502">
        <ele>128.424714</ele>
        <time>2022-06-09T21:08:58.620Z</time>
      </trkpt>
      <trkpt lat="48.14117" lon="-3.61457">
        <ele>129.406159</ele>
        <time>2022-06-09T21:09:13.856Z</time>
      </trkpt>
      <trkpt lat="48.1408" lon="-3.61431">
        <ele>130.01777</ele>
        <time>2022-06-09T21:09:26.586Z</time>
      </trkpt>
      <trkpt lat="48.1407" lon="-3.61337">
        <ele>132.563384</ele>
        <time>2022-06-09T21:09:51.887Z</time>
      </trkpt>
      <trkpt lat="48.14048" lon="-3.61264">
        <ele>135.895057</ele>
        <time>2022-06-09T21:10:18.736Z</time>
      </trkpt>
      <trkpt lat="48.14044" lon="-3.61243">
        <ele>136.814552</ele>
        <time>2022-06-09T21:10:26.896Z</time>
      </trkpt>
      <trkpt lat="48.14035" lon="-3.61205">
        <ele>138.498086</ele>
        <time>2022-06-09T21:10:42.159Z</time>
      </trkpt>
      <trkpt lat="48.13984" lon="-3.60995">
        <ele>147.320844</ele>
        <time>2022-06-09T21:12:07.502Z</time>
      </trkpt>
      <trkpt lat="48.13947" lon="-3.60878">
        <ele>151.942741</ele>
        <time>2022-06-09T21:12:43.303Z</time>
      </trkpt>
      <trkpt lat="48.13929" lon="-3.60868">
        <ele>151.498264</ele>
        <time>2022-06-09T21:12:49.021Z</time>
      </trkpt>
      <trkpt lat="48.13923" lon="-3.60865">
        <ele>151.370241</ele>
        <time>2022-06-09T21:12:50.482Z</time>
      </trkpt>
      <trkpt lat="48.13902" lon="-3.6085">
        <ele>150.834231</ele>
        <time>2022-06-09T21:12:55.768Z</time>
      </trkpt>
      <trkpt lat="48.13883" lon="-3.60833">
        <ele>150.312072</ele>
        <time>2022-06-09T21:12:59.720Z</time>
      </trkpt>
      <trkpt lat="48.13896" lon="-3.60803">
        <ele>149.764684</ele>
        <time>2022-06-09T21:13:03.287Z</time>
      </trkpt>
      <trkpt lat="48.13812" lon="-3.60729">
        <ele>146.762471</ele>
        <time>2022-06-09T21:13:16.994Z</time>
      </trkpt>
      <trkpt lat="48.13742" lon="-3.60649">
        <ele>140.885668</ele>
        <time>2022-06-09T21:13:28.576Z</time>
      </trkpt>
      <trkpt lat="48.13727" lon="-3.60636">
        <ele>139.731591</ele>
        <time>2022-06-09T21:13:30.856Z</time>
      </trkpt>
      <trkpt lat="48.13684" lon="-3.60615">
        <ele>136.707842</ele>
        <time>2022-06-09T21:13:36.928Z</time>
      </trkpt>
      <trkpt lat="48.13667" lon="-3.60591">
        <ele>135.667189</ele>
        <time>2022-06-09T21:13:40.106Z</time>
      </trkpt>
      <trkpt lat="48.13644" lon="-3.60584">
        <ele>135.232577</ele>
        <time>2022-06-09T21:13:43.326Z</time>
      </trkpt>
      <trkpt lat="48.13627" lon="-3.60574">
        <ele>134.899706</ele>
        <time>2022-06-09T21:13:45.991Z</time>
      </trkpt>
      <trkpt lat="48.13587" lon="-3.60533">
        <ele>134.018199</ele>
        <time>2022-06-09T21:13:53.878Z</time>
      </trkpt>
      <trkpt lat="48.13534" lon="-3.60434">
        <ele>132.783096</ele>
        <time>2022-06-09T21:14:09.782Z</time>
      </trkpt>
      <trkpt lat="48.13507" lon="-3.60427">
        <ele>133.682935</ele>
        <time>2022-06-09T21:14:17.075Z</time>
      </trkpt>
      <trkpt lat="48.13496" lon="-3.60417">
        <ele>134.117292</ele>
        <time>2022-06-09T21:14:20.900Z</time>
      </trkpt>
      <trkpt lat="48.13405" lon="-3.60286">
        <ele>138.280733</ele>
        <time>2022-06-09T21:15:10.497Z</time>
      </trkpt>
      <trkpt lat="48.13381" lon="-3.60267">
        <ele>139.674399</ele>
        <time>2022-06-09T21:15:22.411Z</time>
      </trkpt>
      <trkpt lat="48.13355" lon="-3.60271">
        <ele>141.199392</ele>
        <time>2022-06-09T21:15:35.146Z</time>
      </trkpt>
      <trkpt lat="48.13313" lon="-3.603">
        <ele>143.895437</ele>
        <time>2022-06-09T21:15:56.142Z</time>
      </trkpt>
      <trkpt lat="48.13283" lon="-3.60298">
        <ele>145.617379</ele>
        <time>2022-06-09T21:16:11.257Z</time>
      </trkpt>
      <trkpt lat="48.13262" lon="-3.60301">
        <ele>146.847109</ele>
        <time>2022-06-09T21:16:22.880Z</time>
      </trkpt>
      <trkpt lat="48.13235" lon="-3.60313">
        <ele>148.487855</ele>
        <time>2022-06-09T21:16:37.302Z</time>
      </trkpt>
      <trkpt lat="48.13161" lon="-3.60368">
        <ele>153.644152</ele>
        <time>2022-06-09T21:17:20.930Z</time>
      </trkpt>
      <trkpt lat="48.13142" lon="-3.6037">
        <ele>154.812796</ele>
        <time>2022-06-09T21:17:31.502Z</time>
      </trkpt>
      <trkpt lat="48.13125" lon="-3.60363">
        <ele>155.914673</ele>
        <time>2022-06-09T21:17:41.417Z</time>
      </trkpt>
      <trkpt lat="48.13083" lon="-3.60324">
        <ele>159.022341</ele>
        <time>2022-06-09T21:18:04.819Z</time>
      </trkpt>
      <trkpt lat="48.13026" lon="-3.60316">
        <ele>161.74403</ele>
        <time>2022-06-09T21:18:30.442Z</time>
      </trkpt>
      <trkpt lat="48.12984" lon="-3.60313">
        <ele>163.353518</ele>
        <time>2022-06-09T21:18:48.318Z</time>
      </trkpt>
      <trkpt lat="48.12854" lon="-3.60264">
        <ele>167.726189</ele>
        <time>2022-06-09T21:19:35.198Z</time>
      </trkpt>
      <trkpt lat="48.12826" lon="-3.60235">
        <ele>168.21132</ele>
        <time>2022-06-09T21:19:42.894Z</time>
      </trkpt>
      <trkpt lat="48.12726" lon="-3.6005">
        <ele>170.632056</ele>
        <time>2022-06-09T21:20:20.485Z</time>
      </trkpt>
      <trkpt lat="48.12665" lon="-3.59985">
        <ele>171.941851</ele>
        <time>2022-06-09T21:20:39.871Z</time>
      </trkpt>
      <trkpt lat="48.12639" lon="-3.59964">
        <ele>172.463258</ele>
        <time>2022-06-09T21:20:49.146Z</time>
      </trkpt>
      <trkpt lat="48.12608" lon="-3.59952">
        <ele>173.098</ele>
        <time>2022-06-09T21:21:00.065Z</time>
      </trkpt>
      <trkpt lat="48.12501" lon="-3.59934">
        <ele>177.068147</ele>
        <time>2022-06-09T21:21:39.258Z</time>
      </trkpt>
      <trkpt lat="48.12501" lon="-3.59933">
        <ele>177.08678</ele>
        <time>2022-06-09T21:21:39.998Z</time>
      </trkpt>
      <trkpt lat="48.1247" lon="-3.59922">
        <ele>178.249129</ele>
        <time>2022-06-09T21:21:51.726Z</time>
      </trkpt>
      <trkpt lat="48.12435" lon="-3.59892">
        <ele>179.722155</ele>
        <time>2022-06-09T21:22:08.173Z</time>
      </trkpt>
      <trkpt lat="48.12359" lon="-3.598">
        <ele>183.16428</ele>
        <time>2022-06-09T21:22:48.998Z</time>
      </trkpt>
      <trkpt lat="48.12334" lon="-3.59785">
        <ele>184.087792</ele>
        <time>2022-06-09T21:22:59.122Z</time>
      </trkpt>
      <trkpt lat="48.12267" lon="-3.59761">
        <ele>185.752079</ele>
        <time>2022-06-09T21:23:20.295Z</time>
      </trkpt>
      <trkpt lat="48.12223" lon="-3.59722">
        <ele>185.280891</ele>
        <time>2022-06-09T21:23:30.648Z</time>
      </trkpt>
      <trkpt lat="48.12203" lon="-3.59695">
        <ele>185.028633</ele>
        <time>2022-06-09T21:23:35.316Z</time>
      </trkpt>
      <trkpt lat="48.12135" lon="-3.59598">
        <ele>183.96602</ele>
        <time>2022-06-09T21:23:49.272Z</time>
      </trkpt>
      <trkpt lat="48.12105" lon="-3.59566">
        <ele>182.809478</ele>
        <time>2022-06-09T21:23:54.605Z</time>
      </trkpt>
      <trkpt lat="48.12061" lon="-3.59546">
        <ele>181.36937</ele>
        <time>2022-06-09T21:24:01.101Z</time>
      </trkpt>
      <trkpt lat="48.11951" lon="-3.59522">
        <ele>178.357524</ele>
        <time>2022-06-09T21:24:17.101Z</time>
      </trkpt>
      <trkpt lat="48.11854" lon="-3.59517">
        <ele>177.135197</ele>
        <time>2022-06-09T21:24:32.851Z</time>
      </trkpt>
      <trkpt lat="48.11811" lon="-3.59502">
        <ele>176.582171</ele>
        <time>2022-06-09T21:24:40.665Z</time>
      </trkpt>
      <trkpt lat="48.11759" lon="-3.59474">
        <ele>177.138817</ele>
        <time>2022-06-09T21:24:51.605Z</time>
      </trkpt>
      <trkpt lat="48.11645" lon="-3.59438">
        <ele>179.290414</ele>
        <time>2022-06-09T21:25:28.161Z</time>
      </trkpt>
      <trkpt lat="48.11615" lon="-3.59442">
        <ele>179.933884</ele>
        <time>2022-06-09T21:25:39.046Z</time>
      </trkpt>
      <trkpt lat="48.11542" lon="-3.59461">
        <ele>182.304189</ele>
        <time>2022-06-09T21:26:07.295Z</time>
      </trkpt>
      <trkpt lat="48.1135" lon="-3.59408">
        <ele>187.3942</ele>
        <time>2022-06-09T21:27:17.482Z</time>
      </trkpt>
      <trkpt lat="48.11266" lon="-3.59355">
        <ele>188.959418</ele>
        <time>2022-06-09T21:27:40.233Z</time>
      </trkpt>
      <trkpt lat="48.11187" lon="-3.59324">
        <ele>187.986289</ele>
        <time>2022-06-09T21:27:55.582Z</time>
      </trkpt>
      <trkpt lat="48.1115" lon="-3.59299">
        <ele>187.494164</ele>
        <time>2022-06-09T21:28:02.491Z</time>
      </trkpt>
      <trkpt lat="48.11117" lon="-3.59284">
        <ele>187.087471</ele>
        <time>2022-06-09T21:28:07.863Z</time>
      </trkpt>
      <trkpt lat="48.11033" lon="-3.59271">
        <ele>185.20083</ele>
        <time>2022-06-09T21:28:21.287Z</time>
      </trkpt>
      <trkpt lat="48.10983" lon="-3.59252">
        <ele>183.930663</ele>
        <time>2022-06-09T21:28:29.479Z</time>
      </trkpt>
      <trkpt lat="48.10824" lon="-3.59186">
        <ele>179.584764</ele>
        <time>2022-06-09T21:28:55.909Z</time>
      </trkpt>
      <trkpt lat="48.10774" lon="-3.592">
        <ele>178.205298</ele>
        <time>2022-06-09T21:29:03.685Z</time>
      </trkpt>
      <trkpt lat="48.10733" lon="-3.59232">
        <ele>177.03381</ele>
        <time>2022-06-09T21:29:10.824Z</time>
      </trkpt>
      <trkpt lat="48.10698" lon="-3.59294">
        <ele>175.770794</ele>
        <time>2022-06-09T21:29:19.091Z</time>
      </trkpt>
      <trkpt lat="48.10677" lon="-3.59308">
        <ele>175.236675</ele>
        <time>2022-06-09T21:29:22.676Z</time>
      </trkpt>
      <trkpt lat="48.10655" lon="-3.59309">
        <ele>174.729856</ele>
        <time>2022-06-09T21:29:26.116Z</time>
      </trkpt>
      <trkpt lat="48.10594" lon="-3.59269">
        <ele>173.532635</ele>
        <time>2022-06-09T21:29:37.289Z</time>
      </trkpt>
      <trkpt lat="48.10563" lon="-3.59218">
        <ele>174.386085</ele>
        <time>2022-06-09T21:29:48.498Z</time>
      </trkpt>
      <trkpt lat="48.1056" lon="-3.59214">
        <ele>174.461359</ele>
        <time>2022-06-09T21:29:49.699Z</time>
      </trkpt>
      <trkpt lat="48.10491" lon="-3.59171">
        <ele>175.833013</ele>
        <time>2022-06-09T21:30:13.593Z</time>
      </trkpt>
      <trkpt lat="48.10433" lon="-3.59137">
        <ele>177.109394</ele>
        <time>2022-06-09T21:30:35.782Z</time>
      </trkpt>
      <trkpt lat="48.10388" lon="-3.59122">
        <ele>178.33898</ele>
        <time>2022-06-09T21:30:53.341Z</time>
      </trkpt>
      <trkpt lat="48.10171" lon="-3.59072">
        <ele>181.984664</ele>
        <time>2022-06-09T21:31:59.802Z</time>
      </trkpt>
      <trkpt lat="48.10147" lon="-3.59074">
        <ele>182.104296</ele>
        <time>2022-06-09T21:32:03.890Z</time>
      </trkpt>
      <trkpt lat="48.10088" lon="-3.59095">
        <ele>182.18636</ele>
        <time>2022-06-09T21:32:13.773Z</time>
      </trkpt>
      <trkpt lat="48.10009" lon="-3.59084">
        <ele>179.780582</ele>
        <time>2022-06-09T21:32:25.210Z</time>
      </trkpt>
      <trkpt lat="48.09929" lon="-3.59096">
        <ele>177.349001</ele>
        <time>2022-06-09T21:32:36.484Z</time>
      </trkpt>
      <trkpt lat="48.09893" lon="-3.5908">
        <ele>176.547271</ele>
        <time>2022-06-09T21:32:41.913Z</time>
      </trkpt>
      <trkpt lat="48.09847" lon="-3.59068">
        <ele>175.795203</ele>
        <time>2022-06-09T21:32:49.060Z</time>
      </trkpt>
      <trkpt lat="48.09723" lon="-3.59055">
        <ele>173.877606</ele>
        <time>2022-06-09T21:33:09.999Z</time>
      </trkpt>
      <trkpt lat="48.09689" lon="-3.59052">
        <ele>173.560107</ele>
        <time>2022-06-09T21:33:16.411Z</time>
      </trkpt>
      <trkpt lat="48.09624" lon="-3.59043">
        <ele>172.943613</ele>
        <time>2022-06-09T21:33:28.877Z</time>
      </trkpt>
      <trkpt lat="48.09388" lon="-3.589">
        <ele>167.752466</ele>
        <time>2022-06-09T21:34:08.278Z</time>
      </trkpt>
      <trkpt lat="48.09361" lon="-3.58886">
        <ele>166.285921</ele>
        <time>2022-06-09T21:34:12.219Z</time>
      </trkpt>
      <trkpt lat="48.09286" lon="-3.58836">
        <ele>162.166428</ele>
        <time>2022-06-09T21:34:23.120Z</time>
      </trkpt>
      <trkpt lat="48.09271" lon="-3.58816">
        <ele>161.15745</ele>
        <time>2022-06-09T21:34:25.767Z</time>
      </trkpt>
      <trkpt lat="48.09265" lon="-3.58779">
        <ele>159.890597</ele>
        <time>2022-06-09T21:34:28.998Z</time>
      </trkpt>
      <trkpt lat="48.09269" lon="-3.58752">
        <ele>158.893888</ele>
        <time>2022-06-09T21:34:31.287Z</time>
      </trkpt>
      <trkpt lat="48.09281" lon="-3.58726">
        <ele>157.492004</ele>
        <time>2022-06-09T21:34:33.957Z</time>
      </trkpt>
      <trkpt lat="48.09363" lon="-3.5864">
        <ele>150.929986</ele>
        <time>2022-06-09T21:34:46.848Z</time>
      </trkpt>
      <trkpt lat="48.09375" lon="-3.58625">
        <ele>149.922562</ele>
        <time>2022-06-09T21:34:48.817Z</time>
      </trkpt>
      <trkpt lat="48.09384" lon="-3.58612">
        <ele>149.059952</ele>
        <time>2022-06-09T21:34:50.458Z</time>
      </trkpt>
      <trkpt lat="48.09391" lon="-3.58592">
        <ele>148.086761</ele>
        <time>2022-06-09T21:34:52.403Z</time>
      </trkpt>
      <trkpt lat="48.09392" lon="-3.5857">
        <ele>147.100575</ele>
        <time>2022-06-09T21:34:54.237Z</time>
      </trkpt>
      <trkpt lat="48.09387" lon="-3.58533">
        <ele>145.270907</ele>
        <time>2022-06-09T21:34:57.449Z</time>
      </trkpt>
      <trkpt lat="48.09387" lon="-3.58532">
        <ele>145.238774</ele>
        <time>2022-06-09T21:34:57.499Z</time>
      </trkpt>
      <trkpt lat="48.09379" lon="-3.58511">
        <ele>144.067786</ele>
        <time>2022-06-09T21:34:59.493Z</time>
      </trkpt>
      <trkpt lat="48.09362" lon="-3.58493">
        <ele>142.551262</ele>
        <time>2022-06-09T21:35:02.094Z</time>
      </trkpt>
      <trkpt lat="48.09325" lon="-3.58492">
        <ele>139.953109</ele>
        <time>2022-06-09T21:35:06.554Z</time>
      </trkpt>
      <trkpt lat="48.09239" lon="-3.58466">
        <ele>133.829602</ele>
        <time>2022-06-09T21:35:17.848Z</time>
      </trkpt>
      <trkpt lat="48.09219" lon="-3.58475">
        <ele>132.735335</ele>
        <time>2022-06-09T21:35:20.475Z</time>
      </trkpt>
      <trkpt lat="48.09186" lon="-3.58505">
        <ele>130.728938</ele>
        <time>2022-06-09T21:35:25.359Z</time>
      </trkpt>
      <trkpt lat="48.09163" lon="-3.58511">
        <ele>129.496848</ele>
        <time>2022-06-09T21:35:28.494Z</time>
      </trkpt>
      <trkpt lat="48.09129" lon="-3.58488">
        <ele>127.515469</ele>
        <time>2022-06-09T21:35:33.581Z</time>
      </trkpt>
      <trkpt lat="48.09111" lon="-3.58457">
        <ele>126.093879</ele>
        <time>2022-06-09T21:35:37.276Z</time>
      </trkpt>
      <trkpt lat="48.09111" lon="-3.58457">
        <ele>126.090367</ele>
        <time>2022-06-09T21:35:37.286Z</time>
      </trkpt>
      <trkpt lat="48.09101" lon="-3.58399">
        <ele>124.724527</ele>
        <time>2022-06-09T21:35:42.661Z</time>
      </trkpt>
      <trkpt lat="48.09105" lon="-3.58376">
        <ele>124.518914</ele>
        <time>2022-06-09T21:35:45.121Z</time>
      </trkpt>
      <trkpt lat="48.09139" lon="-3.58327">
        <ele>123.924509</ele>
        <time>2022-06-09T21:35:52.364Z</time>
      </trkpt>
      <trkpt lat="48.092" lon="-3.58259">
        <ele>122.969809</ele>
        <time>2022-06-09T21:36:05.728Z</time>
      </trkpt>
      <trkpt lat="48.09209" lon="-3.5823">
        <ele>122.697891</ele>
        <time>2022-06-09T21:36:11.052Z</time>
      </trkpt>
      <trkpt lat="48.09211" lon="-3.58189">
        <ele>123.604092</ele>
        <time>2022-06-09T21:36:17.951Z</time>
      </trkpt>
      <trkpt lat="48.09185" lon="-3.58015">
        <ele>127.65274</ele>
        <time>2022-06-09T21:37:04.375Z</time>
      </trkpt>
      <trkpt lat="48.09182" lon="-3.57965">
        <ele>128.806565</ele>
        <time>2022-06-09T21:37:18.420Z</time>
      </trkpt>
      <trkpt lat="48.09184" lon="-3.57947">
        <ele>129.23899</ele>
        <time>2022-06-09T21:37:25.935Z</time>
      </trkpt>
      <trkpt lat="48.09228" lon="-3.57738">
        <ele>134.287816</ele>
        <time>2022-06-09T21:38:21.217Z</time>
      </trkpt>
      <trkpt lat="48.09247" lon="-3.57689">
        <ele>135.51405</ele>
        <time>2022-06-09T21:38:31.589Z</time>
      </trkpt>
      <trkpt lat="48.09282" lon="-3.57632">
        <ele>137.021699</ele>
        <time>2022-06-09T21:38:47.622Z</time>
      </trkpt>
      <trkpt lat="48.09292" lon="-3.57623">
        <ele>137.3787</ele>
        <time>2022-06-09T21:38:51.646Z</time>
      </trkpt>
      <trkpt lat="48.09432" lon="-3.57569">
        <ele>141.983275</ele>
        <time>2022-06-09T21:39:45.327Z</time>
      </trkpt>
      <trkpt lat="48.09491" lon="-3.57525">
        <ele>144.453744</ele>
        <time>2022-06-09T21:40:11.470Z</time>
      </trkpt>
      <trkpt lat="48.0953" lon="-3.57459">
        <ele>146.667692</ele>
        <time>2022-06-09T21:40:34.654Z</time>
      </trkpt>
      <trkpt lat="48.0967" lon="-3.5718">
        <ele>155.565883</ele>
        <time>2022-06-09T21:42:09.447Z</time>
      </trkpt>
      <trkpt lat="48.09684" lon="-3.57125">
        <ele>156.725876</ele>
        <time>2022-06-09T21:42:23.990Z</time>
      </trkpt>
      <trkpt lat="48.09644" lon="-3.57058">
        <ele>158.472452</ele>
        <time>2022-06-09T21:42:51.073Z</time>
      </trkpt>
      <trkpt lat="48.09591" lon="-3.56949">
        <ele>160.656632</ele>
        <time>2022-06-09T21:43:27.722Z</time>
      </trkpt>
      <trkpt lat="48.09591" lon="-3.56949">
        <ele>160.661185</ele>
        <time>2022-06-09T21:43:27.901Z</time>
      </trkpt>
      <trkpt lat="48.09576" lon="-3.56906">
        <ele>161.320852</ele>
        <time>2022-06-09T21:43:39.872Z</time>
      </trkpt>
      <trkpt lat="48.09499" lon="-3.56797">
        <ele>163.550042</ele>
        <time>2022-06-09T21:44:25.648Z</time>
      </trkpt>
      <trkpt lat="48.09442" lon="-3.56733">
        <ele>165.464583</ele>
        <time>2022-06-09T21:44:57.984Z</time>
      </trkpt>
      <trkpt lat="48.094" lon="-3.56697">
        <ele>166.783428</ele>
        <time>2022-06-09T21:45:21.651Z</time>
      </trkpt>
      <trkpt lat="48.09348" lon="-3.56663">
        <ele>168.189248</ele>
        <time>2022-06-09T21:45:47.640Z</time>
      </trkpt>
      <trkpt lat="48.09311" lon="-3.56622">
        <ele>168.409368</ele>
        <time>2022-06-09T21:46:06.403Z</time>
      </trkpt>
      <trkpt lat="48.09303" lon="-3.56602">
        <ele>168.482625</ele>
        <time>2022-06-09T21:46:12.332Z</time>
      </trkpt>
      <trkpt lat="48.09293" lon="-3.56574">
        <ele>168.584196</ele>
        <time>2022-06-09T21:46:19.349Z</time>
      </trkpt>
      <trkpt lat="48.09269" lon="-3.56542">
        <ele>168.738259</ele>
        <time>2022-06-09T21:46:28.987Z</time>
      </trkpt>
      <trkpt lat="48.09192" lon="-3.56448">
        <ele>168.716821</ele>
        <time>2022-06-09T21:46:58.653Z</time>
      </trkpt>
      <trkpt lat="48.09166" lon="-3.56395">
        <ele>168.394039</ele>
        <time>2022-06-09T21:47:11.597Z</time>
      </trkpt>
      <trkpt lat="48.09154" lon="-3.56363">
        <ele>168.213339</ele>
        <time>2022-06-09T21:47:16.191Z</time>
      </trkpt>
      <trkpt lat="48.09136" lon="-3.56329">
        <ele>168.001635</ele>
        <time>2022-06-09T21:47:21.440Z</time>
      </trkpt>
      <trkpt lat="48.09131" lon="-3.56317">
        <ele>167.930965</ele>
        <time>2022-06-09T21:47:23.227Z</time>
      </trkpt>
      <trkpt lat="48.09125" lon="-3.56304">
        <ele>167.85383</ele>
        <time>2022-06-09T21:47:25.131Z</time>
      </trkpt>
      <trkpt lat="48.09123" lon="-3.56298">
        <ele>167.821999</ele>
        <time>2022-06-09T21:47:25.897Z</time>
      </trkpt>
      <trkpt lat="48.09117" lon="-3.56272">
        <ele>167.664013</ele>
        <time>2022-06-09T21:47:29.433Z</time>
      </trkpt>
      <trkpt lat="48.09118" lon="-3.5625">
        <ele>167.360504</ele>
        <time>2022-06-09T21:47:32.068Z</time>
      </trkpt>
      <trkpt lat="48.09046" lon="-3.56181">
        <ele>165.607469</ele>
        <time>2022-06-09T21:47:45.719Z</time>
      </trkpt>
      <trkpt lat="48.09029" lon="-3.56175">
        <ele>165.249055</ele>
        <time>2022-06-09T21:47:48.477Z</time>
      </trkpt>
      <trkpt lat="48.08997" lon="-3.56178">
        <ele>164.598623</ele>
        <time>2022-06-09T21:47:53.273Z</time>
      </trkpt>
      <trkpt lat="48.08966" lon="-3.56177">
        <ele>163.892956</ele>
        <time>2022-06-09T21:47:57.729Z</time>
      </trkpt>
      <trkpt lat="48.0885" lon="-3.5614">
        <ele>158.848479</ele>
        <time>2022-06-09T21:48:13.988Z</time>
      </trkpt>
      <trkpt lat="48.08831" lon="-3.56136">
        <ele>157.996887</ele>
        <time>2022-06-09T21:48:16.504Z</time>
      </trkpt>
      <trkpt lat="48.08711" lon="-3.56082">
        <ele>152.27931</ele>
        <time>2022-06-09T21:48:33.531Z</time>
      </trkpt>
      <trkpt lat="48.08712" lon="-3.56053">
        <ele>151.372877</ele>
        <time>2022-06-09T21:48:36.035Z</time>
      </trkpt>
      <trkpt lat="48.08707" lon="-3.56023">
        <ele>150.380347</ele>
        <time>2022-06-09T21:48:39.036Z</time>
      </trkpt>
      <trkpt lat="48.08703" lon="-3.56007">
        <ele>149.833623</ele>
        <time>2022-06-09T21:48:40.540Z</time>
      </trkpt>
      <trkpt lat="48.08681" lon="-3.55969">
        <ele>148.253135</ele>
        <time>2022-06-09T21:48:45.069Z</time>
      </trkpt>
      <trkpt lat="48.08628" lon="-3.55911">
        <ele>144.981924</ele>
        <time>2022-06-09T21:48:53.709Z</time>
      </trkpt>
      <trkpt lat="48.08535" lon="-3.55825">
        <ele>139.478487</ele>
        <time>2022-06-09T21:49:08.333Z</time>
      </trkpt>
      <trkpt lat="48.08502" lon="-3.55783">
        <ele>137.534539</ele>
        <time>2022-06-09T21:49:13.971Z</time>
      </trkpt>
      <trkpt lat="48.0843" lon="-3.55648">
        <ele>132.558931</ele>
        <time>2022-06-09T21:49:29.676Z</time>
      </trkpt>
      <trkpt lat="48.08414" lon="-3.55617">
        <ele>131.397996</ele>
        <time>2022-06-09T21:49:33.373Z</time>
      </trkpt>
      <trkpt lat="48.08406" lon="-3.55578">
        <ele>130.429575</ele>
        <time>2022-06-09T21:49:37.312Z</time>
      </trkpt>
      <trkpt lat="48.08408" lon="-3.55538">
        <ele>129.556162</ele>
        <time>2022-06-09T21:49:41.270Z</time>
      </trkpt>
      <trkpt lat="48.08419" lon="-3.55501">
        <ele>128.66092</ele>
        <time>2022-06-09T21:49:45.323Z</time>
      </trkpt>
      <trkpt lat="48.08437" lon="-3.5547">
        <ele>127.77136</ele>
        <time>2022-06-09T21:49:49.269Z</time>
      </trkpt>
      <trkpt lat="48.08463" lon="-3.55449">
        <ele>126.810005</ele>
        <time>2022-06-09T21:49:53.496Z</time>
      </trkpt>
      <trkpt lat="48.08569" lon="-3.55393">
        <ele>122.644593</ele>
        <time>2022-06-09T21:50:09.415Z</time>
      </trkpt>
      <trkpt lat="48.08723" lon="-3.55221">
        <ele>114.945406</ele>
        <time>2022-06-09T21:50:35.554Z</time>
      </trkpt>
      <trkpt lat="48.08722" lon="-3.55197">
        <ele>114.312062</ele>
        <time>2022-06-09T21:50:37.939Z</time>
      </trkpt>
      <trkpt lat="48.08712" lon="-3.55135">
        <ele>112.673736</ele>
        <time>2022-06-09T21:50:44.198Z</time>
      </trkpt>
      <trkpt lat="48.08685" lon="-3.55074">
        <ele>110.826359</ele>
        <time>2022-06-09T21:50:51.683Z</time>
      </trkpt>
      <trkpt lat="48.08686" lon="-3.55055">
        <ele>110.635417</ele>
        <time>2022-06-09T21:50:53.657Z</time>
      </trkpt>
      <trkpt lat="48.08692" lon="-3.55036">
        <ele>110.421425</ele>
        <time>2022-06-09T21:50:55.852Z</time>
      </trkpt>
      <trkpt lat="48.08695" lon="-3.55023">
        <ele>110.280588</ele>
        <time>2022-06-09T21:50:57.383Z</time>
      </trkpt>
      <trkpt lat="48.08671" lon="-3.55006">
        <ele>109.871599</ele>
        <time>2022-06-09T21:51:01.469Z</time>
      </trkpt>
      <trkpt lat="48.08655" lon="-3.54985">
        <ele>109.548821</ele>
        <time>2022-06-09T21:51:04.840Z</time>
      </trkpt>
      <trkpt lat="48.08648" lon="-3.54971">
        <ele>109.368138</ele>
        <time>2022-06-09T21:51:06.684Z</time>
      </trkpt>
      <trkpt lat="48.08574" lon="-3.54796">
        <ele>108.631325</ele>
        <time>2022-06-09T21:51:32.930Z</time>
      </trkpt>
      <trkpt lat="48.08574" lon="-3.54768">
        <ele>108.799711</ele>
        <time>2022-06-09T21:51:36.943Z</time>
      </trkpt>
      <trkpt lat="48.08599" lon="-3.54681">
        <ele>109.369147</ele>
        <time>2022-06-09T21:51:53.486Z</time>
      </trkpt>
      <trkpt lat="48.086" lon="-3.54648">
        <ele>109.56867</ele>
        <time>2022-06-09T21:52:00.209Z</time>
      </trkpt>
      <trkpt lat="48.0858" lon="-3.54602">
        <ele>110.280075</ele>
        <time>2022-06-09T21:52:12.358Z</time>
      </trkpt>
      <trkpt lat="48.08555" lon="-3.54562">
        <ele>111.424353</ele>
        <time>2022-06-09T21:52:24.814Z</time>
      </trkpt>
      <trkpt lat="48.08492" lon="-3.54477">
        <ele>114.083612</ele>
        <time>2022-06-09T21:52:55.668Z</time>
      </trkpt>
      <trkpt lat="48.08488" lon="-3.54475">
        <ele>114.224794</ele>
        <time>2022-06-09T21:52:57.505Z</time>
      </trkpt>
      <trkpt lat="48.08402" lon="-3.54461">
        <ele>117.378091</ele>
        <time>2022-06-09T21:53:30.324Z</time>
      </trkpt>
      <trkpt lat="48.08375" lon="-3.54464">
        <ele>118.489265</ele>
        <time>2022-06-09T21:53:40.765Z</time>
      </trkpt>
      <trkpt lat="48.08194" lon="-3.54416">
        <ele>127.069767</ele>
        <time>2022-06-09T21:54:55.383Z</time>
      </trkpt>
      <trkpt lat="48.08116" lon="-3.54394">
        <ele>131.414616</ele>
        <time>2022-06-09T21:55:32.240Z</time>
      </trkpt>
      <trkpt lat="48.08115" lon="-3.54385">
        <ele>131.765039</ele>
        <time>2022-06-09T21:55:37.315Z</time>
      </trkpt>
      <trkpt lat="48.08103" lon="-3.54377">
        <ele>132.491368</ele>
        <time>2022-06-09T21:55:44.276Z</time>
      </trkpt>
      <trkpt lat="48.08023" lon="-3.54365">
        <ele>138.609197</ele>
        <time>2022-06-09T21:56:32.577Z</time>
      </trkpt>
      <trkpt lat="48.07973" lon="-3.54346">
        <ele>142.569512</ele>
        <time>2022-06-09T21:57:05.402Z</time>
      </trkpt>
      <trkpt lat="48.07943" lon="-3.54316">
        <ele>145.309155</ele>
        <time>2022-06-09T21:57:24.510Z</time>
      </trkpt>
      <trkpt lat="48.07926" lon="-3.54287">
        <ele>147.080682</ele>
        <time>2022-06-09T21:57:37.474Z</time>
      </trkpt>
      <trkpt lat="48.07865" lon="-3.54173">
        <ele>153.145235</ele>
        <time>2022-06-09T21:58:25.546Z</time>
      </trkpt>
      <trkpt lat="48.07863" lon="-3.54158">
        <ele>153.767812</ele>
        <time>2022-06-09T21:58:31.169Z</time>
      </trkpt>
      <trkpt lat="48.07867" lon="-3.54153">
        <ele>154.097877</ele>
        <time>2022-06-09T21:58:34.236Z</time>
      </trkpt>
      <trkpt lat="48.07915" lon="-3.5416">
        <ele>157.068566</ele>
        <time>2022-06-09T21:58:59.383Z</time>
      </trkpt>
      <trkpt lat="48.07962" lon="-3.54143">
        <ele>159.872149</ele>
        <time>2022-06-09T21:59:20.668Z</time>
      </trkpt>
      <trkpt lat="48.0796" lon="-3.54124">
        <ele>160.623554</ele>
        <time>2022-06-09T21:59:25.571Z</time>
      </trkpt>
      <trkpt lat="48.07942" lon="-3.54073">
        <ele>162.860162</ele>
        <time>2022-06-09T21:59:42.938Z</time>
      </trkpt>
      <trkpt lat="48.0794" lon="-3.54058">
        <ele>163.461468</ele>
        <time>2022-06-09T21:59:49.536Z</time>
      </trkpt>
      <trkpt lat="48.0797" lon="-3.53919">
        <ele>168.890969</ele>
        <time>2022-06-09T22:00:37.686Z</time>
      </trkpt>
      <trkpt lat="48.07961" lon="-3.53854">
        <ele>170.997371</ele>
        <time>2022-06-09T22:01:03.441Z</time>
      </trkpt>
      <trkpt lat="48.07885" lon="-3.53697">
        <ele>176.772368</ele>
        <time>2022-06-09T22:01:53.649Z</time>
      </trkpt>
      <trkpt lat="48.07863" lon="-3.53666">
        <ele>177.530483</ele>
        <time>2022-06-09T22:02:04.528Z</time>
      </trkpt>
      <trkpt lat="48.07642" lon="-3.53573">
        <ele>183.419516</ele>
        <time>2022-06-09T22:03:14.415Z</time>
      </trkpt>
      <trkpt lat="48.0768" lon="-3.53459">
        <ele>185.715003</ele>
        <time>2022-06-09T22:03:46.028Z</time>
      </trkpt>
      <trkpt lat="48.0771" lon="-3.53405">
        <ele>187.011088</ele>
        <time>2022-06-09T22:04:03.954Z</time>
      </trkpt>
      <trkpt lat="48.07727" lon="-3.53384">
        <ele>187.644368</ele>
        <time>2022-06-09T22:04:12.113Z</time>
      </trkpt>
      <trkpt lat="48.07809" lon="-3.53341">
        <ele>190.053095</ele>
        <time>2022-06-09T22:04:42.680Z</time>
      </trkpt>
      <trkpt lat="48.07828" lon="-3.53317">
        <ele>190.681394</ele>
        <time>2022-06-09T22:04:49.946Z</time>
      </trkpt>
      <trkpt lat="48.07833" lon="-3.53299">
        <ele>190.742816</ele>
        <time>2022-06-09T22:04:53.536Z</time>
      </trkpt>
      <trkpt lat="48.07836" lon="-3.53259">
        <ele>190.868124</ele>
        <time>2022-06-09T22:04:59.455Z</time>
      </trkpt>
      <trkpt lat="48.07811" lon="-3.52887">
        <ele>191.719</ele>
        <time>2022-06-09T22:05:50.700Z</time>
      </trkpt>
      <trkpt lat="48.07808" lon="-3.52753">
        <ele>191.916888</ele>
        <time>2022-06-09T22:06:10.590Z</time>
      </trkpt>
      <trkpt lat="48.07811" lon="-3.52621">
        <ele>192.203616</ele>
        <time>2022-06-09T22:06:30.268Z</time>
      </trkpt>
      <trkpt lat="48.07831" lon="-3.52512">
        <ele>192.434243</ele>
        <time>2022-06-09T22:06:46.434Z</time>
      </trkpt>
      <trkpt lat="48.07735" lon="-3.52395">
        <ele>192.516936</ele>
        <time>2022-06-09T22:07:10.238Z</time>
      </trkpt>
      <trkpt lat="48.0771" lon="-3.52353">
        <ele>192.542477</ele>
        <time>2022-06-09T22:07:17.551Z</time>
      </trkpt>
      <trkpt lat="48.07609" lon="-3.52143">
        <ele>192.804259</ele>
        <time>2022-06-09T22:07:52.036Z</time>
      </trkpt>
      <trkpt lat="48.07569" lon="-3.52083">
        <ele>192.885365</ele>
        <time>2022-06-09T22:08:03.562Z</time>
      </trkpt>
      <trkpt lat="48.07517" lon="-3.52059">
        <ele>192.959364</ele>
        <time>2022-06-09T22:08:14.589Z</time>
      </trkpt>
      <trkpt lat="48.07396" lon="-3.52055">
        <ele>193.119103</ele>
        <time>2022-06-09T22:08:38.232Z</time>
      </trkpt>
      <trkpt lat="48.07177" lon="-3.52015">
        <ele>193.736309</ele>
        <time>2022-06-09T22:09:22.084Z</time>
      </trkpt>
      <trkpt lat="48.06997" lon="-3.51931">
        <ele>194.951333</ele>
        <time>2022-06-09T22:10:06.903Z</time>
      </trkpt>
      <trkpt lat="48.06976" lon="-3.51921">
        <ele>195.104293</ele>
        <time>2022-06-09T22:10:12.196Z</time>
      </trkpt>
      <trkpt lat="48.06948" lon="-3.51913">
        <ele>195.312651</ele>
        <time>2022-06-09T22:10:18.689Z</time>
      </trkpt>
      <trkpt lat="48.06875" lon="-3.51877">
        <ele>195.520478</ele>
        <time>2022-06-09T22:10:35.075Z</time>
      </trkpt>
      <trkpt lat="48.06522" lon="-3.51666">
        <ele>193.218539</ele>
        <time>2022-06-09T22:11:41.343Z</time>
      </trkpt>
      <trkpt lat="48.06528" lon="-3.51597">
        <ele>192.901964</ele>
        <time>2022-06-09T22:11:55.383Z</time>
      </trkpt>
      <trkpt lat="48.06548" lon="-3.51511">
        <ele>192.490615</ele>
        <time>2022-06-09T22:12:13.745Z</time>
      </trkpt>
      <trkpt lat="48.0655" lon="-3.51317">
        <ele>191.114168</ele>
        <time>2022-06-09T22:12:51.903Z</time>
      </trkpt>
      <trkpt lat="48.06583" lon="-3.51186">
        <ele>189.937217</ele>
        <time>2022-06-09T22:13:18.410Z</time>
      </trkpt>
      <trkpt lat="48.06581" lon="-3.51113">
        <ele>189.120944</ele>
        <time>2022-06-09T22:13:31.965Z</time>
      </trkpt>
      <trkpt lat="48.06692" lon="-3.5092">
        <ele>186.379886</ele>
        <time>2022-06-09T22:14:19.511Z</time>
      </trkpt>
      <trkpt lat="48.06782" lon="-3.50829">
        <ele>184.778603</ele>
        <time>2022-06-09T22:14:50.456Z</time>
      </trkpt>
      <trkpt lat="48.06867" lon="-3.50761">
        <ele>183.938692</ele>
        <time>2022-06-09T22:15:18.184Z</time>
      </trkpt>
      <trkpt lat="48.06963" lon="-3.50575">
        <ele>183.046884</ele>
        <time>2022-06-09T22:16:06.089Z</time>
      </trkpt>
      <trkpt lat="48.06921" lon="-3.50487">
        <ele>182.883521</ele>
        <time>2022-06-09T22:16:20.930Z</time>
      </trkpt>
      <trkpt lat="48.06902" lon="-3.50462">
        <ele>182.82793</ele>
        <time>2022-06-09T22:16:25.871Z</time>
      </trkpt>
      <trkpt lat="48.06884" lon="-3.50459">
        <ele>182.785483</ele>
        <time>2022-06-09T22:16:29.576Z</time>
      </trkpt>
      <trkpt lat="48.06841" lon="-3.50488">
        <ele>182.393634</ele>
        <time>2022-06-09T22:16:38.728Z</time>
      </trkpt>
      <trkpt lat="48.06841" lon="-3.50488">
        <ele>182.390806</ele>
        <time>2022-06-09T22:16:38.857Z</time>
      </trkpt>
      <trkpt lat="48.06828" lon="-3.50486">
        <ele>182.27852</ele>
        <time>2022-06-09T22:16:41.397Z</time>
      </trkpt>
      <trkpt lat="48.06777" lon="-3.50418">
        <ele>181.69256</ele>
        <time>2022-06-09T22:16:53.648Z</time>
      </trkpt>
      <trkpt lat="48.06695" lon="-3.50325">
        <ele>180.26507</ele>
        <time>2022-06-09T22:17:11.208Z</time>
      </trkpt>
      <trkpt lat="48.06679" lon="-3.50313">
        <ele>179.908503</ele>
        <time>2022-06-09T22:17:14.311Z</time>
      </trkpt>
      <trkpt lat="48.06666" lon="-3.50312">
        <ele>179.6541</ele>
        <time>2022-06-09T22:17:16.418Z</time>
      </trkpt>
      <trkpt lat="48.06676" lon="-3.50269">
        <ele>179.062775</ele>
        <time>2022-06-09T22:17:24.733Z</time>
      </trkpt>
      <trkpt lat="48.06716" lon="-3.50168">
        <ele>177.420836</ele>
        <time>2022-06-09T22:17:46.066Z</time>
      </trkpt>
      <trkpt lat="48.06739" lon="-3.50127">
        <ele>176.347535</ele>
        <time>2022-06-09T22:17:55.598Z</time>
      </trkpt>
      <trkpt lat="48.06846" lon="-3.49971">
        <ele>171.396394</ele>
        <time>2022-06-09T22:18:34.424Z</time>
      </trkpt>
      <trkpt lat="48.06858" lon="-3.49959">
        <ele>170.509871</ele>
        <time>2022-06-09T22:18:37.999Z</time>
      </trkpt>
      <trkpt lat="48.06906" lon="-3.49944">
        <ele>167.512626</ele>
        <time>2022-06-09T22:18:49.607Z</time>
      </trkpt>
      <trkpt lat="48.06934" lon="-3.49952">
        <ele>165.822518</ele>
        <time>2022-06-09T22:18:56.039Z</time>
      </trkpt>
      <trkpt lat="48.07057" lon="-3.49937">
        <ele>157.844468</ele>
        <time>2022-06-09T22:19:23.930Z</time>
      </trkpt>
      <trkpt lat="48.07138" lon="-3.49902">
        <ele>151.939351</ele>
        <time>2022-06-09T22:19:42.865Z</time>
      </trkpt>
      <trkpt lat="48.07204" lon="-3.49837">
        <ele>147.669789</ele>
        <time>2022-06-09T22:20:01.448Z</time>
      </trkpt>
      <trkpt lat="48.0725" lon="-3.49777">
        <ele>145.581926</ele>
        <time>2022-06-09T22:20:16.737Z</time>
      </trkpt>
      <trkpt lat="48.07278" lon="-3.49721">
        <ele>143.981682</ele>
        <time>2022-06-09T22:20:29.234Z</time>
      </trkpt>
      <trkpt lat="48.07298" lon="-3.49653">
        <ele>142.628008</ele>
        <time>2022-06-09T22:20:43.240Z</time>
      </trkpt>
      <trkpt lat="48.0731" lon="-3.49642">
        <ele>142.555839</ele>
        <time>2022-06-09T22:20:47.192Z</time>
      </trkpt>
      <trkpt lat="48.0734" lon="-3.49552">
        <ele>142.214051</ele>
        <time>2022-06-09T22:21:07.316Z</time>
      </trkpt>
      <trkpt lat="48.07348" lon="-3.49538">
        <ele>142.151149</ele>
        <time>2022-06-09T22:21:11.104Z</time>
      </trkpt>
      <trkpt lat="48.07348" lon="-3.49538">
        <ele>142.151149</ele>
        <time>2022-06-09T22:21:11.130Z</time>
      </trkpt>
      <trkpt lat="48.07348" lon="-3.49538">
        <ele>142.151149</ele>
        <time>2022-06-09T22:21:11.130Z</time>
      </trkpt>
      <trkpt lat="48.07424" lon="-3.49596">
        <ele>141.838834</ele>
        <time>2022-06-09T22:21:47.744Z</time>
      </trkpt>
      <trkpt lat="48.07424" lon="-3.49596">
        <ele>141.838834</ele>
        <time>2022-06-09T22:21:47.744Z</time>
      </trkpt>
      <trkpt lat="48.07441" lon="-3.4955">
        <ele>142.072042</ele>
        <time>2022-06-09T22:22:02.727Z</time>
      </trkpt>
      <trkpt lat="48.07459" lon="-3.49563">
        <ele>142.208803</ele>
        <time>2022-06-09T22:22:09.763Z</time>
      </trkpt>
      <trkpt lat="48.07484" lon="-3.49468">
        <ele>142.663774</ele>
        <time>2022-06-09T22:22:34.333Z</time>
      </trkpt>
      <trkpt lat="48.07577" lon="-3.4938">
        <ele>143.422215</ele>
        <time>2022-06-09T22:23:14.072Z</time>
      </trkpt>
      <trkpt lat="48.07644" lon="-3.49379">
        <ele>143.89689</ele>
        <time>2022-06-09T22:23:37.947Z</time>
      </trkpt>
      <trkpt lat="48.07698" lon="-3.49417">
        <ele>144.278729</ele>
        <time>2022-06-09T22:23:58.545Z</time>
      </trkpt>
      <trkpt lat="48.07732" lon="-3.49391">
        <ele>144.427965</ele>
        <time>2022-06-09T22:24:11.757Z</time>
      </trkpt>
      <trkpt lat="48.07786" lon="-3.49384">
        <ele>144.63772</ele>
        <time>2022-06-09T22:24:30.313Z</time>
      </trkpt>
      <trkpt lat="48.07802" lon="-3.4934">
        <ele>144.767036</ele>
        <time>2022-06-09T22:24:41.719Z</time>
      </trkpt>
      <trkpt lat="48.07808" lon="-3.49207">
        <ele>144.536755</ele>
        <time>2022-06-09T22:25:10.125Z</time>
      </trkpt>
      <trkpt lat="48.0778" lon="-3.49148">
        <ele>144.128781</ele>
        <time>2022-06-09T22:25:24.877Z</time>
      </trkpt>
      <trkpt lat="48.07557" lon="-3.48937">
        <ele>141.249458</ele>
        <time>2022-06-09T22:26:39.344Z</time>
      </trkpt>
      <trkpt lat="48.07318" lon="-3.48832">
        <ele>143.113622</ele>
        <time>2022-06-09T22:28:09.911Z</time>
      </trkpt>
      <trkpt lat="48.07231" lon="-3.4881">
        <ele>144.076704</ele>
        <time>2022-06-09T22:28:43.430Z</time>
      </trkpt>
      <trkpt lat="48.07216" lon="-3.48588">
        <ele>145.455433</ele>
        <time>2022-06-09T22:29:38.824Z</time>
      </trkpt>
      <trkpt lat="48.07216" lon="-3.48588">
        <ele>145.457232</ele>
        <time>2022-06-09T22:29:39.293Z</time>
      </trkpt>
      <trkpt lat="48.07216" lon="-3.4855">
        <ele>145.682777</ele>
        <time>2022-06-09T22:29:47.072Z</time>
      </trkpt>
      <trkpt lat="48.0723" lon="-3.48469">
        <ele>145.82587</ele>
        <time>2022-06-09T22:30:06.079Z</time>
      </trkpt>
      <trkpt lat="48.07221" lon="-3.48458">
        <ele>145.782203</ele>
        <time>2022-06-09T22:30:09.333Z</time>
      </trkpt>
      <trkpt lat="48.07151" lon="-3.48473">
        <ele>145.506961</ele>
        <time>2022-06-09T22:30:32.836Z</time>
      </trkpt>
      <trkpt lat="48.07065" lon="-3.48467">
        <ele>145.016935</ele>
        <time>2022-06-09T22:30:57.372Z</time>
      </trkpt>
      <trkpt lat="48.07039" lon="-3.48475">
        <ele>144.662308</ele>
        <time>2022-06-09T22:31:05.037Z</time>
      </trkpt>
      <trkpt lat="48.07014" lon="-3.48504">
        <ele>144.241185</ele>
        <time>2022-06-09T22:31:14.048Z</time>
      </trkpt>
      <trkpt lat="48.07004" lon="-3.48495">
        <ele>144.081164</ele>
        <time>2022-06-09T22:31:15.897Z</time>
      </trkpt>
      <trkpt lat="48.0696" lon="-3.48448">
        <ele>143.352476</ele>
        <time>2022-06-09T22:31:24.668Z</time>
      </trkpt>
      <trkpt lat="48.06945" lon="-3.48426">
        <ele>143.072516</ele>
        <time>2022-06-09T22:31:27.906Z</time>
      </trkpt>
      <trkpt lat="48.06858" lon="-3.48197">
        <ele>141.603647</ele>
        <time>2022-06-09T22:31:57.655Z</time>
      </trkpt>
      <trkpt lat="48.0681" lon="-3.48071">
        <ele>141.63076</ele>
        <time>2022-06-09T22:32:18.130Z</time>
      </trkpt>
      <trkpt lat="48.06788" lon="-3.48014">
        <ele>141.751911</ele>
        <time>2022-06-09T22:32:26.271Z</time>
      </trkpt>
      <trkpt lat="48.06815" lon="-3.47993">
        <ele>141.835394</ele>
        <time>2022-06-09T22:32:33.274Z</time>
      </trkpt>
      <trkpt lat="48.06828" lon="-3.47982">
        <ele>141.877178</ele>
        <time>2022-06-09T22:32:37.046Z</time>
      </trkpt>
      <trkpt lat="48.06867" lon="-3.47941">
        <ele>142.131404</ele>
        <time>2022-06-09T22:32:47.821Z</time>
      </trkpt>
      <trkpt lat="48.06898" lon="-3.47892">
        <ele>142.439434</ele>
        <time>2022-06-09T22:32:57.530Z</time>
      </trkpt>
      <trkpt lat="48.06863" lon="-3.4789">
        <ele>142.673626</ele>
        <time>2022-06-09T22:33:09.023Z</time>
      </trkpt>
      <trkpt lat="48.0678" lon="-3.47924">
        <ele>143.25923</ele>
        <time>2022-06-09T22:33:39.934Z</time>
      </trkpt>
      <trkpt lat="48.0671" lon="-3.47965">
        <ele>143.754828</ele>
        <time>2022-06-09T22:34:08.876Z</time>
      </trkpt>
      <trkpt lat="48.06695" lon="-3.47963">
        <ele>143.855421</ele>
        <time>2022-06-09T22:34:14.033Z</time>
      </trkpt>
      <trkpt lat="48.06695" lon="-3.47963">
        <ele>143.855421</ele>
        <time>2022-06-09T22:34:14.166Z</time>
      </trkpt>
      <trkpt lat="48.06676" lon="-3.47986">
        <ele>144.021042</ele>
        <time>2022-06-09T22:34:18.708Z</time>
      </trkpt>
      <trkpt lat="48.06633" lon="-3.48017">
        <ele>144.336146</ele>
        <time>2022-06-09T22:34:29.194Z</time>
      </trkpt>
      <trkpt lat="48.06607" lon="-3.48032">
        <ele>144.675336</ele>
        <time>2022-06-09T22:34:34.693Z</time>
      </trkpt>
      <trkpt lat="48.06549" lon="-3.48048">
        <ele>145.388339</ele>
        <time>2022-06-09T22:34:47.339Z</time>
      </trkpt>
      <trkpt lat="48.06517" lon="-3.48041">
        <ele>145.779794</ele>
        <time>2022-06-09T22:34:58.963Z</time>
      </trkpt>
      <trkpt lat="48.06398" lon="-3.48061">
        <ele>148.563331</ele>
        <time>2022-06-09T22:35:53.931Z</time>
      </trkpt>
      <trkpt lat="48.0631" lon="-3.47933">
        <ele>152.811996</ele>
        <time>2022-06-09T22:36:58.446Z</time>
      </trkpt>
      <trkpt lat="48.0628" lon="-3.47925">
        <ele>153.438938</ele>
        <time>2022-06-09T22:37:12.708Z</time>
      </trkpt>
      <trkpt lat="48.06207" lon="-3.47933">
        <ele>154.957814</ele>
        <time>2022-06-09T22:37:42.884Z</time>
      </trkpt>
      <trkpt lat="48.06171" lon="-3.47924">
        <ele>155.701441</ele>
        <time>2022-06-09T22:37:56.833Z</time>
      </trkpt>
      <trkpt lat="48.06137" lon="-3.47897">
        <ele>156.505132</ele>
        <time>2022-06-09T22:38:11.636Z</time>
      </trkpt>
      <trkpt lat="48.06112" lon="-3.47887">
        <ele>157.046513</ele>
        <time>2022-06-09T22:38:21.074Z</time>
      </trkpt>
      <trkpt lat="48.06068" lon="-3.47931">
        <ele>158.146656</ele>
        <time>2022-06-09T22:38:36.534Z</time>
      </trkpt>
      <trkpt lat="48.06004" lon="-3.48119">
        <ele>161.269592</ele>
        <time>2022-06-09T22:39:22.395Z</time>
      </trkpt>
      <trkpt lat="48.05998" lon="-3.48126">
        <ele>161.474562</ele>
        <time>2022-06-09T22:39:26.377Z</time>
      </trkpt>
      <trkpt lat="48.05991" lon="-3.48108">
        <ele>161.833684</ele>
        <time>2022-06-09T22:39:32.746Z</time>
      </trkpt>
      <trkpt lat="48.05994" lon="-3.48088">
        <ele>162.185785</ele>
        <time>2022-06-09T22:39:39.108Z</time>
      </trkpt>
      <trkpt lat="48.05943" lon="-3.47979">
        <ele>164.470188</ele>
        <time>2022-06-09T22:40:18.645Z</time>
      </trkpt>
      <trkpt lat="48.05915" lon="-3.47909">
        <ele>165.518689</ele>
        <time>2022-06-09T22:40:42.794Z</time>
      </trkpt>
      <trkpt lat="48.05862" lon="-3.47898">
        <ele>166.436394</ele>
        <time>2022-06-09T22:41:05.069Z</time>
      </trkpt>
      <trkpt lat="48.0582" lon="-3.47857">
        <ele>167.294271</ele>
        <time>2022-06-09T22:41:26.324Z</time>
      </trkpt>
      <trkpt lat="48.05769" lon="-3.47816">
        <ele>167.359769</ele>
        <time>2022-06-09T22:41:46.278Z</time>
      </trkpt>
      <trkpt lat="48.05714" lon="-3.4783">
        <ele>165.920373</ele>
        <time>2022-06-09T22:42:03.608Z</time>
      </trkpt>
      <trkpt lat="48.05706" lon="-3.4784">
        <ele>165.659095</ele>
        <time>2022-06-09T22:42:06.513Z</time>
      </trkpt>
      <trkpt lat="48.05703" lon="-3.47857">
        <ele>165.348604</ele>
        <time>2022-06-09T22:42:09.660Z</time>
      </trkpt>
      <trkpt lat="48.0569" lon="-3.4786">
        <ele>164.994205</ele>
        <time>2022-06-09T22:42:13.110Z</time>
      </trkpt>
      <trkpt lat="48.05619" lon="-3.47847">
        <ele>163.107191</ele>
        <time>2022-06-09T22:42:29.824Z</time>
      </trkpt>
      <trkpt lat="48.05617" lon="-3.47868">
        <ele>162.557959</ele>
        <time>2022-06-09T22:42:31.745Z</time>
      </trkpt>
      <trkpt lat="48.05597" lon="-3.47847">
        <ele>161.635662</ele>
        <time>2022-06-09T22:42:35.060Z</time>
      </trkpt>
      <trkpt lat="48.05561" lon="-3.47787">
        <ele>159.595436</ele>
        <time>2022-06-09T22:42:42.831Z</time>
      </trkpt>
      <trkpt lat="48.05549" lon="-3.47757">
        <ele>158.712712</ele>
        <time>2022-06-09T22:42:46.461Z</time>
      </trkpt>
      <trkpt lat="48.05533" lon="-3.47785">
        <ele>157.779071</ele>
        <time>2022-06-09T22:42:52.981Z</time>
      </trkpt>
      <trkpt lat="48.0549" lon="-3.4783">
        <ele>156.673914</ele>
        <time>2022-06-09T22:43:06.724Z</time>
      </trkpt>
      <trkpt lat="48.05478" lon="-3.47833">
        <ele>156.826609</ele>
        <time>2022-06-09T22:43:09.879Z</time>
      </trkpt>
      <trkpt lat="48.05478" lon="-3.47833">
        <ele>156.826609</ele>
        <time>2022-06-09T22:43:10.042Z</time>
      </trkpt>
      <trkpt lat="48.05478" lon="-3.47833">
        <ele>156.826609</ele>
        <time>2022-06-09T22:43:10.042Z</time>
      </trkpt>
      <trkpt lat="48.05471" lon="-3.47865">
        <ele>157.132563</ele>
        <time>2022-06-09T22:43:19.885Z</time>
      </trkpt>
      <trkpt lat="48.05471" lon="-3.47865">
        <ele>157.132563</ele>
        <time>2022-06-09T22:43:19.885Z</time>
      </trkpt>
      <trkpt lat="48.05446" lon="-3.47858">
        <ele>157.473792</ele>
        <time>2022-06-09T22:43:30.869Z</time>
      </trkpt>
      <trkpt lat="48.05422" lon="-3.47863">
        <ele>157.792816</ele>
        <time>2022-06-09T22:43:42.427Z</time>
      </trkpt>
      <trkpt lat="48.05353" lon="-3.4785">
        <ele>158.712946</ele>
        <time>2022-06-09T22:44:12.957Z</time>
      </trkpt>
      <trkpt lat="48.05319" lon="-3.47832">
        <ele>159.175125</ele>
        <time>2022-06-09T22:44:29.375Z</time>
      </trkpt>
      <trkpt lat="48.05306" lon="-3.47857">
        <ele>159.445321</ele>
        <time>2022-06-09T22:44:37.920Z</time>
      </trkpt>
      <trkpt lat="48.05288" lon="-3.47871">
        <ele>159.691524</ele>
        <time>2022-06-09T22:44:44.978Z</time>
      </trkpt>
      <trkpt lat="48.05261" lon="-3.4788">
        <ele>160.049566</ele>
        <time>2022-06-09T22:44:55.610Z</time>
      </trkpt>
      <trkpt lat="48.05217" lon="-3.47846">
        <ele>160.664273</ele>
        <time>2022-06-09T22:45:13.894Z</time>
      </trkpt>
      <trkpt lat="48.05191" lon="-3.47831">
        <ele>161.023464</ele>
        <time>2022-06-09T22:45:24.357Z</time>
      </trkpt>
      <trkpt lat="48.05179" lon="-3.47834">
        <ele>161.15549</ele>
        <time>2022-06-09T22:45:27.828Z</time>
      </trkpt>
      <trkpt lat="48.05169" lon="-3.4787">
        <ele>161.432133</ele>
        <time>2022-06-09T22:45:35.788Z</time>
      </trkpt>
      <trkpt lat="48.05156" lon="-3.47931">
        <ele>161.881928</ele>
        <time>2022-06-09T22:45:49.564Z</time>
      </trkpt>
      <trkpt lat="48.05155" lon="-3.47958">
        <ele>162.072927</ele>
        <time>2022-06-09T22:45:56.235Z</time>
      </trkpt>
      <trkpt lat="48.05127" lon="-3.48097">
        <ele>163.049712</ele>
        <time>2022-06-09T22:46:37.294Z</time>
      </trkpt>
      <trkpt lat="48.05119" lon="-3.48144">
        <ele>163.240624</ele>
        <time>2022-06-09T22:46:49.113Z</time>
      </trkpt>
      <trkpt lat="48.05107" lon="-3.48188">
        <ele>163.428076</ele>
        <time>2022-06-09T22:46:56.808Z</time>
      </trkpt>
      <trkpt lat="48.05092" lon="-3.48217">
        <ele>163.570883</ele>
        <time>2022-06-09T22:47:02.832Z</time>
      </trkpt>
      <trkpt lat="48.05074" lon="-3.4827">
        <ele>163.804889</ele>
        <time>2022-06-09T22:47:11.368Z</time>
      </trkpt>
      <trkpt lat="48.05033" lon="-3.48237">
        <ele>163.990215</ele>
        <time>2022-06-09T22:47:25.713Z</time>
      </trkpt>
      <trkpt lat="48.05001" lon="-3.48227">
        <ele>163.606631</ele>
        <time>2022-06-09T22:47:35.787Z</time>
      </trkpt>
      <trkpt lat="48.04966" lon="-3.48233">
        <ele>163.192532</ele>
        <time>2022-06-09T22:47:46.211Z</time>
      </trkpt>
      <trkpt lat="48.04903" lon="-3.48258">
        <ele>162.436988</ele>
        <time>2022-06-09T22:48:03.963Z</time>
      </trkpt>
      <trkpt lat="48.0489" lon="-3.48283">
        <ele>162.189595</ele>
        <time>2022-06-09T22:48:09.968Z</time>
      </trkpt>
      <trkpt lat="48.04852" lon="-3.48329">
        <ele>161.752177</ele>
        <time>2022-06-09T22:48:24.250Z</time>
      </trkpt>
      <trkpt lat="48.04844" lon="-3.48379">
        <ele>161.517813</ele>
        <time>2022-06-09T22:48:34.346Z</time>
      </trkpt>
      <trkpt lat="48.04839" lon="-3.48465">
        <ele>161.129011</ele>
        <time>2022-06-09T22:48:51.116Z</time>
      </trkpt>
      <trkpt lat="48.04832" lon="-3.48488">
        <ele>161.01629</ele>
        <time>2022-06-09T22:48:56.059Z</time>
      </trkpt>
      <trkpt lat="48.04819" lon="-3.48476">
        <ele>160.910015</ele>
        <time>2022-06-09T22:49:01.145Z</time>
      </trkpt>
      <trkpt lat="48.04795" lon="-3.4842">
        <ele>161.074431</ele>
        <time>2022-06-09T22:49:16.244Z</time>
      </trkpt>
      <trkpt lat="48.04767" lon="-3.48401">
        <ele>161.683197</ele>
        <time>2022-06-09T22:49:27.531Z</time>
      </trkpt>
      <trkpt lat="48.04745" lon="-3.48377">
        <ele>162.211271</ele>
        <time>2022-06-09T22:49:37.436Z</time>
      </trkpt>
      <trkpt lat="48.04689" lon="-3.48346">
        <ele>163.375816</ele>
        <time>2022-06-09T22:50:02.950Z</time>
      </trkpt>
      <trkpt lat="48.04601" lon="-3.4828">
        <ele>166.415834</ele>
        <time>2022-06-09T22:50:52.311Z</time>
      </trkpt>
      <trkpt lat="48.0457" lon="-3.48266">
        <ele>167.693005</ele>
        <time>2022-06-09T22:51:10.098Z</time>
      </trkpt>
      <trkpt lat="48.04536" lon="-3.48258">
        <ele>169.082602</ele>
        <time>2022-06-09T22:51:29.413Z</time>
      </trkpt>
      <trkpt lat="48.04475" lon="-3.48264">
        <ele>171.485362</ele>
        <time>2022-06-09T22:52:01.371Z</time>
      </trkpt>
      <trkpt lat="48.04443" lon="-3.4825">
        <ele>171.969472</ele>
        <time>2022-06-09T22:52:17.625Z</time>
      </trkpt>
      <trkpt lat="48.04409" lon="-3.48256">
        <ele>172.452448</ele>
        <time>2022-06-09T22:52:32.741Z</time>
      </trkpt>
      <trkpt lat="48.04352" lon="-3.48179">
        <ele>173.556184</ele>
        <time>2022-06-09T22:53:01.943Z</time>
      </trkpt>
      <trkpt lat="48.04232" lon="-3.48058">
        <ele>172.216622</ele>
        <time>2022-06-09T22:53:43.201Z</time>
      </trkpt>
      <trkpt lat="48.04202" lon="-3.48037">
        <ele>171.665006</ele>
        <time>2022-06-09T22:53:52.128Z</time>
      </trkpt>
      <trkpt lat="48.04193" lon="-3.48026">
        <ele>171.475263</ele>
        <time>2022-06-09T22:53:55.058Z</time>
      </trkpt>
      <trkpt lat="48.04212" lon="-3.47991">
        <ele>170.987229</ele>
        <time>2022-06-09T22:54:03.160Z</time>
      </trkpt>
      <trkpt lat="48.04205" lon="-3.47982">
        <ele>170.824326</ele>
        <time>2022-06-09T22:54:05.384Z</time>
      </trkpt>
      <trkpt lat="48.04165" lon="-3.48049">
        <ele>169.746517</ele>
        <time>2022-06-09T22:54:21.757Z</time>
      </trkpt>
      <trkpt lat="48.04087" lon="-3.48193">
        <ele>167.687016</ele>
        <time>2022-06-09T22:54:56.797Z</time>
      </trkpt>
      <trkpt lat="48.04074" lon="-3.48218">
        <ele>167.473267</ele>
        <time>2022-06-09T22:55:03.109Z</time>
      </trkpt>
      <trkpt lat="48.04084" lon="-3.48301">
        <ele>166.907895</ele>
        <time>2022-06-09T22:55:20.286Z</time>
      </trkpt>
      <trkpt lat="48.041" lon="-3.48348">
        <ele>166.558239</ele>
        <time>2022-06-09T22:55:30.849Z</time>
      </trkpt>
      <trkpt lat="48.04162" lon="-3.48397">
        <ele>165.109994</ele>
        <time>2022-06-09T22:55:52.134Z</time>
      </trkpt>
      <trkpt lat="48.04294" lon="-3.48484">
        <ele>158.591391</ele>
        <time>2022-06-09T22:56:28.141Z</time>
      </trkpt>
      <trkpt lat="48.04323" lon="-3.48517">
        <ele>155.55921</ele>
        <time>2022-06-09T22:56:35.865Z</time>
      </trkpt>
      <trkpt lat="48.04301" lon="-3.48524">
        <ele>153.101924</ele>
        <time>2022-06-09T22:56:40.663Z</time>
      </trkpt>
      <trkpt lat="48.04242" lon="-3.48583">
        <ele>145.500695</ele>
        <time>2022-06-09T22:56:55.597Z</time>
      </trkpt>
      <trkpt lat="48.04226" lon="-3.4863">
        <ele>141.668748</ele>
        <time>2022-06-09T22:57:02.976Z</time>
      </trkpt>
      <trkpt lat="48.04204" lon="-3.48769">
        <ele>132.777939</ele>
        <time>2022-06-09T22:57:23.049Z</time>
      </trkpt>
      <trkpt lat="48.04175" lon="-3.48804">
        <ele>129.498956</ele>
        <time>2022-06-09T22:57:31.057Z</time>
      </trkpt>
      <trkpt lat="48.0414" lon="-3.48936">
        <ele>121.998505</ele>
        <time>2022-06-09T22:57:53.158Z</time>
      </trkpt>
      <trkpt lat="48.0414" lon="-3.48936">
        <ele>121.985974</ele>
        <time>2022-06-09T22:57:53.218Z</time>
      </trkpt>
      <trkpt lat="48.04119" lon="-3.48949">
        <ele>121.010238</ele>
        <time>2022-06-09T22:57:58.511Z</time>
      </trkpt>
      <trkpt lat="48.04112" lon="-3.48944">
        <ele>120.653327</ele>
        <time>2022-06-09T22:58:00.506Z</time>
      </trkpt>
      <trkpt lat="48.04064" lon="-3.48861">
        <ele>117.433553</ele>
        <time>2022-06-09T22:58:18.673Z</time>
      </trkpt>
      <trkpt lat="48.04065" lon="-3.48841">
        <ele>116.846791</ele>
        <time>2022-06-09T22:58:20.621Z</time>
      </trkpt>
      <trkpt lat="48.04054" lon="-3.48727">
        <ele>114.728729</ele>
        <time>2022-06-09T22:58:32.491Z</time>
      </trkpt>
      <trkpt lat="48.04054" lon="-3.48727">
        <ele>114.728729</ele>
        <time>2022-06-09T22:58:32.515Z</time>
      </trkpt>
      <trkpt lat="48.04011" lon="-3.48737">
        <ele>114.441309</ele>
        <time>2022-06-09T22:58:44.634Z</time>
      </trkpt>
      <trkpt lat="48.04008" lon="-3.48741">
        <ele>114.416284</ele>
        <time>2022-06-09T22:58:45.724Z</time>
      </trkpt>
      <trkpt lat="48.03994" lon="-3.48756">
        <ele>114.299236</ele>
        <time>2022-06-09T22:58:51.189Z</time>
      </trkpt>
      <trkpt lat="48.03984" lon="-3.48761">
        <ele>114.229007</ele>
        <time>2022-06-09T22:58:53.386Z</time>
      </trkpt>
      <trkpt lat="48.03974" lon="-3.48763">
        <ele>114.167303</ele>
        <time>2022-06-09T22:58:55.253Z</time>
      </trkpt>
      <trkpt lat="48.0397" lon="-3.48764">
        <ele>114.138087</ele>
        <time>2022-06-09T22:58:56.761Z</time>
      </trkpt>
      <trkpt lat="48.03867" lon="-3.4877">
        <ele>115.210696</ele>
        <time>2022-06-09T22:59:36.837Z</time>
      </trkpt>
      <trkpt lat="48.03824" lon="-3.48782">
        <ele>116.524547</ele>
        <time>2022-06-09T22:59:57.211Z</time>
      </trkpt>
      <trkpt lat="48.03717" lon="-3.48859">
        <ele>121.020904</ele>
        <time>2022-06-09T23:00:57.907Z</time>
      </trkpt>
      <trkpt lat="48.03662" lon="-3.48896">
        <ele>124.691327</ele>
        <time>2022-06-09T23:01:27.154Z</time>
      </trkpt>
      <trkpt lat="48.03634" lon="-3.48921">
        <ele>126.681001</ele>
        <time>2022-06-09T23:01:45.540Z</time>
      </trkpt>
      <trkpt lat="48.03617" lon="-3.48933">
        <ele>127.813274</ele>
        <time>2022-06-09T23:01:57.015Z</time>
      </trkpt>
      <trkpt lat="48.03561" lon="-3.48951">
        <ele>131.224108</ele>
        <time>2022-06-09T23:02:29.169Z</time>
      </trkpt>
      <trkpt lat="48.03481" lon="-3.4896">
        <ele>135.826777</ele>
        <time>2022-06-09T23:03:12.527Z</time>
      </trkpt>
      <trkpt lat="48.03448" lon="-3.48965">
        <ele>137.737636</ele>
        <time>2022-06-09T23:03:28.571Z</time>
      </trkpt>
      <trkpt lat="48.03414" lon="-3.48983">
        <ele>139.767449</ele>
        <time>2022-06-09T23:03:44.162Z</time>
      </trkpt>
      <trkpt lat="48.03323" lon="-3.48954">
        <ele>140.667959</ele>
        <time>2022-06-09T23:04:14.459Z</time>
      </trkpt>
      <trkpt lat="48.03291" lon="-3.48955">
        <ele>140.755366</ele>
        <time>2022-06-09T23:04:20.301Z</time>
      </trkpt>
      <trkpt lat="48.03293" lon="-3.48982">
        <ele>140.80547</ele>
        <time>2022-06-09T23:04:23.265Z</time>
      </trkpt>
      <trkpt lat="48.03295" lon="-3.49016">
        <ele>140.867646</ele>
        <time>2022-06-09T23:04:26.668Z</time>
      </trkpt>
      <trkpt lat="48.0328" lon="-3.49038">
        <ele>140.926664</ele>
        <time>2022-06-09T23:04:29.812Z</time>
      </trkpt>
      <trkpt lat="48.03273" lon="-3.4904">
        <ele>140.873227</ele>
        <time>2022-06-09T23:04:30.743Z</time>
      </trkpt>
      <trkpt lat="48.03268" lon="-3.49038">
        <ele>140.63596</ele>
        <time>2022-06-09T23:04:31.936Z</time>
      </trkpt>
      <trkpt lat="48.03258" lon="-3.49036">
        <ele>140.270601</ele>
        <time>2022-06-09T23:04:33.803Z</time>
      </trkpt>
      <trkpt lat="48.03235" lon="-3.49029">
        <ele>139.34241</ele>
        <time>2022-06-09T23:04:38.418Z</time>
      </trkpt>
      <trkpt lat="48.03229" lon="-3.49027">
        <ele>139.101741</ele>
        <time>2022-06-09T23:04:39.283Z</time>
      </trkpt>
      <trkpt lat="48.03216" lon="-3.49024">
        <ele>138.555404</ele>
        <time>2022-06-09T23:04:41.235Z</time>
      </trkpt>
      <trkpt lat="48.03198" lon="-3.49023">
        <ele>137.864109</ele>
        <time>2022-06-09T23:04:43.666Z</time>
      </trkpt>
      <trkpt lat="48.03141" lon="-3.4902">
        <ele>135.592141</ele>
        <time>2022-06-09T23:04:52.118Z</time>
      </trkpt>
      <trkpt lat="48.03133" lon="-3.49021">
        <ele>135.291286</ele>
        <time>2022-06-09T23:04:53.202Z</time>
      </trkpt>
      <trkpt lat="48.03117" lon="-3.4902">
        <ele>134.635644</ele>
        <time>2022-06-09T23:04:55.579Z</time>
      </trkpt>
      <trkpt lat="48.0308" lon="-3.49017">
        <ele>133.102488</ele>
        <time>2022-06-09T23:05:00.756Z</time>
      </trkpt>
      <trkpt lat="48.03055" lon="-3.49011">
        <ele>131.950511</ele>
        <time>2022-06-09T23:05:04.343Z</time>
      </trkpt>
      <trkpt lat="48.03037" lon="-3.49007">
        <ele>131.110533</ele>
        <time>2022-06-09T23:05:06.946Z</time>
      </trkpt>
      <trkpt lat="48.02926" lon="-3.48968">
        <ele>125.957707</ele>
        <time>2022-06-09T23:05:23.427Z</time>
      </trkpt>
      <trkpt lat="48.02898" lon="-3.48963">
        <ele>124.869354</ele>
        <time>2022-06-09T23:05:27.641Z</time>
      </trkpt>
      <trkpt lat="48.02789" lon="-3.48965">
        <ele>120.831708</ele>
        <time>2022-06-09T23:05:44.442Z</time>
      </trkpt>
      <trkpt lat="48.02737" lon="-3.48938">
        <ele>118.60869</ele>
        <time>2022-06-09T23:05:52.522Z</time>
      </trkpt>
      <trkpt lat="48.02675" lon="-3.48904">
        <ele>113.826993</ele>
        <time>2022-06-09T23:06:01.801Z</time>
      </trkpt>
      <trkpt lat="48.02627" lon="-3.48873">
        <ele>110.051767</ele>
        <time>2022-06-09T23:06:08.765Z</time>
      </trkpt>
      <trkpt lat="48.02498" lon="-3.48762">
        <ele>97.483886</ele>
        <time>2022-06-09T23:06:27.621Z</time>
      </trkpt>
      <trkpt lat="48.02414" lon="-3.48686">
        <ele>88.873759</ele>
        <time>2022-06-09T23:06:40.355Z</time>
      </trkpt>
      <trkpt lat="48.02383" lon="-3.48658">
        <ele>87.170487</ele>
        <time>2022-06-09T23:06:45.125Z</time>
      </trkpt>
      <trkpt lat="48.02239" lon="-3.48577">
        <ele>81.296343</ele>
        <time>2022-06-09T23:07:08.131Z</time>
      </trkpt>
      <trkpt lat="48.02217" lon="-3.48573">
        <ele>81.678888</ele>
        <time>2022-06-09T23:07:13.053Z</time>
      </trkpt>
      <trkpt lat="48.02191" lon="-3.48581">
        <ele>82.148806</ele>
        <time>2022-06-09T23:07:19.991Z</time>
      </trkpt>
      <trkpt lat="48.02174" lon="-3.48591">
        <ele>82.48069</ele>
        <time>2022-06-09T23:07:25.695Z</time>
      </trkpt>
      <trkpt lat="48.01925" lon="-3.48722">
        <ele>90.518186</ele>
        <time>2022-06-09T23:09:14.007Z</time>
      </trkpt>
      <trkpt lat="48.01923" lon="-3.4871">
        <ele>90.770165</ele>
        <time>2022-06-09T23:09:17.648Z</time>
      </trkpt>
      <trkpt lat="48.01925" lon="-3.48673">
        <ele>90.816196</ele>
        <time>2022-06-09T23:09:27.335Z</time>
      </trkpt>
      <trkpt lat="48.01952" lon="-3.48555">
        <ele>90.967946</ele>
        <time>2022-06-09T23:09:54.083Z</time>
      </trkpt>
      <trkpt lat="48.01941" lon="-3.48454">
        <ele>91.092172</ele>
        <time>2022-06-09T23:10:13.279Z</time>
      </trkpt>
      <trkpt lat="48.01914" lon="-3.48365">
        <ele>91.482762</ele>
        <time>2022-06-09T23:10:33.130Z</time>
      </trkpt>
      <trkpt lat="48.01866" lon="-3.48194">
        <ele>92.251426</ele>
        <time>2022-06-09T23:11:21.157Z</time>
      </trkpt>
      <trkpt lat="48.01859" lon="-3.48148">
        <ele>92.511708</ele>
        <time>2022-06-09T23:11:34.321Z</time>
      </trkpt>
      <trkpt lat="48.01858" lon="-3.4809">
        <ele>92.83366</ele>
        <time>2022-06-09T23:11:50.144Z</time>
      </trkpt>
      <trkpt lat="48.01858" lon="-3.4809">
        <ele>92.834766</ele>
        <time>2022-06-09T23:11:50.252Z</time>
      </trkpt>
      <trkpt lat="48.0187" lon="-3.48026">
        <ele>93.203054</ele>
        <time>2022-06-09T23:12:06.222Z</time>
      </trkpt>
      <trkpt lat="48.01904" lon="-3.47915">
        <ele>93.177953</ele>
        <time>2022-06-09T23:12:32.420Z</time>
      </trkpt>
      <trkpt lat="48.01913" lon="-3.4786">
        <ele>92.439729</ele>
        <time>2022-06-09T23:12:42.925Z</time>
      </trkpt>
      <trkpt lat="48.01915" lon="-3.47755">
        <ele>91.05227</ele>
        <time>2022-06-09T23:13:01.586Z</time>
      </trkpt>
      <trkpt lat="48.01893" lon="-3.47604">
        <ele>88.256348</ele>
        <time>2022-06-09T23:13:28.697Z</time>
      </trkpt>
      <trkpt lat="48.01891" lon="-3.47592">
        <ele>87.999833</ele>
        <time>2022-06-09T23:13:30.788Z</time>
      </trkpt>
      <trkpt lat="48.01874" lon="-3.4751">
        <ele>86.092007</ele>
        <time>2022-06-09T23:13:45.925Z</time>
      </trkpt>
      <trkpt lat="48.0185" lon="-3.47364">
        <ele>82.077431</ele>
        <time>2022-06-09T23:14:11.018Z</time>
      </trkpt>
      <trkpt lat="48.01855" lon="-3.4731">
        <ele>80.321036</ele>
        <time>2022-06-09T23:14:15.990Z</time>
      </trkpt>
      <trkpt lat="48.01861" lon="-3.47308">
        <ele>80.03169</ele>
        <time>2022-06-09T23:14:16.721Z</time>
      </trkpt>
      <trkpt lat="48.01865" lon="-3.47347">
        <ele>78.745462</ele>
        <time>2022-06-09T23:14:20.501Z</time>
      </trkpt>
      <trkpt lat="48.01874" lon="-3.47347">
        <ele>78.316372</ele>
        <time>2022-06-09T23:14:22.356Z</time>
      </trkpt>
      <trkpt lat="48.01884" lon="-3.47363">
        <ele>77.615996</ele>
        <time>2022-06-09T23:14:26.034Z</time>
      </trkpt>
      <trkpt lat="48.01912" lon="-3.47334">
        <ele>75.987641</ele>
        <time>2022-06-09T23:14:34.049Z</time>
      </trkpt>
      <trkpt lat="48.01936" lon="-3.47319">
        <ele>75.064894</ele>
        <time>2022-06-09T23:14:40.240Z</time>
      </trkpt>
      <trkpt lat="48.01953" lon="-3.47298">
        <ele>74.532608</ele>
        <time>2022-06-09T23:14:46.490Z</time>
      </trkpt>
      <trkpt lat="48.01957" lon="-3.47283">
        <ele>74.269526</ele>
        <time>2022-06-09T23:14:49.011Z</time>
      </trkpt>
      <trkpt lat="48.01953" lon="-3.47256">
        <ele>73.837045</ele>
        <time>2022-06-09T23:14:54.155Z</time>
      </trkpt>
      <trkpt lat="48.01931" lon="-3.4722">
        <ele>73.051955</ele>
        <time>2022-06-09T23:15:02.656Z</time>
      </trkpt>
      <trkpt lat="48.01881" lon="-3.47174">
        <ele>71.64958</ele>
        <time>2022-06-09T23:15:19.260Z</time>
      </trkpt>
      <trkpt lat="48.0186" lon="-3.4718">
        <ele>71.119755</ele>
        <time>2022-06-09T23:15:25.705Z</time>
      </trkpt>
      <trkpt lat="48.01858" lon="-3.47198">
        <ele>70.935641</ele>
        <time>2022-06-09T23:15:28.902Z</time>
      </trkpt>
      <trkpt lat="48.01786" lon="-3.47131">
        <ele>69.685253</ele>
        <time>2022-06-09T23:15:43.834Z</time>
      </trkpt>
      <trkpt lat="48.01743" lon="-3.47077">
        <ele>68.852819</ele>
        <time>2022-06-09T23:15:52.748Z</time>
      </trkpt>
      <trkpt lat="48.01729" lon="-3.47045">
        <ele>68.483268</ele>
        <time>2022-06-09T23:15:56.241Z</time>
      </trkpt>
      <trkpt lat="48.01689" lon="-3.46841">
        <ele>64.784669</ele>
        <time>2022-06-09T23:16:16.910Z</time>
      </trkpt>
      <trkpt lat="48.01673" lon="-3.46782">
        <ele>63.71038</ele>
        <time>2022-06-09T23:16:23.617Z</time>
      </trkpt>
      <trkpt lat="48.01655" lon="-3.46744">
        <ele>63.496636</ele>
        <time>2022-06-09T23:16:28.661Z</time>
      </trkpt>
      <trkpt lat="48.01633" lon="-3.46726">
        <ele>63.324773</ele>
        <time>2022-06-09T23:16:32.851Z</time>
      </trkpt>
      <trkpt lat="48.01614" lon="-3.4672">
        <ele>63.185661</ele>
        <time>2022-06-09T23:16:36.304Z</time>
      </trkpt>
      <trkpt lat="48.01599" lon="-3.46715">
        <ele>63.082405</ele>
        <time>2022-06-09T23:16:38.996Z</time>
      </trkpt>
      <trkpt lat="48.01593" lon="-3.46811">
        <ele>62.636677</ele>
        <time>2022-06-09T23:16:51.530Z</time>
      </trkpt>
      <trkpt lat="48.0157" lon="-3.46923">
        <ele>62.878658</ele>
        <time>2022-06-09T23:17:08.167Z</time>
      </trkpt>
      <trkpt lat="48.01559" lon="-3.46956">
        <ele>63.055832</ele>
        <time>2022-06-09T23:17:13.071Z</time>
      </trkpt>
      <trkpt lat="48.01511" lon="-3.47016">
        <ele>63.495845</ele>
        <time>2022-06-09T23:17:27.177Z</time>
      </trkpt>
      <trkpt lat="48.01492" lon="-3.47033">
        <ele>63.654976</ele>
        <time>2022-06-09T23:17:33.261Z</time>
      </trkpt>
      <trkpt lat="48.0147" lon="-3.47037">
        <ele>64.014381</ele>
        <time>2022-06-09T23:17:39.605Z</time>
      </trkpt>
      <trkpt lat="48.01381" lon="-3.47034">
        <ele>67.216771</ele>
        <time>2022-06-09T23:18:11.666Z</time>
      </trkpt>
      <trkpt lat="48.01258" lon="-3.47006">
        <ele>71.875512</ele>
        <time>2022-06-09T23:19:05.612Z</time>
      </trkpt>
      <trkpt lat="48.01145" lon="-3.47004">
        <ele>76.576905</ele>
        <time>2022-06-09T23:19:54.178Z</time>
      </trkpt>
      <trkpt lat="48.00982" lon="-3.46974">
        <ele>81.222081</ele>
        <time>2022-06-09T23:20:49.064Z</time>
      </trkpt>
      <trkpt lat="48.00933" lon="-3.46974">
        <ele>82.445401</ele>
        <time>2022-06-09T23:21:03.215Z</time>
      </trkpt>
      <trkpt lat="48.00829" lon="-3.46991">
        <ele>84.813391</ele>
        <time>2022-06-09T23:21:36.072Z</time>
      </trkpt>
      <trkpt lat="48.00722" lon="-3.46985">
        <ele>87.733536</ele>
        <time>2022-06-09T23:22:10.318Z</time>
      </trkpt>
      <trkpt lat="48.00677" lon="-3.46976">
        <ele>89.355598</ele>
        <time>2022-06-09T23:22:26.483Z</time>
      </trkpt>
      <trkpt lat="48.00625" lon="-3.46941">
        <ele>91.39603</ele>
        <time>2022-06-09T23:22:48.889Z</time>
      </trkpt>
      <trkpt lat="48.00597" lon="-3.46913">
        <ele>92.574026</ele>
        <time>2022-06-09T23:23:03.444Z</time>
      </trkpt>
      <trkpt lat="48.00534" lon="-3.46848">
        <ele>96.857158</ele>
        <time>2022-06-09T23:23:38.230Z</time>
      </trkpt>
      <trkpt lat="48.00482" lon="-3.46807">
        <ele>100.212843</ele>
        <time>2022-06-09T23:24:07.817Z</time>
      </trkpt>
      <trkpt lat="48.00327" lon="-3.46726">
        <ele>109.844268</ele>
        <time>2022-06-09T23:25:34.996Z</time>
      </trkpt>
      <trkpt lat="48.00295" lon="-3.46711">
        <ele>111.849584</ele>
        <time>2022-06-09T23:25:50.495Z</time>
      </trkpt>
      <trkpt lat="48.00259" lon="-3.46716">
        <ele>113.883993</ele>
        <time>2022-06-09T23:26:07.004Z</time>
      </trkpt>
      <trkpt lat="48.00221" lon="-3.4674">
        <ele>115.409148</ele>
        <time>2022-06-09T23:26:25.107Z</time>
      </trkpt>
      <trkpt lat="48.00175" lon="-3.46752">
        <ele>117.093271</ele>
        <time>2022-06-09T23:26:44.238Z</time>
      </trkpt>
      <trkpt lat="48.00128" lon="-3.4675">
        <ele>118.821727</ele>
        <time>2022-06-09T23:27:02.406Z</time>
      </trkpt>
      <trkpt lat="48.00019" lon="-3.46715">
        <ele>121.190163</ele>
        <time>2022-06-09T23:27:35.066Z</time>
      </trkpt>
      <trkpt lat="47.99852" lon="-3.46623">
        <ele>123.655122</ele>
        <time>2022-06-09T23:28:17.757Z</time>
      </trkpt>
      <trkpt lat="47.99695" lon="-3.46503">
        <ele>127.392183</ele>
        <time>2022-06-09T23:29:11.694Z</time>
      </trkpt>
      <trkpt lat="47.99492" lon="-3.46379">
        <ele>133.685211</ele>
        <time>2022-06-09T23:30:36.003Z</time>
      </trkpt>
      <trkpt lat="47.99477" lon="-3.46368">
        <ele>134.121246</ele>
        <time>2022-06-09T23:30:41.459Z</time>
      </trkpt>
      <trkpt lat="47.99426" lon="-3.46357">
        <ele>135.517323</ele>
        <time>2022-06-09T23:30:56.034Z</time>
      </trkpt>
      <trkpt lat="47.99375" lon="-3.46325">
        <ele>135.128906</ele>
        <time>2022-06-09T23:31:08.354Z</time>
      </trkpt>
      <trkpt lat="47.99361" lon="-3.4631">
        <ele>134.930935</ele>
        <time>2022-06-09T23:31:11.710Z</time>
      </trkpt>
      <trkpt lat="47.99207" lon="-3.46127">
        <ele>131.83824</ele>
        <time>2022-06-09T23:31:43.611Z</time>
      </trkpt>
      <trkpt lat="47.9915" lon="-3.46044">
        <ele>130.064487</ele>
        <time>2022-06-09T23:31:56.242Z</time>
      </trkpt>
      <trkpt lat="47.98986" lon="-3.45766">
        <ele>126.548157</ele>
        <time>2022-06-09T23:32:38.370Z</time>
      </trkpt>
      <trkpt lat="47.98906" lon="-3.45666">
        <ele>126.080213</ele>
        <time>2022-06-09T23:33:00.128Z</time>
      </trkpt>
      <trkpt lat="47.98869" lon="-3.45635">
        <ele>125.893704</ele>
        <time>2022-06-09T23:33:09.295Z</time>
      </trkpt>
      <trkpt lat="47.98707" lon="-3.45499">
        <ele>124.971298</ele>
        <time>2022-06-09T23:33:44.403Z</time>
      </trkpt>
      <trkpt lat="47.98622" lon="-3.45408">
        <ele>123.922647</ele>
        <time>2022-06-09T23:34:02.496Z</time>
      </trkpt>
      <trkpt lat="47.98318" lon="-3.45331">
        <ele>122.71786</ele>
        <time>2022-06-09T23:34:58.903Z</time>
      </trkpt>
      <trkpt lat="47.9828" lon="-3.4533">
        <ele>123.095292</ele>
        <time>2022-06-09T23:35:09.583Z</time>
      </trkpt>
      <trkpt lat="47.98153" lon="-3.45382">
        <ele>125.675795</ele>
        <time>2022-06-09T23:35:54.690Z</time>
      </trkpt>
      <trkpt lat="47.98131" lon="-3.45383">
        <ele>126.307544</ele>
        <time>2022-06-09T23:36:03.134Z</time>
      </trkpt>
      <trkpt lat="47.98115" lon="-3.45369">
        <ele>126.847296</ele>
        <time>2022-06-09T23:36:09.984Z</time>
      </trkpt>
      <trkpt lat="47.98065" lon="-3.45268">
        <ele>129.064456</ele>
        <time>2022-06-09T23:36:38.881Z</time>
      </trkpt>
      <trkpt lat="47.9803" lon="-3.45236">
        <ele>129.626887</ele>
        <time>2022-06-09T23:36:51.920Z</time>
      </trkpt>
      <trkpt lat="47.97986" lon="-3.45208">
        <ele>130.290687</ele>
        <time>2022-06-09T23:37:04.718Z</time>
      </trkpt>
      <trkpt lat="47.97934" lon="-3.45199">
        <ele>130.99468</ele>
        <time>2022-06-09T23:37:16.236Z</time>
      </trkpt>
      <trkpt lat="47.97916" lon="-3.45204">
        <ele>131.252819</ele>
        <time>2022-06-09T23:37:21.043Z</time>
      </trkpt>
      <trkpt lat="47.97868" lon="-3.45187">
        <ele>131.497993</ele>
        <time>2022-06-09T23:37:32.739Z</time>
      </trkpt>
      <trkpt lat="47.97821" lon="-3.45151">
        <ele>131.672609</ele>
        <time>2022-06-09T23:37:44.459Z</time>
      </trkpt>
      <trkpt lat="47.97804" lon="-3.45146">
        <ele>131.731197</ele>
        <time>2022-06-09T23:37:48.159Z</time>
      </trkpt>
      <trkpt lat="47.97793" lon="-3.45157">
        <ele>131.776322</ele>
        <time>2022-06-09T23:37:50.824Z</time>
      </trkpt>
      <trkpt lat="47.97744" lon="-3.45213">
        <ele>131.959409</ele>
        <time>2022-06-09T23:38:02.598Z</time>
      </trkpt>
      <trkpt lat="47.97631" lon="-3.45316">
        <ele>131.988927</ele>
        <time>2022-06-09T23:38:29.850Z</time>
      </trkpt>
      <trkpt lat="47.9756" lon="-3.45457">
        <ele>131.585531</ele>
        <time>2022-06-09T23:38:50.723Z</time>
      </trkpt>
      <trkpt lat="47.97548" lon="-3.45472">
        <ele>131.503393</ele>
        <time>2022-06-09T23:38:53.452Z</time>
      </trkpt>
      <trkpt lat="47.97517" lon="-3.45491">
        <ele>131.32272</ele>
        <time>2022-06-09T23:38:59.460Z</time>
      </trkpt>
      <trkpt lat="47.97439" lon="-3.45543">
        <ele>130.779863</ele>
        <time>2022-06-09T23:39:14.574Z</time>
      </trkpt>
      <trkpt lat="47.97377" lon="-3.45558">
        <ele>130.264316</ele>
        <time>2022-06-09T23:39:25.827Z</time>
      </trkpt>
      <trkpt lat="47.97366" lon="-3.45571">
        <ele>130.154526</ele>
        <time>2022-06-09T23:39:28.167Z</time>
      </trkpt>
      <trkpt lat="47.97301" lon="-3.45721">
        <ele>128.535887</ele>
        <time>2022-06-09T23:39:48.225Z</time>
      </trkpt>
      <trkpt lat="47.97255" lon="-3.45765">
        <ele>127.379766</ele>
        <time>2022-06-09T23:39:56.601Z</time>
      </trkpt>
      <trkpt lat="47.97218" lon="-3.45824">
        <ele>126.238938</ele>
        <time>2022-06-09T23:40:04.677Z</time>
      </trkpt>
      <trkpt lat="47.97193" lon="-3.45898">
        <ele>124.774451</ele>
        <time>2022-06-09T23:40:12.596Z</time>
      </trkpt>
      <trkpt lat="47.97145" lon="-3.4597">
        <ele>122.700426</ele>
        <time>2022-06-09T23:40:22.412Z</time>
      </trkpt>
      <trkpt lat="47.97105" lon="-3.46085">
        <ele>120.117769</ele>
        <time>2022-06-09T23:40:34.966Z</time>
      </trkpt>
      <trkpt lat="47.96969" lon="-3.4628">
        <ele>115.107871</ele>
        <time>2022-06-09T23:41:03.135Z</time>
      </trkpt>
      <trkpt lat="47.96934" lon="-3.46295">
        <ele>114.039874</ele>
        <time>2022-06-09T23:41:08.546Z</time>
      </trkpt>
      <trkpt lat="47.96919" lon="-3.46295">
        <ele>113.598177</ele>
        <time>2022-06-09T23:41:10.784Z</time>
      </trkpt>
      <trkpt lat="47.96892" lon="-3.46283">
        <ele>112.784728</ele>
        <time>2022-06-09T23:41:14.879Z</time>
      </trkpt>
      <trkpt lat="47.96843" lon="-3.4625">
        <ele>111.190932</ele>
        <time>2022-06-09T23:41:22.862Z</time>
      </trkpt>
      <trkpt lat="47.96806" lon="-3.46215">
        <ele>109.71463</ele>
        <time>2022-06-09T23:41:29.072Z</time>
      </trkpt>
      <trkpt lat="47.96728" lon="-3.46093">
        <ele>104.577094</ele>
        <time>2022-06-09T23:41:44.568Z</time>
      </trkpt>
      <trkpt lat="47.96706" lon="-3.46078">
        <ele>103.47887</ele>
        <time>2022-06-09T23:41:47.724Z</time>
      </trkpt>
      <trkpt lat="47.9667" lon="-3.46066">
        <ele>101.730517</ele>
        <time>2022-06-09T23:41:52.520Z</time>
      </trkpt>
      <trkpt lat="47.96586" lon="-3.46047">
        <ele>97.002925</ele>
        <time>2022-06-09T23:42:03.552Z</time>
      </trkpt>
      <trkpt lat="47.96517" lon="-3.46055">
        <ele>93.145927</ele>
        <time>2022-06-09T23:42:12.647Z</time>
      </trkpt>
      <trkpt lat="47.96483" lon="-3.46041">
        <ele>91.314674</ele>
        <time>2022-06-09T23:42:17.350Z</time>
      </trkpt>
      <trkpt lat="47.96453" lon="-3.46049">
        <ele>89.906313</ele>
        <time>2022-06-09T23:42:21.399Z</time>
      </trkpt>
      <trkpt lat="47.96391" lon="-3.46082">
        <ele>86.799834</ele>
        <time>2022-06-09T23:42:30.420Z</time>
      </trkpt>
      <trkpt lat="47.96369" lon="-3.46081">
        <ele>85.732532</ele>
        <time>2022-06-09T23:42:33.443Z</time>
      </trkpt>
      <trkpt lat="47.96287" lon="-3.46027">
        <ele>81.486142</ele>
        <time>2022-06-09T23:42:45.458Z</time>
      </trkpt>
      <trkpt lat="47.96238" lon="-3.46022">
        <ele>79.141969</ele>
        <time>2022-06-09T23:42:51.955Z</time>
      </trkpt>
      <trkpt lat="47.96203" lon="-3.4603">
        <ele>77.463758</ele>
        <time>2022-06-09T23:42:56.640Z</time>
      </trkpt>
      <trkpt lat="47.96189" lon="-3.4604">
        <ele>76.730068</ele>
        <time>2022-06-09T23:42:58.732Z</time>
      </trkpt>
      <trkpt lat="47.9616" lon="-3.46091">
        <ele>74.792594</ele>
        <time>2022-06-09T23:43:04.805Z</time>
      </trkpt>
      <trkpt lat="47.96144" lon="-3.46104">
        <ele>74.243774</ele>
        <time>2022-06-09T23:43:07.309Z</time>
      </trkpt>
      <trkpt lat="47.96128" lon="-3.46106">
        <ele>73.746021</ele>
        <time>2022-06-09T23:43:09.663Z</time>
      </trkpt>
      <trkpt lat="47.96081" lon="-3.46095">
        <ele>72.321453</ele>
        <time>2022-06-09T23:43:16.685Z</time>
      </trkpt>
      <trkpt lat="47.96059" lon="-3.46103">
        <ele>71.665291</ele>
        <time>2022-06-09T23:43:19.988Z</time>
      </trkpt>
      <trkpt lat="47.96042" lon="-3.46115">
        <ele>71.100522</ele>
        <time>2022-06-09T23:43:22.859Z</time>
      </trkpt>
      <trkpt lat="47.96013" lon="-3.46158">
        <ele>69.874455</ele>
        <time>2022-06-09T23:43:29.064Z</time>
      </trkpt>
      <trkpt lat="47.96" lon="-3.46171">
        <ele>69.422691</ele>
        <time>2022-06-09T23:43:31.488Z</time>
      </trkpt>
      <trkpt lat="47.95974" lon="-3.46174">
        <ele>68.707495</ele>
        <time>2022-06-09T23:43:35.475Z</time>
      </trkpt>
      <trkpt lat="47.95925" lon="-3.46147">
        <ele>67.28623</ele>
        <time>2022-06-09T23:43:43.220Z</time>
      </trkpt>
      <trkpt lat="47.95844" lon="-3.46177">
        <ele>65.003622</ele>
        <time>2022-06-09T23:43:55.340Z</time>
      </trkpt>
      <trkpt lat="47.95817" lon="-3.46172">
        <ele>64.183495</ele>
        <time>2022-06-09T23:43:59.295Z</time>
      </trkpt>
      <trkpt lat="47.95754" lon="-3.46138">
        <ele>62.124056</ele>
        <time>2022-06-09T23:44:08.849Z</time>
      </trkpt>
      <trkpt lat="47.9563" lon="-3.46118">
        <ele>58.621452</ele>
        <time>2022-06-09T23:44:27.043Z</time>
      </trkpt>
      <trkpt lat="47.95593" lon="-3.46129">
        <ele>57.893703</ele>
        <time>2022-06-09T23:44:32.815Z</time>
      </trkpt>
      <trkpt lat="47.95567" lon="-3.46154">
        <ele>57.301712</ele>
        <time>2022-06-09T23:44:37.649Z</time>
      </trkpt>
      <trkpt lat="47.95548" lon="-3.46193">
        <ele>56.678886</ele>
        <time>2022-06-09T23:44:42.855Z</time>
      </trkpt>
      <trkpt lat="47.95521" lon="-3.46287">
        <ele>55.625557</ele>
        <time>2022-06-09T23:44:54.154Z</time>
      </trkpt>
      <trkpt lat="47.9551" lon="-3.46305">
        <ele>55.514372</ele>
        <time>2022-06-09T23:44:56.861Z</time>
      </trkpt>
      <trkpt lat="47.95497" lon="-3.46314">
        <ele>55.416499</ele>
        <time>2022-06-09T23:44:59.283Z</time>
      </trkpt>
      <trkpt lat="47.9545" lon="-3.46328">
        <ele>55.084842</ele>
        <time>2022-06-09T23:45:07.621Z</time>
      </trkpt>
      <trkpt lat="47.9545" lon="-3.46328">
        <ele>55.084152</ele>
        <time>2022-06-09T23:45:07.627Z</time>
      </trkpt>
      <trkpt lat="47.95391" lon="-3.46323">
        <ele>54.673434</ele>
        <time>2022-06-09T23:45:18.421Z</time>
      </trkpt>
      <trkpt lat="47.95313" lon="-3.46332">
        <ele>54.467017</ele>
        <time>2022-06-09T23:45:32.677Z</time>
      </trkpt>
      <trkpt lat="47.95265" lon="-3.46339">
        <ele>54.410427</ele>
        <time>2022-06-09T23:45:42.134Z</time>
      </trkpt>
      <trkpt lat="47.95172" lon="-3.46369">
        <ele>54.271242</ele>
        <time>2022-06-09T23:46:00.331Z</time>
      </trkpt>
      <trkpt lat="47.95136" lon="-3.46368">
        <ele>54.17996</ele>
        <time>2022-06-09T23:46:07.169Z</time>
      </trkpt>
      <trkpt lat="47.95046" lon="-3.46341">
        <ele>53.951257</ele>
        <time>2022-06-09T23:46:23.747Z</time>
      </trkpt>
      <trkpt lat="47.95008" lon="-3.46303">
        <ele>53.867095</ele>
        <time>2022-06-09T23:46:32.355Z</time>
      </trkpt>
      <trkpt lat="47.94983" lon="-3.46288">
        <ele>53.855497</ele>
        <time>2022-06-09T23:46:36.985Z</time>
      </trkpt>
      <trkpt lat="47.94928" lon="-3.46283">
        <ele>53.83198</ele>
        <time>2022-06-09T23:46:46.879Z</time>
      </trkpt>
      <trkpt lat="47.94833" lon="-3.46322">
        <ele>54.120641</ele>
        <time>2022-06-09T23:47:06.850Z</time>
      </trkpt>
      <trkpt lat="47.94803" lon="-3.46343">
        <ele>54.812071</ele>
        <time>2022-06-09T23:47:15.295Z</time>
      </trkpt>
      <trkpt lat="47.94721" lon="-3.46438">
        <ele>57.004495</ele>
        <time>2022-06-09T23:47:45.798Z</time>
      </trkpt>
      <trkpt lat="47.94674" lon="-3.4646">
        <ele>58.650776</ele>
        <time>2022-06-09T23:48:04.357Z</time>
      </trkpt>
      <trkpt lat="47.94664" lon="-3.46485">
        <ele>59.65651</ele>
        <time>2022-06-09T23:48:12.545Z</time>
      </trkpt>
      <trkpt lat="47.94657" lon="-3.46526">
        <ele>61.079137</ele>
        <time>2022-06-09T23:48:25.527Z</time>
      </trkpt>
      <trkpt lat="47.94647" lon="-3.46539">
        <ele>61.723718</ele>
        <time>2022-06-09T23:48:32.617Z</time>
      </trkpt>
      <trkpt lat="47.94529" lon="-3.46602">
        <ele>66.849392</ele>
        <time>2022-06-09T23:49:33.692Z</time>
      </trkpt>
      <trkpt lat="47.94503" lon="-3.46624">
        <ele>67.036518</ele>
        <time>2022-06-09T23:49:43.747Z</time>
      </trkpt>
      <trkpt lat="47.94475" lon="-3.46661">
        <ele>67.262902</ele>
        <time>2022-06-09T23:49:51.334Z</time>
      </trkpt>
      <trkpt lat="47.94466" lon="-3.46687">
        <ele>67.384152</ele>
        <time>2022-06-09T23:49:54.864Z</time>
      </trkpt>
      <trkpt lat="47.94445" lon="-3.46782">
        <ele>67.6828</ele>
        <time>2022-06-09T23:50:05.571Z</time>
      </trkpt>
      <trkpt lat="47.94437" lon="-3.46801">
        <ele>66.873269</ele>
        <time>2022-06-09T23:50:07.680Z</time>
      </trkpt>
      <trkpt lat="47.9443" lon="-3.4681">
        <ele>66.400174</ele>
        <time>2022-06-09T23:50:08.970Z</time>
      </trkpt>
      <trkpt lat="47.94425" lon="-3.46815">
        <ele>66.076538</ele>
        <time>2022-06-09T23:50:09.802Z</time>
      </trkpt>
      <trkpt lat="47.94411" lon="-3.4682">
        <ele>65.316639</ele>
        <time>2022-06-09T23:50:11.628Z</time>
      </trkpt>
      <trkpt lat="47.9439" lon="-3.46811">
        <ele>64.175307</ele>
        <time>2022-06-09T23:50:14.459Z</time>
      </trkpt>
      <trkpt lat="47.9432" lon="-3.46722">
        <ele>59.336854</ele>
        <time>2022-06-09T23:50:26.200Z</time>
      </trkpt>
      <trkpt lat="47.94257" lon="-3.46702">
        <ele>56.080251</ele>
        <time>2022-06-09T23:50:34.700Z</time>
      </trkpt>
      <trkpt lat="47.94203" lon="-3.46651">
        <ele>52.89376</ele>
        <time>2022-06-09T23:50:43.341Z</time>
      </trkpt>
      <trkpt lat="47.94151" lon="-3.4654">
        <ele>49.095792</ele>
        <time>2022-06-09T23:50:55.331Z</time>
      </trkpt>
      <trkpt lat="47.94096" lon="-3.46459">
        <ele>48.032281</ele>
        <time>2022-06-09T23:51:06.584Z</time>
      </trkpt>
      <trkpt lat="47.94056" lon="-3.46418">
        <ele>47.367785</ele>
        <time>2022-06-09T23:51:15.175Z</time>
      </trkpt>
      <trkpt lat="47.94054" lon="-3.46323">
        <ele>48.450339</ele>
        <time>2022-06-09T23:51:35.383Z</time>
      </trkpt>
      <trkpt lat="47.94037" lon="-3.46119">
        <ele>55.662804</ele>
        <time>2022-06-09T23:52:44.575Z</time>
      </trkpt>
      <trkpt lat="47.94033" lon="-3.45978">
        <ele>61.153231</ele>
        <time>2022-06-09T23:53:32.811Z</time>
      </trkpt>
      <trkpt lat="47.94035" lon="-3.45886">
        <ele>64.749271</ele>
        <time>2022-06-09T23:54:02.662Z</time>
      </trkpt>
      <trkpt lat="47.94043" lon="-3.45809">
        <ele>67.702458</ele>
        <time>2022-06-09T23:54:26.029Z</time>
      </trkpt>
      <trkpt lat="47.94043" lon="-3.4571">
        <ele>70.999321</ele>
        <time>2022-06-09T23:54:54.880Z</time>
      </trkpt>
      <trkpt lat="47.94027" lon="-3.45624">
        <ele>73.952601</ele>
        <time>2022-06-09T23:55:21.754Z</time>
      </trkpt>
      <trkpt lat="47.94011" lon="-3.45592">
        <ele>75.271712</ele>
        <time>2022-06-09T23:55:33.961Z</time>
      </trkpt>
      <trkpt lat="47.93931" lon="-3.45489">
        <ele>79.662923</ele>
        <time>2022-06-09T23:56:16.877Z</time>
      </trkpt>
      <trkpt lat="47.93922" lon="-3.45474">
        <ele>80.204324</ele>
        <time>2022-06-09T23:56:21.699Z</time>
      </trkpt>
      <trkpt lat="47.93914" lon="-3.45434">
        <ele>81.342427</ele>
        <time>2022-06-09T23:56:32.581Z</time>
      </trkpt>
      <trkpt lat="47.93918" lon="-3.45341">
        <ele>83.74057</ele>
        <time>2022-06-09T23:56:55.715Z</time>
      </trkpt>
      <trkpt lat="47.9395" lon="-3.45042">
        <ele>90.80994</ele>
        <time>2022-06-09T23:58:08.272Z</time>
      </trkpt>
      <trkpt lat="47.93965" lon="-3.44911">
        <ele>94.050986</ele>
        <time>2022-06-09T23:58:46.540Z</time>
      </trkpt>
      <trkpt lat="47.93966" lon="-3.44884">
        <ele>94.700494</ele>
        <time>2022-06-09T23:58:53.128Z</time>
      </trkpt>
      <trkpt lat="47.93906" lon="-3.44884">
        <ele>96.047608</ele>
        <time>2022-06-09T23:59:12.214Z</time>
      </trkpt>
      <trkpt lat="47.93873" lon="-3.44907">
        <ele>96.327966</ele>
        <time>2022-06-09T23:59:21.466Z</time>
      </trkpt>
      <trkpt lat="47.93846" lon="-3.44989">
        <ele>96.78884</ele>
        <time>2022-06-09T23:59:36.024Z</time>
      </trkpt>
      <trkpt lat="47.93829" lon="-3.45018">
        <ele>96.988367</ele>
        <time>2022-06-09T23:59:41.872Z</time>
      </trkpt>
      <trkpt lat="47.93809" lon="-3.45035">
        <ele>97.169411</ele>
        <time>2022-06-09T23:59:46.045Z</time>
      </trkpt>
      <trkpt lat="47.93647" lon="-3.44982">
        <ele>95.697085</ele>
        <time>2022-06-10T00:00:14.365Z</time>
      </trkpt>
      <trkpt lat="47.93546" lon="-3.44875">
        <ele>96.543302</ele>
        <time>2022-06-10T00:00:45.499Z</time>
      </trkpt>
      <trkpt lat="47.93503" lon="-3.44826">
        <ele>97.058295</ele>
        <time>2022-06-10T00:01:00.737Z</time>
      </trkpt>
      <trkpt lat="47.93457" lon="-3.44773">
        <ele>97.320346</ele>
        <time>2022-06-10T00:01:16.451Z</time>
      </trkpt>
      <trkpt lat="47.9337" lon="-3.44627">
        <ele>97.5573</ele>
        <time>2022-06-10T00:01:43.883Z</time>
      </trkpt>
      <trkpt lat="47.93271" lon="-3.44526">
        <ele>94.80316</ele>
        <time>2022-06-10T00:02:04.019Z</time>
      </trkpt>
      <trkpt lat="47.93255" lon="-3.44485">
        <ele>93.994672</ele>
        <time>2022-06-10T00:02:08.840Z</time>
      </trkpt>
      <trkpt lat="47.93237" lon="-3.44394">
        <ele>91.429128</ele>
        <time>2022-06-10T00:02:18.070Z</time>
      </trkpt>
      <trkpt lat="47.93222" lon="-3.44409">
        <ele>90.275118</ele>
        <time>2022-06-10T00:02:20.553Z</time>
      </trkpt>
      <trkpt lat="47.93207" lon="-3.44439">
        <ele>88.645668</ele>
        <time>2022-06-10T00:02:23.816Z</time>
      </trkpt>
      <trkpt lat="47.93186" lon="-3.44459">
        <ele>87.055002</ele>
        <time>2022-06-10T00:02:27.001Z</time>
      </trkpt>
      <trkpt lat="47.93125" lon="-3.44476">
        <ele>83.014552</ele>
        <time>2022-06-10T00:02:34.798Z</time>
      </trkpt>
      <trkpt lat="47.93099" lon="-3.44482">
        <ele>81.345555</ele>
        <time>2022-06-10T00:02:37.957Z</time>
      </trkpt>
      <trkpt lat="47.9307" lon="-3.44502">
        <ele>78.756629</ele>
        <time>2022-06-10T00:02:41.976Z</time>
      </trkpt>
      <trkpt lat="47.92984" lon="-3.446">
        <ele>70.236062</ele>
        <time>2022-06-10T00:02:55.251Z</time>
      </trkpt>
      <trkpt lat="47.92925" lon="-3.44668">
        <ele>64.717876</ele>
        <time>2022-06-10T00:03:04.543Z</time>
      </trkpt>
      <trkpt lat="47.92917" lon="-3.44702">
        <ele>63.033843</ele>
        <time>2022-06-10T00:03:07.640Z</time>
      </trkpt>
      <trkpt lat="47.92913" lon="-3.44752">
        <ele>60.748347</ele>
        <time>2022-06-10T00:03:11.841Z</time>
      </trkpt>
      <trkpt lat="47.92715" lon="-3.44698">
        <ele>47.54427</ele>
        <time>2022-06-10T00:03:39.390Z</time>
      </trkpt>
      <trkpt lat="47.92682" lon="-3.44712">
        <ele>45.393894</ele>
        <time>2022-06-10T00:03:44.046Z</time>
      </trkpt>
      <trkpt lat="47.92644" lon="-3.44755">
        <ele>42.590324</ele>
        <time>2022-06-10T00:03:50.458Z</time>
      </trkpt>
      <trkpt lat="47.92601" lon="-3.44804">
        <ele>39.714532</ele>
        <time>2022-06-10T00:03:57.941Z</time>
      </trkpt>
      <trkpt lat="47.9253" lon="-3.44882">
        <ele>35.042522</ele>
        <time>2022-06-10T00:04:10.496Z</time>
      </trkpt>
      <trkpt lat="47.92497" lon="-3.449">
        <ele>33.553163</ele>
        <time>2022-06-10T00:04:15.638Z</time>
      </trkpt>
      <trkpt lat="47.92482" lon="-3.44909">
        <ele>33.128744</ele>
        <time>2022-06-10T00:04:17.944Z</time>
      </trkpt>
      <trkpt lat="47.92512" lon="-3.44993">
        <ele>31.405916</ele>
        <time>2022-06-10T00:04:34.343Z</time>
      </trkpt>
      <trkpt lat="47.92517" lon="-3.45025">
        <ele>30.811821</ele>
        <time>2022-06-10T00:04:40.226Z</time>
      </trkpt>
      <trkpt lat="47.92525" lon="-3.45093">
        <ele>29.552924</ele>
        <time>2022-06-10T00:04:53.071Z</time>
      </trkpt>
      <trkpt lat="47.92525" lon="-3.45188">
        <ele>28.712283</ele>
        <time>2022-06-10T00:05:11.810Z</time>
      </trkpt>
      <trkpt lat="47.92532" lon="-3.45254">
        <ele>28.366107</ele>
        <time>2022-06-10T00:05:25.107Z</time>
      </trkpt>
      <trkpt lat="47.92525" lon="-3.45268">
        <ele>28.279469</ele>
        <time>2022-06-10T00:05:28.443Z</time>
      </trkpt>
      <trkpt lat="47.92504" lon="-3.45276">
        <ele>28.110713</ele>
        <time>2022-06-10T00:05:34.969Z</time>
      </trkpt>
      <trkpt lat="47.92472" lon="-3.45265">
        <ele>27.860637</ele>
        <time>2022-06-10T00:05:44.790Z</time>
      </trkpt>
      <trkpt lat="47.92448" lon="-3.45274">
        <ele>27.683257</ele>
        <time>2022-06-10T00:05:52.512Z</time>
      </trkpt>
      <trkpt lat="47.92451" lon="-3.45338">
        <ele>27.799384</ele>
        <time>2022-06-10T00:06:05.804Z</time>
      </trkpt>
      <trkpt lat="47.92438" lon="-3.45442">
        <ele>27.991</ele>
        <time>2022-06-10T00:06:28.712Z</time>
      </trkpt>
      <trkpt lat="47.92437" lon="-3.455">
        <ele>28.096235</ele>
        <time>2022-06-10T00:06:41.946Z</time>
      </trkpt>
      <trkpt lat="47.92409" lon="-3.45651">
        <ele>31.92967</ele>
        <time>2022-06-10T00:07:22.228Z</time>
      </trkpt>
      <trkpt lat="47.92392" lon="-3.45703">
        <ele>33.795464</ele>
        <time>2022-06-10T00:07:48.166Z</time>
      </trkpt>
      <trkpt lat="47.92386" lon="-3.4578">
        <ele>36.251021</ele>
        <time>2022-06-10T00:08:28.182Z</time>
      </trkpt>
      <trkpt lat="47.92393" lon="-3.45816">
        <ele>37.307598</ele>
        <time>2022-06-10T00:08:44.932Z</time>
      </trkpt>
      <trkpt lat="47.92377" lon="-3.45824">
        <ele>37.954552</ele>
        <time>2022-06-10T00:08:57.014Z</time>
      </trkpt>
      <trkpt lat="47.92362" lon="-3.45823">
        <ele>38.503725</ele>
        <time>2022-06-10T00:09:05.194Z</time>
      </trkpt>
      <trkpt lat="47.92331" lon="-3.4582">
        <ele>39.682683</ele>
        <time>2022-06-10T00:09:23.553Z</time>
      </trkpt>
      <trkpt lat="47.92309" lon="-3.4583">
        <ele>40.536195</ele>
        <time>2022-06-10T00:09:36.227Z</time>
      </trkpt>
      <trkpt lat="47.9229" lon="-3.45655">
        <ele>42.138803</ele>
        <time>2022-06-10T00:10:20.635Z</time>
      </trkpt>
      <trkpt lat="47.92282" lon="-3.45624">
        <ele>41.443949</ele>
        <time>2022-06-10T00:10:26.209Z</time>
      </trkpt>
      <trkpt lat="47.92273" lon="-3.45602">
        <ele>40.899369</ele>
        <time>2022-06-10T00:10:30.072Z</time>
      </trkpt>
      <trkpt lat="47.92243" lon="-3.45561">
        <ele>39.607632</ele>
        <time>2022-06-10T00:10:39.246Z</time>
      </trkpt>
      <trkpt lat="47.92196" lon="-3.45507">
        <ele>37.770889</ele>
        <time>2022-06-10T00:10:54.135Z</time>
      </trkpt>
      <trkpt lat="47.92168" lon="-3.45486">
        <ele>38.328035</ele>
        <time>2022-06-10T00:11:03.058Z</time>
      </trkpt>
      <trkpt lat="47.92149" lon="-3.4548">
        <ele>38.67563</ele>
        <time>2022-06-10T00:11:09.491Z</time>
      </trkpt>
      <trkpt lat="47.92093" lon="-3.455">
        <ele>39.685103</ele>
        <time>2022-06-10T00:11:36.564Z</time>
      </trkpt>
      <trkpt lat="47.92073" lon="-3.4552">
        <ele>40.122117</ele>
        <time>2022-06-10T00:11:44.481Z</time>
      </trkpt>
      <trkpt lat="47.92072" lon="-3.45537">
        <ele>40.326825</ele>
        <time>2022-06-10T00:11:54.646Z</time>
      </trkpt>
      <trkpt lat="47.9206" lon="-3.45556">
        <ele>40.633674</ele>
        <time>2022-06-10T00:12:01.093Z</time>
      </trkpt>
      <trkpt lat="47.92049" lon="-3.45597">
        <ele>41.624127</ele>
        <time>2022-06-10T00:12:18.588Z</time>
      </trkpt>
      <trkpt lat="47.92055" lon="-3.45656">
        <ele>43.87806</ele>
        <time>2022-06-10T00:12:41.757Z</time>
      </trkpt>
      <trkpt lat="47.92053" lon="-3.45668">
        <ele>44.356823</ele>
        <time>2022-06-10T00:12:45.288Z</time>
      </trkpt>
      <trkpt lat="47.91985" lon="-3.45777">
        <ele>50.001325</ele>
        <time>2022-06-10T00:13:49.986Z</time>
      </trkpt>
      <trkpt lat="47.91932" lon="-3.45963">
        <ele>58.052415</ele>
        <time>2022-06-10T00:15:10.057Z</time>
      </trkpt>
      <trkpt lat="47.91893" lon="-3.46042">
        <ele>61.946336</ele>
        <time>2022-06-10T00:15:52.608Z</time>
      </trkpt>
      <trkpt lat="47.91879" lon="-3.46083">
        <ele>63.580812</ele>
        <time>2022-06-10T00:16:13.969Z</time>
      </trkpt>
      <trkpt lat="47.91862" lon="-3.46194">
        <ele>67.59268</ele>
        <time>2022-06-10T00:17:00.303Z</time>
      </trkpt>
      <trkpt lat="47.91864" lon="-3.46316">
        <ele>71.63494</ele>
        <time>2022-06-10T00:17:43.243Z</time>
      </trkpt>
      <trkpt lat="47.9184" lon="-3.46413">
        <ele>73.44664</ele>
        <time>2022-06-10T00:18:15.378Z</time>
      </trkpt>
      <trkpt lat="47.91808" lon="-3.46474">
        <ele>74.806712</ele>
        <time>2022-06-10T00:18:37.588Z</time>
      </trkpt>
      <trkpt lat="47.91768" lon="-3.46509">
        <ele>76.009489</ele>
        <time>2022-06-10T00:18:54.097Z</time>
      </trkpt>
      <trkpt lat="47.91642" lon="-3.46648">
        <ele>80.989588</ele>
        <time>2022-06-10T00:20:08.235Z</time>
      </trkpt>
      <trkpt lat="47.91628" lon="-3.46748">
        <ele>83.181022</ele>
        <time>2022-06-10T00:20:38.627Z</time>
      </trkpt>
      <trkpt lat="47.9164" lon="-3.46784">
        <ele>84.038607</ele>
        <time>2022-06-10T00:20:49.971Z</time>
      </trkpt>
      <trkpt lat="47.91662" lon="-3.46823">
        <ele>85.124437</ele>
        <time>2022-06-10T00:21:03.915Z</time>
      </trkpt>
      <trkpt lat="47.91594" lon="-3.46862">
        <ele>87.450031</ele>
        <time>2022-06-10T00:21:27.792Z</time>
      </trkpt>
      <trkpt lat="47.91522" lon="-3.46891">
        <ele>85.998198</ele>
        <time>2022-06-10T00:21:42.352Z</time>
      </trkpt>
      <trkpt lat="47.9148" lon="-3.46922">
        <ele>84.981845</ele>
        <time>2022-06-10T00:21:49.426Z</time>
      </trkpt>
      <trkpt lat="47.91272" lon="-3.47191">
        <ele>74.691638</ele>
        <time>2022-06-10T00:22:29.311Z</time>
      </trkpt>
      <trkpt lat="47.91243" lon="-3.47214">
        <ele>73.559947</ele>
        <time>2022-06-10T00:22:34.590Z</time>
      </trkpt>
      <trkpt lat="47.91191" lon="-3.47208">
        <ele>71.806217</ele>
        <time>2022-06-10T00:22:42.366Z</time>
      </trkpt>
      <trkpt lat="47.91184" lon="-3.47202">
        <ele>71.53786</ele>
        <time>2022-06-10T00:22:43.547Z</time>
      </trkpt>
      <trkpt lat="47.91179" lon="-3.47193">
        <ele>71.262268</ele>
        <time>2022-06-10T00:22:45.801Z</time>
      </trkpt>
      <trkpt lat="47.9113" lon="-3.47178">
        <ele>69.529991</ele>
        <time>2022-06-10T00:22:58.992Z</time>
      </trkpt>
      <trkpt lat="47.91096" lon="-3.47188">
        <ele>68.039294</ele>
        <time>2022-06-10T00:23:07.939Z</time>
      </trkpt>
      <trkpt lat="47.91086" lon="-3.47198">
        <ele>67.503379</ele>
        <time>2022-06-10T00:23:10.773Z</time>
      </trkpt>
      <trkpt lat="47.91078" lon="-3.47225">
        <ele>66.63894</ele>
        <time>2022-06-10T00:23:16.180Z</time>
      </trkpt>
      <trkpt lat="47.91007" lon="-3.47239">
        <ele>63.49267</ele>
        <time>2022-06-10T00:23:34.020Z</time>
      </trkpt>
      <trkpt lat="47.90935" lon="-3.47293">
        <ele>59.073231</ele>
        <time>2022-06-10T00:23:52.424Z</time>
      </trkpt>
      <trkpt lat="47.90927" lon="-3.47317">
        <ele>57.904274</ele>
        <time>2022-06-10T00:23:56.508Z</time>
      </trkpt>
      <trkpt lat="47.90916" lon="-3.47402">
        <ele>54.110586</ele>
        <time>2022-06-10T00:24:09.697Z</time>
      </trkpt>
      <trkpt lat="47.90905" lon="-3.47444">
        <ele>52.158683</ele>
        <time>2022-06-10T00:24:16.605Z</time>
      </trkpt>
      <trkpt lat="47.909" lon="-3.47494">
        <ele>50.106032</ele>
        <time>2022-06-10T00:24:24.627Z</time>
      </trkpt>
      <trkpt lat="47.90901" lon="-3.47578">
        <ele>48.885655</ele>
        <time>2022-06-10T00:24:38.181Z</time>
      </trkpt>
      <trkpt lat="47.90915" lon="-3.47631">
        <ele>48.047659</ele>
        <time>2022-06-10T00:24:43.922Z</time>
      </trkpt>
      <trkpt lat="47.90925" lon="-3.47749">
        <ele>46.299553</ele>
        <time>2022-06-10T00:24:58.931Z</time>
      </trkpt>
      <trkpt lat="47.90941" lon="-3.47773">
        <ele>47.426294</ele>
        <time>2022-06-10T00:25:06.671Z</time>
      </trkpt>
      <trkpt lat="47.90972" lon="-3.47784">
        <ele>49.212551</ele>
        <time>2022-06-10T00:25:20.838Z</time>
      </trkpt>
      <trkpt lat="47.91015" lon="-3.47812">
        <ele>51.899484</ele>
        <time>2022-06-10T00:25:45.299Z</time>
      </trkpt>
      <trkpt lat="47.91029" lon="-3.47831">
        <ele>52.965814</ele>
        <time>2022-06-10T00:25:55.602Z</time>
      </trkpt>
      <trkpt lat="47.91033" lon="-3.4785">
        <ele>53.724491</ele>
        <time>2022-06-10T00:26:03.442Z</time>
      </trkpt>
      <trkpt lat="47.91035" lon="-3.47891">
        <ele>55.282701</ele>
        <time>2022-06-10T00:26:19.244Z</time>
      </trkpt>
      <trkpt lat="47.91025" lon="-3.48038">
        <ele>62.564192</ele>
        <time>2022-06-10T00:27:19.273Z</time>
      </trkpt>
      <trkpt lat="47.91014" lon="-3.481">
        <ele>65.929654</ele>
        <time>2022-06-10T00:27:46.256Z</time>
      </trkpt>
      <trkpt lat="47.90984" lon="-3.4816">
        <ele>69.833734</ele>
        <time>2022-06-10T00:28:16.775Z</time>
      </trkpt>
      <trkpt lat="47.90981" lon="-3.48225">
        <ele>72.153135</ele>
        <time>2022-06-10T00:28:39.946Z</time>
      </trkpt>
      <trkpt lat="47.90993" lon="-3.48361">
        <ele>76.482755</ele>
        <time>2022-06-10T00:29:19.799Z</time>
      </trkpt>
      <trkpt lat="47.91032" lon="-3.48505">
        <ele>79.227694</ele>
        <time>2022-06-10T00:29:57.009Z</time>
      </trkpt>
      <trkpt lat="47.91052" lon="-3.4861">
        <ele>79.607176</ele>
        <time>2022-06-10T00:30:13.455Z</time>
      </trkpt>
      <trkpt lat="47.91038" lon="-3.48674">
        <ele>79.840213</ele>
        <time>2022-06-10T00:30:21.366Z</time>
      </trkpt>
      <trkpt lat="47.91041" lon="-3.48731">
        <ele>79.046889</ele>
        <time>2022-06-10T00:30:27.549Z</time>
      </trkpt>
      <trkpt lat="47.91065" lon="-3.48855">
        <ele>76.405193</ele>
        <time>2022-06-10T00:30:40.643Z</time>
      </trkpt>
      <trkpt lat="47.91081" lon="-3.4897">
        <ele>74.335483</ele>
        <time>2022-06-10T00:30:52.397Z</time>
      </trkpt>
      <trkpt lat="47.91103" lon="-3.49061">
        <ele>73.92817</ele>
        <time>2022-06-10T00:31:02.761Z</time>
      </trkpt>
      <trkpt lat="47.91102" lon="-3.49094">
        <ele>73.790102</ele>
        <time>2022-06-10T00:31:06.789Z</time>
      </trkpt>
      <trkpt lat="47.91086" lon="-3.49196">
        <ele>73.345841</ele>
        <time>2022-06-10T00:31:24.473Z</time>
      </trkpt>
      <trkpt lat="47.9108" lon="-3.49233">
        <ele>73.748954</ele>
        <time>2022-06-10T00:31:32.697Z</time>
      </trkpt>
      <trkpt lat="47.91084" lon="-3.49348">
        <ele>75.928739</ele>
        <time>2022-06-10T00:32:00.329Z</time>
      </trkpt>
      <trkpt lat="47.91101" lon="-3.49472">
        <ele>78.33918</ele>
        <time>2022-06-10T00:32:32.783Z</time>
      </trkpt>
      <trkpt lat="47.91117" lon="-3.49691">
        <ele>79.777375</ele>
        <time>2022-06-10T00:33:14.651Z</time>
      </trkpt>
      <trkpt lat="47.91121" lon="-3.49758">
        <ele>79.542376</ele>
        <time>2022-06-10T00:33:22.460Z</time>
      </trkpt>
      <trkpt lat="47.91117" lon="-3.49826">
        <ele>77.277077</ele>
        <time>2022-06-10T00:33:29.682Z</time>
      </trkpt>
      <trkpt lat="47.91056" lon="-3.50046">
        <ele>68.610074</ele>
        <time>2022-06-10T00:33:51.306Z</time>
      </trkpt>
      <trkpt lat="47.9103" lon="-3.50142">
        <ele>63.606968</ele>
        <time>2022-06-10T00:34:00.481Z</time>
      </trkpt>
      <trkpt lat="47.91022" lon="-3.5019">
        <ele>61.237595</ele>
        <time>2022-06-10T00:34:04.854Z</time>
      </trkpt>
      <trkpt lat="47.91015" lon="-3.50274">
        <ele>57.916104</ele>
        <time>2022-06-10T00:34:12.304Z</time>
      </trkpt>
      <trkpt lat="47.91049" lon="-3.50486">
        <ele>53.804954</ele>
        <time>2022-06-10T00:34:35.481Z</time>
      </trkpt>
      <trkpt lat="47.91057" lon="-3.50541">
        <ele>53.672537</ele>
        <time>2022-06-10T00:34:44.311Z</time>
      </trkpt>
      <trkpt lat="47.91036" lon="-3.50606">
        <ele>54.549827</ele>
        <time>2022-06-10T00:34:57.804Z</time>
      </trkpt>
      <trkpt lat="47.91035" lon="-3.5062">
        <ele>54.718673</ele>
        <time>2022-06-10T00:35:01.283Z</time>
      </trkpt>
      <trkpt lat="47.91043" lon="-3.50644">
        <ele>55.0356</ele>
        <time>2022-06-10T00:35:06.080Z</time>
      </trkpt>
      <trkpt lat="47.91093" lon="-3.50741">
        <ele>56.525887</ele>
        <time>2022-06-10T00:35:35.871Z</time>
      </trkpt>
      <trkpt lat="47.911" lon="-3.50789">
        <ele>56.952212</ele>
        <time>2022-06-10T00:35:46.790Z</time>
      </trkpt>
      <trkpt lat="47.91095" lon="-3.50869">
        <ele>57.645462</ele>
        <time>2022-06-10T00:36:00.976Z</time>
      </trkpt>
      <trkpt lat="47.911" lon="-3.50906">
        <ele>57.969369</ele>
        <time>2022-06-10T00:36:06.703Z</time>
      </trkpt>
      <trkpt lat="47.9114" lon="-3.50974">
        <ele>58.746021</ele>
        <time>2022-06-10T00:36:19.592Z</time>
      </trkpt>
      <trkpt lat="47.9114" lon="-3.50974">
        <ele>58.748891</ele>
        <time>2022-06-10T00:36:19.758Z</time>
      </trkpt>
      <trkpt lat="47.91173" lon="-3.51045">
        <ele>59.960087</ele>
        <time>2022-06-10T00:36:34.976Z</time>
      </trkpt>
      <trkpt lat="47.9119" lon="-3.51112">
        <ele>61.042014</ele>
        <time>2022-06-10T00:36:48.446Z</time>
      </trkpt>
      <trkpt lat="47.91188" lon="-3.51159">
        <ele>61.749982</ele>
        <time>2022-06-10T00:36:57.929Z</time>
      </trkpt>
      <trkpt lat="47.91166" lon="-3.51172">
        <ele>62.281733</ele>
        <time>2022-06-10T00:37:06.172Z</time>
      </trkpt>
      <trkpt lat="47.91157" lon="-3.51184">
        <ele>62.552957</ele>
        <time>2022-06-10T00:37:09.374Z</time>
      </trkpt>
      <trkpt lat="47.91013" lon="-3.51443">
        <ele>73.890309</ele>
        <time>2022-06-10T00:38:53.685Z</time>
      </trkpt>
      <trkpt lat="47.90994" lon="-3.51476">
        <ele>75.373378</ele>
        <time>2022-06-10T00:39:10.722Z</time>
      </trkpt>
      <trkpt lat="47.90975" lon="-3.51525">
        <ele>77.309318</ele>
        <time>2022-06-10T00:39:29.198Z</time>
      </trkpt>
      <trkpt lat="47.90972" lon="-3.51549">
        <ele>78.152261</ele>
        <time>2022-06-10T00:39:36.159Z</time>
      </trkpt>
      <trkpt lat="47.90961" lon="-3.51547">
        <ele>78.715645</ele>
        <time>2022-06-10T00:39:43.429Z</time>
      </trkpt>
      <trkpt lat="47.90945" lon="-3.51556">
        <ele>79.573475</ele>
        <time>2022-06-10T00:39:50.859Z</time>
      </trkpt>
      <trkpt lat="47.90945" lon="-3.51556">
        <ele>79.579581</ele>
        <time>2022-06-10T00:39:51.245Z</time>
      </trkpt>
      <trkpt lat="47.90893" lon="-3.51609">
        <ele>81.780652</ele>
        <time>2022-06-10T00:40:22.863Z</time>
      </trkpt>
      <trkpt lat="47.9091" lon="-3.51512">
        <ele>82.501213</ele>
        <time>2022-06-10T00:40:48.724Z</time>
      </trkpt>
      <trkpt lat="47.90912" lon="-3.5145">
        <ele>82.943829</ele>
        <time>2022-06-10T00:41:01.851Z</time>
      </trkpt>
      <trkpt lat="47.90909" lon="-3.51434">
        <ele>83.067907</ele>
        <time>2022-06-10T00:41:05.365Z</time>
      </trkpt>
      <trkpt lat="47.90937" lon="-3.51342">
        <ele>83.457629</ele>
        <time>2022-06-10T00:41:25.661Z</time>
      </trkpt>
      <trkpt lat="47.9086" lon="-3.51249">
        <ele>83.502136</ele>
        <time>2022-06-10T00:41:58.187Z</time>
      </trkpt>
      <trkpt lat="47.90799" lon="-3.51212">
        <ele>83.500719</ele>
        <time>2022-06-10T00:42:19.731Z</time>
      </trkpt>
      <trkpt lat="47.90765" lon="-3.51147">
        <ele>83.426394</ele>
        <time>2022-06-10T00:42:38.591Z</time>
      </trkpt>
      <trkpt lat="47.90749" lon="-3.51108">
        <ele>83.384627</ele>
        <time>2022-06-10T00:42:45.067Z</time>
      </trkpt>
      <trkpt lat="47.90717" lon="-3.51103">
        <ele>83.341921</ele>
        <time>2022-06-10T00:42:51.114Z</time>
      </trkpt>
      <trkpt lat="47.90687" lon="-3.51132">
        <ele>83.292962</ele>
        <time>2022-06-10T00:42:57.779Z</time>
      </trkpt>
      <trkpt lat="47.90715" lon="-3.51258">
        <ele>82.807134</ele>
        <time>2022-06-10T00:43:13.892Z</time>
      </trkpt>
      <trkpt lat="47.90678" lon="-3.51296">
        <ele>82.537743</ele>
        <time>2022-06-10T00:43:27.745Z</time>
      </trkpt>
      <trkpt lat="47.90653" lon="-3.51308">
        <ele>82.387106</ele>
        <time>2022-06-10T00:43:35.795Z</time>
      </trkpt>
      <trkpt lat="47.90636" lon="-3.51324">
        <ele>82.265975</ele>
        <time>2022-06-10T00:43:42.051Z</time>
      </trkpt>
      <trkpt lat="47.90586" lon="-3.51377">
        <ele>81.863254</ele>
        <time>2022-06-10T00:44:00.824Z</time>
      </trkpt>
      <trkpt lat="47.90491" lon="-3.51387">
        <ele>81.226055</ele>
        <time>2022-06-10T00:44:29.580Z</time>
      </trkpt>
      <trkpt lat="47.90432" lon="-3.51413">
        <ele>80.501411</ele>
        <time>2022-06-10T00:44:47.510Z</time>
      </trkpt>
      <trkpt lat="47.90363" lon="-3.51432">
        <ele>79.302466</ele>
        <time>2022-06-10T00:45:07.351Z</time>
      </trkpt>
      <trkpt lat="47.90363" lon="-3.51439">
        <ele>79.232442</ele>
        <time>2022-06-10T00:45:08.069Z</time>
      </trkpt>
      <trkpt lat="47.90205" lon="-3.51419">
        <ele>76.856687</ele>
        <time>2022-06-10T00:45:50.953Z</time>
      </trkpt>
      <trkpt lat="47.90162" lon="-3.51411">
        <ele>76.294134</ele>
        <time>2022-06-10T00:46:03.102Z</time>
      </trkpt>
      <trkpt lat="47.90104" lon="-3.51385">
        <ele>75.776685</ele>
        <time>2022-06-10T00:46:21.837Z</time>
      </trkpt>
      <trkpt lat="47.90074" lon="-3.51379">
        <ele>76.445137</ele>
        <time>2022-06-10T00:46:33.194Z</time>
      </trkpt>
      <trkpt lat="47.90061" lon="-3.51384">
        <ele>76.749311</ele>
        <time>2022-06-10T00:46:38.461Z</time>
      </trkpt>
      <trkpt lat="47.90014" lon="-3.51461">
        <ele>78.28781</ele>
        <time>2022-06-10T00:47:09.331Z</time>
      </trkpt>
      <trkpt lat="47.89976" lon="-3.5152">
        <ele>79.495652</ele>
        <time>2022-06-10T00:47:35.938Z</time>
      </trkpt>
      <trkpt lat="47.89926" lon="-3.51489">
        <ele>81.203499</ele>
        <time>2022-06-10T00:48:03.642Z</time>
      </trkpt>
      <trkpt lat="47.89863" lon="-3.5148">
        <ele>83.219644</ele>
        <time>2022-06-10T00:48:35.484Z</time>
      </trkpt>
      <trkpt lat="47.89853" lon="-3.51463">
        <ele>83.721761</ele>
        <time>2022-06-10T00:48:43.002Z</time>
      </trkpt>
      <trkpt lat="47.89826" lon="-3.51455">
        <ele>84.602695</ele>
        <time>2022-06-10T00:48:55.726Z</time>
      </trkpt>
      <trkpt lat="47.89808" lon="-3.51457">
        <ele>85.17674</ele>
        <time>2022-06-10T00:49:03.012Z</time>
      </trkpt>
      <trkpt lat="47.89788" lon="-3.51474">
        <ele>85.539091</ele>
        <time>2022-06-10T00:49:13.570Z</time>
      </trkpt>
      <trkpt lat="47.89774" lon="-3.51483">
        <ele>85.693918</ele>
        <time>2022-06-10T00:49:17.416Z</time>
      </trkpt>
      <trkpt lat="47.89656" lon="-3.51513">
        <ele>86.97134</ele>
        <time>2022-06-10T00:49:48.868Z</time>
      </trkpt>
      <trkpt lat="47.8962" lon="-3.5153">
        <ele>87.007643</ele>
        <time>2022-06-10T00:49:56.261Z</time>
      </trkpt>
      <trkpt lat="47.89568" lon="-3.51547">
        <ele>85.808656</ele>
        <time>2022-06-10T00:50:05.288Z</time>
      </trkpt>
      <trkpt lat="47.89525" lon="-3.51563">
        <ele>84.817816</ele>
        <time>2022-06-10T00:50:11.968Z</time>
      </trkpt>
      <trkpt lat="47.8945" lon="-3.51575">
        <ele>83.063748</ele>
        <time>2022-06-10T00:50:22.615Z</time>
      </trkpt>
      <trkpt lat="47.89365" lon="-3.51571">
        <ele>79.386916</ele>
        <time>2022-06-10T00:50:34.096Z</time>
      </trkpt>
      <trkpt lat="47.89216" lon="-3.51539">
        <ele>73.986651</ele>
        <time>2022-06-10T00:50:54.754Z</time>
      </trkpt>
      <trkpt lat="47.89204" lon="-3.51526">
        <ele>73.609189</ele>
        <time>2022-06-10T00:50:56.912Z</time>
      </trkpt>
      <trkpt lat="47.89193" lon="-3.51495">
        <ele>73.021166</ele>
        <time>2022-06-10T00:51:00.642Z</time>
      </trkpt>
      <trkpt lat="47.89031" lon="-3.51497">
        <ele>69.378038</ele>
        <time>2022-06-10T00:51:28.167Z</time>
      </trkpt>
      <trkpt lat="47.89019" lon="-3.51504">
        <ele>69.124595</ele>
        <time>2022-06-10T00:51:30.108Z</time>
      </trkpt>
      <trkpt lat="47.88993" lon="-3.51534">
        <ele>68.483088</ele>
        <time>2022-06-10T00:51:35.326Z</time>
      </trkpt>
      <trkpt lat="47.88948" lon="-3.51601">
        <ele>67.21031</ele>
        <time>2022-06-10T00:51:44.968Z</time>
      </trkpt>
      <trkpt lat="47.88879" lon="-3.51574">
        <ele>65.507058</ele>
        <time>2022-06-10T00:51:55.520Z</time>
      </trkpt>
      <trkpt lat="47.88864" lon="-3.51555">
        <ele>65.030552</ele>
        <time>2022-06-10T00:51:58.551Z</time>
      </trkpt>
      <trkpt lat="47.88823" lon="-3.51568">
        <ele>64.023427</ele>
        <time>2022-06-10T00:52:05.259Z</time>
      </trkpt>
      <trkpt lat="47.88757" lon="-3.51557">
        <ele>61.76714</ele>
        <time>2022-06-10T00:52:16.085Z</time>
      </trkpt>
      <trkpt lat="47.88724" lon="-3.51544">
        <ele>60.167987</ele>
        <time>2022-06-10T00:52:24.711Z</time>
      </trkpt>
      <trkpt lat="47.88667" lon="-3.51502">
        <ele>57.123053</ele>
        <time>2022-06-10T00:52:40.359Z</time>
      </trkpt>
      <trkpt lat="47.88646" lon="-3.51493">
        <ele>56.065506</ele>
        <time>2022-06-10T00:52:45.657Z</time>
      </trkpt>
      <trkpt lat="47.88479" lon="-3.51471">
        <ele>43.186612</ele>
        <time>2022-06-10T00:53:22.776Z</time>
      </trkpt>
      <trkpt lat="47.8846" lon="-3.51446">
        <ele>41.049149</ele>
        <time>2022-06-10T00:53:28.264Z</time>
      </trkpt>
      <trkpt lat="47.8845" lon="-3.51447">
        <ele>40.276364</ele>
        <time>2022-06-10T00:53:30.193Z</time>
      </trkpt>
      <trkpt lat="47.8843" lon="-3.5148">
        <ele>38.02795</ele>
        <time>2022-06-10T00:53:36.761Z</time>
      </trkpt>
      <trkpt lat="47.88361" lon="-3.51627">
        <ele>29.680257</ele>
        <time>2022-06-10T00:54:03.717Z</time>
      </trkpt>
      <trkpt lat="47.88356" lon="-3.51693">
        <ele>26.87472</ele>
        <time>2022-06-10T00:54:14.611Z</time>
      </trkpt>
      <trkpt lat="47.88367" lon="-3.51799">
        <ele>25.694333</ele>
        <time>2022-06-10T00:54:34.082Z</time>
      </trkpt>
      <trkpt lat="47.88424" lon="-3.51921">
        <ele>24.069872</ele>
        <time>2022-06-10T00:55:04.613Z</time>
      </trkpt>
      <trkpt lat="47.88449" lon="-3.51971">
        <ele>23.729238</ele>
        <time>2022-06-10T00:55:17.848Z</time>
      </trkpt>
      <trkpt lat="47.88513" lon="-3.52043">
        <ele>23.134191</ele>
        <time>2022-06-10T00:55:41.634Z</time>
      </trkpt>
      <trkpt lat="47.88553" lon="-3.52164">
        <ele>22.599226</ele>
        <time>2022-06-10T00:56:07.773Z</time>
      </trkpt>
      <trkpt lat="47.88555" lon="-3.52206">
        <ele>22.516108</ele>
        <time>2022-06-10T00:56:16.372Z</time>
      </trkpt>
      <trkpt lat="47.8855" lon="-3.52233">
        <ele>22.461576</ele>
        <time>2022-06-10T00:56:21.943Z</time>
      </trkpt>
      <trkpt lat="47.88546" lon="-3.52297">
        <ele>22.335761</ele>
        <time>2022-06-10T00:56:35.373Z</time>
      </trkpt>
      <trkpt lat="47.88518" lon="-3.52393">
        <ele>22.192789</ele>
        <time>2022-06-10T00:56:58.514Z</time>
      </trkpt>
      <trkpt lat="47.88457" lon="-3.52334">
        <ele>22.415111</ele>
        <time>2022-06-10T00:57:23.344Z</time>
      </trkpt>
      <trkpt lat="47.88444" lon="-3.52375">
        <ele>22.509162</ele>
        <time>2022-06-10T00:57:34.380Z</time>
      </trkpt>
      <trkpt lat="47.88416" lon="-3.52303">
        <ele>22.681741</ele>
        <time>2022-06-10T00:57:52.698Z</time>
      </trkpt>
      <trkpt lat="47.88412" lon="-3.52291">
        <ele>22.709845</ele>
        <time>2022-06-10T00:57:55.613Z</time>
      </trkpt>
      <trkpt lat="47.88412" lon="-3.52291">
        <ele>22.709845</ele>
        <time>2022-06-10T00:57:55.796Z</time>
      </trkpt>
      <trkpt lat="47.8839" lon="-3.52284">
        <ele>22.667613</ele>
        <time>2022-06-10T00:58:02.701Z</time>
      </trkpt>
      <trkpt lat="47.88301" lon="-3.52323">
        <ele>22.48585</ele>
        <time>2022-06-10T00:58:30.663Z</time>
      </trkpt>
      <trkpt lat="47.88225" lon="-3.5236">
        <ele>22.315604</ele>
        <time>2022-06-10T00:58:55.684Z</time>
      </trkpt>
      <trkpt lat="47.882" lon="-3.52387">
        <ele>22.226545</ele>
        <time>2022-06-10T00:59:05.205Z</time>
      </trkpt>
      <trkpt lat="47.88181" lon="-3.5242">
        <ele>22.143306</ele>
        <time>2022-06-10T00:59:16.666Z</time>
      </trkpt>
      <trkpt lat="47.88154" lon="-3.52497">
        <ele>21.977065</ele>
        <time>2022-06-10T00:59:34.521Z</time>
      </trkpt>
      <trkpt lat="47.88148" lon="-3.52541">
        <ele>21.891147</ele>
        <time>2022-06-10T00:59:43.249Z</time>
      </trkpt>
      <trkpt lat="47.88148" lon="-3.52541">
        <ele>21.890573</ele>
        <time>2022-06-10T00:59:43.295Z</time>
      </trkpt>
      <trkpt lat="47.88158" lon="-3.52591">
        <ele>21.629117</ele>
        <time>2022-06-10T00:59:53.362Z</time>
      </trkpt>
      <trkpt lat="47.88174" lon="-3.5262">
        <ele>21.331204</ele>
        <time>2022-06-10T01:00:01.445Z</time>
      </trkpt>
      <trkpt lat="47.88145" lon="-3.52684">
        <ele>20.714407</ele>
        <time>2022-06-10T01:00:16.499Z</time>
      </trkpt>
      <trkpt lat="47.88119" lon="-3.52756">
        <ele>20.061522</ele>
        <time>2022-06-10T01:00:32.555Z</time>
      </trkpt>
      <trkpt lat="47.88103" lon="-3.5279">
        <ele>19.731044</ele>
        <time>2022-06-10T01:00:40.200Z</time>
      </trkpt>
      <trkpt lat="47.88078" lon="-3.5287">
        <ele>18.893233</ele>
        <time>2022-06-10T01:00:55.958Z</time>
      </trkpt>
      <trkpt lat="47.88072" lon="-3.52909">
        <ele>18.512972</ele>
        <time>2022-06-10T01:01:03.267Z</time>
      </trkpt>
      <trkpt lat="47.88066" lon="-3.52917">
        <ele>18.387757</ele>
        <time>2022-06-10T01:01:05.763Z</time>
      </trkpt>
      <trkpt lat="47.88056" lon="-3.52919">
        <ele>18.243176</ele>
        <time>2022-06-10T01:01:08.472Z</time>
      </trkpt>
      <trkpt lat="47.88011" lon="-3.53126">
        <ele>16.830302</ele>
        <time>2022-06-10T01:01:35.803Z</time>
      </trkpt>
      <trkpt lat="47.87972" lon="-3.53215">
        <ele>16.512913</ele>
        <time>2022-06-10T01:01:49.944Z</time>
      </trkpt>
      <trkpt lat="47.87964" lon="-3.53235">
        <ele>16.445056</ele>
        <time>2022-06-10T01:01:52.814Z</time>
      </trkpt>
      <trkpt lat="47.87957" lon="-3.53254">
        <ele>16.37966</ele>
        <time>2022-06-10T01:01:55.556Z</time>
      </trkpt>
      <trkpt lat="47.87944" lon="-3.53289">
        <ele>16.283832</ele>
        <time>2022-06-10T01:02:00.478Z</time>
      </trkpt>
      <trkpt lat="47.87943" lon="-3.53293">
        <ele>16.273487</ele>
        <time>2022-06-10T01:02:01.030Z</time>
      </trkpt>
      <trkpt lat="47.87941" lon="-3.53296">
        <ele>16.265105</ele>
        <time>2022-06-10T01:02:01.550Z</time>
      </trkpt>
      <trkpt lat="47.87937" lon="-3.53308">
        <ele>16.23608</ele>
        <time>2022-06-10T01:02:03.545Z</time>
      </trkpt>
      <trkpt lat="47.87932" lon="-3.53318">
        <ele>16.209209</ele>
        <time>2022-06-10T01:02:05.045Z</time>
      </trkpt>
      <trkpt lat="47.8793" lon="-3.53322">
        <ele>16.199603</ele>
        <time>2022-06-10T01:02:05.567Z</time>
      </trkpt>
      <trkpt lat="47.87927" lon="-3.53326">
        <ele>16.185086</ele>
        <time>2022-06-10T01:02:06.332Z</time>
      </trkpt>
      <trkpt lat="47.87892" lon="-3.53357">
        <ele>16.056184</ele>
        <time>2022-06-10T01:02:13.711Z</time>
      </trkpt>
      <trkpt lat="47.87871" lon="-3.53406">
        <ele>15.930585</ele>
        <time>2022-06-10T01:02:20.851Z</time>
      </trkpt>
      <trkpt lat="47.87801" lon="-3.53496">
        <ele>16.239005</ele>
        <time>2022-06-10T01:02:41.190Z</time>
      </trkpt>
      <trkpt lat="47.87774" lon="-3.53526">
        <ele>16.644852</ele>
        <time>2022-06-10T01:02:49.538Z</time>
      </trkpt>
      <trkpt lat="47.8774" lon="-3.53549">
        <ele>17.09148</ele>
        <time>2022-06-10T01:03:00.194Z</time>
      </trkpt>
      <trkpt lat="47.87699" lon="-3.536">
        <ele>17.740196</ele>
        <time>2022-06-10T01:03:15.707Z</time>
      </trkpt>
      <trkpt lat="47.87662" lon="-3.53675">
        <ele>18.141244</ele>
        <time>2022-06-10T01:03:33.463Z</time>
      </trkpt>
      <trkpt lat="47.87658" lon="-3.53724">
        <ele>18.290049</ele>
        <time>2022-06-10T01:03:42.353Z</time>
      </trkpt>
      <trkpt lat="47.87665" lon="-3.53905">
        <ele>18.237559</ele>
        <time>2022-06-10T01:04:06.448Z</time>
      </trkpt>
      <trkpt lat="47.87662" lon="-3.53962">
        <ele>17.334101</ele>
        <time>2022-06-10T01:04:12.632Z</time>
      </trkpt>
      <trkpt lat="47.87675" lon="-3.54109">
        <ele>15.000409</ele>
        <time>2022-06-10T01:04:28.107Z</time>
      </trkpt>
      <trkpt lat="47.87678" lon="-3.54171">
        <ele>13.933026</ele>
        <time>2022-06-10T01:04:34.368Z</time>
      </trkpt>
      <trkpt lat="47.87662" lon="-3.54294">
        <ele>11.580728</ele>
        <time>2022-06-10T01:04:47.298Z</time>
      </trkpt>
      <trkpt lat="47.87662" lon="-3.54359">
        <ele>10.358237</ele>
        <time>2022-06-10T01:04:54.133Z</time>
      </trkpt>
      <trkpt lat="47.87663" lon="-3.5438">
        <ele>9.967038</ele>
        <time>2022-06-10T01:04:56.367Z</time>
      </trkpt>
      <trkpt lat="47.87664" lon="-3.54389">
        <ele>9.796053</ele>
        <time>2022-06-10T01:04:57.380Z</time>
      </trkpt>
      <trkpt lat="47.87664" lon="-3.54411">
        <ele>9.439771</ele>
        <time>2022-06-10T01:04:59.828Z</time>
      </trkpt>
      <trkpt lat="47.87574" lon="-3.5447">
        <ele>8.438836</ele>
        <time>2022-06-10T01:05:15.592Z</time>
      </trkpt>
      <trkpt lat="47.87539" lon="-3.54501">
        <ele>8.023817</ele>
        <time>2022-06-10T01:05:22.940Z</time>
      </trkpt>
      <trkpt lat="47.87489" lon="-3.5454">
        <ele>7.688249</ele>
        <time>2022-06-10T01:05:34.169Z</time>
      </trkpt>
      <trkpt lat="47.87464" lon="-3.54553">
        <ele>7.747938</ele>
        <time>2022-06-10T01:05:39.605Z</time>
      </trkpt>
      <trkpt lat="47.87454" lon="-3.54559">
        <ele>7.77219</ele>
        <time>2022-06-10T01:05:41.879Z</time>
      </trkpt>
      <trkpt lat="47.87441" lon="-3.54561">
        <ele>7.802226</ele>
        <time>2022-06-10T01:05:44.607Z</time>
      </trkpt>
      <trkpt lat="47.87428" lon="-3.54563">
        <ele>7.833294</ele>
        <time>2022-06-10T01:05:47.412Z</time>
      </trkpt>
      <trkpt lat="47.87423" lon="-3.54564">
        <ele>7.84428</ele>
        <time>2022-06-10T01:05:48.433Z</time>
      </trkpt>
      <trkpt lat="47.8741" lon="-3.54563">
        <ele>7.87376</ele>
        <time>2022-06-10T01:05:51.116Z</time>
      </trkpt>
      <trkpt lat="47.87385" lon="-3.54559">
        <ele>7.931115</ele>
        <time>2022-06-10T01:05:56.713Z</time>
      </trkpt>
      <trkpt lat="47.87375" lon="-3.54555">
        <ele>7.954476</ele>
        <time>2022-06-10T01:05:58.797Z</time>
      </trkpt>
      <trkpt lat="47.8733" lon="-3.54537">
        <ele>8.048271</ele>
        <time>2022-06-10T01:06:08.320Z</time>
      </trkpt>
      <trkpt lat="47.8732" lon="-3.54533">
        <ele>8.029501</ele>
        <time>2022-06-10T01:06:10.252Z</time>
      </trkpt>
      <trkpt lat="47.87316" lon="-3.54531">
        <ele>8.020213</ele>
        <time>2022-06-10T01:06:11.209Z</time>
      </trkpt>
      <trkpt lat="47.87312" lon="-3.5453">
        <ele>8.011654</ele>
        <time>2022-06-10T01:06:11.995Z</time>
      </trkpt>
      <trkpt lat="47.87269" lon="-3.54511">
        <ele>7.922661</ele>
        <time>2022-06-10T01:06:20.420Z</time>
      </trkpt>
      <trkpt lat="47.87255" lon="-3.54537">
        <ele>7.878868</ele>
        <time>2022-06-10T01:06:24.288Z</time>
      </trkpt>
      <trkpt lat="47.87239" lon="-3.54541">
        <ele>7.84576</ele>
        <time>2022-06-10T01:06:27.102Z</time>
      </trkpt>
      <trkpt lat="47.87208" lon="-3.54534">
        <ele>7.784516</ele>
        <time>2022-06-10T01:06:32.314Z</time>
      </trkpt>
      <trkpt lat="47.87181" lon="-3.54512">
        <ele>7.722586</ele>
        <time>2022-06-10T01:06:37.925Z</time>
      </trkpt>
      <trkpt lat="47.87178" lon="-3.54505">
        <ele>7.711697</ele>
        <time>2022-06-10T01:06:38.917Z</time>
      </trkpt>
      <trkpt lat="47.87164" lon="-3.54492">
        <ele>7.83986</ele>
        <time>2022-06-10T01:06:42.168Z</time>
      </trkpt>
      <trkpt lat="47.87162" lon="-3.54501">
        <ele>7.937893</ele>
        <time>2022-06-10T01:06:43.534Z</time>
      </trkpt>
      <trkpt lat="47.87155" lon="-3.54498">
        <ele>8.055742</ele>
        <time>2022-06-10T01:06:45.259Z</time>
      </trkpt>
      <trkpt lat="47.87152" lon="-3.54514">
        <ele>8.242081</ele>
        <time>2022-06-10T01:06:48.066Z</time>
      </trkpt>
      <trkpt lat="47.87149" lon="-3.54526">
        <ele>8.372753</ele>
        <time>2022-06-10T01:06:50.120Z</time>
      </trkpt>
      <trkpt lat="47.87148" lon="-3.54529">
        <ele>8.415706</ele>
        <time>2022-06-10T01:06:50.802Z</time>
      </trkpt>
      <trkpt lat="47.87142" lon="-3.5456">
        <ele>8.755435</ele>
        <time>2022-06-10T01:06:56.546Z</time>
      </trkpt>
      <trkpt lat="47.87116" lon="-3.54555">
        <ele>9.172926</ele>
        <time>2022-06-10T01:07:03.721Z</time>
      </trkpt>
      <trkpt lat="47.87057" lon="-3.5456">
        <ele>10.128394</ele>
        <time>2022-06-10T01:07:22.232Z</time>
      </trkpt>
      <trkpt lat="47.87014" lon="-3.54556">
        <ele>10.662347</ele>
        <time>2022-06-10T01:07:35.520Z</time>
      </trkpt>
      <trkpt lat="47.86987" lon="-3.54545">
        <ele>10.812037</ele>
        <time>2022-06-10T01:07:44.742Z</time>
      </trkpt>
      <trkpt lat="47.86939" lon="-3.54517">
        <ele>11.09131</ele>
        <time>2022-06-10T01:07:59.771Z</time>
      </trkpt>
      <trkpt lat="47.86868" lon="-3.54472">
        <ele>11.503426</ele>
        <time>2022-06-10T01:08:13.073Z</time>
      </trkpt>
      <trkpt lat="47.86835" lon="-3.54434">
        <ele>10.756936</ele>
        <time>2022-06-10T01:08:19.432Z</time>
      </trkpt>
      <trkpt lat="47.86834" lon="-3.54421">
        <ele>10.54715</ele>
        <time>2022-06-10T01:08:20.628Z</time>
      </trkpt>
      <trkpt lat="47.868" lon="-3.54378">
        <ele>9.468222</ele>
        <time>2022-06-10T01:08:27.190Z</time>
      </trkpt>
      <trkpt lat="47.86777" lon="-3.5436">
        <ele>8.845769</ele>
        <time>2022-06-10T01:08:30.948Z</time>
      </trkpt>
      <trkpt lat="47.86752" lon="-3.54351">
        <ele>8.239548</ele>
        <time>2022-06-10T01:08:34.726Z</time>
      </trkpt>
      <trkpt lat="47.86767" lon="-3.5435">
        <ele>7.886933</ele>
        <time>2022-06-10T01:08:37.071Z</time>
      </trkpt>
      <trkpt lat="47.86729" lon="-3.54303">
        <ele>7.300076</ele>
        <time>2022-06-10T01:08:50.304Z</time>
      </trkpt>
      <trkpt lat="47.86721" lon="-3.54293">
        <ele>7.329885</ele>
        <time>2022-06-10T01:08:53.305Z</time>
      </trkpt>
      <trkpt lat="47.86685" lon="-3.54251">
        <ele>7.458588</ele>
        <time>2022-06-10T01:09:08.185Z</time>
      </trkpt>
      <trkpt lat="47.86651" lon="-3.54215">
        <ele>7.5763</ele>
        <time>2022-06-10T01:09:24.096Z</time>
      </trkpt>
      <trkpt lat="47.86633" lon="-3.54227">
        <ele>7.632729</ele>
        <time>2022-06-10T01:09:31.737Z</time>
      </trkpt>
      <trkpt lat="47.86611" lon="-3.54254">
        <ele>7.711955</ele>
        <time>2022-06-10T01:09:41.044Z</time>
      </trkpt>
      <trkpt lat="47.86607" lon="-3.54267">
        <ele>7.739927</ele>
        <time>2022-06-10T01:09:44.188Z</time>
      </trkpt>
      <trkpt lat="47.86605" lon="-3.54271">
        <ele>7.767289</ele>
        <time>2022-06-10T01:09:45.343Z</time>
      </trkpt>
      <trkpt lat="47.86581" lon="-3.54273">
        <ele>8.069794</ele>
        <time>2022-06-10T01:09:55.455Z</time>
      </trkpt>
      <trkpt lat="47.86567" lon="-3.54267">
        <ele>8.245335</ele>
        <time>2022-06-10T01:10:01.027Z</time>
      </trkpt>
      <trkpt lat="47.86507" lon="-3.54217">
        <ele>9.09773</ele>
        <time>2022-06-10T01:10:28.534Z</time>
      </trkpt>
      <trkpt lat="47.86439" lon="-3.54176">
        <ele>9.946046</ele>
        <time>2022-06-10T01:10:55.608Z</time>
      </trkpt>
      <trkpt lat="47.86389" lon="-3.54175">
        <ele>9.63063</ele>
        <time>2022-06-10T01:11:11.282Z</time>
      </trkpt>
      <trkpt lat="47.86335" lon="-3.54199">
        <ele>9.27607</ele>
        <time>2022-06-10T01:11:28.055Z</time>
      </trkpt>
      <trkpt lat="47.86317" lon="-3.54196">
        <ele>9.161656</ele>
        <time>2022-06-10T01:11:33.478Z</time>
      </trkpt>
      <trkpt lat="47.86301" lon="-3.54201">
        <ele>9.063588</ele>
        <time>2022-06-10T01:11:37.896Z</time>
      </trkpt>
      <trkpt lat="47.86237" lon="-3.54247">
        <ele>8.488522</ele>
        <time>2022-06-10T01:11:58.237Z</time>
      </trkpt>
      <trkpt lat="47.86166" lon="-3.5428">
        <ele>7.739277</ele>
        <time>2022-06-10T01:12:19.281Z</time>
      </trkpt>
      <trkpt lat="47.86034" lon="-3.54372">
        <ele>8.697123</ele>
        <time>2022-06-10T01:13:04.166Z</time>
      </trkpt>
      <trkpt lat="47.86017" lon="-3.54367">
        <ele>9.086571</ele>
        <time>2022-06-10T01:13:11.597Z</time>
      </trkpt>
      <trkpt lat="47.86006" lon="-3.54373">
        <ele>9.356378</ele>
        <time>2022-06-10T01:13:18.712Z</time>
      </trkpt>
      <trkpt lat="47.85974" lon="-3.54404">
        <ele>10.197339</ele>
        <time>2022-06-10T01:13:37.380Z</time>
      </trkpt>
      <trkpt lat="47.85958" lon="-3.54402">
        <ele>10.544655</ele>
        <time>2022-06-10T01:13:43.240Z</time>
      </trkpt>
      <trkpt lat="47.85958" lon="-3.54402">
        <ele>10.544655</ele>
        <time>2022-06-10T01:13:43.285Z</time>
      </trkpt>
      <trkpt lat="47.85958" lon="-3.54402">
        <ele>10.544655</ele>
        <time>2022-06-10T01:13:43.290Z</time>
      </trkpt>
      <trkpt lat="47.85944" lon="-3.54415">
        <ele>10.917667</ele>
        <time>2022-06-10T01:13:55.467Z</time>
      </trkpt>
      <trkpt lat="47.85884" lon="-3.54438">
        <ele>14.432569</ele>
        <time>2022-06-10T01:14:28.563Z</time>
      </trkpt>
      <trkpt lat="47.85884" lon="-3.54438">
        <ele>14.452484</ele>
        <time>2022-06-10T01:14:29.442Z</time>
      </trkpt>
      <trkpt lat="47.85819" lon="-3.54477">
        <ele>18.678733</ele>
        <time>2022-06-10T01:15:12.503Z</time>
      </trkpt>
      <trkpt lat="47.85748" lon="-3.54528">
        <ele>23.163395</ele>
        <time>2022-06-10T01:16:08.092Z</time>
      </trkpt>
      <trkpt lat="47.85619" lon="-3.54655">
        <ele>30.745047</ele>
        <time>2022-06-10T01:17:31.110Z</time>
      </trkpt>
      <trkpt lat="47.85603" lon="-3.54653">
        <ele>31.361964</ele>
        <time>2022-06-10T01:17:38.316Z</time>
      </trkpt>
      <trkpt lat="47.8555" lon="-3.54675">
        <ele>33.490495</ele>
        <time>2022-06-10T01:18:05.659Z</time>
      </trkpt>
      <trkpt lat="47.85494" lon="-3.54749">
        <ele>36.379122</ele>
        <time>2022-06-10T01:18:41.905Z</time>
      </trkpt>
      <trkpt lat="47.85458" lon="-3.54735">
        <ele>37.871685</ele>
        <time>2022-06-10T01:18:56.916Z</time>
      </trkpt>
      <trkpt lat="47.85448" lon="-3.54716">
        <ele>38.665879</ele>
        <time>2022-06-10T01:19:06.073Z</time>
      </trkpt>
      <trkpt lat="47.85431" lon="-3.54536">
        <ele>44.606252</ele>
        <time>2022-06-10T01:20:03.056Z</time>
      </trkpt>
      <trkpt lat="47.85424" lon="-3.5452">
        <ele>45.244117</ele>
        <time>2022-06-10T01:20:11.822Z</time>
      </trkpt>
      <trkpt lat="47.85334" lon="-3.54481">
        <ele>47.753384</ele>
        <time>2022-06-10T01:20:43.544Z</time>
      </trkpt>
      <trkpt lat="47.8532" lon="-3.54467">
        <ele>48.072745</ele>
        <time>2022-06-10T01:20:50.740Z</time>
      </trkpt>
      <trkpt lat="47.853" lon="-3.5442">
        <ele>48.748414</ele>
        <time>2022-06-10T01:21:01.150Z</time>
      </trkpt>
      <trkpt lat="47.85279" lon="-3.54385">
        <ele>49.337289</ele>
        <time>2022-06-10T01:21:07.074Z</time>
      </trkpt>
      <trkpt lat="47.85262" lon="-3.54375">
        <ele>49.6717</ele>
        <time>2022-06-10T01:21:10.416Z</time>
      </trkpt>
      <trkpt lat="47.85219" lon="-3.54361">
        <ele>50.078257</ele>
        <time>2022-06-10T01:21:18.484Z</time>
      </trkpt>
      <trkpt lat="47.84981" lon="-3.54267">
        <ele>53.873001</ele>
        <time>2022-06-10T01:22:22.288Z</time>
      </trkpt>
      <trkpt lat="47.84981" lon="-3.54267">
        <ele>53.873001</ele>
        <time>2022-06-10T01:22:22.646Z</time>
      </trkpt>
      <trkpt lat="47.84957" lon="-3.54233">
        <ele>54.755106</ele>
        <time>2022-06-10T01:22:35.243Z</time>
      </trkpt>
      <trkpt lat="47.84952" lon="-3.54207">
        <ele>55.243053</ele>
        <time>2022-06-10T01:22:43.267Z</time>
      </trkpt>
      <trkpt lat="47.8495" lon="-3.54105">
        <ele>57.40109</ele>
        <time>2022-06-10T01:23:13.102Z</time>
      </trkpt>
      <trkpt lat="47.84942" lon="-3.54083">
        <ele>57.993367</ele>
        <time>2022-06-10T01:23:21.249Z</time>
      </trkpt>
      <trkpt lat="47.84909" lon="-3.54011">
        <ele>60.040562</ele>
        <time>2022-06-10T01:23:44.192Z</time>
      </trkpt>
      <trkpt lat="47.84877" lon="-3.53918">
        <ele>62.049077</ele>
        <time>2022-06-10T01:24:07.030Z</time>
      </trkpt>
      <trkpt lat="47.84864" lon="-3.53875">
        <ele>61.364453</ele>
        <time>2022-06-10T01:24:16.460Z</time>
      </trkpt>
      <trkpt lat="47.84854" lon="-3.53855">
        <ele>61.006539</ele>
        <time>2022-06-10T01:24:20.522Z</time>
      </trkpt>
      <trkpt lat="47.84856" lon="-3.53848">
        <ele>60.893189</ele>
        <time>2022-06-10T01:24:22.100Z</time>
      </trkpt>
      <trkpt lat="47.84857" lon="-3.53845">
        <ele>60.852066</ele>
        <time>2022-06-10T01:24:22.679Z</time>
      </trkpt>
      <trkpt lat="47.84862" lon="-3.53828">
        <ele>60.582564</ele>
        <time>2022-06-10T01:24:26.454Z</time>
      </trkpt>
      <trkpt lat="47.84895" lon="-3.53645">
        <ele>56.825131</ele>
        <time>2022-06-10T01:24:57.664Z</time>
      </trkpt>
      <trkpt lat="47.849" lon="-3.53617">
        <ele>55.556621</ele>
        <time>2022-06-10T01:25:02.274Z</time>
      </trkpt>
      <trkpt lat="47.84899" lon="-3.53573">
        <ele>53.602609</ele>
        <time>2022-06-10T01:25:09.095Z</time>
      </trkpt>
      <trkpt lat="47.84877" lon="-3.53496">
        <ele>49.864153</ele>
        <time>2022-06-10T01:25:22.027Z</time>
      </trkpt>
      <trkpt lat="47.84874" lon="-3.53463">
        <ele>48.405996</ele>
        <time>2022-06-10T01:25:27.053Z</time>
      </trkpt>
      <trkpt lat="47.84892" lon="-3.53375">
        <ele>44.167706</ele>
        <time>2022-06-10T01:25:40.619Z</time>
      </trkpt>
      <trkpt lat="47.84887" lon="-3.53345">
        <ele>42.674699</ele>
        <time>2022-06-10T01:25:45.350Z</time>
      </trkpt>
      <trkpt lat="47.8482" lon="-3.53244">
        <ele>35.863848</ele>
        <time>2022-06-10T01:26:07.197Z</time>
      </trkpt>
      <trkpt lat="47.84801" lon="-3.53223">
        <ele>34.178631</ele>
        <time>2022-06-10T01:26:12.541Z</time>
      </trkpt>
      <trkpt lat="47.84756" lon="-3.53194">
        <ele>31.249792</ele>
        <time>2022-06-10T01:26:23.750Z</time>
      </trkpt>
      <trkpt lat="47.84733" lon="-3.53204">
        <ele>29.864422</ele>
        <time>2022-06-10T01:26:29.350Z</time>
      </trkpt>
      <trkpt lat="47.8469" lon="-3.53202">
        <ele>27.413847</ele>
        <time>2022-06-10T01:26:39.431Z</time>
      </trkpt>
      <trkpt lat="47.84633" lon="-3.53175">
        <ele>23.954329</ele>
        <time>2022-06-10T01:26:54.015Z</time>
      </trkpt>
      <trkpt lat="47.84462" lon="-3.53094">
        <ele>15.326628</ele>
        <time>2022-06-10T01:27:37.189Z</time>
      </trkpt>
      <trkpt lat="47.84434" lon="-3.53089">
        <ele>14.35291</ele>
        <time>2022-06-10T01:27:44.072Z</time>
      </trkpt>
      <trkpt lat="47.844" lon="-3.53073">
        <ele>13.4252</ele>
        <time>2022-06-10T01:27:53.320Z</time>
      </trkpt>
      <trkpt lat="47.84374" lon="-3.53049">
        <ele>12.619516</ele>
        <time>2022-06-10T01:28:01.210Z</time>
      </trkpt>
      <trkpt lat="47.84389" lon="-3.53103">
        <ele>11.593501</ele>
        <time>2022-06-10T01:28:11.584Z</time>
      </trkpt>
      <trkpt lat="47.84412" lon="-3.53126">
        <ele>10.874301</ele>
        <time>2022-06-10T01:28:18.827Z</time>
      </trkpt>
      <trkpt lat="47.84447" lon="-3.53174">
        <ele>10.209232</ele>
        <time>2022-06-10T01:28:32.736Z</time>
      </trkpt>
      <trkpt lat="47.84442" lon="-3.53185">
        <ele>10.285204</ele>
        <time>2022-06-10T01:28:35.149Z</time>
      </trkpt>
      <trkpt lat="47.84404" lon="-3.53237">
        <ele>10.755107</ele>
        <time>2022-06-10T01:28:54.293Z</time>
      </trkpt>
      <trkpt lat="47.84324" lon="-3.53268">
        <ele>11.497631</ele>
        <time>2022-06-10T01:29:28.076Z</time>
      </trkpt>
      <trkpt lat="47.8429" lon="-3.53326">
        <ele>11.947739</ele>
        <time>2022-06-10T01:29:48.675Z</time>
      </trkpt>
      <trkpt lat="47.84204" lon="-3.53434">
        <ele>12.915249</ele>
        <time>2022-06-10T01:30:30.759Z</time>
      </trkpt>
      <trkpt lat="47.84149" lon="-3.53455">
        <ele>12.963522</ele>
        <time>2022-06-10T01:30:48.653Z</time>
      </trkpt>
      <trkpt lat="47.84116" lon="-3.53446">
        <ele>12.554858</ele>
        <time>2022-06-10T01:30:58.236Z</time>
      </trkpt>
      <trkpt lat="47.8409" lon="-3.53472">
        <ele>12.158357</ele>
        <time>2022-06-10T01:31:07.350Z</time>
      </trkpt>
      <trkpt lat="47.84029" lon="-3.53544">
        <ele>11.1861</ele>
        <time>2022-06-10T01:31:28.829Z</time>
      </trkpt>
      <trkpt lat="47.83982" lon="-3.5358">
        <ele>10.657697</ele>
        <time>2022-06-10T01:31:43.381Z</time>
      </trkpt>
      <trkpt lat="47.83954" lon="-3.53678">
        <ele>10.028572</ele>
        <time>2022-06-10T01:32:03.899Z</time>
      </trkpt>
      <trkpt lat="47.83881" lon="-3.53736">
        <ele>9.502443</ele>
        <time>2022-06-10T01:32:29.907Z</time>
      </trkpt>
      <trkpt lat="47.83834" lon="-3.5381">
        <ele>10.234071</ele>
        <time>2022-06-10T01:32:53.513Z</time>
      </trkpt>
      <trkpt lat="47.83824" lon="-3.53869">
        <ele>10.667991</ele>
        <time>2022-06-10T01:33:10.564Z</time>
      </trkpt>
      <trkpt lat="47.83822" lon="-3.53918">
        <ele>11.023022</ele>
        <time>2022-06-10T01:33:23.826Z</time>
      </trkpt>
      <trkpt lat="47.83763" lon="-3.53947">
        <ele>11.608314</ele>
        <time>2022-06-10T01:33:47.416Z</time>
      </trkpt>
      <trkpt lat="47.83746" lon="-3.54007">
        <ele>11.986768</ele>
        <time>2022-06-10T01:34:04.830Z</time>
      </trkpt>
      <trkpt lat="47.83726" lon="-3.53997">
        <ele>12.167293</ele>
        <time>2022-06-10T01:34:09.124Z</time>
      </trkpt>
      <trkpt lat="47.83673" lon="-3.54004">
        <ele>12.63362</ele>
        <time>2022-06-10T01:34:28.480Z</time>
      </trkpt>
      <trkpt lat="47.83578" lon="-3.54053">
        <ele>12.994476</ele>
        <time>2022-06-10T01:35:00.260Z</time>
      </trkpt>
      <trkpt lat="47.83421" lon="-3.54077">
        <ele>13.490021</ele>
        <time>2022-06-10T01:35:52.642Z</time>
      </trkpt>
      <trkpt lat="47.83252" lon="-3.54144">
        <ele>15.461136</ele>
        <time>2022-06-10T01:36:53.135Z</time>
      </trkpt>
      <trkpt lat="47.8307" lon="-3.54181">
        <ele>21.772236</ele>
        <time>2022-06-10T01:38:21.786Z</time>
      </trkpt>
      <trkpt lat="47.8307" lon="-3.54181">
        <ele>21.772236</ele>
        <time>2022-06-10T01:38:22.784Z</time>
      </trkpt>
      <trkpt lat="47.83089" lon="-3.54201">
        <ele>23.091253</ele>
        <time>2022-06-10T01:38:34.457Z</time>
      </trkpt>
      <trkpt lat="47.83136" lon="-3.54212">
        <ele>25.743206</ele>
        <time>2022-06-10T01:39:00.274Z</time>
      </trkpt>
      <trkpt lat="47.83189" lon="-3.54235">
        <ele>28.835514</ele>
        <time>2022-06-10T01:39:42.698Z</time>
      </trkpt>
      <trkpt lat="47.83116" lon="-3.54266">
        <ele>34.090609</ele>
        <time>2022-06-10T01:40:32.902Z</time>
      </trkpt>
      <trkpt lat="47.83047" lon="-3.54269">
        <ele>38.971091</ele>
        <time>2022-06-10T01:41:19.495Z</time>
      </trkpt>
      <trkpt lat="47.83" lon="-3.54298">
        <ele>41.925984</ele>
        <time>2022-06-10T01:41:52.957Z</time>
      </trkpt>
      <trkpt lat="47.8297" lon="-3.54346">
        <ele>43.094831</ele>
        <time>2022-06-10T01:42:19.699Z</time>
      </trkpt>
      <trkpt lat="47.8297" lon="-3.54346">
        <ele>43.09928</ele>
        <time>2022-06-10T01:42:20.033Z</time>
      </trkpt>
      <trkpt lat="47.82961" lon="-3.54391">
        <ele>43.940492</ele>
        <time>2022-06-10T01:42:35.813Z</time>
      </trkpt>
      <trkpt lat="47.82828" lon="-3.54346">
        <ele>44.493709</ele>
        <time>2022-06-10T01:43:19.724Z</time>
      </trkpt>
      <trkpt lat="47.82598" lon="-3.54272">
        <ele>33.062629</ele>
        <time>2022-06-10T01:44:15.215Z</time>
      </trkpt>
      <trkpt lat="47.82561" lon="-3.54242">
        <ele>30.571705</ele>
        <time>2022-06-10T01:44:24.851Z</time>
      </trkpt>
      <trkpt lat="47.82529" lon="-3.54233">
        <ele>28.631046</ele>
        <time>2022-06-10T01:44:32.413Z</time>
      </trkpt>
      <trkpt lat="47.82504" lon="-3.54216">
        <ele>27.572834</ele>
        <time>2022-06-10T01:44:38.770Z</time>
      </trkpt>
      <trkpt lat="47.8248" lon="-3.54213">
        <ele>26.728405</ele>
        <time>2022-06-10T01:44:44.363Z</time>
      </trkpt>
      <trkpt lat="47.82387" lon="-3.54275">
        <ele>23.048073</ele>
        <time>2022-06-10T01:45:10.444Z</time>
      </trkpt>
      <trkpt lat="47.82374" lon="-3.54291">
        <ele>22.451343</ele>
        <time>2022-06-10T01:45:15.166Z</time>
      </trkpt>
      <trkpt lat="47.82405" lon="-3.54383">
        <ele>22.96724</ele>
        <time>2022-06-10T01:45:36.559Z</time>
      </trkpt>
      <trkpt lat="47.82411" lon="-3.54436">
        <ele>23.608628</ele>
        <time>2022-06-10T01:45:52.960Z</time>
      </trkpt>
      <trkpt lat="47.82387" lon="-3.54533">
        <ele>24.83618</ele>
        <time>2022-06-10T01:46:28.253Z</time>
      </trkpt>
      <trkpt lat="47.8238" lon="-3.54589">
        <ele>25.363598</ele>
        <time>2022-06-10T01:46:45.423Z</time>
      </trkpt>
      <trkpt lat="47.82371" lon="-3.54619">
        <ele>25.601229</ele>
        <time>2022-06-10T01:46:54.652Z</time>
      </trkpt>
      <trkpt lat="47.82354" lon="-3.54627">
        <ele>25.787456</ele>
        <time>2022-06-10T01:47:02.202Z</time>
      </trkpt>
      <trkpt lat="47.82333" lon="-3.54603">
        <ele>26.065377</ele>
        <time>2022-06-10T01:47:12.045Z</time>
      </trkpt>
      <trkpt lat="47.82331" lon="-3.54547">
        <ele>26.46554</ele>
        <time>2022-06-10T01:47:25.107Z</time>
      </trkpt>
      <trkpt lat="47.82319" lon="-3.54479">
        <ele>26.960966</ele>
        <time>2022-06-10T01:47:40.654Z</time>
      </trkpt>
      <trkpt lat="47.8229" lon="-3.54399">
        <ele>27.36928</ele>
        <time>2022-06-10T01:47:58.546Z</time>
      </trkpt>
      <trkpt lat="47.82246" lon="-3.54377">
        <ele>27.652776</ele>
        <time>2022-06-10T01:48:11.637Z</time>
      </trkpt>
      <trkpt lat="47.82198" lon="-3.54379">
        <ele>27.941137</ele>
        <time>2022-06-10T01:48:29.533Z</time>
      </trkpt>
      <trkpt lat="47.82139" lon="-3.54369">
        <ele>29.598429</ele>
        <time>2022-06-10T01:48:58.429Z</time>
      </trkpt>
      <trkpt lat="47.82052" lon="-3.54407">
        <ele>34.606497</ele>
        <time>2022-06-10T01:49:54.939Z</time>
      </trkpt>
      <trkpt lat="47.81998" lon="-3.54436">
        <ele>37.785611</ele>
        <time>2022-06-10T01:50:32.650Z</time>
      </trkpt>
      <trkpt lat="47.81955" lon="-3.54506">
        <ele>40.757695</ele>
        <time>2022-06-10T01:51:12.036Z</time>
      </trkpt>
      <trkpt lat="47.81878" lon="-3.54645">
        <ele>46.348638</ele>
        <time>2022-06-10T01:52:13.702Z</time>
      </trkpt>
      <trkpt lat="47.81846" lon="-3.54688">
        <ele>47.999821</ele>
        <time>2022-06-10T01:52:34.190Z</time>
      </trkpt>
      <trkpt lat="47.81772" lon="-3.54785">
        <ele>51.849742</ele>
        <time>2022-06-10T01:53:27.091Z</time>
      </trkpt>
      <trkpt lat="47.81756" lon="-3.54788">
        <ele>52.437532</ele>
        <time>2022-06-10T01:53:34.388Z</time>
      </trkpt>
      <trkpt lat="47.81733" lon="-3.54763">
        <ele>53.414778</ele>
        <time>2022-06-10T01:53:49.226Z</time>
      </trkpt>
      <trkpt lat="47.817" lon="-3.54696">
        <ele>54.313512</ele>
        <time>2022-06-10T01:54:16.086Z</time>
      </trkpt>
      <trkpt lat="47.81664" lon="-3.54651">
        <ele>55.071586</ele>
        <time>2022-06-10T01:54:36.143Z</time>
      </trkpt>
      <trkpt lat="47.81638" lon="-3.5459">
        <ele>55.847777</ele>
        <time>2022-06-10T01:54:53.989Z</time>
      </trkpt>
      <trkpt lat="47.81583" lon="-3.54515">
        <ele>55.080524</ele>
        <time>2022-06-10T01:55:14.731Z</time>
      </trkpt>
      <trkpt lat="47.81536" lon="-3.54482">
        <ele>53.948116</ele>
        <time>2022-06-10T01:55:28.475Z</time>
      </trkpt>
      <trkpt lat="47.81521" lon="-3.54458">
        <ele>53.475044</ele>
        <time>2022-06-10T01:55:34.211Z</time>
      </trkpt>
      <trkpt lat="47.81507" lon="-3.54448">
        <ele>53.142326</ele>
        <time>2022-06-10T01:55:38.256Z</time>
      </trkpt>
      <trkpt lat="47.81489" lon="-3.54367">
        <ele>51.9907</ele>
        <time>2022-06-10T01:55:53.501Z</time>
      </trkpt>
      <trkpt lat="47.81463" lon="-3.54344">
        <ele>51.489236</ele>
        <time>2022-06-10T01:56:01.576Z</time>
      </trkpt>
      <trkpt lat="47.81448" lon="-3.54339">
        <ele>51.230033</ele>
        <time>2022-06-10T01:56:05.874Z</time>
      </trkpt>
      <trkpt lat="47.81416" lon="-3.54248">
        <ele>50.0689</ele>
        <time>2022-06-10T01:56:25.571Z</time>
      </trkpt>
      <trkpt lat="47.81392" lon="-3.54149">
        <ele>49.078913</ele>
        <time>2022-06-10T01:56:45.980Z</time>
      </trkpt>
      <trkpt lat="47.81311" lon="-3.54134">
        <ele>48.343719</ele>
        <time>2022-06-10T01:57:09.709Z</time>
      </trkpt>
      <trkpt lat="47.81271" lon="-3.54107">
        <ele>47.950504</ele>
        <time>2022-06-10T01:57:22.501Z</time>
      </trkpt>
      <trkpt lat="47.80867" lon="-3.53591">
        <ele>46.551375</ele>
        <time>2022-06-10T02:00:07.457Z</time>
      </trkpt>
      <trkpt lat="47.80699" lon="-3.53331">
        <ele>48.103859</ele>
        <time>2022-06-10T02:01:32.929Z</time>
      </trkpt>
      <trkpt lat="47.80721" lon="-3.53278">
        <ele>48.512396</ele>
        <time>2022-06-10T02:01:50.226Z</time>
      </trkpt>
      <trkpt lat="47.80785" lon="-3.53229">
        <ele>49.214459</ele>
        <time>2022-06-10T02:02:18.443Z</time>
      </trkpt>
      <trkpt lat="47.80825" lon="-3.5318">
        <ele>49.311121</ele>
        <time>2022-06-10T02:02:36.270Z</time>
      </trkpt>
      <trkpt lat="47.80844" lon="-3.53133">
        <ele>48.347704</ele>
        <time>2022-06-10T02:02:47.213Z</time>
      </trkpt>
      <trkpt lat="47.80856" lon="-3.53065">
        <ele>47.130421</ele>
        <time>2022-06-10T02:02:59.874Z</time>
      </trkpt>
      <trkpt lat="47.80884" lon="-3.52999">
        <ele>45.749521</ele>
        <time>2022-06-10T02:03:13.455Z</time>
      </trkpt>
      <trkpt lat="47.80979" lon="-3.52907">
        <ele>39.763043</ele>
        <time>2022-06-10T02:03:40.171Z</time>
      </trkpt>
      <trkpt lat="47.80989" lon="-3.52872">
        <ele>38.132976</ele>
        <time>2022-06-10T02:03:46.198Z</time>
      </trkpt>
      <trkpt lat="47.80988" lon="-3.52834">
        <ele>36.516375</ele>
        <time>2022-06-10T02:03:52.008Z</time>
      </trkpt>
      <trkpt lat="47.80968" lon="-3.52714">
        <ele>31.138524</ele>
        <time>2022-06-10T02:04:10.511Z</time>
      </trkpt>
      <trkpt lat="47.80968" lon="-3.52714">
        <ele>31.129619</ele>
        <time>2022-06-10T02:04:10.572Z</time>
      </trkpt>
      <trkpt lat="47.80933" lon="-3.52627">
        <ele>26.638774</ele>
        <time>2022-06-10T02:04:25.994Z</time>
      </trkpt>
      <trkpt lat="47.80891" lon="-3.52579">
        <ele>23.088815</ele>
        <time>2022-06-10T02:04:38.187Z</time>
      </trkpt>
      <trkpt lat="47.80702" lon="-3.52648">
        <ele>15.26641</ele>
        <time>2022-06-10T02:05:27.990Z</time>
      </trkpt>
      <trkpt lat="47.80608" lon="-3.52705">
        <ele>13.411479</ele>
        <time>2022-06-10T02:05:54.062Z</time>
      </trkpt>
      <trkpt lat="47.80553" lon="-3.52722">
        <ele>12.479183</ele>
        <time>2022-06-10T02:06:09.505Z</time>
      </trkpt>
      <trkpt lat="47.80528" lon="-3.52729">
        <ele>12.054386</ele>
        <time>2022-06-10T02:06:17.799Z</time>
      </trkpt>
      <trkpt lat="47.80522" lon="-3.52729">
        <ele>12.013631</ele>
        <time>2022-06-10T02:06:20.330Z</time>
      </trkpt>
      <trkpt lat="47.80463" lon="-3.52731">
        <ele>14.695905</ele>
        <time>2022-06-10T02:06:48.967Z</time>
      </trkpt>
      <trkpt lat="47.804" lon="-3.52726">
        <ele>17.57758</ele>
        <time>2022-06-10T02:07:23.580Z</time>
      </trkpt>
      <trkpt lat="47.80393" lon="-3.52724">
        <ele>17.88862</ele>
        <time>2022-06-10T02:07:27.962Z</time>
      </trkpt>
      <trkpt lat="47.80374" lon="-3.52712">
        <ele>18.861049</ele>
        <time>2022-06-10T02:07:41.291Z</time>
      </trkpt>
      <trkpt lat="47.80353" lon="-3.52703">
        <ele>19.863049</ele>
        <time>2022-06-10T02:07:56.304Z</time>
      </trkpt>
      <trkpt lat="47.80325" lon="-3.52708">
        <ele>21.608759</ele>
        <time>2022-06-10T02:08:14.246Z</time>
      </trkpt>
      <trkpt lat="47.80275" lon="-3.52757">
        <ele>25.688218</ele>
        <time>2022-06-10T02:08:54.518Z</time>
      </trkpt>
      <trkpt lat="47.8025" lon="-3.52767">
        <ele>27.433907</ele>
        <time>2022-06-10T02:09:11.132Z</time>
      </trkpt>
      <trkpt lat="47.80215" lon="-3.52778">
        <ele>29.803284</ele>
        <time>2022-06-10T02:09:31.878Z</time>
      </trkpt>
      <trkpt lat="47.80185" lon="-3.52804">
        <ele>32.171877</ele>
        <time>2022-06-10T02:09:49.110Z</time>
      </trkpt>
      <trkpt lat="47.80112" lon="-3.52913">
        <ele>35.642047</ele>
        <time>2022-06-10T02:10:31.002Z</time>
      </trkpt>
      <trkpt lat="47.8007" lon="-3.53029">
        <ele>38.055846</ele>
        <time>2022-06-10T02:11:00.342Z</time>
      </trkpt>
      <trkpt lat="47.80057" lon="-3.53045">
        <ele>37.790711</ele>
        <time>2022-06-10T02:11:04.807Z</time>
      </trkpt>
      <trkpt lat="47.80044" lon="-3.5305">
        <ele>37.586146</ele>
        <time>2022-06-10T02:11:08.008Z</time>
      </trkpt>
      <trkpt lat="47.80041" lon="-3.52564">
        <ele>29.45819</ele>
        <time>2022-06-10T02:11:55.997Z</time>
      </trkpt>
      <trkpt lat="47.80037" lon="-3.5248">
        <ele>25.721153</ele>
        <time>2022-06-10T02:12:03.388Z</time>
      </trkpt>
      <trkpt lat="47.80031" lon="-3.52445">
        <ele>24.123816</ele>
        <time>2022-06-10T02:12:06.435Z</time>
      </trkpt>
      <trkpt lat="47.80011" lon="-3.52387">
        <ele>21.249068</ele>
        <time>2022-06-10T02:12:11.868Z</time>
      </trkpt>
      <trkpt lat="47.79971" lon="-3.52326">
        <ele>17.71461</ele>
        <time>2022-06-10T02:12:18.887Z</time>
      </trkpt>
      <trkpt lat="47.79914" lon="-3.52291">
        <ele>15.486859</ele>
        <time>2022-06-10T02:12:26.700Z</time>
      </trkpt>
      <trkpt lat="47.79884" lon="-3.52286">
        <ele>14.42354</ele>
        <time>2022-06-10T02:12:30.762Z</time>
      </trkpt>
      <trkpt lat="47.79843" lon="-3.52293">
        <ele>12.954648</ele>
        <time>2022-06-10T02:12:36.851Z</time>
      </trkpt>
      <trkpt lat="47.79812" lon="-3.52304">
        <ele>11.823804</ele>
        <time>2022-06-10T02:12:43.249Z</time>
      </trkpt>
      <trkpt lat="47.7972" lon="-3.5234">
        <ele>17.193064</ele>
        <time>2022-06-10T02:13:25.807Z</time>
      </trkpt>
      <trkpt lat="47.79625" lon="-3.52372">
        <ele>23.335823</ele>
        <time>2022-06-10T02:14:28.825Z</time>
      </trkpt>
      <trkpt lat="47.7959" lon="-3.52385">
        <ele>25.231184</ele>
        <time>2022-06-10T02:14:50.394Z</time>
      </trkpt>
      <trkpt lat="47.7957" lon="-3.52393">
        <ele>26.380087</ele>
        <time>2022-06-10T02:15:02.082Z</time>
      </trkpt>
      <trkpt lat="47.7953" lon="-3.52406">
        <ele>28.574624</ele>
        <time>2022-06-10T02:15:22.128Z</time>
      </trkpt>
      <trkpt lat="47.79498" lon="-3.52417">
        <ele>30.334538</ele>
        <time>2022-06-10T02:15:35.448Z</time>
      </trkpt>
      <trkpt lat="47.79478" lon="-3.52421">
        <ele>31.394606</ele>
        <time>2022-06-10T02:15:42.392Z</time>
      </trkpt>
      <trkpt lat="47.79398" lon="-3.52435">
        <ele>32.796254</ele>
        <time>2022-06-10T02:16:02.828Z</time>
      </trkpt>
      <trkpt lat="47.79334" lon="-3.52418">
        <ele>32.974384</ele>
        <time>2022-06-10T02:16:15.016Z</time>
      </trkpt>
      <trkpt lat="47.79292" lon="-3.52388">
        <ele>33.105274</ele>
        <time>2022-06-10T02:16:23.181Z</time>
      </trkpt>
      <trkpt lat="47.79265" lon="-3.52357">
        <ele>32.984827</ele>
        <time>2022-06-10T02:16:28.869Z</time>
      </trkpt>
      <trkpt lat="47.79238" lon="-3.52308">
        <ele>32.718152</ele>
        <time>2022-06-10T02:16:36.203Z</time>
      </trkpt>
      <trkpt lat="47.79225" lon="-3.5227">
        <ele>32.538547</ele>
        <time>2022-06-10T02:16:41.381Z</time>
      </trkpt>
      <trkpt lat="47.79217" lon="-3.52235">
        <ele>32.382716</ele>
        <time>2022-06-10T02:16:46.103Z</time>
      </trkpt>
      <trkpt lat="47.7921" lon="-3.52174">
        <ele>32.12338</ele>
        <time>2022-06-10T02:16:53.747Z</time>
      </trkpt>
      <trkpt lat="47.79212" lon="-3.51998">
        <ele>30.820519</ele>
        <time>2022-06-10T02:17:13.717Z</time>
      </trkpt>
      <trkpt lat="47.79212" lon="-3.51975">
        <ele>30.638658</ele>
        <time>2022-06-10T02:17:16.270Z</time>
      </trkpt>
      <trkpt lat="47.79209" lon="-3.5197">
        <ele>30.580044</ele>
        <time>2022-06-10T02:17:17.530Z</time>
      </trkpt>
      <trkpt lat="47.79211" lon="-3.51874">
        <ele>29.800569</ele>
        <time>2022-06-10T02:17:35.981Z</time>
      </trkpt>
      <trkpt lat="47.79203" lon="-3.51833">
        <ele>29.36962</ele>
        <time>2022-06-10T02:17:43.865Z</time>
      </trkpt>
      <trkpt lat="47.792" lon="-3.51768">
        <ele>28.718101</ele>
        <time>2022-06-10T02:17:56.080Z</time>
      </trkpt>
      <trkpt lat="47.79216" lon="-3.51694">
        <ele>27.933031</ele>
        <time>2022-06-10T02:18:10.646Z</time>
      </trkpt>
      <trkpt lat="47.79217" lon="-3.51673">
        <ele>27.728329</ele>
        <time>2022-06-10T02:18:14.485Z</time>
      </trkpt>
      <trkpt lat="47.79206" lon="-3.51612">
        <ele>27.113043</ele>
        <time>2022-06-10T02:18:26.934Z</time>
      </trkpt>
      <trkpt lat="47.79192" lon="-3.51604">
        <ele>26.92889</ele>
        <time>2022-06-10T02:18:31.816Z</time>
      </trkpt>
      <trkpt lat="47.79068" lon="-3.51584">
        <ele>25.424622</ele>
        <time>2022-06-10T02:19:08.367Z</time>
      </trkpt>
      <trkpt lat="47.7901" lon="-3.51582">
        <ele>24.495577</ele>
        <time>2022-06-10T02:19:24.439Z</time>
      </trkpt>
      <trkpt lat="47.78928" lon="-3.516">
        <ele>22.752578</ele>
        <time>2022-06-10T02:19:46.062Z</time>
      </trkpt>
      <trkpt lat="47.7889" lon="-3.51594">
        <ele>21.954091</ele>
        <time>2022-06-10T02:19:55.888Z</time>
      </trkpt>
      <trkpt lat="47.78778" lon="-3.51531">
        <ele>22.327551</ele>
        <time>2022-06-10T02:20:32.152Z</time>
      </trkpt>
      <trkpt lat="47.78759" lon="-3.51528">
        <ele>22.586938</ele>
        <time>2022-06-10T02:20:39.953Z</time>
      </trkpt>
      <trkpt lat="47.78631" lon="-3.51477">
        <ele>26.095559</ele>
        <time>2022-06-10T02:21:45.341Z</time>
      </trkpt>
      <trkpt lat="47.78632" lon="-3.51344">
        <ele>30.015148</ele>
        <time>2022-06-10T02:22:37.910Z</time>
      </trkpt>
      <trkpt lat="47.7862" lon="-3.50989">
        <ele>39.12442</ele>
        <time>2022-06-10T02:24:40.962Z</time>
      </trkpt>
      <trkpt lat="47.78615" lon="-3.50956">
        <ele>39.644794</ele>
        <time>2022-06-10T02:24:50.750Z</time>
      </trkpt>
      <trkpt lat="47.78575" lon="-3.50899">
        <ele>40.921038</ele>
        <time>2022-06-10T02:25:14.817Z</time>
      </trkpt>
      <trkpt lat="47.78552" lon="-3.50799">
        <ele>42.554299</ele>
        <time>2022-06-10T02:25:43.372Z</time>
      </trkpt>
      <trkpt lat="47.78603" lon="-3.50773">
        <ele>43.126429</ele>
        <time>2022-06-10T02:25:56.796Z</time>
      </trkpt>
      <trkpt lat="47.78616" lon="-3.50739">
        <ele>43.364776</ele>
        <time>2022-06-10T02:26:02.928Z</time>
      </trkpt>
      <trkpt lat="47.78636" lon="-3.50714">
        <ele>43.600338</ele>
        <time>2022-06-10T02:26:08.956Z</time>
      </trkpt>
      <trkpt lat="47.78652" lon="-3.50679">
        <ele>43.866114</ele>
        <time>2022-06-10T02:26:16.167Z</time>
      </trkpt>
      <trkpt lat="47.78672" lon="-3.50637">
        <ele>44.177017</ele>
        <time>2022-06-10T02:26:24.756Z</time>
      </trkpt>
      <trkpt lat="47.78734" lon="-3.50613">
        <ele>44.757145</ele>
        <time>2022-06-10T02:26:40.604Z</time>
      </trkpt>
      <trkpt lat="47.7877" lon="-3.50612">
        <ele>45.083404</ele>
        <time>2022-06-10T02:26:52.797Z</time>
      </trkpt>
      <trkpt lat="47.78838" lon="-3.50646">
        <ele>45.731909</ele>
        <time>2022-06-10T02:27:17.513Z</time>
      </trkpt>
      <trkpt lat="47.78838" lon="-3.50646">
        <ele>45.731909</ele>
        <time>2022-06-10T02:27:17.693Z</time>
      </trkpt>
      <trkpt lat="47.78924" lon="-3.50659">
        <ele>46.908642</ele>
        <time>2022-06-10T02:27:52.306Z</time>
      </trkpt>
      <trkpt lat="47.78967" lon="-3.50645">
        <ele>47.59091</ele>
        <time>2022-06-10T02:28:10.435Z</time>
      </trkpt>
      <trkpt lat="47.78988" lon="-3.50616">
        <ele>48.039906</ele>
        <time>2022-06-10T02:28:23.096Z</time>
      </trkpt>
      <trkpt lat="47.79007" lon="-3.506">
        <ele>48.373283</ele>
        <time>2022-06-10T02:28:31.843Z</time>
      </trkpt>
      <trkpt lat="47.79062" lon="-3.50634">
        <ele>48.57298</ele>
        <time>2022-06-10T02:28:52.680Z</time>
      </trkpt>
      <trkpt lat="47.79096" lon="-3.50649">
        <ele>48.429225</ele>
        <time>2022-06-10T02:29:04.528Z</time>
      </trkpt>
      <trkpt lat="47.7911" lon="-3.50647">
        <ele>48.372479</ele>
        <time>2022-06-10T02:29:09.789Z</time>
      </trkpt>
      <trkpt lat="47.79153" lon="-3.50644">
        <ele>48.196104</ele>
        <time>2022-06-10T02:29:22.550Z</time>
      </trkpt>
      <trkpt lat="47.79256" lon="-3.50688">
        <ele>46.562576</ele>
        <time>2022-06-10T02:29:52.069Z</time>
      </trkpt>
      <trkpt lat="47.79204" lon="-3.50586">
        <ele>44.387927</ele>
        <time>2022-06-10T02:30:14.829Z</time>
      </trkpt>
      <trkpt lat="47.79122" lon="-3.5049">
        <ele>40.480859</ele>
        <time>2022-06-10T02:30:42.072Z</time>
      </trkpt>
      <trkpt lat="47.79112" lon="-3.50451">
        <ele>39.25312</ele>
        <time>2022-06-10T02:30:48.768Z</time>
      </trkpt>
      <trkpt lat="47.79117" lon="-3.50416">
        <ele>38.187703</ele>
        <time>2022-06-10T02:30:54.551Z</time>
      </trkpt>
      <trkpt lat="47.79079" lon="-3.50283">
        <ele>33.521764</ele>
        <time>2022-06-10T02:31:17.846Z</time>
      </trkpt>
      <trkpt lat="47.79079" lon="-3.50283">
        <ele>33.521764</ele>
        <time>2022-06-10T02:31:17.926Z</time>
      </trkpt>
      <trkpt lat="47.79065" lon="-3.50264">
        <ele>32.463866</ele>
        <time>2022-06-10T02:31:22.511Z</time>
      </trkpt>
      <trkpt lat="47.78931" lon="-3.50215">
        <ele>25.237746</ele>
        <time>2022-06-10T02:31:54.958Z</time>
      </trkpt>
      <trkpt lat="47.78914" lon="-3.50209">
        <ele>24.739367</ele>
        <time>2022-06-10T02:31:59.376Z</time>
      </trkpt>
      <trkpt lat="47.78849" lon="-3.50185">
        <ele>22.837385</ele>
        <time>2022-06-10T02:32:16.764Z</time>
      </trkpt>
      <trkpt lat="47.78826" lon="-3.50141">
        <ele>21.773183</ele>
        <time>2022-06-10T02:32:26.814Z</time>
      </trkpt>
      <trkpt lat="47.78802" lon="-3.50122">
        <ele>20.989974</ele>
        <time>2022-06-10T02:32:34.468Z</time>
      </trkpt>
      <trkpt lat="47.78718" lon="-3.50113">
        <ele>20.08616</ele>
        <time>2022-06-10T02:32:59.392Z</time>
      </trkpt>
      <trkpt lat="47.78706" lon="-3.50102">
        <ele>19.995896</ele>
        <time>2022-06-10T02:33:03.657Z</time>
      </trkpt>
      <trkpt lat="47.7863" lon="-3.49982">
        <ele>19.299223</ele>
        <time>2022-06-10T02:33:37.873Z</time>
      </trkpt>
      <trkpt lat="47.78604" lon="-3.49932">
        <ele>19.058529</ele>
        <time>2022-06-10T02:33:50.753Z</time>
      </trkpt>
      <trkpt lat="47.78591" lon="-3.49835">
        <ele>18.680687</ele>
        <time>2022-06-10T02:34:11.079Z</time>
      </trkpt>
      <trkpt lat="47.78581" lon="-3.49791">
        <ele>18.506346</ele>
        <time>2022-06-10T02:34:20.301Z</time>
      </trkpt>
      <trkpt lat="47.78553" lon="-3.4973">
        <ele>18.16258</ele>
        <time>2022-06-10T02:34:35.065Z</time>
      </trkpt>
      <trkpt lat="47.78447" lon="-3.49658">
        <ele>17.196568</ele>
        <time>2022-06-10T02:35:09.376Z</time>
      </trkpt>
      <trkpt lat="47.78425" lon="-3.49692">
        <ele>16.93227</ele>
        <time>2022-06-10T02:35:18.658Z</time>
      </trkpt>
      <trkpt lat="47.78413" lon="-3.497">
        <ele>16.853382</ele>
        <time>2022-06-10T02:35:22.539Z</time>
      </trkpt>
      <trkpt lat="47.78407" lon="-3.4971">
        <ele>16.85313</ele>
        <time>2022-06-10T02:35:25.205Z</time>
      </trkpt>
      <trkpt lat="47.78401" lon="-3.49704">
        <ele>16.852926</ele>
        <time>2022-06-10T02:35:26.435Z</time>
      </trkpt>
      <trkpt lat="47.78386" lon="-3.49709">
        <ele>16.852495</ele>
        <time>2022-06-10T02:35:29.080Z</time>
      </trkpt>
      <trkpt lat="47.78383" lon="-3.49689">
        <ele>16.852112</ele>
        <time>2022-06-10T02:35:31.450Z</time>
      </trkpt>
      <trkpt lat="47.78391" lon="-3.49685">
        <ele>16.851858</ele>
        <time>2022-06-10T02:35:32.997Z</time>
      </trkpt>
      <trkpt lat="47.78391" lon="-3.49685">
        <ele>16.851858</ele>
        <time>2022-06-10T02:35:33.010Z</time>
      </trkpt>
      <trkpt lat="47.78394" lon="-3.49669">
        <ele>16.851533</ele>
        <time>2022-06-10T02:35:37.924Z</time>
      </trkpt>
      <trkpt lat="47.78394" lon="-3.49669">
        <ele>16.851526</ele>
        <time>2022-06-10T02:35:37.951Z</time>
      </trkpt>
      <trkpt lat="47.78397" lon="-3.49665">
        <ele>16.851405</ele>
        <time>2022-06-10T02:35:38.775Z</time>
      </trkpt>
      <trkpt lat="47.78419" lon="-3.49639">
        <ele>16.850618</ele>
        <time>2022-06-10T02:35:43.846Z</time>
      </trkpt>
      <trkpt lat="47.78425" lon="-3.49627">
        <ele>16.850337</ele>
        <time>2022-06-10T02:35:45.851Z</time>
      </trkpt>
      <trkpt lat="47.78425" lon="-3.49627">
        <ele>16.850337</ele>
        <time>2022-06-10T02:35:45.859Z</time>
      </trkpt>
      <trkpt lat="47.78398" lon="-3.49605">
        <ele>16.849484</ele>
        <time>2022-06-10T02:35:58.744Z</time>
      </trkpt>
      <trkpt lat="47.78314" lon="-3.49542">
        <ele>18.348311</ele>
        <time>2022-06-10T02:36:35.115Z</time>
      </trkpt>
      <trkpt lat="47.78314" lon="-3.49542">
        <ele>18.348311</ele>
        <time>2022-06-10T02:36:35.234Z</time>
      </trkpt>
      <trkpt lat="47.78314" lon="-3.49542">
        <ele>18.348311</ele>
        <time>2022-06-10T02:36:35.250Z</time>
      </trkpt>
      <trkpt lat="47.78308" lon="-3.49562">
        <ele>18.756739</ele>
        <time>2022-06-10T02:36:42.134Z</time>
      </trkpt>
      <trkpt lat="47.78278" lon="-3.49537">
        <ele>19.684943</ele>
        <time>2022-06-10T02:36:59.098Z</time>
      </trkpt>
      <trkpt lat="47.78241" lon="-3.49516">
        <ele>20.760698</ele>
        <time>2022-06-10T02:37:18.821Z</time>
      </trkpt>
      <trkpt lat="47.78175" lon="-3.49493">
        <ele>22.296681</ele>
        <time>2022-06-10T02:37:52.230Z</time>
      </trkpt>
      <trkpt lat="47.78174" lon="-3.49483">
        <ele>22.417666</ele>
        <time>2022-06-10T02:37:55.344Z</time>
      </trkpt>
      <trkpt lat="47.78154" lon="-3.49482">
        <ele>22.782131</ele>
        <time>2022-06-10T02:38:05.362Z</time>
      </trkpt>
      <trkpt lat="47.78137" lon="-3.49494">
        <ele>23.134529</ele>
        <time>2022-06-10T02:38:14.096Z</time>
      </trkpt>
      <trkpt lat="47.78124" lon="-3.4953">
        <ele>23.630787</ele>
        <time>2022-06-10T02:38:25.128Z</time>
      </trkpt>
      <trkpt lat="47.78109" lon="-3.49554">
        <ele>24.032946</ele>
        <time>2022-06-10T02:38:34.137Z</time>
      </trkpt>
      <trkpt lat="47.78021" lon="-3.49606">
        <ele>24.547186</ele>
        <time>2022-06-10T02:39:04.048Z</time>
      </trkpt>
      <trkpt lat="47.77997" lon="-3.49613">
        <ele>24.303986</ele>
        <time>2022-06-10T02:39:10.755Z</time>
      </trkpt>
      <trkpt lat="47.77993" lon="-3.49623">
        <ele>24.223657</ele>
        <time>2022-06-10T02:39:13.077Z</time>
      </trkpt>
      <trkpt lat="47.77947" lon="-3.49671">
        <ele>23.654102</ele>
        <time>2022-06-10T02:39:29.078Z</time>
      </trkpt>
      <trkpt lat="47.77896" lon="-3.49763">
        <ele>22.814292</ele>
        <time>2022-06-10T02:39:51.907Z</time>
      </trkpt>
      <trkpt lat="47.77896" lon="-3.49775">
        <ele>22.720951</ele>
        <time>2022-06-10T02:39:54.348Z</time>
      </trkpt>
      <trkpt lat="47.77887" lon="-3.49786">
        <ele>22.593724</ele>
        <time>2022-06-10T02:39:57.631Z</time>
      </trkpt>
      <trkpt lat="47.77818" lon="-3.49843">
        <ele>21.709177</ele>
        <time>2022-06-10T02:40:20.437Z</time>
      </trkpt>
      <trkpt lat="47.77783" lon="-3.4984">
        <ele>21.306199</ele>
        <time>2022-06-10T02:40:30.864Z</time>
      </trkpt>
      <trkpt lat="47.77751" lon="-3.49802">
        <ele>20.868892</ele>
        <time>2022-06-10T02:40:42.739Z</time>
      </trkpt>
      <trkpt lat="47.77683" lon="-3.49671">
        <ele>19.703722</ele>
        <time>2022-06-10T02:41:14.692Z</time>
      </trkpt>
      <trkpt lat="47.77677" lon="-3.49645">
        <ele>19.506899</ele>
        <time>2022-06-10T02:41:20.124Z</time>
      </trkpt>
      <trkpt lat="47.77643" lon="-3.49589">
        <ele>19.418192</ele>
        <time>2022-06-10T02:41:35.014Z</time>
      </trkpt>
      <trkpt lat="47.7762" lon="-3.49602">
        <ele>19.570752</ele>
        <time>2022-06-10T02:41:42.487Z</time>
      </trkpt>
      <trkpt lat="47.77616" lon="-3.49623">
        <ele>19.661357</ele>
        <time>2022-06-10T02:41:48.255Z</time>
      </trkpt>
      <trkpt lat="47.77593" lon="-3.49659">
        <ele>19.868363</ele>
        <time>2022-06-10T02:42:02.411Z</time>
      </trkpt>
      <trkpt lat="47.77584" lon="-3.49695">
        <ele>20.025069</ele>
        <time>2022-06-10T02:42:13.650Z</time>
      </trkpt>
      <trkpt lat="47.77577" lon="-3.49691">
        <ele>20.073915</ele>
        <time>2022-06-10T02:42:16.812Z</time>
      </trkpt>
      <trkpt lat="47.77573" lon="-3.49599">
        <ele>20.221992</ele>
        <time>2022-06-10T02:42:37.545Z</time>
      </trkpt>
      <trkpt lat="47.77559" lon="-3.49643">
        <ele>19.908763</ele>
        <time>2022-06-10T02:42:47.674Z</time>
      </trkpt>
      <trkpt lat="47.77552" lon="-3.4964">
        <ele>19.839512</ele>
        <time>2022-06-10T02:42:49.810Z</time>
      </trkpt>
      <trkpt lat="47.77529" lon="-3.49635">
        <ele>19.608317</ele>
        <time>2022-06-10T02:42:56.993Z</time>
      </trkpt>
      <trkpt lat="47.77522" lon="-3.49636">
        <ele>19.545133</ele>
        <time>2022-06-10T02:42:59.013Z</time>
      </trkpt>
      <trkpt lat="47.77511" lon="-3.49735">
        <ele>18.895565</ele>
        <time>2022-06-10T02:43:18.417Z</time>
      </trkpt>
      <trkpt lat="47.77489" lon="-3.49818">
        <ele>17.779981</ele>
        <time>2022-06-10T02:43:34.794Z</time>
      </trkpt>
      <trkpt lat="47.77434" lon="-3.49849">
        <ele>16.236577</ele>
        <time>2022-06-10T02:43:49.078Z</time>
      </trkpt>
      <trkpt lat="47.77329" lon="-3.49831">
        <ele>13.917081</ele>
        <time>2022-06-10T02:44:17.605Z</time>
      </trkpt>
      <trkpt lat="47.77274" lon="-3.49845">
        <ele>14.065002</ele>
        <time>2022-06-10T02:44:34.589Z</time>
      </trkpt>
      <trkpt lat="47.77237" lon="-3.49836">
        <ele>14.165992</ele>
        <time>2022-06-10T02:44:47.250Z</time>
      </trkpt>
      <trkpt lat="47.77177" lon="-3.49811">
        <ele>14.331286</ele>
        <time>2022-06-10T02:45:10.380Z</time>
      </trkpt>
      <trkpt lat="47.77138" lon="-3.49776">
        <ele>15.313608</ele>
        <time>2022-06-10T02:45:31.431Z</time>
      </trkpt>
      <trkpt lat="47.77087" lon="-3.49748">
        <ele>16.676624</ele>
        <time>2022-06-10T02:45:58.606Z</time>
      </trkpt>
      <trkpt lat="47.77063" lon="-3.49754">
        <ele>17.303244</ele>
        <time>2022-06-10T02:46:10.221Z</time>
      </trkpt>
      <trkpt lat="47.77035" lon="-3.49683">
        <ele>18.700373</ele>
        <time>2022-06-10T02:46:34.834Z</time>
      </trkpt>
      <trkpt lat="47.77021" lon="-3.49677">
        <ele>18.8879</ele>
        <time>2022-06-10T02:46:40.460Z</time>
      </trkpt>
      <trkpt lat="47.77009" lon="-3.49706">
        <ele>18.88665</ele>
        <time>2022-06-10T02:46:48.124Z</time>
      </trkpt>
      <trkpt lat="47.76974" lon="-3.49784">
        <ele>18.883298</ele>
        <time>2022-06-10T02:47:09.287Z</time>
      </trkpt>
      <trkpt lat="47.76957" lon="-3.4988">
        <ele>18.879735</ele>
        <time>2022-06-10T02:47:29.284Z</time>
      </trkpt>
      <trkpt lat="47.76946" lon="-3.49891">
        <ele>18.879027</ele>
        <time>2022-06-10T02:47:32.700Z</time>
      </trkpt>
      <trkpt lat="47.7691" lon="-3.49909">
        <ele>18.569567</ele>
        <time>2022-06-10T02:47:43.495Z</time>
      </trkpt>
      <trkpt lat="47.76892" lon="-3.49926">
        <ele>18.34882</ele>
        <time>2022-06-10T02:47:51.160Z</time>
      </trkpt>
      <trkpt lat="47.76873" lon="-3.4993">
        <ele>18.154273</ele>
        <time>2022-06-10T02:47:56.380Z</time>
      </trkpt>
      <trkpt lat="47.76851" lon="-3.49921">
        <ele>17.921149</ele>
        <time>2022-06-10T02:48:03.267Z</time>
      </trkpt>
      <trkpt lat="47.76827" lon="-3.49886">
        <ele>17.578049</ele>
        <time>2022-06-10T02:48:13.163Z</time>
      </trkpt>
      <trkpt lat="47.76786" lon="-3.49806">
        <ele>16.647768</ele>
        <time>2022-06-10T02:48:33.243Z</time>
      </trkpt>
      <trkpt lat="47.76759" lon="-3.49834">
        <ele>15.804895</ele>
        <time>2022-06-10T02:48:42.459Z</time>
      </trkpt>
      <trkpt lat="47.76745" lon="-3.49857">
        <ele>15.283322</ele>
        <time>2022-06-10T02:48:47.968Z</time>
      </trkpt>
      <trkpt lat="47.76707" lon="-3.49979">
        <ele>12.964973</ele>
        <time>2022-06-10T02:49:11.728Z</time>
      </trkpt>
      <trkpt lat="47.7669" lon="-3.50067">
        <ele>10.920193</ele>
        <time>2022-06-10T02:49:26.884Z</time>
      </trkpt>
      <trkpt lat="47.76683" lon="-3.50192">
        <ele>7.773074</ele>
        <time>2022-06-10T02:49:47.699Z</time>
      </trkpt>
      <trkpt lat="47.76673" lon="-3.50227">
        <ele>6.837343</ele>
        <time>2022-06-10T02:49:54.000Z</time>
      </trkpt>
      <trkpt lat="47.76651" lon="-3.50218">
        <ele>5.96014</ele>
        <time>2022-06-10T02:50:00.200Z</time>
      </trkpt>
      <trkpt lat="47.76608" lon="-3.50272">
        <ele>5.061027</ele>
        <time>2022-06-10T02:50:15.346Z</time>
      </trkpt>
      <trkpt lat="47.76604" lon="-3.50273">
        <ele>5.00434</ele>
        <time>2022-06-10T02:50:16.651Z</time>
      </trkpt>
      <trkpt lat="47.76593" lon="-3.5025">
        <ele>4.743024</ele>
        <time>2022-06-10T02:50:22.056Z</time>
      </trkpt>
      <trkpt lat="47.76598" lon="-3.50148">
        <ele>3.806713</ele>
        <time>2022-06-10T02:50:41.758Z</time>
      </trkpt>
      <trkpt lat="47.76592" lon="-3.50119">
        <ele>3.526081</ele>
        <time>2022-06-10T02:50:47.693Z</time>
      </trkpt>
      <trkpt lat="47.76592" lon="-3.50028">
        <ele>3.653988</ele>
        <time>2022-06-10T02:51:07.411Z</time>
      </trkpt>
      <trkpt lat="47.76591" lon="-3.50027">
        <ele>3.657755</ele>
        <time>2022-06-10T02:51:07.597Z</time>
      </trkpt>
      <trkpt lat="47.76572" lon="-3.4993">
        <ele>4.227047</ele>
        <time>2022-06-10T02:51:32.170Z</time>
      </trkpt>
      <trkpt lat="47.7657" lon="-3.49881">
        <ele>4.501847</ele>
        <time>2022-06-10T02:51:44.855Z</time>
      </trkpt>
      <trkpt lat="47.76575" lon="-3.49843">
        <ele>4.722821</ele>
        <time>2022-06-10T02:51:55.339Z</time>
      </trkpt>
      <trkpt lat="47.76597" lon="-3.49795">
        <ele>5.371353</ele>
        <time>2022-06-10T02:52:11.161Z</time>
      </trkpt>
      <trkpt lat="47.76624" lon="-3.49356">
        <ele>10.388601</ele>
        <time>2022-06-10T02:54:14.746Z</time>
      </trkpt>
      <trkpt lat="47.76565" lon="-3.49355">
        <ele>10.926293</ele>
        <time>2022-06-10T02:54:26.244Z</time>
      </trkpt>
      <trkpt lat="47.76571" lon="-3.49245">
        <ele>11.087229</ele>
        <time>2022-06-10T02:54:49.893Z</time>
      </trkpt>
      <trkpt lat="47.76518" lon="-3.49245">
        <ele>11.202829</ele>
        <time>2022-06-10T02:55:06.187Z</time>
      </trkpt>
      <trkpt lat="47.76494" lon="-3.49261">
        <ele>11.259565</ele>
        <time>2022-06-10T02:55:15.282Z</time>
      </trkpt>
      <trkpt lat="47.76428" lon="-3.49256">
        <ele>12.085515</ele>
        <time>2022-06-10T02:55:41.041Z</time>
      </trkpt>
      <trkpt lat="47.76434" lon="-3.49281">
        <ele>12.308406</ele>
        <time>2022-06-10T02:55:47.465Z</time>
      </trkpt>
      <trkpt lat="47.76431" lon="-3.49302">
        <ele>12.487194</ele>
        <time>2022-06-10T02:55:53.008Z</time>
      </trkpt>
      <trkpt lat="47.76422" lon="-3.49326">
        <ele>12.719115</ele>
        <time>2022-06-10T02:55:59.788Z</time>
      </trkpt>
      <trkpt lat="47.76417" lon="-3.4942">
        <ele>13.523183</ele>
        <time>2022-06-10T02:56:24.830Z</time>
      </trkpt>
      <trkpt lat="47.76406" lon="-3.4944">
        <ele>13.989055</ele>
        <time>2022-06-10T02:56:31.584Z</time>
      </trkpt>
      <trkpt lat="47.76391" lon="-3.49449">
        <ele>14.443271</ele>
        <time>2022-06-10T02:56:38.368Z</time>
      </trkpt>
      <trkpt lat="47.76378" lon="-3.49568">
        <ele>16.69764</ele>
        <time>2022-06-10T02:57:13.822Z</time>
      </trkpt>
      <trkpt lat="47.76197" lon="-3.49441">
        <ele>23.057995</ele>
        <time>2022-06-10T02:58:56.722Z</time>
      </trkpt>
      <trkpt lat="47.76139" lon="-3.49583">
        <ele>23.999038</ele>
        <time>2022-06-10T02:59:43.815Z</time>
      </trkpt>
      <trkpt lat="47.76092" lon="-3.49569">
        <ele>23.574553</ele>
        <time>2022-06-10T02:59:58.453Z</time>
      </trkpt>
      <trkpt lat="47.76049" lon="-3.49773">
        <ele>19.045963</ele>
        <time>2022-06-10T03:00:33.776Z</time>
      </trkpt>
      <trkpt lat="47.76047" lon="-3.49983">
        <ele>12.556357</ele>
        <time>2022-06-10T03:01:06.702Z</time>
      </trkpt>
      <trkpt lat="47.75907" lon="-3.50157">
        <ele>7.552747</ele>
        <time>2022-06-10T03:01:55.318Z</time>
      </trkpt>
      <trkpt lat="47.75919" lon="-3.50189">
        <ele>7.394765</ele>
        <time>2022-06-10T03:02:02.972Z</time>
      </trkpt>
      <trkpt lat="47.75908" lon="-3.50212">
        <ele>7.274048</ele>
        <time>2022-06-10T03:02:09.103Z</time>
      </trkpt>
      <trkpt lat="47.75918" lon="-3.50281">
        <ele>6.968879</ele>
        <time>2022-06-10T03:02:24.208Z</time>
      </trkpt>
      <trkpt lat="47.75912" lon="-3.50327">
        <ele>6.768328</ele>
        <time>2022-06-10T03:02:34.438Z</time>
      </trkpt>
      <trkpt lat="47.75906" lon="-3.50372">
        <ele>6.632273</ele>
        <time>2022-06-10T03:02:44.946Z</time>
      </trkpt>
      <trkpt lat="47.75889" lon="-3.50432">
        <ele>6.531715</ele>
        <time>2022-06-10T03:02:59.656Z</time>
      </trkpt>
      <trkpt lat="47.75869" lon="-3.50463">
        <ele>6.467435</ele>
        <time>2022-06-10T03:03:08.417Z</time>
      </trkpt>
      <trkpt lat="47.75833" lon="-3.50501">
        <ele>6.364627</ele>
        <time>2022-06-10T03:03:21.937Z</time>
      </trkpt>
      <trkpt lat="47.75821" lon="-3.5049">
        <ele>6.333545</ele>
        <time>2022-06-10T03:03:25.908Z</time>
      </trkpt>
      <trkpt lat="47.75796" lon="-3.5052">
        <ele>6.259947</ele>
        <time>2022-06-10T03:03:35.492Z</time>
      </trkpt>
      <trkpt lat="47.75728" lon="-3.50614">
        <ele>6.220305</ele>
        <time>2022-06-10T03:04:04.739Z</time>
      </trkpt>
      <trkpt lat="47.75693" lon="-3.50612">
        <ele>6.206277</ele>
        <time>2022-06-10T03:04:16.515Z</time>
      </trkpt>
      <trkpt lat="47.75671" lon="-3.50586">
        <ele>6.195109</ele>
        <time>2022-06-10T03:04:25.641Z</time>
      </trkpt>
      <trkpt lat="47.75659" lon="-3.50598">
        <ele>6.189245</ele>
        <time>2022-06-10T03:04:30.327Z</time>
      </trkpt>
      <trkpt lat="47.75599" lon="-3.50661">
        <ele>6.107128</ele>
        <time>2022-06-10T03:04:53.538Z</time>
      </trkpt>
      <trkpt lat="47.75579" lon="-3.50703">
        <ele>6.062851</ele>
        <time>2022-06-10T03:05:05.367Z</time>
      </trkpt>
      <trkpt lat="47.75529" lon="-3.50909">
        <ele>6.131724</ele>
        <time>2022-06-10T03:05:50.327Z</time>
      </trkpt>
      <trkpt lat="47.75512" lon="-3.50897">
        <ele>6.180709</ele>
        <time>2022-06-10T03:05:53.755Z</time>
      </trkpt>
      <trkpt lat="47.75506" lon="-3.50906">
        <ele>6.204456</ele>
        <time>2022-06-10T03:05:56.395Z</time>
      </trkpt>
      <trkpt lat="47.75497" lon="-3.50902">
        <ele>6.230456</ele>
        <time>2022-06-10T03:05:59.399Z</time>
      </trkpt>
      <trkpt lat="47.75442" lon="-3.5083">
        <ele>6.424082</ele>
        <time>2022-06-10T03:06:24.764Z</time>
      </trkpt>
      <trkpt lat="47.75419" lon="-3.5081">
        <ele>7.154</ele>
        <time>2022-06-10T03:06:35.804Z</time>
      </trkpt>
      <trkpt lat="47.75397" lon="-3.50798">
        <ele>7.919232</ele>
        <time>2022-06-10T03:06:46.387Z</time>
      </trkpt>
      <trkpt lat="47.75317" lon="-3.50773">
        <ele>10.610412</ele>
        <time>2022-06-10T03:07:26.985Z</time>
      </trkpt>
      <trkpt lat="47.75312" lon="-3.50774">
        <ele>10.7723</ele>
        <time>2022-06-10T03:07:29.766Z</time>
      </trkpt>
      <trkpt lat="47.7528" lon="-3.50775">
        <ele>11.824971</ele>
        <time>2022-06-10T03:07:46.538Z</time>
      </trkpt>
      <trkpt lat="47.75247" lon="-3.50762">
        <ele>12.995507</ele>
        <time>2022-06-10T03:08:05.159Z</time>
      </trkpt>
      <trkpt lat="47.75235" lon="-3.50745">
        <ele>13.580939</ele>
        <time>2022-06-10T03:08:15.065Z</time>
      </trkpt>
      <trkpt lat="47.75217" lon="-3.50742">
        <ele>14.200287</ele>
        <time>2022-06-10T03:08:23.830Z</time>
      </trkpt>
      <trkpt lat="47.75181" lon="-3.50721">
        <ele>15.578692</ele>
        <time>2022-06-10T03:08:44.267Z</time>
      </trkpt>
      <trkpt lat="47.75129" lon="-3.50736">
        <ele>17.43118</ele>
        <time>2022-06-10T03:09:10.664Z</time>
      </trkpt>
      <trkpt lat="47.75087" lon="-3.50728">
        <ele>18.743073</ele>
        <time>2022-06-10T03:09:29.027Z</time>
      </trkpt>
      <trkpt lat="47.75076" lon="-3.50718">
        <ele>18.827769</ele>
        <time>2022-06-10T03:09:34.018Z</time>
      </trkpt>
      <trkpt lat="47.75071" lon="-3.50697">
        <ele>18.924228</ele>
        <time>2022-06-10T03:09:39.982Z</time>
      </trkpt>
      <trkpt lat="47.75073" lon="-3.50675">
        <ele>19.021241</ele>
        <time>2022-06-10T03:09:45.528Z</time>
      </trkpt>
      <trkpt lat="47.75065" lon="-3.50678">
        <ele>19.074175</ele>
        <time>2022-06-10T03:09:48.640Z</time>
      </trkpt>
      <trkpt lat="47.75038" lon="-3.50569">
        <ele>19.572068</ele>
        <time>2022-06-10T03:10:15.649Z</time>
      </trkpt>
      <trkpt lat="47.75036" lon="-3.50565">
        <ele>19.596747</ele>
        <time>2022-06-10T03:10:16.823Z</time>
      </trkpt>
      <trkpt lat="47.75036" lon="-3.50561">
        <ele>19.61398</ele>
        <time>2022-06-10T03:10:17.626Z</time>
      </trkpt>
      <trkpt lat="47.75018" lon="-3.50573">
        <ele>19.740997</ele>
        <time>2022-06-10T03:10:21.482Z</time>
      </trkpt>
      <trkpt lat="47.75013" lon="-3.50567">
        <ele>19.784769</ele>
        <time>2022-06-10T03:10:23.545Z</time>
      </trkpt>
      <trkpt lat="47.74984" lon="-3.50536">
        <ele>19.489045</ele>
        <time>2022-06-10T03:10:34.088Z</time>
      </trkpt>
      <trkpt lat="47.74939" lon="-3.5046">
        <ele>18.498464</ele>
        <time>2022-06-10T03:10:53.297Z</time>
      </trkpt>
      <trkpt lat="47.74929" lon="-3.50434">
        <ele>18.196677</ele>
        <time>2022-06-10T03:10:58.961Z</time>
      </trkpt>
      <trkpt lat="47.74921" lon="-3.50447">
        <ele>18.012216</ele>
        <time>2022-06-10T03:11:02.473Z</time>
      </trkpt>
      <trkpt lat="47.74899" lon="-3.50447">
        <ele>17.697002</ele>
        <time>2022-06-10T03:11:08.362Z</time>
      </trkpt>
      <trkpt lat="47.74878" lon="-3.50445">
        <ele>17.383712</ele>
        <time>2022-06-10T03:11:23.132Z</time>
      </trkpt>
      <trkpt lat="47.74878" lon="-3.50445">
        <ele>17.383712</ele>
        <time>2022-06-10T03:11:23.142Z</time>
      </trkpt>
      <trkpt lat="47.74878" lon="-3.50445">
        <ele>17.381732</ele>
        <time>2022-06-10T03:11:23.200Z</time>
      </trkpt>
      <trkpt lat="47.74873" lon="-3.50413">
        <ele>16.997339</ele>
        <time>2022-06-10T03:11:32.649Z</time>
      </trkpt>
      <trkpt lat="47.74851" lon="-3.50317">
        <ele>15.596641</ele>
        <time>2022-06-10T03:12:01.819Z</time>
      </trkpt>
      <trkpt lat="47.74841" lon="-3.50289">
        <ele>15.158782</ele>
        <time>2022-06-10T03:12:10.938Z</time>
      </trkpt>
      <trkpt lat="47.74823" lon="-3.5026">
        <ele>14.613719</ele>
        <time>2022-06-10T03:12:22.289Z</time>
      </trkpt>
      <trkpt lat="47.74798" lon="-3.50274">
        <ele>14.065034</ele>
        <time>2022-06-10T03:12:33.715Z</time>
      </trkpt>
      <trkpt lat="47.74798" lon="-3.50274">
        <ele>14.059141</ele>
        <time>2022-06-10T03:12:33.857Z</time>
      </trkpt>
      <trkpt lat="47.74798" lon="-3.50274">
        <ele>14.057087</ele>
        <time>2022-06-10T03:12:33.953Z</time>
      </trkpt>
      <trkpt lat="47.74765" lon="-3.50279">
        <ele>13.348492</ele>
        <time>2022-06-10T03:12:56.644Z</time>
      </trkpt>
      <trkpt lat="47.74746" lon="-3.50295">
        <ele>12.764625</ele>
        <time>2022-06-10T03:13:11.959Z</time>
      </trkpt>
      <trkpt lat="47.74741" lon="-3.50299">
        <ele>12.626173</ele>
        <time>2022-06-10T03:13:15.600Z</time>
      </trkpt>
      <trkpt lat="47.74731" lon="-3.5035">
        <ele>11.669254</ele>
        <time>2022-06-10T03:13:40.733Z</time>
      </trkpt>
      <trkpt lat="47.74731" lon="-3.5035">
        <ele>11.664818</ele>
        <time>2022-06-10T03:13:40.853Z</time>
      </trkpt>
      <trkpt lat="47.74726" lon="-3.50358">
        <ele>11.468465</ele>
        <time>2022-06-10T03:13:46.012Z</time>
      </trkpt>
      <trkpt lat="47.74698" lon="-3.50358">
        <ele>10.737757</ele>
        <time>2022-06-10T03:14:05.172Z</time>
      </trkpt>
      <trkpt lat="47.74689" lon="-3.50389">
        <ele>10.143218</ele>
        <time>2022-06-10T03:14:20.784Z</time>
      </trkpt>
      <trkpt lat="47.74641" lon="-3.50369">
        <ele>8.828622</ele>
        <time>2022-06-10T03:14:55.324Z</time>
      </trkpt>
      <trkpt lat="47.74636" lon="-3.50375">
        <ele>8.652847</ele>
        <time>2022-06-10T03:15:00.081Z</time>
      </trkpt>
      <trkpt lat="47.74623" lon="-3.50369">
        <ele>8.323121</ele>
        <time>2022-06-10T03:15:09.143Z</time>
      </trkpt>
      <trkpt lat="47.74618" lon="-3.50408">
        <ele>7.644571</ele>
        <time>2022-06-10T03:15:13.184Z</time>
      </trkpt>
      <trkpt lat="47.74612" lon="-3.50451">
        <ele>6.906343</ele>
        <time>2022-06-10T03:15:17.389Z</time>
      </trkpt>
      <trkpt lat="47.74602" lon="-3.50446">
        <ele>6.634958</ele>
        <time>2022-06-10T03:15:20.443Z</time>
      </trkpt>
      <trkpt lat="47.74559" lon="-3.50441">
        <ele>5.545337</ele>
        <time>2022-06-10T03:15:32.011Z</time>
      </trkpt>
      <trkpt lat="47.74542" lon="-3.50428">
        <ele>5.065729</ele>
        <time>2022-06-10T03:15:37.034Z</time>
      </trkpt>
      <trkpt lat="47.7454" lon="-3.50418">
        <ele>4.888914</ele>
        <time>2022-06-10T03:15:39.257Z</time>
      </trkpt>
      <trkpt lat="47.74506" lon="-3.50381">
        <ele>3.995912</ele>
        <time>2022-06-10T03:15:50.442Z</time>
      </trkpt>
      <trkpt lat="47.7448" lon="-3.50373">
        <ele>3.625001</ele>
        <time>2022-06-10T03:15:57.458Z</time>
      </trkpt>
      <trkpt lat="47.74411" lon="-3.5035">
        <ele>2.617448</ele>
        <time>2022-06-10T03:16:17.666Z</time>
      </trkpt>
      <trkpt lat="47.74372" lon="-3.50336">
        <ele>2.044612</ele>
        <time>2022-06-10T03:16:29.687Z</time>
      </trkpt>
      <trkpt lat="47.74336" lon="-3.50341">
        <ele>1.594885</ele>
        <time>2022-06-10T03:16:40.434Z</time>
      </trkpt>
      <trkpt lat="47.7431" lon="-3.50337">
        <ele>1.430667</ele>
        <time>2022-06-10T03:16:48.171Z</time>
      </trkpt>
      <trkpt lat="47.743" lon="-3.50324">
        <ele>1.350999</ele>
        <time>2022-06-10T03:16:52.007Z</time>
      </trkpt>
      <trkpt lat="47.7429" lon="-3.50332">
        <ele>1.283289</ele>
        <time>2022-06-10T03:16:55.067Z</time>
      </trkpt>
      <trkpt lat="47.74277" lon="-3.50327">
        <ele>1.195814</ele>
        <time>2022-06-10T03:16:59.369Z</time>
      </trkpt>
      <trkpt lat="47.74277" lon="-3.50321">
        <ele>1.170684</ele>
        <time>2022-06-10T03:17:00.345Z</time>
      </trkpt>
      <trkpt lat="47.74271" lon="-3.50301">
        <ele>1.081972</ele>
        <time>2022-06-10T03:17:03.517Z</time>
      </trkpt>
      <trkpt lat="47.74257" lon="-3.50296">
        <ele>0.988342</ele>
        <time>2022-06-10T03:17:07.079Z</time>
      </trkpt>
      <trkpt lat="47.74242" lon="-3.50293">
        <ele>0.897892</ele>
        <time>2022-06-10T03:17:10.614Z</time>
      </trkpt>
      <trkpt lat="47.74229" lon="-3.50282">
        <ele>0.802763</ele>
        <time>2022-06-10T03:17:14.195Z</time>
      </trkpt>
      <trkpt lat="47.74215" lon="-3.50272">
        <ele>0.706523</ele>
        <time>2022-06-10T03:17:18.273Z</time>
      </trkpt>
      <trkpt lat="47.7421" lon="-3.50274">
        <ele>0.678583</ele>
        <time>2022-06-10T03:17:19.391Z</time>
      </trkpt>
      <trkpt lat="47.74206" lon="-3.50279">
        <ele>0.643727</ele>
        <time>2022-06-10T03:17:21.010Z</time>
      </trkpt>
      <trkpt lat="47.74198" lon="-3.50273">
        <ele>0.585687</ele>
        <time>2022-06-10T03:17:23.856Z</time>
      </trkpt>
      <trkpt lat="47.74182" lon="-3.50264">
        <ele>0.529945</ele>
        <time>2022-06-10T03:17:29.463Z</time>
      </trkpt>
      <trkpt lat="47.74144" lon="-3.50258">
        <ele>0.530564</ele>
        <time>2022-06-10T03:17:41.128Z</time>
      </trkpt>
      <trkpt lat="47.74116" lon="-3.50261">
        <ele>0.53102</ele>
        <time>2022-06-10T03:17:50.088Z</time>
      </trkpt>
      <trkpt lat="47.7409" lon="-3.50244">
        <ele>0.531483</ele>
        <time>2022-06-10T03:17:59.098Z</time>
      </trkpt>
      <trkpt lat="47.74062" lon="-3.50208">
        <ele>0.532085</ele>
        <time>2022-06-10T03:18:10.760Z</time>
      </trkpt>
      <trkpt lat="47.74054" lon="-3.50189">
        <ele>0.532335</ele>
        <time>2022-06-10T03:18:15.600Z</time>
      </trkpt>
      <trkpt lat="47.74015" lon="-3.50211">
        <ele>0.709955</ele>
        <time>2022-06-10T03:18:24.143Z</time>
      </trkpt>
      <trkpt lat="47.74005" lon="-3.50231">
        <ele>0.879122</ele>
        <time>2022-06-10T03:18:27.652Z</time>
      </trkpt>
      <trkpt lat="47.74034" lon="-3.50243">
        <ele>1.191473</ele>
        <time>2022-06-10T03:18:34.214Z</time>
      </trkpt>
      <trkpt lat="47.74032" lon="-3.50251">
        <ele>1.248767</ele>
        <time>2022-06-10T03:18:36.150Z</time>
      </trkpt>
      <trkpt lat="47.74016" lon="-3.50243">
        <ele>1.431887</ele>
        <time>2022-06-10T03:18:40.454Z</time>
      </trkpt>
      <trkpt lat="47.73877" lon="-3.50183">
        <ele>3.236234</ele>
        <time>2022-06-10T03:19:22.683Z</time>
      </trkpt>
      <trkpt lat="47.73802" lon="-3.5015">
        <ele>4.530003</ele>
        <time>2022-06-10T03:19:47.184Z</time>
      </trkpt>
      <trkpt lat="47.73782" lon="-3.50145">
        <ele>4.853099</ele>
        <time>2022-06-10T03:19:52.974Z</time>
      </trkpt>
      <trkpt lat="47.7377" lon="-3.50139">
        <ele>5.074825</ele>
        <time>2022-06-10T03:19:56.864Z</time>
      </trkpt>
      <trkpt lat="47.73753" lon="-3.50133">
        <ele>5.357339</ele>
        <time>2022-06-10T03:20:01.673Z</time>
      </trkpt>
      <trkpt lat="47.73731" lon="-3.50139">
        <ele>5.36743</ele>
        <time>2022-06-10T03:20:07.891Z</time>
      </trkpt>
      <trkpt lat="47.73669" lon="-3.50126">
        <ele>5.36743</ele>
        <time>2022-06-10T03:20:23.792Z</time>
      </trkpt>
      <trkpt lat="47.73602" lon="-3.50101">
        <ele>5.36743</ele>
        <time>2022-06-10T03:20:39.088Z</time>
      </trkpt>
      <trkpt lat="47.73605" lon="-3.50088">
        <ele>5.36743</ele>
        <time>2022-06-10T03:20:41.012Z</time>
      </trkpt>
      <trkpt lat="47.73574" lon="-3.50064">
        <ele>5.36743</ele>
        <time>2022-06-10T03:20:47.607Z</time>
      </trkpt>
    </trkseg>
  </trk>
</gpx>